<?xml version="1.0" encoding="UTF-8" standalone="no" ?>
<gpx xmlns="http://www.topografix.com/GPX/1/1" xmlns:xsi="http://www.w3.org/2001/XMLSchema-instance" xsi:schemaLocation="http://www.topografix.com/GPX/1/1 http://www.topografix.com/GPX/1/1/gpx.xsd" version="1.1" creator="VisuGPX - https://www.visugpx.com">
  <metadata>
    <name>Cadaques J16</name>
    <desc><![CDATA[File with points/tracks from Locus Map/4.25.1]]></desc>
  </metadata>
  <trk>
    <name><![CDATA[2024-10-01 Broto J16]]></name>
    <extensions>
      <line xmlns="http://www.topografix.com/GPX/gpx_style/0/2">
        <color>0000FF</color>
        <opacity>0.70</opacity>
        <width>6.0</width>
      </line>
    </extensions>
    <trkseg>
      <trkpt lat="42.40777" lon="0.39814">
        <ele>712.19</ele>
        <time>2024-10-01T06:50:50.999Z</time>
      </trkpt>
      <trkpt lat="42.40785" lon="0.39811">
        <ele>710.99</ele>
        <time>2024-10-01T06:52:43.000Z</time>
      </trkpt>
      <trkpt lat="42.40795" lon="0.39814">
        <ele>710.93</ele>
        <time>2024-10-01T06:52:48.000Z</time>
      </trkpt>
      <trkpt lat="42.40805" lon="0.39808">
        <ele>710.79</ele>
        <time>2024-10-01T06:52:53.000Z</time>
      </trkpt>
      <trkpt lat="42.40816" lon="0.39802">
        <ele>710.61</ele>
        <time>2024-10-01T06:52:58.000Z</time>
      </trkpt>
      <trkpt lat="42.40828" lon="0.39796">
        <ele>710.42</ele>
        <time>2024-10-01T06:53:03.000Z</time>
      </trkpt>
      <trkpt lat="42.40841" lon="0.39793">
        <ele>710.22</ele>
        <time>2024-10-01T06:53:08.000Z</time>
      </trkpt>
      <trkpt lat="42.40854" lon="0.39787">
        <ele>710</ele>
        <time>2024-10-01T06:53:13.000Z</time>
      </trkpt>
      <trkpt lat="42.40867" lon="0.39783">
        <ele>709.8</ele>
        <time>2024-10-01T06:53:18.000Z</time>
      </trkpt>
      <trkpt lat="42.40872" lon="0.39767">
        <ele>709.31</ele>
        <time>2024-10-01T06:53:23.000Z</time>
      </trkpt>
      <trkpt lat="42.40867" lon="0.39743">
        <ele>708.6</ele>
        <time>2024-10-01T06:53:28.000Z</time>
      </trkpt>
      <trkpt lat="42.40863" lon="0.39715">
        <ele>707.84</ele>
        <time>2024-10-01T06:53:33.000Z</time>
      </trkpt>
      <trkpt lat="42.40859" lon="0.39683">
        <ele>707.41</ele>
        <time>2024-10-01T06:53:38.000Z</time>
      </trkpt>
      <trkpt lat="42.40855" lon="0.39649">
        <ele>707.04</ele>
        <time>2024-10-01T06:53:43.000Z</time>
      </trkpt>
      <trkpt lat="42.40851" lon="0.39615">
        <ele>706.67</ele>
        <time>2024-10-01T06:53:48.000Z</time>
      </trkpt>
      <trkpt lat="42.40827" lon="0.39607">
        <ele>706.45</ele>
        <time>2024-10-01T06:53:53.000Z</time>
      </trkpt>
      <trkpt lat="42.40807" lon="0.39598">
        <ele>706.27</ele>
        <time>2024-10-01T06:53:58.000Z</time>
      </trkpt>
      <trkpt lat="42.40802" lon="0.39567">
        <ele>706.01</ele>
        <time>2024-10-01T06:54:03.000Z</time>
      </trkpt>
      <trkpt lat="42.40796" lon="0.39537">
        <ele>705.67</ele>
        <time>2024-10-01T06:54:08.000Z</time>
      </trkpt>
      <trkpt lat="42.40788" lon="0.39504">
        <ele>705.29</ele>
        <time>2024-10-01T06:54:13.000Z</time>
      </trkpt>
      <trkpt lat="42.4078" lon="0.3947">
        <ele>704.95</ele>
        <time>2024-10-01T06:54:18.000Z</time>
      </trkpt>
      <trkpt lat="42.40775" lon="0.39448">
        <ele>704.86</ele>
        <time>2024-10-01T06:54:23.000Z</time>
      </trkpt>
      <trkpt lat="42.40766" lon="0.39439">
        <ele>704.81</ele>
        <time>2024-10-01T06:54:28.000Z</time>
      </trkpt>
      <trkpt lat="42.40758" lon="0.39444">
        <ele>704.09</ele>
        <time>2024-10-01T06:55:25.000Z</time>
      </trkpt>
      <trkpt lat="42.40747" lon="0.39451">
        <ele>703.68</ele>
        <time>2024-10-01T06:55:36.000Z</time>
      </trkpt>
      <trkpt lat="42.40732" lon="0.39459">
        <ele>703.47</ele>
        <time>2024-10-01T06:55:41.000Z</time>
      </trkpt>
      <trkpt lat="42.40719" lon="0.39465">
        <ele>703.29</ele>
        <time>2024-10-01T06:55:46.000Z</time>
      </trkpt>
      <trkpt lat="42.40702" lon="0.39474">
        <ele>703.12</ele>
        <time>2024-10-01T06:55:51.000Z</time>
      </trkpt>
      <trkpt lat="42.40684" lon="0.39483">
        <ele>702.95</ele>
        <time>2024-10-01T06:55:56.000Z</time>
      </trkpt>
      <trkpt lat="42.40666" lon="0.39492">
        <ele>701.99</ele>
        <time>2024-10-01T06:56:01.000Z</time>
      </trkpt>
      <trkpt lat="42.40645" lon="0.39502">
        <ele>701.47</ele>
        <time>2024-10-01T06:56:06.000Z</time>
      </trkpt>
      <trkpt lat="42.40622" lon="0.39511">
        <ele>701.27</ele>
        <time>2024-10-01T06:56:11.000Z</time>
      </trkpt>
      <trkpt lat="42.40597" lon="0.39522">
        <ele>701.14</ele>
        <time>2024-10-01T06:56:16.000Z</time>
      </trkpt>
      <trkpt lat="42.40571" lon="0.39533">
        <ele>700.96</ele>
        <time>2024-10-01T06:56:21.000Z</time>
      </trkpt>
      <trkpt lat="42.40543" lon="0.39546">
        <ele>700.78</ele>
        <time>2024-10-01T06:56:26.000Z</time>
      </trkpt>
      <trkpt lat="42.40513" lon="0.39559">
        <ele>700.62</ele>
        <time>2024-10-01T06:56:31.000Z</time>
      </trkpt>
      <trkpt lat="42.40484" lon="0.39572">
        <ele>700.35</ele>
        <time>2024-10-01T06:56:36.000Z</time>
      </trkpt>
      <trkpt lat="42.40456" lon="0.39584">
        <ele>699.9</ele>
        <time>2024-10-01T06:56:41.000Z</time>
      </trkpt>
      <trkpt lat="42.40427" lon="0.39597">
        <ele>699.47</ele>
        <time>2024-10-01T06:56:46.000Z</time>
      </trkpt>
      <trkpt lat="42.40396" lon="0.3961">
        <ele>699.19</ele>
        <time>2024-10-01T06:56:51.000Z</time>
      </trkpt>
      <trkpt lat="42.40367" lon="0.39623">
        <ele>698.89</ele>
        <time>2024-10-01T06:56:56.000Z</time>
      </trkpt>
      <trkpt lat="42.40339" lon="0.39636">
        <ele>698.62</ele>
        <time>2024-10-01T06:57:01.000Z</time>
      </trkpt>
      <trkpt lat="42.40312" lon="0.39649">
        <ele>698.03</ele>
        <time>2024-10-01T06:57:06.000Z</time>
      </trkpt>
      <trkpt lat="42.40284" lon="0.39661">
        <ele>697.14</ele>
        <time>2024-10-01T06:57:11.000Z</time>
      </trkpt>
      <trkpt lat="42.4026" lon="0.39674">
        <ele>696.51</ele>
        <time>2024-10-01T06:57:16.000Z</time>
      </trkpt>
      <trkpt lat="42.40236" lon="0.39685">
        <ele>696.09</ele>
        <time>2024-10-01T06:57:21.000Z</time>
      </trkpt>
      <trkpt lat="42.40211" lon="0.3969">
        <ele>696</ele>
        <time>2024-10-01T06:57:26.000Z</time>
      </trkpt>
      <trkpt lat="42.40186" lon="0.3968">
        <ele>696.15</ele>
        <time>2024-10-01T06:57:31.000Z</time>
      </trkpt>
      <trkpt lat="42.4016" lon="0.39686">
        <ele>696.32</ele>
        <time>2024-10-01T06:57:36.000Z</time>
      </trkpt>
      <trkpt lat="42.40142" lon="0.39717">
        <ele>696.32</ele>
        <time>2024-10-01T06:57:41.000Z</time>
      </trkpt>
      <trkpt lat="42.4012" lon="0.39737">
        <ele>696.1</ele>
        <time>2024-10-01T06:57:46.000Z</time>
      </trkpt>
      <trkpt lat="42.40094" lon="0.39748">
        <ele>695.83</ele>
        <time>2024-10-01T06:57:51.000Z</time>
      </trkpt>
      <trkpt lat="42.40068" lon="0.3976">
        <ele>695.46</ele>
        <time>2024-10-01T06:57:56.000Z</time>
      </trkpt>
      <trkpt lat="42.40042" lon="0.39772">
        <ele>694.89</ele>
        <time>2024-10-01T06:58:01.000Z</time>
      </trkpt>
      <trkpt lat="42.40016" lon="0.39783">
        <ele>694.31</ele>
        <time>2024-10-01T06:58:06.000Z</time>
      </trkpt>
      <trkpt lat="42.39992" lon="0.39794">
        <ele>694.15</ele>
        <time>2024-10-01T06:58:11.000Z</time>
      </trkpt>
      <trkpt lat="42.39968" lon="0.39805">
        <ele>694.19</ele>
        <time>2024-10-01T06:58:16.000Z</time>
      </trkpt>
      <trkpt lat="42.39944" lon="0.39816">
        <ele>694.25</ele>
        <time>2024-10-01T06:58:21.000Z</time>
      </trkpt>
      <trkpt lat="42.3992" lon="0.39824">
        <ele>694.26</ele>
        <time>2024-10-01T06:58:26.000Z</time>
      </trkpt>
      <trkpt lat="42.39898" lon="0.39831">
        <ele>694.04</ele>
        <time>2024-10-01T06:58:31.000Z</time>
      </trkpt>
      <trkpt lat="42.39876" lon="0.39835">
        <ele>693.93</ele>
        <time>2024-10-01T06:58:36.000Z</time>
      </trkpt>
      <trkpt lat="42.39859" lon="0.39837">
        <ele>693.86</ele>
        <time>2024-10-01T06:58:41.000Z</time>
      </trkpt>
      <trkpt lat="42.39847" lon="0.39836">
        <ele>693.83</ele>
        <time>2024-10-01T06:58:46.000Z</time>
      </trkpt>
      <trkpt lat="42.39836" lon="0.39838">
        <ele>693.27</ele>
        <time>2024-10-01T07:00:33.000Z</time>
      </trkpt>
      <trkpt lat="42.39821" lon="0.39842">
        <ele>693.06</ele>
        <time>2024-10-01T07:00:38.000Z</time>
      </trkpt>
      <trkpt lat="42.39803" lon="0.39842">
        <ele>692.31</ele>
        <time>2024-10-01T07:00:43.000Z</time>
      </trkpt>
      <trkpt lat="42.39783" lon="0.39843">
        <ele>691.86</ele>
        <time>2024-10-01T07:00:48.000Z</time>
      </trkpt>
      <trkpt lat="42.39765" lon="0.39844">
        <ele>691.8</ele>
        <time>2024-10-01T07:00:53.000Z</time>
      </trkpt>
      <trkpt lat="42.39748" lon="0.39845">
        <ele>691.8</ele>
        <time>2024-10-01T07:00:58.000Z</time>
      </trkpt>
      <trkpt lat="42.39729" lon="0.39845">
        <ele>691.85</ele>
        <time>2024-10-01T07:01:03.000Z</time>
      </trkpt>
      <trkpt lat="42.3971" lon="0.39847">
        <ele>691.98</ele>
        <time>2024-10-01T07:01:08.000Z</time>
      </trkpt>
      <trkpt lat="42.39691" lon="0.39847">
        <ele>692.06</ele>
        <time>2024-10-01T07:01:13.000Z</time>
      </trkpt>
      <trkpt lat="42.39672" lon="0.39848">
        <ele>692.11</ele>
        <time>2024-10-01T07:01:18.000Z</time>
      </trkpt>
      <trkpt lat="42.3965" lon="0.39849">
        <ele>692.05</ele>
        <time>2024-10-01T07:01:23.000Z</time>
      </trkpt>
      <trkpt lat="42.39629" lon="0.39849">
        <ele>692.13</ele>
        <time>2024-10-01T07:01:28.000Z</time>
      </trkpt>
      <trkpt lat="42.39606" lon="0.39851">
        <ele>692.21</ele>
        <time>2024-10-01T07:01:33.000Z</time>
      </trkpt>
      <trkpt lat="42.38835" lon="0.39793">
        <ele>675.99</ele>
        <time>2024-10-01T07:03:14.000Z</time>
      </trkpt>
      <trkpt lat="42.38802" lon="0.39783">
        <ele>674.38</ele>
        <time>2024-10-01T07:03:19.000Z</time>
      </trkpt>
      <trkpt lat="42.38779" lon="0.39777">
        <ele>673.56</ele>
        <time>2024-10-01T07:03:24.000Z</time>
      </trkpt>
      <trkpt lat="42.3877" lon="0.39772">
        <ele>673.02</ele>
        <time>2024-10-01T07:04:36.000Z</time>
      </trkpt>
      <trkpt lat="42.3876" lon="0.39771">
        <ele>672.82</ele>
        <time>2024-10-01T07:04:41.000Z</time>
      </trkpt>
      <trkpt lat="42.38749" lon="0.39772">
        <ele>672.64</ele>
        <time>2024-10-01T07:04:46.000Z</time>
      </trkpt>
      <trkpt lat="42.38739" lon="0.39772">
        <ele>672.23</ele>
        <time>2024-10-01T07:05:08.999Z</time>
      </trkpt>
      <trkpt lat="42.3872" lon="0.39769">
        <ele>671.25</ele>
        <time>2024-10-01T07:05:13.999Z</time>
      </trkpt>
      <trkpt lat="42.38699" lon="0.39763">
        <ele>670.79</ele>
        <time>2024-10-01T07:05:18.999Z</time>
      </trkpt>
      <trkpt lat="42.38677" lon="0.39757">
        <ele>670.67</ele>
        <time>2024-10-01T07:05:23.999Z</time>
      </trkpt>
      <trkpt lat="42.38655" lon="0.39748">
        <ele>670.67</ele>
        <time>2024-10-01T07:05:28.999Z</time>
      </trkpt>
      <trkpt lat="42.38632" lon="0.39737">
        <ele>670.7</ele>
        <time>2024-10-01T07:05:33.999Z</time>
      </trkpt>
      <trkpt lat="42.3861" lon="0.39723">
        <ele>670.79</ele>
        <time>2024-10-01T07:05:38.999Z</time>
      </trkpt>
      <trkpt lat="42.38589" lon="0.39708">
        <ele>670.86</ele>
        <time>2024-10-01T07:05:43.999Z</time>
      </trkpt>
      <trkpt lat="42.38569" lon="0.39691">
        <ele>670.94</ele>
        <time>2024-10-01T07:05:48.999Z</time>
      </trkpt>
      <trkpt lat="42.38549" lon="0.39671">
        <ele>670.97</ele>
        <time>2024-10-01T07:05:53.999Z</time>
      </trkpt>
      <trkpt lat="42.3853" lon="0.39648">
        <ele>671.02</ele>
        <time>2024-10-01T07:05:58.999Z</time>
      </trkpt>
      <trkpt lat="42.38512" lon="0.39622">
        <ele>671.1</ele>
        <time>2024-10-01T07:06:03.999Z</time>
      </trkpt>
      <trkpt lat="42.38497" lon="0.39595">
        <ele>671.31</ele>
        <time>2024-10-01T07:06:08.999Z</time>
      </trkpt>
      <trkpt lat="42.38483" lon="0.39567">
        <ele>671.44</ele>
        <time>2024-10-01T07:06:13.999Z</time>
      </trkpt>
      <trkpt lat="42.3847" lon="0.39536">
        <ele>671.67</ele>
        <time>2024-10-01T07:06:18.999Z</time>
      </trkpt>
      <trkpt lat="42.38459" lon="0.39505">
        <ele>672.04</ele>
        <time>2024-10-01T07:06:23.999Z</time>
      </trkpt>
      <trkpt lat="42.38451" lon="0.39473">
        <ele>672.44</ele>
        <time>2024-10-01T07:06:28.999Z</time>
      </trkpt>
      <trkpt lat="42.38445" lon="0.39444">
        <ele>672.68</ele>
        <time>2024-10-01T07:06:33.999Z</time>
      </trkpt>
      <trkpt lat="42.3844" lon="0.39415">
        <ele>672.78</ele>
        <time>2024-10-01T07:06:38.999Z</time>
      </trkpt>
      <trkpt lat="42.38438" lon="0.39388">
        <ele>672.86</ele>
        <time>2024-10-01T07:06:43.999Z</time>
      </trkpt>
      <trkpt lat="42.38437" lon="0.39364">
        <ele>672.9</ele>
        <time>2024-10-01T07:06:48.999Z</time>
      </trkpt>
      <trkpt lat="42.38437" lon="0.39341">
        <ele>672.92</ele>
        <time>2024-10-01T07:06:53.999Z</time>
      </trkpt>
      <trkpt lat="42.38438" lon="0.39318">
        <ele>672.95</ele>
        <time>2024-10-01T07:06:58.999Z</time>
      </trkpt>
      <trkpt lat="42.3844" lon="0.39297">
        <ele>673</ele>
        <time>2024-10-01T07:07:03.999Z</time>
      </trkpt>
      <trkpt lat="42.38442" lon="0.39276">
        <ele>673.08</ele>
        <time>2024-10-01T07:07:08.999Z</time>
      </trkpt>
      <trkpt lat="42.38444" lon="0.39255">
        <ele>673.2</ele>
        <time>2024-10-01T07:07:13.999Z</time>
      </trkpt>
      <trkpt lat="42.38448" lon="0.39237">
        <ele>673.32</ele>
        <time>2024-10-01T07:07:18.999Z</time>
      </trkpt>
      <trkpt lat="42.38451" lon="0.39219">
        <ele>673.47</ele>
        <time>2024-10-01T07:07:23.999Z</time>
      </trkpt>
      <trkpt lat="42.38455" lon="0.39202">
        <ele>673.65</ele>
        <time>2024-10-01T07:07:28.999Z</time>
      </trkpt>
      <trkpt lat="42.38459" lon="0.39189">
        <ele>673.86</ele>
        <time>2024-10-01T07:07:33.999Z</time>
      </trkpt>
      <trkpt lat="42.38464" lon="0.39174">
        <ele>674.09</ele>
        <time>2024-10-01T07:07:38.999Z</time>
      </trkpt>
      <trkpt lat="42.38469" lon="0.3916">
        <ele>674.36</ele>
        <time>2024-10-01T07:07:43.999Z</time>
      </trkpt>
      <trkpt lat="42.38474" lon="0.39147">
        <ele>674.64</ele>
        <time>2024-10-01T07:07:48.999Z</time>
      </trkpt>
      <trkpt lat="42.38479" lon="0.39132">
        <ele>674.93</ele>
        <time>2024-10-01T07:07:53.999Z</time>
      </trkpt>
      <trkpt lat="42.38484" lon="0.39121">
        <ele>675.23</ele>
        <time>2024-10-01T07:07:58.999Z</time>
      </trkpt>
      <trkpt lat="42.3849" lon="0.3911">
        <ele>675.53</ele>
        <time>2024-10-01T07:08:03.999Z</time>
      </trkpt>
      <trkpt lat="42.38497" lon="0.391">
        <ele>675.82</ele>
        <time>2024-10-01T07:08:08.999Z</time>
      </trkpt>
      <trkpt lat="42.38504" lon="0.39088">
        <ele>676.16</ele>
        <time>2024-10-01T07:08:14.999Z</time>
      </trkpt>
      <trkpt lat="42.3851" lon="0.39078">
        <ele>676.43</ele>
        <time>2024-10-01T07:08:19.999Z</time>
      </trkpt>
      <trkpt lat="42.38515" lon="0.39069">
        <ele>676.7</ele>
        <time>2024-10-01T07:08:24.999Z</time>
      </trkpt>
      <trkpt lat="42.38522" lon="0.39059">
        <ele>676.97</ele>
        <time>2024-10-01T07:08:29.999Z</time>
      </trkpt>
      <trkpt lat="42.3853" lon="0.3905">
        <ele>677.28</ele>
        <time>2024-10-01T07:08:35.999Z</time>
      </trkpt>
      <trkpt lat="42.38537" lon="0.39043">
        <ele>677.54</ele>
        <time>2024-10-01T07:08:40.999Z</time>
      </trkpt>
      <trkpt lat="42.38544" lon="0.39033">
        <ele>677.85</ele>
        <time>2024-10-01T07:08:46.999Z</time>
      </trkpt>
      <trkpt lat="42.38551" lon="0.39024">
        <ele>678.15</ele>
        <time>2024-10-01T07:08:52.999Z</time>
      </trkpt>
      <trkpt lat="42.38558" lon="0.39016">
        <ele>678.45</ele>
        <time>2024-10-01T07:08:58.999Z</time>
      </trkpt>
      <trkpt lat="42.38566" lon="0.39009">
        <ele>678.74</ele>
        <time>2024-10-01T07:09:04.999Z</time>
      </trkpt>
      <trkpt lat="42.38574" lon="0.39001">
        <ele>679.03</ele>
        <time>2024-10-01T07:09:10.999Z</time>
      </trkpt>
      <trkpt lat="42.38583" lon="0.38994">
        <ele>679.38</ele>
        <time>2024-10-01T07:09:17.999Z</time>
      </trkpt>
      <trkpt lat="42.38591" lon="0.38986">
        <ele>679.74</ele>
        <time>2024-10-01T07:09:24.999Z</time>
      </trkpt>
      <trkpt lat="42.386" lon="0.38979">
        <ele>680.11</ele>
        <time>2024-10-01T07:09:31.999Z</time>
      </trkpt>
      <trkpt lat="42.38608" lon="0.38973">
        <ele>680.49</ele>
        <time>2024-10-01T07:09:38.999Z</time>
      </trkpt>
      <trkpt lat="42.38616" lon="0.38966">
        <ele>680.83</ele>
        <time>2024-10-01T07:09:44.999Z</time>
      </trkpt>
      <trkpt lat="42.38625" lon="0.3896">
        <ele>681.25</ele>
        <time>2024-10-01T07:09:51.999Z</time>
      </trkpt>
      <trkpt lat="42.38634" lon="0.38953">
        <ele>681.68</ele>
        <time>2024-10-01T07:09:58.999Z</time>
      </trkpt>
      <trkpt lat="42.38642" lon="0.38947">
        <ele>682.12</ele>
        <time>2024-10-01T07:10:05.999Z</time>
      </trkpt>
      <trkpt lat="42.38651" lon="0.38939">
        <ele>682.57</ele>
        <time>2024-10-01T07:10:12.999Z</time>
      </trkpt>
      <trkpt lat="42.38659" lon="0.38933">
        <ele>683.03</ele>
        <time>2024-10-01T07:10:19.999Z</time>
      </trkpt>
      <trkpt lat="42.38667" lon="0.38926">
        <ele>683.48</ele>
        <time>2024-10-01T07:10:26.999Z</time>
      </trkpt>
      <trkpt lat="42.38674" lon="0.38919">
        <ele>683.94</ele>
        <time>2024-10-01T07:10:33.999Z</time>
      </trkpt>
      <trkpt lat="42.38682" lon="0.38912">
        <ele>684.38</ele>
        <time>2024-10-01T07:10:40.999Z</time>
      </trkpt>
      <trkpt lat="42.38689" lon="0.38905">
        <ele>684.83</ele>
        <time>2024-10-01T07:10:47.999Z</time>
      </trkpt>
      <trkpt lat="42.38697" lon="0.38898">
        <ele>685.27</ele>
        <time>2024-10-01T07:10:54.999Z</time>
      </trkpt>
      <trkpt lat="42.38704" lon="0.3889">
        <ele>685.71</ele>
        <time>2024-10-01T07:11:01.999Z</time>
      </trkpt>
      <trkpt lat="42.38712" lon="0.38883">
        <ele>686.14</ele>
        <time>2024-10-01T07:11:08.999Z</time>
      </trkpt>
      <trkpt lat="42.3872" lon="0.38874">
        <ele>686.62</ele>
        <time>2024-10-01T07:11:16.999Z</time>
      </trkpt>
      <trkpt lat="42.38728" lon="0.38866">
        <ele>687.08</ele>
        <time>2024-10-01T07:11:23.999Z</time>
      </trkpt>
      <trkpt lat="42.38736" lon="0.38858">
        <ele>687.58</ele>
        <time>2024-10-01T07:11:31.999Z</time>
      </trkpt>
      <trkpt lat="42.38744" lon="0.38849">
        <ele>688.08</ele>
        <time>2024-10-01T07:11:39.999Z</time>
      </trkpt>
      <trkpt lat="42.38751" lon="0.3884">
        <ele>688.51</ele>
        <time>2024-10-01T07:11:46.999Z</time>
      </trkpt>
      <trkpt lat="42.38759" lon="0.38832">
        <ele>688.94</ele>
        <time>2024-10-01T07:11:53.999Z</time>
      </trkpt>
      <trkpt lat="42.38765" lon="0.38823">
        <ele>689.38</ele>
        <time>2024-10-01T07:12:00.999Z</time>
      </trkpt>
      <trkpt lat="42.38772" lon="0.38813">
        <ele>689.81</ele>
        <time>2024-10-01T07:12:07.999Z</time>
      </trkpt>
      <trkpt lat="42.38779" lon="0.38803">
        <ele>690.26</ele>
        <time>2024-10-01T07:12:14.999Z</time>
      </trkpt>
      <trkpt lat="42.38787" lon="0.38795">
        <ele>690.71</ele>
        <time>2024-10-01T07:12:21.999Z</time>
      </trkpt>
      <trkpt lat="42.38793" lon="0.38785">
        <ele>691.15</ele>
        <time>2024-10-01T07:12:28.999Z</time>
      </trkpt>
      <trkpt lat="42.388" lon="0.38776">
        <ele>691.6</ele>
        <time>2024-10-01T07:12:35.999Z</time>
      </trkpt>
      <trkpt lat="42.38807" lon="0.38768">
        <ele>691.97</ele>
        <time>2024-10-01T07:12:41.999Z</time>
      </trkpt>
      <trkpt lat="42.38813" lon="0.38757">
        <ele>692.41</ele>
        <time>2024-10-01T07:12:48.999Z</time>
      </trkpt>
      <trkpt lat="42.38819" lon="0.38747">
        <ele>692.88</ele>
        <time>2024-10-01T07:12:55.999Z</time>
      </trkpt>
      <trkpt lat="42.38825" lon="0.38736">
        <ele>693.39</ele>
        <time>2024-10-01T07:13:02.999Z</time>
      </trkpt>
      <trkpt lat="42.38831" lon="0.38726">
        <ele>693.93</ele>
        <time>2024-10-01T07:13:09.999Z</time>
      </trkpt>
      <trkpt lat="42.38839" lon="0.38716">
        <ele>694.6</ele>
        <time>2024-10-01T07:13:17.999Z</time>
      </trkpt>
      <trkpt lat="42.38846" lon="0.38706">
        <ele>695.2</ele>
        <time>2024-10-01T07:13:24.999Z</time>
      </trkpt>
      <trkpt lat="42.38851" lon="0.38696">
        <ele>695.83</ele>
        <time>2024-10-01T07:13:31.999Z</time>
      </trkpt>
      <trkpt lat="42.38857" lon="0.38686">
        <ele>696.53</ele>
        <time>2024-10-01T07:13:38.999Z</time>
      </trkpt>
      <trkpt lat="42.38863" lon="0.38676">
        <ele>697.31</ele>
        <time>2024-10-01T07:13:45.999Z</time>
      </trkpt>
      <trkpt lat="42.38868" lon="0.38665">
        <ele>698.14</ele>
        <time>2024-10-01T07:13:52.999Z</time>
      </trkpt>
      <trkpt lat="42.38874" lon="0.38654">
        <ele>699.02</ele>
        <time>2024-10-01T07:13:59.999Z</time>
      </trkpt>
      <trkpt lat="42.38879" lon="0.38644">
        <ele>699.94</ele>
        <time>2024-10-01T07:14:06.999Z</time>
      </trkpt>
      <trkpt lat="42.38885" lon="0.38633">
        <ele>700.88</ele>
        <time>2024-10-01T07:14:13.999Z</time>
      </trkpt>
      <trkpt lat="42.38891" lon="0.38622">
        <ele>701.88</ele>
        <time>2024-10-01T07:14:20.999Z</time>
      </trkpt>
      <trkpt lat="42.38895" lon="0.38612">
        <ele>702.79</ele>
        <time>2024-10-01T07:14:26.999Z</time>
      </trkpt>
      <trkpt lat="42.38901" lon="0.38601">
        <ele>704.06</ele>
        <time>2024-10-01T07:14:34.999Z</time>
      </trkpt>
      <trkpt lat="42.38907" lon="0.3859">
        <ele>705.19</ele>
        <time>2024-10-01T07:14:41.999Z</time>
      </trkpt>
      <trkpt lat="42.38912" lon="0.3858">
        <ele>706.34</ele>
        <time>2024-10-01T07:14:48.999Z</time>
      </trkpt>
      <trkpt lat="42.38919" lon="0.3857">
        <ele>707.52</ele>
        <time>2024-10-01T07:14:55.999Z</time>
      </trkpt>
      <trkpt lat="42.38924" lon="0.38559">
        <ele>708.89</ele>
        <time>2024-10-01T07:15:03.999Z</time>
      </trkpt>
      <trkpt lat="42.38931" lon="0.38549">
        <ele>710.25</ele>
        <time>2024-10-01T07:15:11.999Z</time>
      </trkpt>
      <trkpt lat="42.38936" lon="0.38539">
        <ele>711.43</ele>
        <time>2024-10-01T07:15:18.999Z</time>
      </trkpt>
      <trkpt lat="42.38942" lon="0.38528">
        <ele>712.59</ele>
        <time>2024-10-01T07:15:25.999Z</time>
      </trkpt>
      <trkpt lat="42.38948" lon="0.38519">
        <ele>713.74</ele>
        <time>2024-10-01T07:15:32.999Z</time>
      </trkpt>
      <trkpt lat="42.38952" lon="0.38508">
        <ele>714.87</ele>
        <time>2024-10-01T07:15:39.999Z</time>
      </trkpt>
      <trkpt lat="42.38958" lon="0.38498">
        <ele>715.97</ele>
        <time>2024-10-01T07:15:46.999Z</time>
      </trkpt>
      <trkpt lat="42.38964" lon="0.38488">
        <ele>717.05</ele>
        <time>2024-10-01T07:15:53.999Z</time>
      </trkpt>
      <trkpt lat="42.3897" lon="0.38478">
        <ele>718.11</ele>
        <time>2024-10-01T07:16:00.999Z</time>
      </trkpt>
      <trkpt lat="42.38975" lon="0.38467">
        <ele>719.16</ele>
        <time>2024-10-01T07:16:07.999Z</time>
      </trkpt>
      <trkpt lat="42.38981" lon="0.38457">
        <ele>720.2</ele>
        <time>2024-10-01T07:16:14.999Z</time>
      </trkpt>
      <trkpt lat="42.38987" lon="0.38446">
        <ele>721.39</ele>
        <time>2024-10-01T07:16:22.999Z</time>
      </trkpt>
      <trkpt lat="42.38992" lon="0.38436">
        <ele>722.41</ele>
        <time>2024-10-01T07:16:29.999Z</time>
      </trkpt>
      <trkpt lat="42.38997" lon="0.38426">
        <ele>723.42</ele>
        <time>2024-10-01T07:16:36.999Z</time>
      </trkpt>
      <trkpt lat="42.39002" lon="0.38416">
        <ele>728.83</ele>
        <time>2024-10-01T07:18:10.000Z</time>
      </trkpt>
      <trkpt lat="42.39007" lon="0.38404">
        <ele>731.26</ele>
        <time>2024-10-01T07:18:35.000Z</time>
      </trkpt>
      <trkpt lat="42.39013" lon="0.38394">
        <ele>732.28</ele>
        <time>2024-10-01T07:18:41.000Z</time>
      </trkpt>
      <trkpt lat="42.39019" lon="0.38384">
        <ele>733.39</ele>
        <time>2024-10-01T07:18:48.000Z</time>
      </trkpt>
      <trkpt lat="42.39025" lon="0.38373">
        <ele>734.41</ele>
        <time>2024-10-01T07:18:55.000Z</time>
      </trkpt>
      <trkpt lat="42.39031" lon="0.38362">
        <ele>735.36</ele>
        <time>2024-10-01T07:19:02.000Z</time>
      </trkpt>
      <trkpt lat="42.39038" lon="0.38351">
        <ele>736.25</ele>
        <time>2024-10-01T07:19:09.000Z</time>
      </trkpt>
      <trkpt lat="42.39043" lon="0.38341">
        <ele>737.1</ele>
        <time>2024-10-01T07:19:16.000Z</time>
      </trkpt>
      <trkpt lat="42.39049" lon="0.3833">
        <ele>737.91</ele>
        <time>2024-10-01T07:19:23.000Z</time>
      </trkpt>
      <trkpt lat="42.39055" lon="0.3832">
        <ele>738.68</ele>
        <time>2024-10-01T07:19:30.000Z</time>
      </trkpt>
      <trkpt lat="42.39061" lon="0.38309">
        <ele>739.41</ele>
        <time>2024-10-01T07:19:37.000Z</time>
      </trkpt>
      <trkpt lat="42.39067" lon="0.38298">
        <ele>740.12</ele>
        <time>2024-10-01T07:19:44.000Z</time>
      </trkpt>
      <trkpt lat="42.39073" lon="0.38288">
        <ele>740.81</ele>
        <time>2024-10-01T07:19:51.000Z</time>
      </trkpt>
      <trkpt lat="42.39079" lon="0.38277">
        <ele>741.48</ele>
        <time>2024-10-01T07:19:58.000Z</time>
      </trkpt>
      <trkpt lat="42.39085" lon="0.38266">
        <ele>742.13</ele>
        <time>2024-10-01T07:20:05.000Z</time>
      </trkpt>
      <trkpt lat="42.3909" lon="0.38255">
        <ele>742.69</ele>
        <time>2024-10-01T07:20:11.000Z</time>
      </trkpt>
      <trkpt lat="42.39096" lon="0.38245">
        <ele>743.33</ele>
        <time>2024-10-01T07:20:18.000Z</time>
      </trkpt>
      <trkpt lat="42.39102" lon="0.38235">
        <ele>743.95</ele>
        <time>2024-10-01T07:20:25.000Z</time>
      </trkpt>
      <trkpt lat="42.39108" lon="0.38224">
        <ele>744.56</ele>
        <time>2024-10-01T07:20:32.000Z</time>
      </trkpt>
      <trkpt lat="42.39114" lon="0.38214">
        <ele>745.16</ele>
        <time>2024-10-01T07:20:39.000Z</time>
      </trkpt>
      <trkpt lat="42.3912" lon="0.38204">
        <ele>745.74</ele>
        <time>2024-10-01T07:20:46.000Z</time>
      </trkpt>
      <trkpt lat="42.39127" lon="0.38194">
        <ele>746.32</ele>
        <time>2024-10-01T07:20:53.000Z</time>
      </trkpt>
      <trkpt lat="42.39133" lon="0.38184">
        <ele>746.88</ele>
        <time>2024-10-01T07:21:00.000Z</time>
      </trkpt>
      <trkpt lat="42.3914" lon="0.38174">
        <ele>747.46</ele>
        <time>2024-10-01T07:21:07.000Z</time>
      </trkpt>
      <trkpt lat="42.39146" lon="0.38164">
        <ele>748.09</ele>
        <time>2024-10-01T07:21:14.000Z</time>
      </trkpt>
      <trkpt lat="42.39153" lon="0.38154">
        <ele>748.77</ele>
        <time>2024-10-01T07:21:21.000Z</time>
      </trkpt>
      <trkpt lat="42.39159" lon="0.38144">
        <ele>749.49</ele>
        <time>2024-10-01T07:21:28.000Z</time>
      </trkpt>
      <trkpt lat="42.39165" lon="0.38133">
        <ele>750.24</ele>
        <time>2024-10-01T07:21:35.000Z</time>
      </trkpt>
      <trkpt lat="42.39171" lon="0.38122">
        <ele>751.01</ele>
        <time>2024-10-01T07:21:42.000Z</time>
      </trkpt>
      <trkpt lat="42.39177" lon="0.38112">
        <ele>751.82</ele>
        <time>2024-10-01T07:21:49.000Z</time>
      </trkpt>
      <trkpt lat="42.39184" lon="0.38102">
        <ele>752.65</ele>
        <time>2024-10-01T07:21:56.000Z</time>
      </trkpt>
      <trkpt lat="42.3919" lon="0.38092">
        <ele>753.52</ele>
        <time>2024-10-01T07:22:03.000Z</time>
      </trkpt>
      <trkpt lat="42.39197" lon="0.38082">
        <ele>754.45</ele>
        <time>2024-10-01T07:22:10.000Z</time>
      </trkpt>
      <trkpt lat="42.39204" lon="0.38072">
        <ele>755.43</ele>
        <time>2024-10-01T07:22:17.000Z</time>
      </trkpt>
      <trkpt lat="42.3921" lon="0.38062">
        <ele>756.46</ele>
        <time>2024-10-01T07:22:24.000Z</time>
      </trkpt>
      <trkpt lat="42.39216" lon="0.38052">
        <ele>757.5</ele>
        <time>2024-10-01T07:22:31.000Z</time>
      </trkpt>
      <trkpt lat="42.39222" lon="0.38042">
        <ele>758.61</ele>
        <time>2024-10-01T07:22:38.000Z</time>
      </trkpt>
      <trkpt lat="42.39228" lon="0.38032">
        <ele>759.77</ele>
        <time>2024-10-01T07:22:45.000Z</time>
      </trkpt>
      <trkpt lat="42.39234" lon="0.38022">
        <ele>760.96</ele>
        <time>2024-10-01T07:22:52.000Z</time>
      </trkpt>
      <trkpt lat="42.39241" lon="0.38012">
        <ele>762.16</ele>
        <time>2024-10-01T07:22:59.000Z</time>
      </trkpt>
      <trkpt lat="42.39247" lon="0.38002">
        <ele>763.38</ele>
        <time>2024-10-01T07:23:06.000Z</time>
      </trkpt>
      <trkpt lat="42.39253" lon="0.37992">
        <ele>764.59</ele>
        <time>2024-10-01T07:23:13.000Z</time>
      </trkpt>
      <trkpt lat="42.39259" lon="0.37981">
        <ele>765.79</ele>
        <time>2024-10-01T07:23:20.000Z</time>
      </trkpt>
      <trkpt lat="42.39265" lon="0.37971">
        <ele>766.99</ele>
        <time>2024-10-01T07:23:27.000Z</time>
      </trkpt>
      <trkpt lat="42.39272" lon="0.37962">
        <ele>768.17</ele>
        <time>2024-10-01T07:23:34.000Z</time>
      </trkpt>
      <trkpt lat="42.39278" lon="0.37952">
        <ele>769.32</ele>
        <time>2024-10-01T07:23:41.000Z</time>
      </trkpt>
      <trkpt lat="42.39284" lon="0.37943">
        <ele>770.45</ele>
        <time>2024-10-01T07:23:48.000Z</time>
      </trkpt>
      <trkpt lat="42.39291" lon="0.37933">
        <ele>771.56</ele>
        <time>2024-10-01T07:23:55.000Z</time>
      </trkpt>
      <trkpt lat="42.39297" lon="0.37923">
        <ele>772.67</ele>
        <time>2024-10-01T07:24:02.000Z</time>
      </trkpt>
      <trkpt lat="42.39304" lon="0.37914">
        <ele>773.77</ele>
        <time>2024-10-01T07:24:09.000Z</time>
      </trkpt>
      <trkpt lat="42.39309" lon="0.37904">
        <ele>774.86</ele>
        <time>2024-10-01T07:24:16.000Z</time>
      </trkpt>
      <trkpt lat="42.39315" lon="0.37894">
        <ele>775.93</ele>
        <time>2024-10-01T07:24:23.000Z</time>
      </trkpt>
      <trkpt lat="42.39321" lon="0.37884">
        <ele>776.97</ele>
        <time>2024-10-01T07:24:30.000Z</time>
      </trkpt>
      <trkpt lat="42.39327" lon="0.37874">
        <ele>778.01</ele>
        <time>2024-10-01T07:24:37.000Z</time>
      </trkpt>
      <trkpt lat="42.39333" lon="0.37865">
        <ele>779.03</ele>
        <time>2024-10-01T07:24:44.000Z</time>
      </trkpt>
      <trkpt lat="42.39339" lon="0.37855">
        <ele>780.03</ele>
        <time>2024-10-01T07:24:51.000Z</time>
      </trkpt>
      <trkpt lat="42.39345" lon="0.37846">
        <ele>781.02</ele>
        <time>2024-10-01T07:24:58.000Z</time>
      </trkpt>
      <trkpt lat="42.39352" lon="0.37835">
        <ele>782.15</ele>
        <time>2024-10-01T07:25:06.000Z</time>
      </trkpt>
      <trkpt lat="42.39359" lon="0.37825">
        <ele>783.14</ele>
        <time>2024-10-01T07:25:13.000Z</time>
      </trkpt>
      <trkpt lat="42.39365" lon="0.37815">
        <ele>784.15</ele>
        <time>2024-10-01T07:25:20.000Z</time>
      </trkpt>
      <trkpt lat="42.39371" lon="0.37804">
        <ele>785.29</ele>
        <time>2024-10-01T07:25:28.000Z</time>
      </trkpt>
      <trkpt lat="42.39377" lon="0.37795">
        <ele>786.28</ele>
        <time>2024-10-01T07:25:35.000Z</time>
      </trkpt>
      <trkpt lat="42.39383" lon="0.37786">
        <ele>787.26</ele>
        <time>2024-10-01T07:25:42.000Z</time>
      </trkpt>
      <trkpt lat="42.3939" lon="0.37775">
        <ele>788.4</ele>
        <time>2024-10-01T07:25:50.000Z</time>
      </trkpt>
      <trkpt lat="42.39395" lon="0.37765">
        <ele>789.42</ele>
        <time>2024-10-01T07:25:57.000Z</time>
      </trkpt>
      <trkpt lat="42.39402" lon="0.37755">
        <ele>790.43</ele>
        <time>2024-10-01T07:26:04.000Z</time>
      </trkpt>
      <trkpt lat="42.39408" lon="0.37745">
        <ele>791.45</ele>
        <time>2024-10-01T07:26:11.000Z</time>
      </trkpt>
      <trkpt lat="42.39415" lon="0.37736">
        <ele>792.47</ele>
        <time>2024-10-01T07:26:18.000Z</time>
      </trkpt>
      <trkpt lat="42.39421" lon="0.37725">
        <ele>793.48</ele>
        <time>2024-10-01T07:26:25.000Z</time>
      </trkpt>
      <trkpt lat="42.39426" lon="0.37714">
        <ele>794.36</ele>
        <time>2024-10-01T07:26:31.000Z</time>
      </trkpt>
      <trkpt lat="42.39432" lon="0.37705">
        <ele>795.43</ele>
        <time>2024-10-01T07:26:38.000Z</time>
      </trkpt>
      <trkpt lat="42.39438" lon="0.37696">
        <ele>796.48</ele>
        <time>2024-10-01T07:26:45.000Z</time>
      </trkpt>
      <trkpt lat="42.39445" lon="0.37685">
        <ele>797.52</ele>
        <time>2024-10-01T07:26:52.000Z</time>
      </trkpt>
      <trkpt lat="42.39451" lon="0.37675">
        <ele>798.53</ele>
        <time>2024-10-01T07:26:59.000Z</time>
      </trkpt>
      <trkpt lat="42.39456" lon="0.37665">
        <ele>799.55</ele>
        <time>2024-10-01T07:27:06.000Z</time>
      </trkpt>
      <trkpt lat="42.39463" lon="0.37655">
        <ele>800.55</ele>
        <time>2024-10-01T07:27:13.000Z</time>
      </trkpt>
      <trkpt lat="42.39469" lon="0.37645">
        <ele>801.55</ele>
        <time>2024-10-01T07:27:20.000Z</time>
      </trkpt>
      <trkpt lat="42.39475" lon="0.37635">
        <ele>802.55</ele>
        <time>2024-10-01T07:27:27.000Z</time>
      </trkpt>
      <trkpt lat="42.39481" lon="0.37624">
        <ele>806.48</ele>
        <time>2024-10-01T07:29:10.000Z</time>
      </trkpt>
      <trkpt lat="42.39487" lon="0.37612">
        <ele>807.76</ele>
        <time>2024-10-01T07:29:17.000Z</time>
      </trkpt>
      <trkpt lat="42.39493" lon="0.37601">
        <ele>808.96</ele>
        <time>2024-10-01T07:29:24.000Z</time>
      </trkpt>
      <trkpt lat="42.39499" lon="0.3759">
        <ele>810.09</ele>
        <time>2024-10-01T07:29:31.000Z</time>
      </trkpt>
      <trkpt lat="42.39505" lon="0.3758">
        <ele>811.15</ele>
        <time>2024-10-01T07:29:38.000Z</time>
      </trkpt>
      <trkpt lat="42.39511" lon="0.37569">
        <ele>812.16</ele>
        <time>2024-10-01T07:29:45.000Z</time>
      </trkpt>
      <trkpt lat="42.39517" lon="0.37558">
        <ele>813.13</ele>
        <time>2024-10-01T07:29:52.000Z</time>
      </trkpt>
      <trkpt lat="42.39523" lon="0.37547">
        <ele>814.05</ele>
        <time>2024-10-01T07:29:59.000Z</time>
      </trkpt>
      <trkpt lat="42.3953" lon="0.37536">
        <ele>814.94</ele>
        <time>2024-10-01T07:30:06.000Z</time>
      </trkpt>
      <trkpt lat="42.39536" lon="0.37526">
        <ele>815.79</ele>
        <time>2024-10-01T07:30:12.999Z</time>
      </trkpt>
      <trkpt lat="42.39542" lon="0.37515">
        <ele>816.61</ele>
        <time>2024-10-01T07:30:19.999Z</time>
      </trkpt>
      <trkpt lat="42.39548" lon="0.37504">
        <ele>817.4</ele>
        <time>2024-10-01T07:30:26.999Z</time>
      </trkpt>
      <trkpt lat="42.39554" lon="0.37494">
        <ele>818.16</ele>
        <time>2024-10-01T07:30:33.999Z</time>
      </trkpt>
      <trkpt lat="42.3956" lon="0.37483">
        <ele>818.91</ele>
        <time>2024-10-01T07:30:40.999Z</time>
      </trkpt>
      <trkpt lat="42.39566" lon="0.37472">
        <ele>819.63</ele>
        <time>2024-10-01T07:30:47.999Z</time>
      </trkpt>
      <trkpt lat="42.39572" lon="0.37461">
        <ele>820.33</ele>
        <time>2024-10-01T07:30:54.999Z</time>
      </trkpt>
      <trkpt lat="42.39578" lon="0.3745">
        <ele>821.02</ele>
        <time>2024-10-01T07:31:01.999Z</time>
      </trkpt>
      <trkpt lat="42.39584" lon="0.37439">
        <ele>821.69</ele>
        <time>2024-10-01T07:31:08.999Z</time>
      </trkpt>
      <trkpt lat="42.3959" lon="0.37428">
        <ele>822.36</ele>
        <time>2024-10-01T07:31:15.999Z</time>
      </trkpt>
      <trkpt lat="42.39595" lon="0.37417">
        <ele>822.92</ele>
        <time>2024-10-01T07:31:21.999Z</time>
      </trkpt>
      <trkpt lat="42.39601" lon="0.37406">
        <ele>823.58</ele>
        <time>2024-10-01T07:31:28.999Z</time>
      </trkpt>
      <trkpt lat="42.39606" lon="0.37396">
        <ele>824.35</ele>
        <time>2024-10-01T07:31:36.999Z</time>
      </trkpt>
      <trkpt lat="42.39612" lon="0.37386">
        <ele>825.02</ele>
        <time>2024-10-01T07:31:43.999Z</time>
      </trkpt>
      <trkpt lat="42.39618" lon="0.37375">
        <ele>825.67</ele>
        <time>2024-10-01T07:31:50.999Z</time>
      </trkpt>
      <trkpt lat="42.39624" lon="0.37365">
        <ele>826.32</ele>
        <time>2024-10-01T07:31:57.999Z</time>
      </trkpt>
      <trkpt lat="42.39629" lon="0.37354">
        <ele>826.89</ele>
        <time>2024-10-01T07:32:03.999Z</time>
      </trkpt>
      <trkpt lat="42.39634" lon="0.37344">
        <ele>827.56</ele>
        <time>2024-10-01T07:32:10.999Z</time>
      </trkpt>
      <trkpt lat="42.3964" lon="0.37334">
        <ele>828.23</ele>
        <time>2024-10-01T07:32:17.999Z</time>
      </trkpt>
      <trkpt lat="42.39646" lon="0.37322">
        <ele>828.9</ele>
        <time>2024-10-01T07:32:24.999Z</time>
      </trkpt>
      <trkpt lat="42.39651" lon="0.37311">
        <ele>829.58</ele>
        <time>2024-10-01T07:32:31.999Z</time>
      </trkpt>
      <trkpt lat="42.39657" lon="0.373">
        <ele>830.26</ele>
        <time>2024-10-01T07:32:38.999Z</time>
      </trkpt>
      <trkpt lat="42.39662" lon="0.37289">
        <ele>830.94</ele>
        <time>2024-10-01T07:32:45.999Z</time>
      </trkpt>
      <trkpt lat="42.39668" lon="0.37279">
        <ele>831.53</ele>
        <time>2024-10-01T07:32:51.999Z</time>
      </trkpt>
      <trkpt lat="42.39673" lon="0.37269">
        <ele>832.22</ele>
        <time>2024-10-01T07:32:58.999Z</time>
      </trkpt>
      <trkpt lat="42.39679" lon="0.37258">
        <ele>832.93</ele>
        <time>2024-10-01T07:33:05.999Z</time>
      </trkpt>
      <trkpt lat="42.39685" lon="0.37246">
        <ele>833.68</ele>
        <time>2024-10-01T07:33:12.999Z</time>
      </trkpt>
      <trkpt lat="42.39691" lon="0.37235">
        <ele>834.44</ele>
        <time>2024-10-01T07:33:19.999Z</time>
      </trkpt>
      <trkpt lat="42.39697" lon="0.37224">
        <ele>835.24</ele>
        <time>2024-10-01T07:33:26.999Z</time>
      </trkpt>
      <trkpt lat="42.39702" lon="0.37213">
        <ele>835.96</ele>
        <time>2024-10-01T07:33:32.999Z</time>
      </trkpt>
      <trkpt lat="42.39709" lon="0.37203">
        <ele>836.83</ele>
        <time>2024-10-01T07:33:39.999Z</time>
      </trkpt>
      <trkpt lat="42.39715" lon="0.37192">
        <ele>837.75</ele>
        <time>2024-10-01T07:33:46.999Z</time>
      </trkpt>
      <trkpt lat="42.39721" lon="0.37182">
        <ele>838.58</ele>
        <time>2024-10-01T07:33:52.999Z</time>
      </trkpt>
      <trkpt lat="42.39727" lon="0.37171">
        <ele>839.59</ele>
        <time>2024-10-01T07:33:59.999Z</time>
      </trkpt>
      <trkpt lat="42.39734" lon="0.37163">
        <ele>840.5</ele>
        <time>2024-10-01T07:34:05.999Z</time>
      </trkpt>
      <trkpt lat="42.3974" lon="0.37152">
        <ele>841.61</ele>
        <time>2024-10-01T07:34:12.999Z</time>
      </trkpt>
      <trkpt lat="42.39747" lon="0.37142">
        <ele>842.83</ele>
        <time>2024-10-01T07:34:19.999Z</time>
      </trkpt>
      <trkpt lat="42.39754" lon="0.37133">
        <ele>843.94</ele>
        <time>2024-10-01T07:34:25.999Z</time>
      </trkpt>
      <trkpt lat="42.39761" lon="0.37123">
        <ele>845.31</ele>
        <time>2024-10-01T07:34:32.999Z</time>
      </trkpt>
      <trkpt lat="42.39767" lon="0.37114">
        <ele>846.53</ele>
        <time>2024-10-01T07:34:38.999Z</time>
      </trkpt>
      <trkpt lat="42.39775" lon="0.37104">
        <ele>847.98</ele>
        <time>2024-10-01T07:34:45.999Z</time>
      </trkpt>
      <trkpt lat="42.39781" lon="0.37095">
        <ele>849.23</ele>
        <time>2024-10-01T07:34:51.999Z</time>
      </trkpt>
      <trkpt lat="42.39789" lon="0.37085">
        <ele>850.52</ele>
        <time>2024-10-01T07:34:57.999Z</time>
      </trkpt>
      <trkpt lat="42.39797" lon="0.37078">
        <ele>851.84</ele>
        <time>2024-10-01T07:35:03.999Z</time>
      </trkpt>
      <trkpt lat="42.39805" lon="0.3707">
        <ele>853.34</ele>
        <time>2024-10-01T07:35:10.999Z</time>
      </trkpt>
      <trkpt lat="42.39813" lon="0.37063">
        <ele>854.58</ele>
        <time>2024-10-01T07:35:16.999Z</time>
      </trkpt>
      <trkpt lat="42.3982" lon="0.37055">
        <ele>855.78</ele>
        <time>2024-10-01T07:35:22.999Z</time>
      </trkpt>
      <trkpt lat="42.39828" lon="0.37047">
        <ele>856.95</ele>
        <time>2024-10-01T07:35:28.999Z</time>
      </trkpt>
      <trkpt lat="42.39835" lon="0.3704">
        <ele>858.08</ele>
        <time>2024-10-01T07:35:34.999Z</time>
      </trkpt>
      <trkpt lat="42.39844" lon="0.37032">
        <ele>859.35</ele>
        <time>2024-10-01T07:35:41.999Z</time>
      </trkpt>
      <trkpt lat="42.39851" lon="0.37025">
        <ele>860.39</ele>
        <time>2024-10-01T07:35:47.999Z</time>
      </trkpt>
      <trkpt lat="42.3986" lon="0.37018">
        <ele>861.55</ele>
        <time>2024-10-01T07:35:54.999Z</time>
      </trkpt>
      <trkpt lat="42.39868" lon="0.37011">
        <ele>862.51</ele>
        <time>2024-10-01T07:36:00.999Z</time>
      </trkpt>
      <trkpt lat="42.39876" lon="0.37005">
        <ele>863.43</ele>
        <time>2024-10-01T07:36:06.999Z</time>
      </trkpt>
      <trkpt lat="42.39885" lon="0.36998">
        <ele>864.47</ele>
        <time>2024-10-01T07:36:13.999Z</time>
      </trkpt>
      <trkpt lat="42.39893" lon="0.36992">
        <ele>865.33</ele>
        <time>2024-10-01T07:36:19.999Z</time>
      </trkpt>
      <trkpt lat="42.39902" lon="0.36985">
        <ele>866.3</ele>
        <time>2024-10-01T07:36:26.999Z</time>
      </trkpt>
      <trkpt lat="42.3991" lon="0.36978">
        <ele>867.23</ele>
        <time>2024-10-01T07:36:33.999Z</time>
      </trkpt>
      <trkpt lat="42.39919" lon="0.36973">
        <ele>868</ele>
        <time>2024-10-01T07:36:39.999Z</time>
      </trkpt>
      <trkpt lat="42.39928" lon="0.36967">
        <ele>868.86</ele>
        <time>2024-10-01T07:36:46.999Z</time>
      </trkpt>
      <trkpt lat="42.39937" lon="0.36962">
        <ele>869.59</ele>
        <time>2024-10-01T07:36:52.999Z</time>
      </trkpt>
      <trkpt lat="42.39945" lon="0.36956">
        <ele>870.29</ele>
        <time>2024-10-01T07:36:58.999Z</time>
      </trkpt>
      <trkpt lat="42.39954" lon="0.3695">
        <ele>871.1</ele>
        <time>2024-10-01T07:37:05.999Z</time>
      </trkpt>
      <trkpt lat="42.39962" lon="0.36944">
        <ele>871.9</ele>
        <time>2024-10-01T07:37:12.999Z</time>
      </trkpt>
      <trkpt lat="42.39971" lon="0.36939">
        <ele>872.68</ele>
        <time>2024-10-01T07:37:19.999Z</time>
      </trkpt>
      <trkpt lat="42.3998" lon="0.36933">
        <ele>873.45</ele>
        <time>2024-10-01T07:37:26.999Z</time>
      </trkpt>
      <trkpt lat="42.39988" lon="0.36927">
        <ele>874.2</ele>
        <time>2024-10-01T07:37:33.999Z</time>
      </trkpt>
      <trkpt lat="42.39997" lon="0.36922">
        <ele>874.83</ele>
        <time>2024-10-01T07:37:39.999Z</time>
      </trkpt>
      <trkpt lat="42.40005" lon="0.36916">
        <ele>875.56</ele>
        <time>2024-10-01T07:37:46.999Z</time>
      </trkpt>
      <trkpt lat="42.40014" lon="0.36911">
        <ele>876.27</ele>
        <time>2024-10-01T07:37:53.999Z</time>
      </trkpt>
      <trkpt lat="42.40022" lon="0.36905">
        <ele>876.97</ele>
        <time>2024-10-01T07:38:00.999Z</time>
      </trkpt>
      <trkpt lat="42.40031" lon="0.36899">
        <ele>877.65</ele>
        <time>2024-10-01T07:38:07.999Z</time>
      </trkpt>
      <trkpt lat="42.4004" lon="0.36892">
        <ele>878.32</ele>
        <time>2024-10-01T07:38:14.999Z</time>
      </trkpt>
      <trkpt lat="42.40049" lon="0.36886">
        <ele>878.99</ele>
        <time>2024-10-01T07:38:21.999Z</time>
      </trkpt>
      <trkpt lat="42.40058" lon="0.3688">
        <ele>879.66</ele>
        <time>2024-10-01T07:38:28.999Z</time>
      </trkpt>
      <trkpt lat="42.40067" lon="0.36874">
        <ele>880.33</ele>
        <time>2024-10-01T07:38:35.999Z</time>
      </trkpt>
      <trkpt lat="42.40076" lon="0.36868">
        <ele>880.99</ele>
        <time>2024-10-01T07:38:42.999Z</time>
      </trkpt>
      <trkpt lat="42.40084" lon="0.36862">
        <ele>881.66</ele>
        <time>2024-10-01T07:38:49.999Z</time>
      </trkpt>
      <trkpt lat="42.40093" lon="0.36857">
        <ele>882.31</ele>
        <time>2024-10-01T07:38:56.999Z</time>
      </trkpt>
      <trkpt lat="42.40102" lon="0.3685">
        <ele>882.96</ele>
        <time>2024-10-01T07:39:03.999Z</time>
      </trkpt>
      <trkpt lat="42.4011" lon="0.36844">
        <ele>883.51</ele>
        <time>2024-10-01T07:39:09.999Z</time>
      </trkpt>
      <trkpt lat="42.40118" lon="0.36839">
        <ele>884.08</ele>
        <time>2024-10-01T07:39:15.999Z</time>
      </trkpt>
      <trkpt lat="42.40127" lon="0.36832">
        <ele>884.75</ele>
        <time>2024-10-01T07:39:22.999Z</time>
      </trkpt>
      <trkpt lat="42.40135" lon="0.36826">
        <ele>885.44</ele>
        <time>2024-10-01T07:39:29.999Z</time>
      </trkpt>
      <trkpt lat="42.40144" lon="0.36819">
        <ele>886.14</ele>
        <time>2024-10-01T07:39:36.999Z</time>
      </trkpt>
      <trkpt lat="42.40153" lon="0.36813">
        <ele>886.86</ele>
        <time>2024-10-01T07:39:43.999Z</time>
      </trkpt>
      <trkpt lat="42.40161" lon="0.36807">
        <ele>887.58</ele>
        <time>2024-10-01T07:39:50.999Z</time>
      </trkpt>
      <trkpt lat="42.4017" lon="0.368">
        <ele>888.3</ele>
        <time>2024-10-01T07:39:57.999Z</time>
      </trkpt>
      <trkpt lat="42.40178" lon="0.36791">
        <ele>889.12</ele>
        <time>2024-10-01T07:40:05.999Z</time>
      </trkpt>
      <trkpt lat="42.40185" lon="0.36783">
        <ele>889.83</ele>
        <time>2024-10-01T07:40:12.999Z</time>
      </trkpt>
      <trkpt lat="42.40193" lon="0.36775">
        <ele>890.52</ele>
        <time>2024-10-01T07:40:19.999Z</time>
      </trkpt>
      <trkpt lat="42.402" lon="0.36766">
        <ele>891.19</ele>
        <time>2024-10-01T07:40:26.999Z</time>
      </trkpt>
      <trkpt lat="42.40207" lon="0.36758">
        <ele>891.85</ele>
        <time>2024-10-01T07:40:33.999Z</time>
      </trkpt>
      <trkpt lat="42.40215" lon="0.36748">
        <ele>892.49</ele>
        <time>2024-10-01T07:40:40.999Z</time>
      </trkpt>
      <trkpt lat="42.40222" lon="0.36739">
        <ele>893.04</ele>
        <time>2024-10-01T07:40:46.999Z</time>
      </trkpt>
      <trkpt lat="42.4023" lon="0.36729">
        <ele>893.68</ele>
        <time>2024-10-01T07:40:53.999Z</time>
      </trkpt>
      <trkpt lat="42.40237" lon="0.36719">
        <ele>894.32</ele>
        <time>2024-10-01T07:41:00.999Z</time>
      </trkpt>
      <trkpt lat="42.40243" lon="0.36708">
        <ele>894.98</ele>
        <time>2024-10-01T07:41:07.999Z</time>
      </trkpt>
      <trkpt lat="42.4025" lon="0.36697">
        <ele>895.65</ele>
        <time>2024-10-01T07:41:14.999Z</time>
      </trkpt>
      <trkpt lat="42.40256" lon="0.36687">
        <ele>896.35</ele>
        <time>2024-10-01T07:41:21.999Z</time>
      </trkpt>
      <trkpt lat="42.40262" lon="0.36676">
        <ele>897.06</ele>
        <time>2024-10-01T07:41:28.999Z</time>
      </trkpt>
      <trkpt lat="42.40267" lon="0.36665">
        <ele>897.78</ele>
        <time>2024-10-01T07:41:35.999Z</time>
      </trkpt>
      <trkpt lat="42.40272" lon="0.36653">
        <ele>898.52</ele>
        <time>2024-10-01T07:41:42.999Z</time>
      </trkpt>
      <trkpt lat="42.40277" lon="0.36643">
        <ele>899.15</ele>
        <time>2024-10-01T07:41:48.999Z</time>
      </trkpt>
      <trkpt lat="42.40281" lon="0.3663">
        <ele>899.9</ele>
        <time>2024-10-01T07:41:55.999Z</time>
      </trkpt>
      <trkpt lat="42.40286" lon="0.36618">
        <ele>900.66</ele>
        <time>2024-10-01T07:42:02.999Z</time>
      </trkpt>
      <trkpt lat="42.40289" lon="0.36606">
        <ele>901.33</ele>
        <time>2024-10-01T07:42:08.999Z</time>
      </trkpt>
      <trkpt lat="42.40293" lon="0.36594">
        <ele>902.16</ele>
        <time>2024-10-01T07:42:15.999Z</time>
      </trkpt>
      <trkpt lat="42.40296" lon="0.36583">
        <ele>902.99</ele>
        <time>2024-10-01T07:42:21.999Z</time>
      </trkpt>
      <trkpt lat="42.40299" lon="0.3657">
        <ele>903.92</ele>
        <time>2024-10-01T07:42:28.000Z</time>
      </trkpt>
      <trkpt lat="42.40302" lon="0.36558">
        <ele>904.95</ele>
        <time>2024-10-01T07:42:34.000Z</time>
      </trkpt>
      <trkpt lat="42.40304" lon="0.36546">
        <ele>906.07</ele>
        <time>2024-10-01T07:42:40.000Z</time>
      </trkpt>
      <trkpt lat="42.40306" lon="0.36535">
        <ele>907.27</ele>
        <time>2024-10-01T07:42:46.000Z</time>
      </trkpt>
      <trkpt lat="42.40308" lon="0.36522">
        <ele>908.71</ele>
        <time>2024-10-01T07:42:53.000Z</time>
      </trkpt>
      <trkpt lat="42.40311" lon="0.36508">
        <ele>910.18</ele>
        <time>2024-10-01T07:43:00.000Z</time>
      </trkpt>
      <trkpt lat="42.40313" lon="0.36496">
        <ele>911.66</ele>
        <time>2024-10-01T07:43:07.000Z</time>
      </trkpt>
      <trkpt lat="42.40315" lon="0.36482">
        <ele>913.11</ele>
        <time>2024-10-01T07:43:14.000Z</time>
      </trkpt>
      <trkpt lat="42.40318" lon="0.36469">
        <ele>914.53</ele>
        <time>2024-10-01T07:43:21.000Z</time>
      </trkpt>
      <trkpt lat="42.4032" lon="0.36457">
        <ele>915.89</ele>
        <time>2024-10-01T07:43:28.000Z</time>
      </trkpt>
      <trkpt lat="42.40323" lon="0.36445">
        <ele>917.03</ele>
        <time>2024-10-01T07:43:34.000Z</time>
      </trkpt>
      <trkpt lat="42.40325" lon="0.36432">
        <ele>918.31</ele>
        <time>2024-10-01T07:43:41.000Z</time>
      </trkpt>
      <trkpt lat="42.40327" lon="0.36419">
        <ele>919.53</ele>
        <time>2024-10-01T07:43:48.000Z</time>
      </trkpt>
      <trkpt lat="42.4033" lon="0.36408">
        <ele>920.53</ele>
        <time>2024-10-01T07:43:54.000Z</time>
      </trkpt>
      <trkpt lat="42.40334" lon="0.36395">
        <ele>921.82</ele>
        <time>2024-10-01T07:44:02.000Z</time>
      </trkpt>
      <trkpt lat="42.40338" lon="0.36383">
        <ele>922.74</ele>
        <time>2024-10-01T07:44:08.000Z</time>
      </trkpt>
      <trkpt lat="42.40342" lon="0.36371">
        <ele>923.77</ele>
        <time>2024-10-01T07:44:15.000Z</time>
      </trkpt>
      <trkpt lat="42.40346" lon="0.36358">
        <ele>924.75</ele>
        <time>2024-10-01T07:44:22.000Z</time>
      </trkpt>
      <trkpt lat="42.40351" lon="0.36347">
        <ele>925.69</ele>
        <time>2024-10-01T07:44:29.000Z</time>
      </trkpt>
      <trkpt lat="42.40357" lon="0.36336">
        <ele>926.6</ele>
        <time>2024-10-01T07:44:36.000Z</time>
      </trkpt>
      <trkpt lat="42.40363" lon="0.36324">
        <ele>927.47</ele>
        <time>2024-10-01T07:44:43.000Z</time>
      </trkpt>
      <trkpt lat="42.40369" lon="0.36313">
        <ele>928.31</ele>
        <time>2024-10-01T07:44:50.000Z</time>
      </trkpt>
      <trkpt lat="42.40375" lon="0.36304">
        <ele>929</ele>
        <time>2024-10-01T07:44:56.000Z</time>
      </trkpt>
      <trkpt lat="42.40382" lon="0.36294">
        <ele>929.79</ele>
        <time>2024-10-01T07:45:03.000Z</time>
      </trkpt>
      <trkpt lat="42.40388" lon="0.36284">
        <ele>930.55</ele>
        <time>2024-10-01T07:45:10.000Z</time>
      </trkpt>
      <trkpt lat="42.40395" lon="0.36276">
        <ele>931.17</ele>
        <time>2024-10-01T07:45:16.000Z</time>
      </trkpt>
      <trkpt lat="42.40401" lon="0.36267">
        <ele>931.78</ele>
        <time>2024-10-01T07:45:22.000Z</time>
      </trkpt>
      <trkpt lat="42.4041" lon="0.3626">
        <ele>932.47</ele>
        <time>2024-10-01T07:45:29.000Z</time>
      </trkpt>
      <trkpt lat="42.40417" lon="0.36253">
        <ele>933.06</ele>
        <time>2024-10-01T07:45:35.000Z</time>
      </trkpt>
      <trkpt lat="42.40425" lon="0.36245">
        <ele>933.73</ele>
        <time>2024-10-01T07:45:42.000Z</time>
      </trkpt>
      <trkpt lat="42.40434" lon="0.36237">
        <ele>934.38</ele>
        <time>2024-10-01T07:45:49.000Z</time>
      </trkpt>
      <trkpt lat="42.40443" lon="0.3623">
        <ele>935.02</ele>
        <time>2024-10-01T07:45:56.000Z</time>
      </trkpt>
      <trkpt lat="42.40451" lon="0.36224">
        <ele>935.55</ele>
        <time>2024-10-01T07:46:02.000Z</time>
      </trkpt>
      <trkpt lat="42.4046" lon="0.36218">
        <ele>936.08</ele>
        <time>2024-10-01T07:46:08.000Z</time>
      </trkpt>
      <trkpt lat="42.40469" lon="0.36213">
        <ele>936.67</ele>
        <time>2024-10-01T07:46:15.000Z</time>
      </trkpt>
      <trkpt lat="42.40478" lon="0.36208">
        <ele>937.18</ele>
        <time>2024-10-01T07:46:21.000Z</time>
      </trkpt>
      <trkpt lat="42.40487" lon="0.36204">
        <ele>937.68</ele>
        <time>2024-10-01T07:46:27.000Z</time>
      </trkpt>
      <trkpt lat="42.40496" lon="0.362">
        <ele>938.17</ele>
        <time>2024-10-01T07:46:33.000Z</time>
      </trkpt>
      <trkpt lat="42.40505" lon="0.36195">
        <ele>938.66</ele>
        <time>2024-10-01T07:46:39.000Z</time>
      </trkpt>
      <trkpt lat="42.40514" lon="0.36191">
        <ele>939.24</ele>
        <time>2024-10-01T07:46:46.000Z</time>
      </trkpt>
      <trkpt lat="42.40523" lon="0.36187">
        <ele>939.72</ele>
        <time>2024-10-01T07:46:52.000Z</time>
      </trkpt>
      <trkpt lat="42.40533" lon="0.36182">
        <ele>940.29</ele>
        <time>2024-10-01T07:46:59.000Z</time>
      </trkpt>
      <trkpt lat="42.40542" lon="0.36179">
        <ele>940.78</ele>
        <time>2024-10-01T07:47:05.000Z</time>
      </trkpt>
      <trkpt lat="42.40551" lon="0.36176">
        <ele>941.27</ele>
        <time>2024-10-01T07:47:11.000Z</time>
      </trkpt>
      <trkpt lat="42.4056" lon="0.36172">
        <ele>941.77</ele>
        <time>2024-10-01T07:47:17.000Z</time>
      </trkpt>
      <trkpt lat="42.40569" lon="0.36168">
        <ele>942.36</ele>
        <time>2024-10-01T07:47:24.000Z</time>
      </trkpt>
      <trkpt lat="42.40579" lon="0.36164">
        <ele>942.94</ele>
        <time>2024-10-01T07:47:31.000Z</time>
      </trkpt>
      <trkpt lat="42.40588" lon="0.3616">
        <ele>943.43</ele>
        <time>2024-10-01T07:47:37.000Z</time>
      </trkpt>
      <trkpt lat="42.40597" lon="0.36155">
        <ele>944.01</ele>
        <time>2024-10-01T07:47:44.000Z</time>
      </trkpt>
      <trkpt lat="42.40607" lon="0.3615">
        <ele>944.57</ele>
        <time>2024-10-01T07:47:51.000Z</time>
      </trkpt>
      <trkpt lat="42.40616" lon="0.36146">
        <ele>945.05</ele>
        <time>2024-10-01T07:47:57.000Z</time>
      </trkpt>
      <trkpt lat="42.40625" lon="0.3614">
        <ele>945.52</ele>
        <time>2024-10-01T07:48:03.000Z</time>
      </trkpt>
      <trkpt lat="42.40633" lon="0.36134">
        <ele>945.9</ele>
        <time>2024-10-01T07:48:08.000Z</time>
      </trkpt>
      <trkpt lat="42.40643" lon="0.36128">
        <ele>946.36</ele>
        <time>2024-10-01T07:48:14.000Z</time>
      </trkpt>
      <trkpt lat="42.40652" lon="0.36121">
        <ele>946.73</ele>
        <time>2024-10-01T07:48:19.000Z</time>
      </trkpt>
      <trkpt lat="42.4066" lon="0.36113">
        <ele>947.09</ele>
        <time>2024-10-01T07:48:24.000Z</time>
      </trkpt>
      <trkpt lat="42.40668" lon="0.36106">
        <ele>947.46</ele>
        <time>2024-10-01T07:48:29.000Z</time>
      </trkpt>
      <trkpt lat="42.40676" lon="0.36099">
        <ele>947.82</ele>
        <time>2024-10-01T07:48:34.000Z</time>
      </trkpt>
      <trkpt lat="42.40683" lon="0.36092">
        <ele>948.17</ele>
        <time>2024-10-01T07:48:39.000Z</time>
      </trkpt>
      <trkpt lat="42.40691" lon="0.36084">
        <ele>948.52</ele>
        <time>2024-10-01T07:48:44.000Z</time>
      </trkpt>
      <trkpt lat="42.40698" lon="0.36075">
        <ele>948.87</ele>
        <time>2024-10-01T07:48:49.000Z</time>
      </trkpt>
      <trkpt lat="42.40705" lon="0.36067">
        <ele>949.21</ele>
        <time>2024-10-01T07:48:54.000Z</time>
      </trkpt>
      <trkpt lat="42.40712" lon="0.36057">
        <ele>949.55</ele>
        <time>2024-10-01T07:48:59.000Z</time>
      </trkpt>
      <trkpt lat="42.40719" lon="0.36048">
        <ele>949.89</ele>
        <time>2024-10-01T07:49:04.000Z</time>
      </trkpt>
      <trkpt lat="42.40725" lon="0.36038">
        <ele>950.23</ele>
        <time>2024-10-01T07:49:09.000Z</time>
      </trkpt>
      <trkpt lat="42.40732" lon="0.36027">
        <ele>950.57</ele>
        <time>2024-10-01T07:49:14.000Z</time>
      </trkpt>
      <trkpt lat="42.40738" lon="0.36016">
        <ele>950.92</ele>
        <time>2024-10-01T07:49:19.000Z</time>
      </trkpt>
      <trkpt lat="42.40745" lon="0.36004">
        <ele>951.26</ele>
        <time>2024-10-01T07:49:24.000Z</time>
      </trkpt>
      <trkpt lat="42.40751" lon="0.35993">
        <ele>951.68</ele>
        <time>2024-10-01T07:49:30.000Z</time>
      </trkpt>
      <trkpt lat="42.40757" lon="0.35981">
        <ele>952.04</ele>
        <time>2024-10-01T07:49:35.000Z</time>
      </trkpt>
      <trkpt lat="42.40762" lon="0.35969">
        <ele>952.39</ele>
        <time>2024-10-01T07:49:40.000Z</time>
      </trkpt>
      <trkpt lat="42.40766" lon="0.35958">
        <ele>952.76</ele>
        <time>2024-10-01T07:49:45.000Z</time>
      </trkpt>
      <trkpt lat="42.40771" lon="0.35946">
        <ele>953.12</ele>
        <time>2024-10-01T07:49:50.000Z</time>
      </trkpt>
      <trkpt lat="42.40776" lon="0.35934">
        <ele>953.5</ele>
        <time>2024-10-01T07:49:55.000Z</time>
      </trkpt>
      <trkpt lat="42.40781" lon="0.35921">
        <ele>953.87</ele>
        <time>2024-10-01T07:50:00.000Z</time>
      </trkpt>
      <trkpt lat="42.40786" lon="0.35909">
        <ele>954.26</ele>
        <time>2024-10-01T07:50:05.000Z</time>
      </trkpt>
      <trkpt lat="42.40791" lon="0.35898">
        <ele>954.64</ele>
        <time>2024-10-01T07:50:10.000Z</time>
      </trkpt>
      <trkpt lat="42.40796" lon="0.35883">
        <ele>955.03</ele>
        <time>2024-10-01T07:50:15.000Z</time>
      </trkpt>
      <trkpt lat="42.408" lon="0.35872">
        <ele>955.41</ele>
        <time>2024-10-01T07:50:20.000Z</time>
      </trkpt>
      <trkpt lat="42.40805" lon="0.35858">
        <ele>955.79</ele>
        <time>2024-10-01T07:50:25.000Z</time>
      </trkpt>
      <trkpt lat="42.4081" lon="0.35843">
        <ele>956.18</ele>
        <time>2024-10-01T07:50:30.000Z</time>
      </trkpt>
      <trkpt lat="42.40816" lon="0.35827">
        <ele>956.58</ele>
        <time>2024-10-01T07:50:35.000Z</time>
      </trkpt>
      <trkpt lat="42.40822" lon="0.35813">
        <ele>957.02</ele>
        <time>2024-10-01T07:50:40.000Z</time>
      </trkpt>
      <trkpt lat="42.40829" lon="0.35799">
        <ele>957.48</ele>
        <time>2024-10-01T07:50:45.000Z</time>
      </trkpt>
      <trkpt lat="42.40835" lon="0.35785">
        <ele>957.96</ele>
        <time>2024-10-01T07:50:50.000Z</time>
      </trkpt>
      <trkpt lat="42.40843" lon="0.35773">
        <ele>958.45</ele>
        <time>2024-10-01T07:50:55.000Z</time>
      </trkpt>
      <trkpt lat="42.40851" lon="0.35762">
        <ele>958.94</ele>
        <time>2024-10-01T07:51:00.000Z</time>
      </trkpt>
      <trkpt lat="42.4086" lon="0.35751">
        <ele>959.43</ele>
        <time>2024-10-01T07:51:05.000Z</time>
      </trkpt>
      <trkpt lat="42.40869" lon="0.3574">
        <ele>959.91</ele>
        <time>2024-10-01T07:51:10.000Z</time>
      </trkpt>
      <trkpt lat="42.40879" lon="0.3573">
        <ele>960.44</ele>
        <time>2024-10-01T07:51:15.000Z</time>
      </trkpt>
      <trkpt lat="42.40889" lon="0.35719">
        <ele>961</ele>
        <time>2024-10-01T07:51:20.000Z</time>
      </trkpt>
      <trkpt lat="42.40899" lon="0.35706">
        <ele>961.61</ele>
        <time>2024-10-01T07:51:25.000Z</time>
      </trkpt>
      <trkpt lat="42.40909" lon="0.35696">
        <ele>962.28</ele>
        <time>2024-10-01T07:51:30.000Z</time>
      </trkpt>
      <trkpt lat="42.40919" lon="0.35686">
        <ele>963.01</ele>
        <time>2024-10-01T07:51:35.000Z</time>
      </trkpt>
      <trkpt lat="42.40929" lon="0.35678">
        <ele>963.71</ele>
        <time>2024-10-01T07:51:40.000Z</time>
      </trkpt>
      <trkpt lat="42.4094" lon="0.3567">
        <ele>964.37</ele>
        <time>2024-10-01T07:51:45.000Z</time>
      </trkpt>
      <trkpt lat="42.40951" lon="0.35663">
        <ele>965</ele>
        <time>2024-10-01T07:51:50.000Z</time>
      </trkpt>
      <trkpt lat="42.40962" lon="0.35655">
        <ele>965.6</ele>
        <time>2024-10-01T07:51:55.000Z</time>
      </trkpt>
      <trkpt lat="42.40973" lon="0.35647">
        <ele>966.19</ele>
        <time>2024-10-01T07:52:00.000Z</time>
      </trkpt>
      <trkpt lat="42.40984" lon="0.35638">
        <ele>966.77</ele>
        <time>2024-10-01T07:52:05.000Z</time>
      </trkpt>
      <trkpt lat="42.40994" lon="0.35631">
        <ele>967.33</ele>
        <time>2024-10-01T07:52:10.000Z</time>
      </trkpt>
      <trkpt lat="42.41004" lon="0.35622">
        <ele>967.9</ele>
        <time>2024-10-01T07:52:15.000Z</time>
      </trkpt>
      <trkpt lat="42.41015" lon="0.35613">
        <ele>968.47</ele>
        <time>2024-10-01T07:52:20.000Z</time>
      </trkpt>
      <trkpt lat="42.41025" lon="0.35602">
        <ele>969.12</ele>
        <time>2024-10-01T07:52:25.000Z</time>
      </trkpt>
      <trkpt lat="42.41033" lon="0.35593">
        <ele>969.85</ele>
        <time>2024-10-01T07:52:30.000Z</time>
      </trkpt>
      <trkpt lat="42.41043" lon="0.35583">
        <ele>970.65</ele>
        <time>2024-10-01T07:52:35.000Z</time>
      </trkpt>
      <trkpt lat="42.41052" lon="0.35572">
        <ele>971.51</ele>
        <time>2024-10-01T07:52:40.000Z</time>
      </trkpt>
      <trkpt lat="42.4106" lon="0.35561">
        <ele>972.39</ele>
        <time>2024-10-01T07:52:45.000Z</time>
      </trkpt>
      <trkpt lat="42.41068" lon="0.3555">
        <ele>973.29</ele>
        <time>2024-10-01T07:52:50.000Z</time>
      </trkpt>
      <trkpt lat="42.41077" lon="0.35537">
        <ele>974.2</ele>
        <time>2024-10-01T07:52:55.000Z</time>
      </trkpt>
      <trkpt lat="42.41084" lon="0.35526">
        <ele>975.12</ele>
        <time>2024-10-01T07:53:00.000Z</time>
      </trkpt>
      <trkpt lat="42.41089" lon="0.35513">
        <ele>976.03</ele>
        <time>2024-10-01T07:53:05.000Z</time>
      </trkpt>
      <trkpt lat="42.41096" lon="0.35498">
        <ele>976.94</ele>
        <time>2024-10-01T07:53:10.000Z</time>
      </trkpt>
      <trkpt lat="42.41102" lon="0.35484">
        <ele>977.85</ele>
        <time>2024-10-01T07:53:15.000Z</time>
      </trkpt>
      <trkpt lat="42.41108" lon="0.35468">
        <ele>978.74</ele>
        <time>2024-10-01T07:53:20.000Z</time>
      </trkpt>
      <trkpt lat="42.41113" lon="0.35451">
        <ele>979.63</ele>
        <time>2024-10-01T07:53:25.000Z</time>
      </trkpt>
      <trkpt lat="42.41117" lon="0.35433">
        <ele>980.5</ele>
        <time>2024-10-01T07:53:30.000Z</time>
      </trkpt>
      <trkpt lat="42.41121" lon="0.35415">
        <ele>981.38</ele>
        <time>2024-10-01T07:53:35.000Z</time>
      </trkpt>
      <trkpt lat="42.41125" lon="0.35396">
        <ele>982.25</ele>
        <time>2024-10-01T07:53:40.000Z</time>
      </trkpt>
      <trkpt lat="42.41127" lon="0.35379">
        <ele>983.12</ele>
        <time>2024-10-01T07:53:45.000Z</time>
      </trkpt>
      <trkpt lat="42.4113" lon="0.3536">
        <ele>983.98</ele>
        <time>2024-10-01T07:53:50.000Z</time>
      </trkpt>
      <trkpt lat="42.4113" lon="0.3534">
        <ele>984.81</ele>
        <time>2024-10-01T07:53:55.000Z</time>
      </trkpt>
      <trkpt lat="42.4113" lon="0.35319">
        <ele>985.63</ele>
        <time>2024-10-01T07:54:00.000Z</time>
      </trkpt>
      <trkpt lat="42.41127" lon="0.35295">
        <ele>987.51</ele>
        <time>2024-10-01T07:54:05.000Z</time>
      </trkpt>
      <trkpt lat="42.41125" lon="0.35268">
        <ele>992.27</ele>
        <time>2024-10-01T07:54:10.000Z</time>
      </trkpt>
      <trkpt lat="42.41121" lon="0.3524">
        <ele>994.27</ele>
        <time>2024-10-01T07:54:15.000Z</time>
      </trkpt>
      <trkpt lat="42.41114" lon="0.35213">
        <ele>995.29</ele>
        <time>2024-10-01T07:54:20.000Z</time>
      </trkpt>
      <trkpt lat="42.41105" lon="0.35184">
        <ele>995.91</ele>
        <time>2024-10-01T07:54:25.000Z</time>
      </trkpt>
      <trkpt lat="42.41095" lon="0.35154">
        <ele>996.38</ele>
        <time>2024-10-01T07:54:30.000Z</time>
      </trkpt>
      <trkpt lat="42.41085" lon="0.35129">
        <ele>996.82</ele>
        <time>2024-10-01T07:54:35.000Z</time>
      </trkpt>
      <trkpt lat="42.41077" lon="0.35105">
        <ele>997.17</ele>
        <time>2024-10-01T07:54:40.000Z</time>
      </trkpt>
      <trkpt lat="42.4107" lon="0.35078">
        <ele>997.48</ele>
        <time>2024-10-01T07:54:45.000Z</time>
      </trkpt>
      <trkpt lat="42.41064" lon="0.35051">
        <ele>997.6</ele>
        <time>2024-10-01T07:54:50.999Z</time>
      </trkpt>
      <trkpt lat="42.41063" lon="0.35027">
        <ele>997.67</ele>
        <time>2024-10-01T07:54:55.999Z</time>
      </trkpt>
      <trkpt lat="42.41059" lon="0.35005">
        <ele>997.77</ele>
        <time>2024-10-01T07:55:00.999Z</time>
      </trkpt>
      <trkpt lat="42.41056" lon="0.34986">
        <ele>997.88</ele>
        <time>2024-10-01T07:55:05.999Z</time>
      </trkpt>
      <trkpt lat="42.41055" lon="0.34963">
        <ele>998.02</ele>
        <time>2024-10-01T07:55:10.999Z</time>
      </trkpt>
      <trkpt lat="42.41055" lon="0.34944">
        <ele>998.18</ele>
        <time>2024-10-01T07:55:15.999Z</time>
      </trkpt>
      <trkpt lat="42.41055" lon="0.34928">
        <ele>998.35</ele>
        <time>2024-10-01T07:55:20.999Z</time>
      </trkpt>
      <trkpt lat="42.41057" lon="0.34915">
        <ele>998.53</ele>
        <time>2024-10-01T07:55:25.999Z</time>
      </trkpt>
      <trkpt lat="42.41055" lon="0.34901">
        <ele>1001.03</ele>
        <time>2024-10-01T07:58:12.999Z</time>
      </trkpt>
      <trkpt lat="42.41055" lon="0.34882">
        <ele>1001.38</ele>
        <time>2024-10-01T07:58:17.999Z</time>
      </trkpt>
      <trkpt lat="42.41056" lon="0.34857">
        <ele>1003.03</ele>
        <time>2024-10-01T07:58:22.999Z</time>
      </trkpt>
      <trkpt lat="42.41057" lon="0.34831">
        <ele>1004.38</ele>
        <time>2024-10-01T07:58:27.999Z</time>
      </trkpt>
      <trkpt lat="42.41058" lon="0.34803">
        <ele>1004.92</ele>
        <time>2024-10-01T07:58:32.999Z</time>
      </trkpt>
      <trkpt lat="42.4106" lon="0.34774">
        <ele>1005.2</ele>
        <time>2024-10-01T07:58:37.999Z</time>
      </trkpt>
      <trkpt lat="42.41062" lon="0.34745">
        <ele>1005.38</ele>
        <time>2024-10-01T07:58:42.999Z</time>
      </trkpt>
      <trkpt lat="42.41064" lon="0.34716">
        <ele>1005.55</ele>
        <time>2024-10-01T07:58:47.999Z</time>
      </trkpt>
      <trkpt lat="42.41066" lon="0.34686">
        <ele>1005.73</ele>
        <time>2024-10-01T07:58:52.999Z</time>
      </trkpt>
      <trkpt lat="42.41069" lon="0.34655">
        <ele>1005.89</ele>
        <time>2024-10-01T07:58:57.999Z</time>
      </trkpt>
      <trkpt lat="42.41072" lon="0.34623">
        <ele>1006.06</ele>
        <time>2024-10-01T07:59:02.999Z</time>
      </trkpt>
      <trkpt lat="42.41075" lon="0.34589">
        <ele>1006.22</ele>
        <time>2024-10-01T07:59:07.999Z</time>
      </trkpt>
      <trkpt lat="42.41078" lon="0.34555">
        <ele>1006.37</ele>
        <time>2024-10-01T07:59:12.999Z</time>
      </trkpt>
      <trkpt lat="42.41081" lon="0.34521">
        <ele>1006.5</ele>
        <time>2024-10-01T07:59:17.999Z</time>
      </trkpt>
      <trkpt lat="42.41084" lon="0.34487">
        <ele>1006.63</ele>
        <time>2024-10-01T07:59:22.999Z</time>
      </trkpt>
      <trkpt lat="42.41087" lon="0.34452">
        <ele>1006.75</ele>
        <time>2024-10-01T07:59:27.999Z</time>
      </trkpt>
      <trkpt lat="42.41091" lon="0.34418">
        <ele>1006.86</ele>
        <time>2024-10-01T07:59:32.999Z</time>
      </trkpt>
      <trkpt lat="42.41095" lon="0.34386">
        <ele>1006.96</ele>
        <time>2024-10-01T07:59:37.999Z</time>
      </trkpt>
      <trkpt lat="42.411" lon="0.34358">
        <ele>1007.05</ele>
        <time>2024-10-01T07:59:42.999Z</time>
      </trkpt>
      <trkpt lat="42.41106" lon="0.34333">
        <ele>1007.11</ele>
        <time>2024-10-01T07:59:47.999Z</time>
      </trkpt>
      <trkpt lat="42.41114" lon="0.34311">
        <ele>1007.13</ele>
        <time>2024-10-01T07:59:52.999Z</time>
      </trkpt>
      <trkpt lat="42.41121" lon="0.34293">
        <ele>1007.16</ele>
        <time>2024-10-01T07:59:57.999Z</time>
      </trkpt>
      <trkpt lat="42.41129" lon="0.34274">
        <ele>1007.2</ele>
        <time>2024-10-01T08:00:02.999Z</time>
      </trkpt>
      <trkpt lat="42.41138" lon="0.34256">
        <ele>1007.24</ele>
        <time>2024-10-01T08:00:07.999Z</time>
      </trkpt>
      <trkpt lat="42.41147" lon="0.34237">
        <ele>1007.29</ele>
        <time>2024-10-01T08:00:12.999Z</time>
      </trkpt>
      <trkpt lat="42.41157" lon="0.3422">
        <ele>1007.35</ele>
        <time>2024-10-01T08:00:17.999Z</time>
      </trkpt>
      <trkpt lat="42.41169" lon="0.34204">
        <ele>1007.41</ele>
        <time>2024-10-01T08:00:22.999Z</time>
      </trkpt>
      <trkpt lat="42.41178" lon="0.34189">
        <ele>1007.47</ele>
        <time>2024-10-01T08:00:27.999Z</time>
      </trkpt>
      <trkpt lat="42.41188" lon="0.34174">
        <ele>1007.54</ele>
        <time>2024-10-01T08:00:32.999Z</time>
      </trkpt>
      <trkpt lat="42.41198" lon="0.3416">
        <ele>1007.61</ele>
        <time>2024-10-01T08:00:37.999Z</time>
      </trkpt>
      <trkpt lat="42.41209" lon="0.34145">
        <ele>1007.69</ele>
        <time>2024-10-01T08:00:42.999Z</time>
      </trkpt>
      <trkpt lat="42.41218" lon="0.3413">
        <ele>1007.77</ele>
        <time>2024-10-01T08:00:47.999Z</time>
      </trkpt>
      <trkpt lat="42.41227" lon="0.34115">
        <ele>1007.86</ele>
        <time>2024-10-01T08:00:52.999Z</time>
      </trkpt>
      <trkpt lat="42.41236" lon="0.341">
        <ele>1007.95</ele>
        <time>2024-10-01T08:00:57.999Z</time>
      </trkpt>
      <trkpt lat="42.41244" lon="0.34083">
        <ele>1008.04</ele>
        <time>2024-10-01T08:01:02.999Z</time>
      </trkpt>
      <trkpt lat="42.41252" lon="0.34066">
        <ele>1008.14</ele>
        <time>2024-10-01T08:01:07.999Z</time>
      </trkpt>
      <trkpt lat="42.41261" lon="0.34047">
        <ele>1008.25</ele>
        <time>2024-10-01T08:01:12.999Z</time>
      </trkpt>
      <trkpt lat="42.41269" lon="0.34029">
        <ele>1008.36</ele>
        <time>2024-10-01T08:01:17.999Z</time>
      </trkpt>
      <trkpt lat="42.41277" lon="0.3401">
        <ele>1008.47</ele>
        <time>2024-10-01T08:01:22.999Z</time>
      </trkpt>
      <trkpt lat="42.41286" lon="0.33991">
        <ele>1008.59</ele>
        <time>2024-10-01T08:01:27.999Z</time>
      </trkpt>
      <trkpt lat="42.41294" lon="0.33973">
        <ele>1008.72</ele>
        <time>2024-10-01T08:01:32.999Z</time>
      </trkpt>
      <trkpt lat="42.41303" lon="0.33956">
        <ele>1008.85</ele>
        <time>2024-10-01T08:01:37.999Z</time>
      </trkpt>
      <trkpt lat="42.4131" lon="0.3394">
        <ele>1008.98</ele>
        <time>2024-10-01T08:01:42.999Z</time>
      </trkpt>
      <trkpt lat="42.41317" lon="0.33926">
        <ele>1009.12</ele>
        <time>2024-10-01T08:01:47.999Z</time>
      </trkpt>
      <trkpt lat="42.41324" lon="0.33911">
        <ele>1009.25</ele>
        <time>2024-10-01T08:01:52.999Z</time>
      </trkpt>
      <trkpt lat="42.41328" lon="0.33894">
        <ele>1009.38</ele>
        <time>2024-10-01T08:01:57.999Z</time>
      </trkpt>
      <trkpt lat="42.41331" lon="0.3388">
        <ele>1009.51</ele>
        <time>2024-10-01T08:02:02.999Z</time>
      </trkpt>
      <trkpt lat="42.41329" lon="0.33868">
        <ele>1010.72</ele>
        <time>2024-10-01T08:04:14.999Z</time>
      </trkpt>
      <trkpt lat="42.41339" lon="0.33869">
        <ele>1015.06</ele>
        <time>2024-10-01T08:11:25.000Z</time>
      </trkpt>
      <trkpt lat="42.41353" lon="0.33852">
        <ele>1015.71</ele>
        <time>2024-10-01T08:11:30.000Z</time>
      </trkpt>
      <trkpt lat="42.41367" lon="0.3383">
        <ele>1016.51</ele>
        <time>2024-10-01T08:11:35.000Z</time>
      </trkpt>
      <trkpt lat="42.41382" lon="0.33804">
        <ele>1016.79</ele>
        <time>2024-10-01T08:11:40.000Z</time>
      </trkpt>
      <trkpt lat="42.41398" lon="0.33776">
        <ele>1016.86</ele>
        <time>2024-10-01T08:11:45.000Z</time>
      </trkpt>
      <trkpt lat="42.41417" lon="0.33744">
        <ele>1016.9</ele>
        <time>2024-10-01T08:11:50.000Z</time>
      </trkpt>
      <trkpt lat="42.41438" lon="0.33707">
        <ele>1016.92</ele>
        <time>2024-10-01T08:11:55.000Z</time>
      </trkpt>
      <trkpt lat="42.41461" lon="0.33668">
        <ele>1016.88</ele>
        <time>2024-10-01T08:12:00.000Z</time>
      </trkpt>
      <trkpt lat="42.41485" lon="0.33626">
        <ele>1016.78</ele>
        <time>2024-10-01T08:12:05.000Z</time>
      </trkpt>
      <trkpt lat="42.4151" lon="0.33583">
        <ele>1016.66</ele>
        <time>2024-10-01T08:12:10.000Z</time>
      </trkpt>
      <trkpt lat="42.41535" lon="0.3354">
        <ele>1016.52</ele>
        <time>2024-10-01T08:12:15.000Z</time>
      </trkpt>
      <trkpt lat="42.4156" lon="0.33497">
        <ele>1016.29</ele>
        <time>2024-10-01T08:12:20.000Z</time>
      </trkpt>
      <trkpt lat="42.41585" lon="0.33454">
        <ele>1016.06</ele>
        <time>2024-10-01T08:12:25.000Z</time>
      </trkpt>
      <trkpt lat="42.41611" lon="0.3341">
        <ele>1015.72</ele>
        <time>2024-10-01T08:12:30.000Z</time>
      </trkpt>
      <trkpt lat="42.41638" lon="0.33365">
        <ele>1015.22</ele>
        <time>2024-10-01T08:12:35.000Z</time>
      </trkpt>
      <trkpt lat="42.41664" lon="0.33318">
        <ele>1014.73</ele>
        <time>2024-10-01T08:12:40.000Z</time>
      </trkpt>
      <trkpt lat="42.41691" lon="0.33272">
        <ele>1014.22</ele>
        <time>2024-10-01T08:12:45.000Z</time>
      </trkpt>
      <trkpt lat="42.41719" lon="0.33226">
        <ele>1013.64</ele>
        <time>2024-10-01T08:12:50.000Z</time>
      </trkpt>
      <trkpt lat="42.41746" lon="0.33179">
        <ele>1012.94</ele>
        <time>2024-10-01T08:12:55.000Z</time>
      </trkpt>
      <trkpt lat="42.41773" lon="0.33132">
        <ele>1012.26</ele>
        <time>2024-10-01T08:13:00.000Z</time>
      </trkpt>
      <trkpt lat="42.41801" lon="0.33085">
        <ele>1011.47</ele>
        <time>2024-10-01T08:13:05.000Z</time>
      </trkpt>
      <trkpt lat="42.41828" lon="0.33038">
        <ele>1010.59</ele>
        <time>2024-10-01T08:13:10.000Z</time>
      </trkpt>
      <trkpt lat="42.41856" lon="0.32992">
        <ele>1009.62</ele>
        <time>2024-10-01T08:13:15.000Z</time>
      </trkpt>
      <trkpt lat="42.41883" lon="0.32945">
        <ele>1008.75</ele>
        <time>2024-10-01T08:13:20.000Z</time>
      </trkpt>
      <trkpt lat="42.41911" lon="0.32897">
        <ele>1007.7</ele>
        <time>2024-10-01T08:13:25.000Z</time>
      </trkpt>
      <trkpt lat="42.41939" lon="0.32849">
        <ele>1006.57</ele>
        <time>2024-10-01T08:13:30.000Z</time>
      </trkpt>
      <trkpt lat="42.41967" lon="0.328">
        <ele>1005.42</ele>
        <time>2024-10-01T08:13:35.000Z</time>
      </trkpt>
      <trkpt lat="42.41996" lon="0.3275">
        <ele>1004.24</ele>
        <time>2024-10-01T08:13:40.000Z</time>
      </trkpt>
      <trkpt lat="42.42025" lon="0.32701">
        <ele>1002.9</ele>
        <time>2024-10-01T08:13:45.000Z</time>
      </trkpt>
      <trkpt lat="42.42053" lon="0.32652">
        <ele>1001.54</ele>
        <time>2024-10-01T08:13:50.000Z</time>
      </trkpt>
      <trkpt lat="42.42082" lon="0.32602">
        <ele>1000.14</ele>
        <time>2024-10-01T08:13:55.000Z</time>
      </trkpt>
      <trkpt lat="42.42112" lon="0.32551">
        <ele>998.67</ele>
        <time>2024-10-01T08:14:00.000Z</time>
      </trkpt>
      <trkpt lat="42.42144" lon="0.32498">
        <ele>997.17</ele>
        <time>2024-10-01T08:14:05.000Z</time>
      </trkpt>
      <trkpt lat="42.42176" lon="0.32443">
        <ele>995.54</ele>
        <time>2024-10-01T08:14:10.000Z</time>
      </trkpt>
      <trkpt lat="42.42209" lon="0.32387">
        <ele>993.79</ele>
        <time>2024-10-01T08:14:15.000Z</time>
      </trkpt>
      <trkpt lat="42.42243" lon="0.3233">
        <ele>991.9</ele>
        <time>2024-10-01T08:14:20.000Z</time>
      </trkpt>
      <trkpt lat="42.42276" lon="0.32269">
        <ele>989.97</ele>
        <time>2024-10-01T08:14:25.000Z</time>
      </trkpt>
      <trkpt lat="42.42305" lon="0.32204">
        <ele>987.92</ele>
        <time>2024-10-01T08:14:30.000Z</time>
      </trkpt>
      <trkpt lat="42.42331" lon="0.32134">
        <ele>985.67</ele>
        <time>2024-10-01T08:14:35.000Z</time>
      </trkpt>
      <trkpt lat="42.42357" lon="0.32063">
        <ele>983.19</ele>
        <time>2024-10-01T08:14:40.000Z</time>
      </trkpt>
      <trkpt lat="42.42387" lon="0.31992">
        <ele>980.63</ele>
        <time>2024-10-01T08:14:45.000Z</time>
      </trkpt>
      <trkpt lat="42.42423" lon="0.31926">
        <ele>978.06</ele>
        <time>2024-10-01T08:14:50.000Z</time>
      </trkpt>
      <trkpt lat="42.42468" lon="0.31868">
        <ele>975.39</ele>
        <time>2024-10-01T08:14:55.000Z</time>
      </trkpt>
      <trkpt lat="42.42517" lon="0.31817">
        <ele>972.75</ele>
        <time>2024-10-01T08:15:00.000Z</time>
      </trkpt>
      <trkpt lat="42.42565" lon="0.31769">
        <ele>970.01</ele>
        <time>2024-10-01T08:15:05.000Z</time>
      </trkpt>
      <trkpt lat="42.42608" lon="0.31723">
        <ele>967.51</ele>
        <time>2024-10-01T08:15:10.000Z</time>
      </trkpt>
      <trkpt lat="42.42648" lon="0.31677">
        <ele>964.71</ele>
        <time>2024-10-01T08:15:15.000Z</time>
      </trkpt>
      <trkpt lat="42.42687" lon="0.3163">
        <ele>961.81</ele>
        <time>2024-10-01T08:15:20.000Z</time>
      </trkpt>
      <trkpt lat="42.42726" lon="0.31581">
        <ele>958.71</ele>
        <time>2024-10-01T08:15:25.000Z</time>
      </trkpt>
      <trkpt lat="42.42765" lon="0.3153">
        <ele>955.38</ele>
        <time>2024-10-01T08:15:30.000Z</time>
      </trkpt>
      <trkpt lat="42.42805" lon="0.3147">
        <ele>952.13</ele>
        <time>2024-10-01T08:15:35.000Z</time>
      </trkpt>
      <trkpt lat="42.42846" lon="0.31403">
        <ele>948.62</ele>
        <time>2024-10-01T08:15:40.000Z</time>
      </trkpt>
      <trkpt lat="42.42888" lon="0.31328">
        <ele>944.84</ele>
        <time>2024-10-01T08:15:45.000Z</time>
      </trkpt>
      <trkpt lat="42.4293" lon="0.31247">
        <ele>940.74</ele>
        <time>2024-10-01T08:15:50.000Z</time>
      </trkpt>
      <trkpt lat="42.42968" lon="0.31159">
        <ele>936.3</ele>
        <time>2024-10-01T08:15:55.000Z</time>
      </trkpt>
      <trkpt lat="42.43005" lon="0.31074">
        <ele>931.65</ele>
        <time>2024-10-01T08:16:00.000Z</time>
      </trkpt>
      <trkpt lat="42.43037" lon="0.30982">
        <ele>924.36</ele>
        <time>2024-10-01T08:16:05.000Z</time>
      </trkpt>
      <trkpt lat="42.43067" lon="0.30888">
        <ele>916.11</ele>
        <time>2024-10-01T08:16:10.000Z</time>
      </trkpt>
      <trkpt lat="42.43093" lon="0.3079">
        <ele>908.53</ele>
        <time>2024-10-01T08:16:15.000Z</time>
      </trkpt>
      <trkpt lat="42.43116" lon="0.30695">
        <ele>901.54</ele>
        <time>2024-10-01T08:16:20.000Z</time>
      </trkpt>
      <trkpt lat="42.43136" lon="0.306">
        <ele>892.79</ele>
        <time>2024-10-01T08:16:25.000Z</time>
      </trkpt>
      <trkpt lat="42.43157" lon="0.30507">
        <ele>884.83</ele>
        <time>2024-10-01T08:16:30.000Z</time>
      </trkpt>
      <trkpt lat="42.43166" lon="0.30413">
        <ele>878.02</ele>
        <time>2024-10-01T08:16:35.000Z</time>
      </trkpt>
      <trkpt lat="42.43164" lon="0.30319">
        <ele>872.1</ele>
        <time>2024-10-01T08:16:40.000Z</time>
      </trkpt>
      <trkpt lat="42.43147" lon="0.30229">
        <ele>864.79</ele>
        <time>2024-10-01T08:16:45.000Z</time>
      </trkpt>
      <trkpt lat="42.43121" lon="0.30144">
        <ele>857.19</ele>
        <time>2024-10-01T08:16:50.000Z</time>
      </trkpt>
      <trkpt lat="42.43095" lon="0.3006">
        <ele>851.2</ele>
        <time>2024-10-01T08:16:55.000Z</time>
      </trkpt>
      <trkpt lat="42.43069" lon="0.29975">
        <ele>845.65</ele>
        <time>2024-10-01T08:17:00.000Z</time>
      </trkpt>
      <trkpt lat="42.43043" lon="0.2989">
        <ele>840.45</ele>
        <time>2024-10-01T08:17:05.000Z</time>
      </trkpt>
      <trkpt lat="42.43016" lon="0.29807">
        <ele>835.76</ele>
        <time>2024-10-01T08:17:10.000Z</time>
      </trkpt>
      <trkpt lat="42.4299" lon="0.29724">
        <ele>831.05</ele>
        <time>2024-10-01T08:17:15.000Z</time>
      </trkpt>
      <trkpt lat="42.42968" lon="0.29641">
        <ele>826.57</ele>
        <time>2024-10-01T08:17:20.000Z</time>
      </trkpt>
      <trkpt lat="42.42948" lon="0.29557">
        <ele>822.62</ele>
        <time>2024-10-01T08:17:25.000Z</time>
      </trkpt>
      <trkpt lat="42.42932" lon="0.29473">
        <ele>818.76</ele>
        <time>2024-10-01T08:17:30.000Z</time>
      </trkpt>
      <trkpt lat="42.42918" lon="0.29389">
        <ele>814.83</ele>
        <time>2024-10-01T08:17:35.000Z</time>
      </trkpt>
      <trkpt lat="42.42908" lon="0.29306">
        <ele>810.79</ele>
        <time>2024-10-01T08:17:40.000Z</time>
      </trkpt>
      <trkpt lat="42.429" lon="0.29225">
        <ele>806.75</ele>
        <time>2024-10-01T08:17:45.000Z</time>
      </trkpt>
      <trkpt lat="42.42894" lon="0.29145">
        <ele>802.66</ele>
        <time>2024-10-01T08:17:50.000Z</time>
      </trkpt>
      <trkpt lat="42.42888" lon="0.29066">
        <ele>798.59</ele>
        <time>2024-10-01T08:17:55.000Z</time>
      </trkpt>
      <trkpt lat="42.42877" lon="0.28988">
        <ele>793.43</ele>
        <time>2024-10-01T08:18:00.000Z</time>
      </trkpt>
      <trkpt lat="42.42861" lon="0.28909">
        <ele>787.12</ele>
        <time>2024-10-01T08:18:05.000Z</time>
      </trkpt>
      <trkpt lat="42.42841" lon="0.28828">
        <ele>781.46</ele>
        <time>2024-10-01T08:18:10.000Z</time>
      </trkpt>
      <trkpt lat="42.42817" lon="0.28745">
        <ele>776.42</ele>
        <time>2024-10-01T08:18:15.000Z</time>
      </trkpt>
      <trkpt lat="42.42794" lon="0.28659">
        <ele>771.03</ele>
        <time>2024-10-01T08:18:20.000Z</time>
      </trkpt>
      <trkpt lat="42.4277" lon="0.28573">
        <ele>766.09</ele>
        <time>2024-10-01T08:18:25.000Z</time>
      </trkpt>
      <trkpt lat="42.42748" lon="0.2849">
        <ele>758.82</ele>
        <time>2024-10-01T08:18:30.000Z</time>
      </trkpt>
      <trkpt lat="42.42726" lon="0.28411">
        <ele>752.3</ele>
        <time>2024-10-01T08:18:35.000Z</time>
      </trkpt>
      <trkpt lat="42.42706" lon="0.28339">
        <ele>747.43</ele>
        <time>2024-10-01T08:18:40.000Z</time>
      </trkpt>
      <trkpt lat="42.42687" lon="0.28276">
        <ele>743.89</ele>
        <time>2024-10-01T08:18:45.000Z</time>
      </trkpt>
      <trkpt lat="42.42667" lon="0.28222">
        <ele>740.98</ele>
        <time>2024-10-01T08:18:50.000Z</time>
      </trkpt>
      <trkpt lat="42.42644" lon="0.28175">
        <ele>738.51</ele>
        <time>2024-10-01T08:18:55.000Z</time>
      </trkpt>
      <trkpt lat="42.42619" lon="0.28136">
        <ele>736.52</ele>
        <time>2024-10-01T08:19:00.000Z</time>
      </trkpt>
      <trkpt lat="42.42593" lon="0.28105">
        <ele>734.85</ele>
        <time>2024-10-01T08:19:05.000Z</time>
      </trkpt>
      <trkpt lat="42.42571" lon="0.28079">
        <ele>733.43</ele>
        <time>2024-10-01T08:19:10.000Z</time>
      </trkpt>
      <trkpt lat="42.42548" lon="0.28056">
        <ele>732.43</ele>
        <time>2024-10-01T08:19:15.999Z</time>
      </trkpt>
      <trkpt lat="42.42535" lon="0.28043">
        <ele>732.33</ele>
        <time>2024-10-01T08:19:20.999Z</time>
      </trkpt>
      <trkpt lat="42.42523" lon="0.28032">
        <ele>732.24</ele>
        <time>2024-10-01T08:19:25.999Z</time>
      </trkpt>
      <trkpt lat="42.42513" lon="0.28022">
        <ele>732.16</ele>
        <time>2024-10-01T08:19:30.999Z</time>
      </trkpt>
      <trkpt lat="42.42501" lon="0.28011">
        <ele>732.04</ele>
        <time>2024-10-01T08:19:35.999Z</time>
      </trkpt>
      <trkpt lat="42.4249" lon="0.28001">
        <ele>731.89</ele>
        <time>2024-10-01T08:19:40.999Z</time>
      </trkpt>
      <trkpt lat="42.42479" lon="0.27991">
        <ele>731.7</ele>
        <time>2024-10-01T08:19:45.999Z</time>
      </trkpt>
      <trkpt lat="42.42468" lon="0.27981">
        <ele>731.53</ele>
        <time>2024-10-01T08:19:50.999Z</time>
      </trkpt>
      <trkpt lat="42.42457" lon="0.2797">
        <ele>731.4</ele>
        <time>2024-10-01T08:19:55.999Z</time>
      </trkpt>
      <trkpt lat="42.42445" lon="0.27959">
        <ele>731.33</ele>
        <time>2024-10-01T08:20:00.999Z</time>
      </trkpt>
      <trkpt lat="42.42434" lon="0.27948">
        <ele>731.31</ele>
        <time>2024-10-01T08:20:05.999Z</time>
      </trkpt>
      <trkpt lat="42.42424" lon="0.27937">
        <ele>731.24</ele>
        <time>2024-10-01T08:20:10.999Z</time>
      </trkpt>
      <trkpt lat="42.42414" lon="0.27927">
        <ele>731.2</ele>
        <time>2024-10-01T08:20:15.999Z</time>
      </trkpt>
      <trkpt lat="42.42404" lon="0.27915">
        <ele>731.17</ele>
        <time>2024-10-01T08:20:20.999Z</time>
      </trkpt>
      <trkpt lat="42.42394" lon="0.27903">
        <ele>731.15</ele>
        <time>2024-10-01T08:20:25.999Z</time>
      </trkpt>
      <trkpt lat="42.42385" lon="0.2789">
        <ele>731.16</ele>
        <time>2024-10-01T08:20:30.999Z</time>
      </trkpt>
      <trkpt lat="42.42375" lon="0.27879">
        <ele>731.16</ele>
        <time>2024-10-01T08:20:35.999Z</time>
      </trkpt>
      <trkpt lat="42.42366" lon="0.27866">
        <ele>731.19</ele>
        <time>2024-10-01T08:20:40.999Z</time>
      </trkpt>
      <trkpt lat="42.42355" lon="0.27853">
        <ele>731.24</ele>
        <time>2024-10-01T08:20:45.999Z</time>
      </trkpt>
      <trkpt lat="42.42345" lon="0.27838">
        <ele>731.29</ele>
        <time>2024-10-01T08:20:50.999Z</time>
      </trkpt>
      <trkpt lat="42.42334" lon="0.27823">
        <ele>731.34</ele>
        <time>2024-10-01T08:20:55.999Z</time>
      </trkpt>
      <trkpt lat="42.42325" lon="0.27808">
        <ele>731.38</ele>
        <time>2024-10-01T08:21:00.999Z</time>
      </trkpt>
      <trkpt lat="42.42315" lon="0.27793">
        <ele>731.42</ele>
        <time>2024-10-01T08:21:05.999Z</time>
      </trkpt>
      <trkpt lat="42.42305" lon="0.27777">
        <ele>731.45</ele>
        <time>2024-10-01T08:21:10.999Z</time>
      </trkpt>
      <trkpt lat="42.42294" lon="0.2776">
        <ele>731.47</ele>
        <time>2024-10-01T08:21:15.999Z</time>
      </trkpt>
      <trkpt lat="42.42282" lon="0.27742">
        <ele>731.49</ele>
        <time>2024-10-01T08:21:20.999Z</time>
      </trkpt>
      <trkpt lat="42.42269" lon="0.27723">
        <ele>731.54</ele>
        <time>2024-10-01T08:21:25.999Z</time>
      </trkpt>
      <trkpt lat="42.42257" lon="0.27703">
        <ele>731.65</ele>
        <time>2024-10-01T08:21:30.999Z</time>
      </trkpt>
      <trkpt lat="42.42243" lon="0.27682">
        <ele>731.7</ele>
        <time>2024-10-01T08:21:35.999Z</time>
      </trkpt>
      <trkpt lat="42.42228" lon="0.2766">
        <ele>731.71</ele>
        <time>2024-10-01T08:21:40.999Z</time>
      </trkpt>
      <trkpt lat="42.42213" lon="0.27636">
        <ele>731.72</ele>
        <time>2024-10-01T08:21:45.999Z</time>
      </trkpt>
      <trkpt lat="42.42196" lon="0.2761">
        <ele>731.72</ele>
        <time>2024-10-01T08:21:50.999Z</time>
      </trkpt>
      <trkpt lat="42.42177" lon="0.27581">
        <ele>731.71</ele>
        <time>2024-10-01T08:21:55.999Z</time>
      </trkpt>
      <trkpt lat="42.42157" lon="0.2755">
        <ele>731.66</ele>
        <time>2024-10-01T08:22:00.999Z</time>
      </trkpt>
      <trkpt lat="42.42136" lon="0.27517">
        <ele>731.61</ele>
        <time>2024-10-01T08:22:05.999Z</time>
      </trkpt>
      <trkpt lat="42.42113" lon="0.27481">
        <ele>731.42</ele>
        <time>2024-10-01T08:22:10.999Z</time>
      </trkpt>
      <trkpt lat="42.42086" lon="0.27442">
        <ele>730.84</ele>
        <time>2024-10-01T08:22:15.999Z</time>
      </trkpt>
      <trkpt lat="42.42059" lon="0.27401">
        <ele>730.55</ele>
        <time>2024-10-01T08:22:20.999Z</time>
      </trkpt>
      <trkpt lat="42.42035" lon="0.2736">
        <ele>730.51</ele>
        <time>2024-10-01T08:22:25.999Z</time>
      </trkpt>
      <trkpt lat="42.4201" lon="0.27321">
        <ele>730.43</ele>
        <time>2024-10-01T08:22:30.999Z</time>
      </trkpt>
      <trkpt lat="42.41985" lon="0.27283">
        <ele>730.31</ele>
        <time>2024-10-01T08:22:35.999Z</time>
      </trkpt>
      <trkpt lat="42.4196" lon="0.27245">
        <ele>730.1</ele>
        <time>2024-10-01T08:22:40.999Z</time>
      </trkpt>
      <trkpt lat="42.41935" lon="0.27206">
        <ele>729.84</ele>
        <time>2024-10-01T08:22:45.999Z</time>
      </trkpt>
      <trkpt lat="42.4191" lon="0.27167">
        <ele>729.35</ele>
        <time>2024-10-01T08:22:50.999Z</time>
      </trkpt>
      <trkpt lat="42.41883" lon="0.27127">
        <ele>728.73</ele>
        <time>2024-10-01T08:22:55.999Z</time>
      </trkpt>
      <trkpt lat="42.41856" lon="0.27086">
        <ele>727.98</ele>
        <time>2024-10-01T08:23:00.999Z</time>
      </trkpt>
      <trkpt lat="42.4183" lon="0.27045">
        <ele>727.19</ele>
        <time>2024-10-01T08:23:05.999Z</time>
      </trkpt>
      <trkpt lat="42.41803" lon="0.27004">
        <ele>726.31</ele>
        <time>2024-10-01T08:23:10.999Z</time>
      </trkpt>
      <trkpt lat="42.41777" lon="0.26964">
        <ele>725.3</ele>
        <time>2024-10-01T08:23:15.999Z</time>
      </trkpt>
      <trkpt lat="42.41751" lon="0.26926">
        <ele>724.41</ele>
        <time>2024-10-01T08:23:20.999Z</time>
      </trkpt>
      <trkpt lat="42.41726" lon="0.26886">
        <ele>723.68</ele>
        <time>2024-10-01T08:23:25.999Z</time>
      </trkpt>
      <trkpt lat="42.41699" lon="0.26846">
        <ele>722.95</ele>
        <time>2024-10-01T08:23:30.999Z</time>
      </trkpt>
      <trkpt lat="42.41673" lon="0.26806">
        <ele>722.2</ele>
        <time>2024-10-01T08:23:35.999Z</time>
      </trkpt>
      <trkpt lat="42.41646" lon="0.26765">
        <ele>721.35</ele>
        <time>2024-10-01T08:23:40.999Z</time>
      </trkpt>
      <trkpt lat="42.41621" lon="0.26726">
        <ele>720.47</ele>
        <time>2024-10-01T08:23:45.999Z</time>
      </trkpt>
      <trkpt lat="42.41597" lon="0.26687">
        <ele>719.64</ele>
        <time>2024-10-01T08:23:50.999Z</time>
      </trkpt>
      <trkpt lat="42.41572" lon="0.26648">
        <ele>718.7</ele>
        <time>2024-10-01T08:23:55.999Z</time>
      </trkpt>
      <trkpt lat="42.41548" lon="0.26611">
        <ele>717.8</ele>
        <time>2024-10-01T08:24:00.999Z</time>
      </trkpt>
      <trkpt lat="42.41524" lon="0.26575">
        <ele>716.82</ele>
        <time>2024-10-01T08:24:05.999Z</time>
      </trkpt>
      <trkpt lat="42.415" lon="0.26538">
        <ele>715.85</ele>
        <time>2024-10-01T08:24:10.999Z</time>
      </trkpt>
      <trkpt lat="42.41474" lon="0.26501">
        <ele>714.96</ele>
        <time>2024-10-01T08:24:15.999Z</time>
      </trkpt>
      <trkpt lat="42.41449" lon="0.26462">
        <ele>714.07</ele>
        <time>2024-10-01T08:24:20.999Z</time>
      </trkpt>
      <trkpt lat="42.41424" lon="0.26424">
        <ele>713.06</ele>
        <time>2024-10-01T08:24:25.999Z</time>
      </trkpt>
      <trkpt lat="42.414" lon="0.26388">
        <ele>712.09</ele>
        <time>2024-10-01T08:24:30.999Z</time>
      </trkpt>
      <trkpt lat="42.41377" lon="0.26351">
        <ele>711.13</ele>
        <time>2024-10-01T08:24:35.999Z</time>
      </trkpt>
      <trkpt lat="42.41353" lon="0.26316">
        <ele>710.16</ele>
        <time>2024-10-01T08:24:40.999Z</time>
      </trkpt>
      <trkpt lat="42.41329" lon="0.26279">
        <ele>709.1</ele>
        <time>2024-10-01T08:24:45.999Z</time>
      </trkpt>
      <trkpt lat="42.41304" lon="0.26239">
        <ele>707.95</ele>
        <time>2024-10-01T08:24:50.999Z</time>
      </trkpt>
      <trkpt lat="42.41277" lon="0.26199">
        <ele>706.58</ele>
        <time>2024-10-01T08:24:55.999Z</time>
      </trkpt>
      <trkpt lat="42.41249" lon="0.26156">
        <ele>705.12</ele>
        <time>2024-10-01T08:25:00.999Z</time>
      </trkpt>
      <trkpt lat="42.41219" lon="0.26109">
        <ele>703.58</ele>
        <time>2024-10-01T08:25:05.999Z</time>
      </trkpt>
      <trkpt lat="42.41187" lon="0.2606">
        <ele>701.53</ele>
        <time>2024-10-01T08:25:10.999Z</time>
      </trkpt>
      <trkpt lat="42.41152" lon="0.26009">
        <ele>699.05</ele>
        <time>2024-10-01T08:25:15.999Z</time>
      </trkpt>
      <trkpt lat="42.41116" lon="0.25952">
        <ele>696.38</ele>
        <time>2024-10-01T08:25:20.999Z</time>
      </trkpt>
      <trkpt lat="42.41077" lon="0.25893">
        <ele>693.52</ele>
        <time>2024-10-01T08:25:25.999Z</time>
      </trkpt>
      <trkpt lat="42.41033" lon="0.25832">
        <ele>690.7</ele>
        <time>2024-10-01T08:25:30.999Z</time>
      </trkpt>
      <trkpt lat="42.40986" lon="0.2577">
        <ele>687.21</ele>
        <time>2024-10-01T08:25:35.999Z</time>
      </trkpt>
      <trkpt lat="42.40938" lon="0.25707">
        <ele>683.63</ele>
        <time>2024-10-01T08:25:40.999Z</time>
      </trkpt>
      <trkpt lat="42.40887" lon="0.25643">
        <ele>680.06</ele>
        <time>2024-10-01T08:25:45.999Z</time>
      </trkpt>
      <trkpt lat="42.40839" lon="0.25578">
        <ele>675.97</ele>
        <time>2024-10-01T08:25:50.999Z</time>
      </trkpt>
      <trkpt lat="42.40795" lon="0.25517">
        <ele>670.88</ele>
        <time>2024-10-01T08:25:55.999Z</time>
      </trkpt>
      <trkpt lat="42.40766" lon="0.2545">
        <ele>666.24</ele>
        <time>2024-10-01T08:26:00.999Z</time>
      </trkpt>
      <trkpt lat="42.4075" lon="0.25387">
        <ele>662.24</ele>
        <time>2024-10-01T08:26:05.999Z</time>
      </trkpt>
      <trkpt lat="42.40742" lon="0.25329">
        <ele>658.75</ele>
        <time>2024-10-01T08:26:10.999Z</time>
      </trkpt>
      <trkpt lat="42.40733" lon="0.25275">
        <ele>655.66</ele>
        <time>2024-10-01T08:26:15.999Z</time>
      </trkpt>
      <trkpt lat="42.40727" lon="0.25225">
        <ele>652.98</ele>
        <time>2024-10-01T08:26:20.999Z</time>
      </trkpt>
      <trkpt lat="42.40725" lon="0.25175">
        <ele>650.53</ele>
        <time>2024-10-01T08:26:25.999Z</time>
      </trkpt>
      <trkpt lat="42.40727" lon="0.25126">
        <ele>648.21</ele>
        <time>2024-10-01T08:26:30.999Z</time>
      </trkpt>
      <trkpt lat="42.40735" lon="0.25078">
        <ele>646.13</ele>
        <time>2024-10-01T08:26:35.999Z</time>
      </trkpt>
      <trkpt lat="42.40744" lon="0.25033">
        <ele>644.18</ele>
        <time>2024-10-01T08:26:40.999Z</time>
      </trkpt>
      <trkpt lat="42.40755" lon="0.24989">
        <ele>642.32</ele>
        <time>2024-10-01T08:26:45.999Z</time>
      </trkpt>
      <trkpt lat="42.40768" lon="0.24946">
        <ele>640.71</ele>
        <time>2024-10-01T08:26:50.999Z</time>
      </trkpt>
      <trkpt lat="42.40781" lon="0.24905">
        <ele>639.16</ele>
        <time>2024-10-01T08:26:55.999Z</time>
      </trkpt>
      <trkpt lat="42.40792" lon="0.24863">
        <ele>637.91</ele>
        <time>2024-10-01T08:27:00.999Z</time>
      </trkpt>
      <trkpt lat="42.40803" lon="0.2482">
        <ele>636.65</ele>
        <time>2024-10-01T08:27:05.999Z</time>
      </trkpt>
      <trkpt lat="42.40813" lon="0.24779">
        <ele>635.32</ele>
        <time>2024-10-01T08:27:10.999Z</time>
      </trkpt>
      <trkpt lat="42.40823" lon="0.24739">
        <ele>634.06</ele>
        <time>2024-10-01T08:27:15.999Z</time>
      </trkpt>
      <trkpt lat="42.40833" lon="0.24701">
        <ele>633.03</ele>
        <time>2024-10-01T08:27:20.999Z</time>
      </trkpt>
      <trkpt lat="42.40843" lon="0.24661">
        <ele>632.04</ele>
        <time>2024-10-01T08:27:25.999Z</time>
      </trkpt>
      <trkpt lat="42.40854" lon="0.24621">
        <ele>631.21</ele>
        <time>2024-10-01T08:27:30.999Z</time>
      </trkpt>
      <trkpt lat="42.40864" lon="0.24579">
        <ele>630.32</ele>
        <time>2024-10-01T08:27:35.999Z</time>
      </trkpt>
      <trkpt lat="42.40876" lon="0.24534">
        <ele>629.3</ele>
        <time>2024-10-01T08:27:40.999Z</time>
      </trkpt>
      <trkpt lat="42.40883" lon="0.24485">
        <ele>628.37</ele>
        <time>2024-10-01T08:27:45.999Z</time>
      </trkpt>
      <trkpt lat="42.40886" lon="0.24432">
        <ele>627.36</ele>
        <time>2024-10-01T08:27:50.999Z</time>
      </trkpt>
      <trkpt lat="42.40886" lon="0.24376">
        <ele>626.13</ele>
        <time>2024-10-01T08:27:55.999Z</time>
      </trkpt>
      <trkpt lat="42.40881" lon="0.24318">
        <ele>624.91</ele>
        <time>2024-10-01T08:28:00.999Z</time>
      </trkpt>
      <trkpt lat="42.40872" lon="0.24262">
        <ele>624.12</ele>
        <time>2024-10-01T08:28:05.999Z</time>
      </trkpt>
      <trkpt lat="42.40866" lon="0.2421">
        <ele>623.29</ele>
        <time>2024-10-01T08:28:10.999Z</time>
      </trkpt>
      <trkpt lat="42.40861" lon="0.24162">
        <ele>622.48</ele>
        <time>2024-10-01T08:28:15.999Z</time>
      </trkpt>
      <trkpt lat="42.40857" lon="0.24123">
        <ele>621.8</ele>
        <time>2024-10-01T08:28:20.999Z</time>
      </trkpt>
      <trkpt lat="42.40854" lon="0.24092">
        <ele>621.3</ele>
        <time>2024-10-01T08:28:25.999Z</time>
      </trkpt>
      <trkpt lat="42.40852" lon="0.24065">
        <ele>621.02</ele>
        <time>2024-10-01T08:28:30.999Z</time>
      </trkpt>
      <trkpt lat="42.4085" lon="0.2404">
        <ele>620.82</ele>
        <time>2024-10-01T08:28:35.999Z</time>
      </trkpt>
      <trkpt lat="42.40848" lon="0.24017">
        <ele>620.64</ele>
        <time>2024-10-01T08:28:40.999Z</time>
      </trkpt>
      <trkpt lat="42.40846" lon="0.24002">
        <ele>619.8</ele>
        <time>2024-10-01T08:29:13.999Z</time>
      </trkpt>
      <trkpt lat="42.40845" lon="0.23981">
        <ele>619.39</ele>
        <time>2024-10-01T08:29:18.999Z</time>
      </trkpt>
      <trkpt lat="42.40844" lon="0.23956">
        <ele>618.55</ele>
        <time>2024-10-01T08:29:23.999Z</time>
      </trkpt>
      <trkpt lat="42.40844" lon="0.23933">
        <ele>618.12</ele>
        <time>2024-10-01T08:29:28.999Z</time>
      </trkpt>
      <trkpt lat="42.40852" lon="0.23366">
        <ele>614.83</ele>
        <time>2024-10-01T08:31:20.999Z</time>
      </trkpt>
      <trkpt lat="42.40855" lon="0.23338">
        <ele>619.48</ele>
        <time>2024-10-01T08:31:26.000Z</time>
      </trkpt>
      <trkpt lat="42.40858" lon="0.23311">
        <ele>621.81</ele>
        <time>2024-10-01T08:31:31.000Z</time>
      </trkpt>
      <trkpt lat="42.4086" lon="0.23282">
        <ele>622.64</ele>
        <time>2024-10-01T08:31:36.000Z</time>
      </trkpt>
      <trkpt lat="42.40864" lon="0.23249">
        <ele>623.09</ele>
        <time>2024-10-01T08:31:41.000Z</time>
      </trkpt>
      <trkpt lat="42.40869" lon="0.23212">
        <ele>623.41</ele>
        <time>2024-10-01T08:31:46.000Z</time>
      </trkpt>
      <trkpt lat="42.40874" lon="0.23171">
        <ele>624.11</ele>
        <time>2024-10-01T08:31:51.000Z</time>
      </trkpt>
      <trkpt lat="42.40881" lon="0.23127">
        <ele>624.62</ele>
        <time>2024-10-01T08:31:56.000Z</time>
      </trkpt>
      <trkpt lat="42.40888" lon="0.23078">
        <ele>625.04</ele>
        <time>2024-10-01T08:32:01.000Z</time>
      </trkpt>
      <trkpt lat="42.40895" lon="0.23027">
        <ele>625.24</ele>
        <time>2024-10-01T08:32:06.000Z</time>
      </trkpt>
      <trkpt lat="42.40905" lon="0.22975">
        <ele>625.21</ele>
        <time>2024-10-01T08:32:11.000Z</time>
      </trkpt>
      <trkpt lat="42.40916" lon="0.22923">
        <ele>625.03</ele>
        <time>2024-10-01T08:32:16.000Z</time>
      </trkpt>
      <trkpt lat="42.40926" lon="0.22872">
        <ele>624.55</ele>
        <time>2024-10-01T08:32:21.000Z</time>
      </trkpt>
      <trkpt lat="42.40938" lon="0.2282">
        <ele>623.95</ele>
        <time>2024-10-01T08:32:26.000Z</time>
      </trkpt>
      <trkpt lat="42.40948" lon="0.22769">
        <ele>623.3</ele>
        <time>2024-10-01T08:32:31.000Z</time>
      </trkpt>
      <trkpt lat="42.40958" lon="0.22719">
        <ele>622.81</ele>
        <time>2024-10-01T08:32:36.000Z</time>
      </trkpt>
      <trkpt lat="42.40966" lon="0.22671">
        <ele>622.37</ele>
        <time>2024-10-01T08:32:41.000Z</time>
      </trkpt>
      <trkpt lat="42.4097" lon="0.22623">
        <ele>621.97</ele>
        <time>2024-10-01T08:32:46.000Z</time>
      </trkpt>
      <trkpt lat="42.4097" lon="0.22575">
        <ele>621.62</ele>
        <time>2024-10-01T08:32:51.000Z</time>
      </trkpt>
      <trkpt lat="42.40966" lon="0.22527">
        <ele>621.34</ele>
        <time>2024-10-01T08:32:56.000Z</time>
      </trkpt>
      <trkpt lat="42.40957" lon="0.22482">
        <ele>621.18</ele>
        <time>2024-10-01T08:33:01.000Z</time>
      </trkpt>
      <trkpt lat="42.40944" lon="0.2244">
        <ele>620.93</ele>
        <time>2024-10-01T08:33:06.000Z</time>
      </trkpt>
      <trkpt lat="42.40928" lon="0.22399">
        <ele>620.63</ele>
        <time>2024-10-01T08:33:11.000Z</time>
      </trkpt>
      <trkpt lat="42.40906" lon="0.2236">
        <ele>620.39</ele>
        <time>2024-10-01T08:33:16.000Z</time>
      </trkpt>
      <trkpt lat="42.4088" lon="0.22325">
        <ele>619.83</ele>
        <time>2024-10-01T08:33:21.000Z</time>
      </trkpt>
      <trkpt lat="42.40852" lon="0.22292">
        <ele>619.08</ele>
        <time>2024-10-01T08:33:26.000Z</time>
      </trkpt>
      <trkpt lat="42.40819" lon="0.22264">
        <ele>618.35</ele>
        <time>2024-10-01T08:33:31.000Z</time>
      </trkpt>
      <trkpt lat="42.40779" lon="0.22243">
        <ele>617.55</ele>
        <time>2024-10-01T08:33:36.000Z</time>
      </trkpt>
      <trkpt lat="42.40733" lon="0.2223">
        <ele>616.65</ele>
        <time>2024-10-01T08:33:41.000Z</time>
      </trkpt>
      <trkpt lat="42.40683" lon="0.22215">
        <ele>615.65</ele>
        <time>2024-10-01T08:33:46.000Z</time>
      </trkpt>
      <trkpt lat="42.40632" lon="0.222">
        <ele>614.71</ele>
        <time>2024-10-01T08:33:51.000Z</time>
      </trkpt>
      <trkpt lat="42.40581" lon="0.22177">
        <ele>613.7</ele>
        <time>2024-10-01T08:33:56.000Z</time>
      </trkpt>
      <trkpt lat="42.40537" lon="0.22147">
        <ele>612.68</ele>
        <time>2024-10-01T08:34:01.000Z</time>
      </trkpt>
      <trkpt lat="42.405" lon="0.22112">
        <ele>611.74</ele>
        <time>2024-10-01T08:34:06.000Z</time>
      </trkpt>
      <trkpt lat="42.40469" lon="0.22076">
        <ele>610.68</ele>
        <time>2024-10-01T08:34:11.000Z</time>
      </trkpt>
      <trkpt lat="42.40444" lon="0.2204">
        <ele>609.58</ele>
        <time>2024-10-01T08:34:16.000Z</time>
      </trkpt>
      <trkpt lat="42.40421" lon="0.22008">
        <ele>608.68</ele>
        <time>2024-10-01T08:34:21.000Z</time>
      </trkpt>
      <trkpt lat="42.40401" lon="0.21978">
        <ele>607.64</ele>
        <time>2024-10-01T08:34:26.000Z</time>
      </trkpt>
      <trkpt lat="42.40381" lon="0.21951">
        <ele>606.78</ele>
        <time>2024-10-01T08:34:31.000Z</time>
      </trkpt>
      <trkpt lat="42.40361" lon="0.21922">
        <ele>606.01</ele>
        <time>2024-10-01T08:34:36.000Z</time>
      </trkpt>
      <trkpt lat="42.40339" lon="0.21894">
        <ele>605.45</ele>
        <time>2024-10-01T08:34:41.000Z</time>
      </trkpt>
      <trkpt lat="42.40317" lon="0.21867">
        <ele>604.8</ele>
        <time>2024-10-01T08:34:46.000Z</time>
      </trkpt>
      <trkpt lat="42.40292" lon="0.2184">
        <ele>604.02</ele>
        <time>2024-10-01T08:34:51.000Z</time>
      </trkpt>
      <trkpt lat="42.40265" lon="0.21816">
        <ele>603.24</ele>
        <time>2024-10-01T08:34:56.000Z</time>
      </trkpt>
      <trkpt lat="42.40234" lon="0.21791">
        <ele>602.56</ele>
        <time>2024-10-01T08:35:01.000Z</time>
      </trkpt>
      <trkpt lat="42.40201" lon="0.21766">
        <ele>601.77</ele>
        <time>2024-10-01T08:35:06.000Z</time>
      </trkpt>
      <trkpt lat="42.40166" lon="0.21739">
        <ele>601.03</ele>
        <time>2024-10-01T08:35:11.000Z</time>
      </trkpt>
      <trkpt lat="42.40129" lon="0.2171">
        <ele>600.33</ele>
        <time>2024-10-01T08:35:16.000Z</time>
      </trkpt>
      <trkpt lat="42.40093" lon="0.21677">
        <ele>599.67</ele>
        <time>2024-10-01T08:35:21.000Z</time>
      </trkpt>
      <trkpt lat="42.40061" lon="0.21641">
        <ele>598.96</ele>
        <time>2024-10-01T08:35:26.000Z</time>
      </trkpt>
      <trkpt lat="42.40033" lon="0.21603">
        <ele>598.25</ele>
        <time>2024-10-01T08:35:31.000Z</time>
      </trkpt>
      <trkpt lat="42.40007" lon="0.21562">
        <ele>597.33</ele>
        <time>2024-10-01T08:35:36.000Z</time>
      </trkpt>
      <trkpt lat="42.39984" lon="0.21517">
        <ele>596.27</ele>
        <time>2024-10-01T08:35:41.000Z</time>
      </trkpt>
      <trkpt lat="42.39964" lon="0.21469">
        <ele>595.17</ele>
        <time>2024-10-01T08:35:46.000Z</time>
      </trkpt>
      <trkpt lat="42.39947" lon="0.21422">
        <ele>594.19</ele>
        <time>2024-10-01T08:35:51.000Z</time>
      </trkpt>
      <trkpt lat="42.39931" lon="0.21375">
        <ele>593.18</ele>
        <time>2024-10-01T08:35:56.000Z</time>
      </trkpt>
      <trkpt lat="42.39915" lon="0.21326">
        <ele>592.17</ele>
        <time>2024-10-01T08:36:01.000Z</time>
      </trkpt>
      <trkpt lat="42.39898" lon="0.21275">
        <ele>591.22</ele>
        <time>2024-10-01T08:36:06.000Z</time>
      </trkpt>
      <trkpt lat="42.39881" lon="0.21226">
        <ele>590.2</ele>
        <time>2024-10-01T08:36:11.000Z</time>
      </trkpt>
      <trkpt lat="42.39865" lon="0.2118">
        <ele>589.2</ele>
        <time>2024-10-01T08:36:16.000Z</time>
      </trkpt>
      <trkpt lat="42.3985" lon="0.21133">
        <ele>588.25</ele>
        <time>2024-10-01T08:36:21.000Z</time>
      </trkpt>
      <trkpt lat="42.39835" lon="0.21086">
        <ele>587.15</ele>
        <time>2024-10-01T08:36:26.000Z</time>
      </trkpt>
      <trkpt lat="42.39823" lon="0.21041">
        <ele>586.13</ele>
        <time>2024-10-01T08:36:31.000Z</time>
      </trkpt>
      <trkpt lat="42.39811" lon="0.20996">
        <ele>585.06</ele>
        <time>2024-10-01T08:36:36.000Z</time>
      </trkpt>
      <trkpt lat="42.39799" lon="0.20945">
        <ele>583.83</ele>
        <time>2024-10-01T08:36:41.000Z</time>
      </trkpt>
      <trkpt lat="42.39787" lon="0.2089">
        <ele>582.74</ele>
        <time>2024-10-01T08:36:46.000Z</time>
      </trkpt>
      <trkpt lat="42.39777" lon="0.20833">
        <ele>581.66</ele>
        <time>2024-10-01T08:36:51.000Z</time>
      </trkpt>
      <trkpt lat="42.39765" lon="0.20776">
        <ele>580.52</ele>
        <time>2024-10-01T08:36:56.000Z</time>
      </trkpt>
      <trkpt lat="42.39753" lon="0.2072">
        <ele>579.73</ele>
        <time>2024-10-01T08:37:01.000Z</time>
      </trkpt>
      <trkpt lat="42.39738" lon="0.20667">
        <ele>578.69</ele>
        <time>2024-10-01T08:37:06.000Z</time>
      </trkpt>
      <trkpt lat="42.3972" lon="0.20614">
        <ele>577.22</ele>
        <time>2024-10-01T08:37:11.000Z</time>
      </trkpt>
      <trkpt lat="42.39698" lon="0.20564">
        <ele>575.71</ele>
        <time>2024-10-01T08:37:16.000Z</time>
      </trkpt>
      <trkpt lat="42.39676" lon="0.20517">
        <ele>574.36</ele>
        <time>2024-10-01T08:37:21.000Z</time>
      </trkpt>
      <trkpt lat="42.39653" lon="0.20472">
        <ele>573.18</ele>
        <time>2024-10-01T08:37:26.000Z</time>
      </trkpt>
      <trkpt lat="42.39628" lon="0.20427">
        <ele>572.03</ele>
        <time>2024-10-01T08:37:31.000Z</time>
      </trkpt>
      <trkpt lat="42.39604" lon="0.20381">
        <ele>571.02</ele>
        <time>2024-10-01T08:37:36.000Z</time>
      </trkpt>
      <trkpt lat="42.3958" lon="0.20336">
        <ele>570.02</ele>
        <time>2024-10-01T08:37:41.000Z</time>
      </trkpt>
      <trkpt lat="42.39558" lon="0.2029">
        <ele>568.95</ele>
        <time>2024-10-01T08:37:46.000Z</time>
      </trkpt>
      <trkpt lat="42.3954" lon="0.20244">
        <ele>568.04</ele>
        <time>2024-10-01T08:37:51.000Z</time>
      </trkpt>
      <trkpt lat="42.39525" lon="0.20198">
        <ele>567.27</ele>
        <time>2024-10-01T08:37:56.000Z</time>
      </trkpt>
      <trkpt lat="42.39512" lon="0.20151">
        <ele>566.44</ele>
        <time>2024-10-01T08:38:01.000Z</time>
      </trkpt>
      <trkpt lat="42.39501" lon="0.20106">
        <ele>565.8</ele>
        <time>2024-10-01T08:38:06.000Z</time>
      </trkpt>
      <trkpt lat="42.39493" lon="0.20062">
        <ele>565.37</ele>
        <time>2024-10-01T08:38:11.000Z</time>
      </trkpt>
      <trkpt lat="42.39485" lon="0.20016">
        <ele>564.62</ele>
        <time>2024-10-01T08:38:16.000Z</time>
      </trkpt>
      <trkpt lat="42.39476" lon="0.1997">
        <ele>564.25</ele>
        <time>2024-10-01T08:38:21.000Z</time>
      </trkpt>
      <trkpt lat="42.39467" lon="0.19924">
        <ele>564.21</ele>
        <time>2024-10-01T08:38:26.000Z</time>
      </trkpt>
      <trkpt lat="42.39459" lon="0.19877">
        <ele>563.93</ele>
        <time>2024-10-01T08:38:31.000Z</time>
      </trkpt>
      <trkpt lat="42.39454" lon="0.19831">
        <ele>562.87</ele>
        <time>2024-10-01T08:38:36.000Z</time>
      </trkpt>
      <trkpt lat="42.39451" lon="0.19786">
        <ele>562.32</ele>
        <time>2024-10-01T08:38:41.000Z</time>
      </trkpt>
      <trkpt lat="42.39455" lon="0.19742">
        <ele>561.7</ele>
        <time>2024-10-01T08:38:46.000Z</time>
      </trkpt>
      <trkpt lat="42.39462" lon="0.19698">
        <ele>561.19</ele>
        <time>2024-10-01T08:38:51.000Z</time>
      </trkpt>
      <trkpt lat="42.39473" lon="0.19657">
        <ele>560.82</ele>
        <time>2024-10-01T08:38:56.000Z</time>
      </trkpt>
      <trkpt lat="42.39486" lon="0.19619">
        <ele>560.35</ele>
        <time>2024-10-01T08:39:01.000Z</time>
      </trkpt>
      <trkpt lat="42.395" lon="0.19583">
        <ele>560.11</ele>
        <time>2024-10-01T08:39:06.000Z</time>
      </trkpt>
      <trkpt lat="42.39514" lon="0.19547">
        <ele>559.8</ele>
        <time>2024-10-01T08:39:11.000Z</time>
      </trkpt>
      <trkpt lat="42.39526" lon="0.19513">
        <ele>559.27</ele>
        <time>2024-10-01T08:39:16.000Z</time>
      </trkpt>
      <trkpt lat="42.39536" lon="0.19479">
        <ele>558.76</ele>
        <time>2024-10-01T08:39:21.000Z</time>
      </trkpt>
      <trkpt lat="42.39541" lon="0.19444">
        <ele>558.47</ele>
        <time>2024-10-01T08:39:26.000Z</time>
      </trkpt>
      <trkpt lat="42.39544" lon="0.19408">
        <ele>557.83</ele>
        <time>2024-10-01T08:39:31.000Z</time>
      </trkpt>
      <trkpt lat="42.39543" lon="0.19373">
        <ele>557.74</ele>
        <time>2024-10-01T08:39:36.000Z</time>
      </trkpt>
      <trkpt lat="42.39539" lon="0.19338">
        <ele>557.63</ele>
        <time>2024-10-01T08:39:41.000Z</time>
      </trkpt>
      <trkpt lat="42.39534" lon="0.19303">
        <ele>557.68</ele>
        <time>2024-10-01T08:39:46.000Z</time>
      </trkpt>
      <trkpt lat="42.39525" lon="0.1927">
        <ele>557.81</ele>
        <time>2024-10-01T08:39:51.000Z</time>
      </trkpt>
      <trkpt lat="42.39512" lon="0.19237">
        <ele>557.91</ele>
        <time>2024-10-01T08:39:56.000Z</time>
      </trkpt>
      <trkpt lat="42.39496" lon="0.19205">
        <ele>558.02</ele>
        <time>2024-10-01T08:40:01.000Z</time>
      </trkpt>
      <trkpt lat="42.39479" lon="0.19175">
        <ele>558.09</ele>
        <time>2024-10-01T08:40:06.000Z</time>
      </trkpt>
      <trkpt lat="42.39461" lon="0.19146">
        <ele>558.1</ele>
        <time>2024-10-01T08:40:11.000Z</time>
      </trkpt>
      <trkpt lat="42.39444" lon="0.19118">
        <ele>558.03</ele>
        <time>2024-10-01T08:40:16.000Z</time>
      </trkpt>
      <trkpt lat="42.39427" lon="0.1909">
        <ele>557.95</ele>
        <time>2024-10-01T08:40:21.000Z</time>
      </trkpt>
      <trkpt lat="42.39411" lon="0.19064">
        <ele>557.86</ele>
        <time>2024-10-01T08:40:26.000Z</time>
      </trkpt>
      <trkpt lat="42.39397" lon="0.19039">
        <ele>557.79</ele>
        <time>2024-10-01T08:40:31.000Z</time>
      </trkpt>
      <trkpt lat="42.39385" lon="0.19017">
        <ele>557.77</ele>
        <time>2024-10-01T08:40:36.000Z</time>
      </trkpt>
      <trkpt lat="42.39373" lon="0.18999">
        <ele>557.77</ele>
        <time>2024-10-01T08:40:41.000Z</time>
      </trkpt>
      <trkpt lat="42.39362" lon="0.18982">
        <ele>557.77</ele>
        <time>2024-10-01T08:40:46.000Z</time>
      </trkpt>
      <trkpt lat="42.39352" lon="0.18964">
        <ele>557.78</ele>
        <time>2024-10-01T08:40:51.000Z</time>
      </trkpt>
      <trkpt lat="42.39342" lon="0.18948">
        <ele>557.8</ele>
        <time>2024-10-01T08:40:56.000Z</time>
      </trkpt>
      <trkpt lat="42.39332" lon="0.18932">
        <ele>557.84</ele>
        <time>2024-10-01T08:41:01.000Z</time>
      </trkpt>
      <trkpt lat="42.39322" lon="0.18916">
        <ele>557.89</ele>
        <time>2024-10-01T08:41:06.000Z</time>
      </trkpt>
      <trkpt lat="42.39313" lon="0.18902">
        <ele>557.93</ele>
        <time>2024-10-01T08:41:11.000Z</time>
      </trkpt>
      <trkpt lat="42.39304" lon="0.18887">
        <ele>557.99</ele>
        <time>2024-10-01T08:41:16.000Z</time>
      </trkpt>
      <trkpt lat="42.39296" lon="0.18873">
        <ele>558.07</ele>
        <time>2024-10-01T08:41:21.000Z</time>
      </trkpt>
      <trkpt lat="42.39287" lon="0.1886">
        <ele>558.15</ele>
        <time>2024-10-01T08:41:26.000Z</time>
      </trkpt>
      <trkpt lat="42.39279" lon="0.18846">
        <ele>558.25</ele>
        <time>2024-10-01T08:41:31.000Z</time>
      </trkpt>
      <trkpt lat="42.39271" lon="0.18832">
        <ele>558.37</ele>
        <time>2024-10-01T08:41:36.000Z</time>
      </trkpt>
      <trkpt lat="42.39264" lon="0.1882">
        <ele>558.48</ele>
        <time>2024-10-01T08:41:41.000Z</time>
      </trkpt>
      <trkpt lat="42.39258" lon="0.1881">
        <ele>558.61</ele>
        <time>2024-10-01T08:41:46.000Z</time>
      </trkpt>
      <trkpt lat="42.39249" lon="0.18797">
        <ele>558.76</ele>
        <time>2024-10-01T08:41:52.000Z</time>
      </trkpt>
      <trkpt lat="42.39243" lon="0.18786">
        <ele>558.89</ele>
        <time>2024-10-01T08:41:57.000Z</time>
      </trkpt>
      <trkpt lat="42.39236" lon="0.18775">
        <ele>559.02</ele>
        <time>2024-10-01T08:42:02.000Z</time>
      </trkpt>
      <trkpt lat="42.3923" lon="0.18764">
        <ele>559.17</ele>
        <time>2024-10-01T08:42:07.000Z</time>
      </trkpt>
      <trkpt lat="42.39224" lon="0.18755">
        <ele>559.32</ele>
        <time>2024-10-01T08:42:12.000Z</time>
      </trkpt>
      <trkpt lat="42.39217" lon="0.18743">
        <ele>559.49</ele>
        <time>2024-10-01T08:42:17.000Z</time>
      </trkpt>
      <trkpt lat="42.39211" lon="0.18733">
        <ele>559.66</ele>
        <time>2024-10-01T08:42:22.000Z</time>
      </trkpt>
      <trkpt lat="42.39205" lon="0.18722">
        <ele>559.85</ele>
        <time>2024-10-01T08:42:27.000Z</time>
      </trkpt>
      <trkpt lat="42.39199" lon="0.18712">
        <ele>560.05</ele>
        <time>2024-10-01T08:42:32.000Z</time>
      </trkpt>
      <trkpt lat="42.39192" lon="0.18702">
        <ele>560.27</ele>
        <time>2024-10-01T08:42:37.000Z</time>
      </trkpt>
      <trkpt lat="42.39186" lon="0.18692">
        <ele>560.5</ele>
        <time>2024-10-01T08:42:42.000Z</time>
      </trkpt>
      <trkpt lat="42.39179" lon="0.18681">
        <ele>560.74</ele>
        <time>2024-10-01T08:42:47.000Z</time>
      </trkpt>
      <trkpt lat="42.39172" lon="0.1867">
        <ele>560.99</ele>
        <time>2024-10-01T08:42:52.000Z</time>
      </trkpt>
      <trkpt lat="42.39165" lon="0.1866">
        <ele>561.25</ele>
        <time>2024-10-01T08:42:57.000Z</time>
      </trkpt>
      <trkpt lat="42.39159" lon="0.1865">
        <ele>561.52</ele>
        <time>2024-10-01T08:43:02.000Z</time>
      </trkpt>
      <trkpt lat="42.39153" lon="0.18639">
        <ele>561.79</ele>
        <time>2024-10-01T08:43:07.000Z</time>
      </trkpt>
      <trkpt lat="42.39146" lon="0.18628">
        <ele>562.07</ele>
        <time>2024-10-01T08:43:12.000Z</time>
      </trkpt>
      <trkpt lat="42.39139" lon="0.18616">
        <ele>562.35</ele>
        <time>2024-10-01T08:43:17.000Z</time>
      </trkpt>
      <trkpt lat="42.39132" lon="0.18604">
        <ele>562.64</ele>
        <time>2024-10-01T08:43:22.000Z</time>
      </trkpt>
      <trkpt lat="42.39124" lon="0.1859">
        <ele>562.98</ele>
        <time>2024-10-01T08:43:27.999Z</time>
      </trkpt>
      <trkpt lat="42.39117" lon="0.18579">
        <ele>563.27</ele>
        <time>2024-10-01T08:43:32.999Z</time>
      </trkpt>
      <trkpt lat="42.3911" lon="0.18567">
        <ele>563.57</ele>
        <time>2024-10-01T08:43:37.999Z</time>
      </trkpt>
      <trkpt lat="42.39103" lon="0.18555">
        <ele>563.86</ele>
        <time>2024-10-01T08:43:42.999Z</time>
      </trkpt>
      <trkpt lat="42.39095" lon="0.18542">
        <ele>564.15</ele>
        <time>2024-10-01T08:43:47.999Z</time>
      </trkpt>
      <trkpt lat="42.39087" lon="0.18529">
        <ele>564.45</ele>
        <time>2024-10-01T08:43:52.999Z</time>
      </trkpt>
      <trkpt lat="42.39079" lon="0.18516">
        <ele>564.73</ele>
        <time>2024-10-01T08:43:57.999Z</time>
      </trkpt>
      <trkpt lat="42.39069" lon="0.18502">
        <ele>565.01</ele>
        <time>2024-10-01T08:44:02.999Z</time>
      </trkpt>
      <trkpt lat="42.3906" lon="0.18487">
        <ele>565.28</ele>
        <time>2024-10-01T08:44:07.999Z</time>
      </trkpt>
      <trkpt lat="42.3905" lon="0.18469">
        <ele>565.53</ele>
        <time>2024-10-01T08:44:12.999Z</time>
      </trkpt>
      <trkpt lat="42.39041" lon="0.18452">
        <ele>565.76</ele>
        <time>2024-10-01T08:44:17.999Z</time>
      </trkpt>
      <trkpt lat="42.39032" lon="0.18432">
        <ele>565.97</ele>
        <time>2024-10-01T08:44:22.999Z</time>
      </trkpt>
      <trkpt lat="42.39025" lon="0.18412">
        <ele>566.17</ele>
        <time>2024-10-01T08:44:27.999Z</time>
      </trkpt>
      <trkpt lat="42.39018" lon="0.18392">
        <ele>566.37</ele>
        <time>2024-10-01T08:44:32.999Z</time>
      </trkpt>
      <trkpt lat="42.39012" lon="0.1837">
        <ele>566.57</ele>
        <time>2024-10-01T08:44:37.999Z</time>
      </trkpt>
      <trkpt lat="42.39008" lon="0.1835">
        <ele>566.76</ele>
        <time>2024-10-01T08:44:42.999Z</time>
      </trkpt>
      <trkpt lat="42.39005" lon="0.18327">
        <ele>566.96</ele>
        <time>2024-10-01T08:44:47.999Z</time>
      </trkpt>
      <trkpt lat="42.39003" lon="0.18304">
        <ele>567.16</ele>
        <time>2024-10-01T08:44:52.999Z</time>
      </trkpt>
      <trkpt lat="42.39002" lon="0.18279">
        <ele>567.36</ele>
        <time>2024-10-01T08:44:57.999Z</time>
      </trkpt>
      <trkpt lat="42.39002" lon="0.18256">
        <ele>567.56</ele>
        <time>2024-10-01T08:45:02.999Z</time>
      </trkpt>
      <trkpt lat="42.39003" lon="0.18237">
        <ele>567.75</ele>
        <time>2024-10-01T08:45:07.999Z</time>
      </trkpt>
      <trkpt lat="42.39005" lon="0.18213">
        <ele>568.74</ele>
        <time>2024-10-01T08:45:12.999Z</time>
      </trkpt>
      <trkpt lat="42.39008" lon="0.18185">
        <ele>569.5</ele>
        <time>2024-10-01T08:45:17.999Z</time>
      </trkpt>
      <trkpt lat="42.39012" lon="0.18163">
        <ele>569.75</ele>
        <time>2024-10-01T08:45:22.999Z</time>
      </trkpt>
      <trkpt lat="42.39018" lon="0.18138">
        <ele>570.21</ele>
        <time>2024-10-01T08:45:27.999Z</time>
      </trkpt>
      <trkpt lat="42.39025" lon="0.18114">
        <ele>570.57</ele>
        <time>2024-10-01T08:45:32.999Z</time>
      </trkpt>
      <trkpt lat="42.39033" lon="0.1809">
        <ele>570.84</ele>
        <time>2024-10-01T08:45:37.999Z</time>
      </trkpt>
      <trkpt lat="42.39042" lon="0.18068">
        <ele>570.99</ele>
        <time>2024-10-01T08:45:42.999Z</time>
      </trkpt>
      <trkpt lat="42.39052" lon="0.18049">
        <ele>571.09</ele>
        <time>2024-10-01T08:45:47.999Z</time>
      </trkpt>
      <trkpt lat="42.39065" lon="0.18029">
        <ele>571.38</ele>
        <time>2024-10-01T08:45:52.999Z</time>
      </trkpt>
      <trkpt lat="42.39078" lon="0.1801">
        <ele>571.54</ele>
        <time>2024-10-01T08:45:57.999Z</time>
      </trkpt>
      <trkpt lat="42.39093" lon="0.17992">
        <ele>571.84</ele>
        <time>2024-10-01T08:46:02.999Z</time>
      </trkpt>
      <trkpt lat="42.39108" lon="0.17974">
        <ele>572.12</ele>
        <time>2024-10-01T08:46:07.999Z</time>
      </trkpt>
      <trkpt lat="42.39124" lon="0.17957">
        <ele>572.37</ele>
        <time>2024-10-01T08:46:12.999Z</time>
      </trkpt>
      <trkpt lat="42.3914" lon="0.1794">
        <ele>572.6</ele>
        <time>2024-10-01T08:46:17.999Z</time>
      </trkpt>
      <trkpt lat="42.39155" lon="0.17922">
        <ele>572.84</ele>
        <time>2024-10-01T08:46:22.999Z</time>
      </trkpt>
      <trkpt lat="42.3917" lon="0.17904">
        <ele>573.06</ele>
        <time>2024-10-01T08:46:27.999Z</time>
      </trkpt>
      <trkpt lat="42.39186" lon="0.17885">
        <ele>573.32</ele>
        <time>2024-10-01T08:46:32.999Z</time>
      </trkpt>
      <trkpt lat="42.39202" lon="0.17868">
        <ele>573.57</ele>
        <time>2024-10-01T08:46:37.999Z</time>
      </trkpt>
      <trkpt lat="42.39219" lon="0.17851">
        <ele>573.78</ele>
        <time>2024-10-01T08:46:42.999Z</time>
      </trkpt>
      <trkpt lat="42.39236" lon="0.17833">
        <ele>573.99</ele>
        <time>2024-10-01T08:46:47.999Z</time>
      </trkpt>
      <trkpt lat="42.39252" lon="0.17816">
        <ele>574.19</ele>
        <time>2024-10-01T08:46:52.999Z</time>
      </trkpt>
      <trkpt lat="42.39269" lon="0.17798">
        <ele>574.36</ele>
        <time>2024-10-01T08:46:57.999Z</time>
      </trkpt>
      <trkpt lat="42.39286" lon="0.1778">
        <ele>574.54</ele>
        <time>2024-10-01T08:47:02.999Z</time>
      </trkpt>
      <trkpt lat="42.39303" lon="0.17762">
        <ele>574.73</ele>
        <time>2024-10-01T08:47:07.999Z</time>
      </trkpt>
      <trkpt lat="42.39319" lon="0.17744">
        <ele>574.93</ele>
        <time>2024-10-01T08:47:12.999Z</time>
      </trkpt>
      <trkpt lat="42.39336" lon="0.17726">
        <ele>575.15</ele>
        <time>2024-10-01T08:47:17.999Z</time>
      </trkpt>
      <trkpt lat="42.39353" lon="0.17708">
        <ele>575.37</ele>
        <time>2024-10-01T08:47:22.999Z</time>
      </trkpt>
      <trkpt lat="42.3937" lon="0.1769">
        <ele>575.59</ele>
        <time>2024-10-01T08:47:27.999Z</time>
      </trkpt>
      <trkpt lat="42.39387" lon="0.17673">
        <ele>575.81</ele>
        <time>2024-10-01T08:47:32.999Z</time>
      </trkpt>
      <trkpt lat="42.39403" lon="0.17655">
        <ele>576.02</ele>
        <time>2024-10-01T08:47:37.999Z</time>
      </trkpt>
      <trkpt lat="42.3942" lon="0.17638">
        <ele>576.2</ele>
        <time>2024-10-01T08:47:42.999Z</time>
      </trkpt>
      <trkpt lat="42.39437" lon="0.1762">
        <ele>576.36</ele>
        <time>2024-10-01T08:47:47.999Z</time>
      </trkpt>
      <trkpt lat="42.39454" lon="0.17601">
        <ele>576.52</ele>
        <time>2024-10-01T08:47:52.999Z</time>
      </trkpt>
      <trkpt lat="42.39472" lon="0.17583">
        <ele>576.7</ele>
        <time>2024-10-01T08:47:57.999Z</time>
      </trkpt>
      <trkpt lat="42.3949" lon="0.17563">
        <ele>576.89</ele>
        <time>2024-10-01T08:48:02.999Z</time>
      </trkpt>
      <trkpt lat="42.39508" lon="0.17544">
        <ele>577.09</ele>
        <time>2024-10-01T08:48:07.999Z</time>
      </trkpt>
      <trkpt lat="42.39526" lon="0.17525">
        <ele>577.26</ele>
        <time>2024-10-01T08:48:12.999Z</time>
      </trkpt>
      <trkpt lat="42.39544" lon="0.17505">
        <ele>577.44</ele>
        <time>2024-10-01T08:48:17.999Z</time>
      </trkpt>
      <trkpt lat="42.39562" lon="0.17486">
        <ele>577.64</ele>
        <time>2024-10-01T08:48:22.999Z</time>
      </trkpt>
      <trkpt lat="42.3958" lon="0.17466">
        <ele>577.82</ele>
        <time>2024-10-01T08:48:27.999Z</time>
      </trkpt>
      <trkpt lat="42.39599" lon="0.17448">
        <ele>577.99</ele>
        <time>2024-10-01T08:48:32.999Z</time>
      </trkpt>
      <trkpt lat="42.39617" lon="0.17429">
        <ele>578.15</ele>
        <time>2024-10-01T08:48:37.999Z</time>
      </trkpt>
      <trkpt lat="42.39635" lon="0.17409">
        <ele>578.3</ele>
        <time>2024-10-01T08:48:42.999Z</time>
      </trkpt>
      <trkpt lat="42.39653" lon="0.17389">
        <ele>578.48</ele>
        <time>2024-10-01T08:48:47.999Z</time>
      </trkpt>
      <trkpt lat="42.39672" lon="0.17369">
        <ele>578.66</ele>
        <time>2024-10-01T08:48:52.999Z</time>
      </trkpt>
      <trkpt lat="42.3969" lon="0.1735">
        <ele>578.84</ele>
        <time>2024-10-01T08:48:57.999Z</time>
      </trkpt>
      <trkpt lat="42.39708" lon="0.17331">
        <ele>579.04</ele>
        <time>2024-10-01T08:49:02.999Z</time>
      </trkpt>
      <trkpt lat="42.39726" lon="0.17312">
        <ele>579.23</ele>
        <time>2024-10-01T08:49:07.999Z</time>
      </trkpt>
      <trkpt lat="42.39745" lon="0.17291">
        <ele>579.42</ele>
        <time>2024-10-01T08:49:12.999Z</time>
      </trkpt>
      <trkpt lat="42.39764" lon="0.17271">
        <ele>579.61</ele>
        <time>2024-10-01T08:49:17.999Z</time>
      </trkpt>
      <trkpt lat="42.39783" lon="0.1725">
        <ele>579.81</ele>
        <time>2024-10-01T08:49:22.999Z</time>
      </trkpt>
      <trkpt lat="42.39801" lon="0.17231">
        <ele>580.01</ele>
        <time>2024-10-01T08:49:27.999Z</time>
      </trkpt>
      <trkpt lat="42.39819" lon="0.17212">
        <ele>580.22</ele>
        <time>2024-10-01T08:49:32.999Z</time>
      </trkpt>
      <trkpt lat="42.39839" lon="0.17191">
        <ele>580.42</ele>
        <time>2024-10-01T08:49:37.999Z</time>
      </trkpt>
      <trkpt lat="42.3986" lon="0.17169">
        <ele>580.62</ele>
        <time>2024-10-01T08:49:42.999Z</time>
      </trkpt>
      <trkpt lat="42.3988" lon="0.17148">
        <ele>580.79</ele>
        <time>2024-10-01T08:49:47.999Z</time>
      </trkpt>
      <trkpt lat="42.399" lon="0.17126">
        <ele>580.98</ele>
        <time>2024-10-01T08:49:52.999Z</time>
      </trkpt>
      <trkpt lat="42.3992" lon="0.17105">
        <ele>581.18</ele>
        <time>2024-10-01T08:49:57.999Z</time>
      </trkpt>
      <trkpt lat="42.3994" lon="0.17084">
        <ele>581.39</ele>
        <time>2024-10-01T08:50:02.999Z</time>
      </trkpt>
      <trkpt lat="42.3996" lon="0.17062">
        <ele>581.6</ele>
        <time>2024-10-01T08:50:07.999Z</time>
      </trkpt>
      <trkpt lat="42.39981" lon="0.17039">
        <ele>581.81</ele>
        <time>2024-10-01T08:50:12.999Z</time>
      </trkpt>
      <trkpt lat="42.40003" lon="0.17017">
        <ele>582.02</ele>
        <time>2024-10-01T08:50:17.999Z</time>
      </trkpt>
      <trkpt lat="42.40024" lon="0.16994">
        <ele>582.22</ele>
        <time>2024-10-01T08:50:22.999Z</time>
      </trkpt>
      <trkpt lat="42.40046" lon="0.16971">
        <ele>582.39</ele>
        <time>2024-10-01T08:50:27.999Z</time>
      </trkpt>
      <trkpt lat="42.40068" lon="0.16949">
        <ele>582.55</ele>
        <time>2024-10-01T08:50:32.999Z</time>
      </trkpt>
      <trkpt lat="42.40089" lon="0.16926">
        <ele>582.69</ele>
        <time>2024-10-01T08:50:37.999Z</time>
      </trkpt>
      <trkpt lat="42.4011" lon="0.16903">
        <ele>582.84</ele>
        <time>2024-10-01T08:50:42.999Z</time>
      </trkpt>
      <trkpt lat="42.40132" lon="0.1688">
        <ele>582.98</ele>
        <time>2024-10-01T08:50:47.999Z</time>
      </trkpt>
      <trkpt lat="42.40154" lon="0.16857">
        <ele>583.11</ele>
        <time>2024-10-01T08:50:52.999Z</time>
      </trkpt>
      <trkpt lat="42.40176" lon="0.16834">
        <ele>583.25</ele>
        <time>2024-10-01T08:50:57.999Z</time>
      </trkpt>
      <trkpt lat="42.40197" lon="0.16811">
        <ele>583.4</ele>
        <time>2024-10-01T08:51:02.999Z</time>
      </trkpt>
      <trkpt lat="42.40217" lon="0.16789">
        <ele>583.54</ele>
        <time>2024-10-01T08:51:07.999Z</time>
      </trkpt>
      <trkpt lat="42.40237" lon="0.16769">
        <ele>583.69</ele>
        <time>2024-10-01T08:51:12.999Z</time>
      </trkpt>
      <trkpt lat="42.40255" lon="0.1675">
        <ele>583.83</ele>
        <time>2024-10-01T08:51:17.999Z</time>
      </trkpt>
      <trkpt lat="42.40272" lon="0.16731">
        <ele>583.99</ele>
        <time>2024-10-01T08:51:22.999Z</time>
      </trkpt>
      <trkpt lat="42.40289" lon="0.16713">
        <ele>584.15</ele>
        <time>2024-10-01T08:51:27.999Z</time>
      </trkpt>
      <trkpt lat="42.40306" lon="0.16694">
        <ele>584.33</ele>
        <time>2024-10-01T08:51:32.999Z</time>
      </trkpt>
      <trkpt lat="42.40324" lon="0.16677">
        <ele>584.5</ele>
        <time>2024-10-01T08:51:37.999Z</time>
      </trkpt>
      <trkpt lat="42.40342" lon="0.16658">
        <ele>584.68</ele>
        <time>2024-10-01T08:51:42.999Z</time>
      </trkpt>
      <trkpt lat="42.4036" lon="0.16639">
        <ele>584.85</ele>
        <time>2024-10-01T08:51:47.999Z</time>
      </trkpt>
      <trkpt lat="42.40377" lon="0.16619">
        <ele>585.04</ele>
        <time>2024-10-01T08:51:52.999Z</time>
      </trkpt>
      <trkpt lat="42.40395" lon="0.166">
        <ele>585.23</ele>
        <time>2024-10-01T08:51:57.999Z</time>
      </trkpt>
      <trkpt lat="42.40413" lon="0.1658">
        <ele>585.43</ele>
        <time>2024-10-01T08:52:02.999Z</time>
      </trkpt>
      <trkpt lat="42.40432" lon="0.16559">
        <ele>585.63</ele>
        <time>2024-10-01T08:52:07.999Z</time>
      </trkpt>
      <trkpt lat="42.40452" lon="0.16539">
        <ele>585.84</ele>
        <time>2024-10-01T08:52:12.999Z</time>
      </trkpt>
      <trkpt lat="42.40473" lon="0.16518">
        <ele>586.02</ele>
        <time>2024-10-01T08:52:17.999Z</time>
      </trkpt>
      <trkpt lat="42.40495" lon="0.16494">
        <ele>586.17</ele>
        <time>2024-10-01T08:52:22.999Z</time>
      </trkpt>
      <trkpt lat="42.40517" lon="0.16463">
        <ele>586.49</ele>
        <time>2024-10-01T08:52:27.999Z</time>
      </trkpt>
      <trkpt lat="42.40536" lon="0.16424">
        <ele>586.98</ele>
        <time>2024-10-01T08:52:32.999Z</time>
      </trkpt>
      <trkpt lat="42.40556" lon="0.16376">
        <ele>587.3</ele>
        <time>2024-10-01T08:52:37.999Z</time>
      </trkpt>
      <trkpt lat="42.40573" lon="0.16322">
        <ele>587.57</ele>
        <time>2024-10-01T08:52:42.999Z</time>
      </trkpt>
      <trkpt lat="42.4058" lon="0.16262">
        <ele>587.87</ele>
        <time>2024-10-01T08:52:47.999Z</time>
      </trkpt>
      <trkpt lat="42.40583" lon="0.162">
        <ele>588.28</ele>
        <time>2024-10-01T08:52:52.999Z</time>
      </trkpt>
      <trkpt lat="42.40588" lon="0.16144">
        <ele>588.81</ele>
        <time>2024-10-01T08:52:57.999Z</time>
      </trkpt>
      <trkpt lat="42.40595" lon="0.16092">
        <ele>589.03</ele>
        <time>2024-10-01T08:53:02.999Z</time>
      </trkpt>
      <trkpt lat="42.40602" lon="0.16042">
        <ele>589.08</ele>
        <time>2024-10-01T08:53:07.999Z</time>
      </trkpt>
      <trkpt lat="42.40611" lon="0.15992">
        <ele>588.89</ele>
        <time>2024-10-01T08:53:12.999Z</time>
      </trkpt>
      <trkpt lat="42.40626" lon="0.1594">
        <ele>588.54</ele>
        <time>2024-10-01T08:53:17.999Z</time>
      </trkpt>
      <trkpt lat="42.40646" lon="0.15886">
        <ele>587.78</ele>
        <time>2024-10-01T08:53:22.999Z</time>
      </trkpt>
      <trkpt lat="42.40671" lon="0.15831">
        <ele>586.86</ele>
        <time>2024-10-01T08:53:27.999Z</time>
      </trkpt>
      <trkpt lat="42.40701" lon="0.15773">
        <ele>585.47</ele>
        <time>2024-10-01T08:53:32.999Z</time>
      </trkpt>
      <trkpt lat="42.40738" lon="0.15714">
        <ele>583.86</ele>
        <time>2024-10-01T08:53:37.999Z</time>
      </trkpt>
      <trkpt lat="42.40776" lon="0.15649">
        <ele>581.77</ele>
        <time>2024-10-01T08:53:42.999Z</time>
      </trkpt>
      <trkpt lat="42.40816" lon="0.15582">
        <ele>579.99</ele>
        <time>2024-10-01T08:53:47.999Z</time>
      </trkpt>
      <trkpt lat="42.40855" lon="0.15517">
        <ele>578.88</ele>
        <time>2024-10-01T08:53:52.999Z</time>
      </trkpt>
      <trkpt lat="42.40894" lon="0.15458">
        <ele>578.04</ele>
        <time>2024-10-01T08:53:57.999Z</time>
      </trkpt>
      <trkpt lat="42.40927" lon="0.15403">
        <ele>577.06</ele>
        <time>2024-10-01T08:54:02.999Z</time>
      </trkpt>
      <trkpt lat="42.40956" lon="0.15356">
        <ele>576.01</ele>
        <time>2024-10-01T08:54:07.999Z</time>
      </trkpt>
      <trkpt lat="42.4098" lon="0.15314">
        <ele>574.87</ele>
        <time>2024-10-01T08:54:12.999Z</time>
      </trkpt>
      <trkpt lat="42.41006" lon="0.15271">
        <ele>573.43</ele>
        <time>2024-10-01T08:54:18.999Z</time>
      </trkpt>
      <trkpt lat="42.41024" lon="0.15239">
        <ele>572.14</ele>
        <time>2024-10-01T08:54:23.999Z</time>
      </trkpt>
      <trkpt lat="42.41045" lon="0.15219">
        <ele>570.33</ele>
        <time>2024-10-01T08:54:28.999Z</time>
      </trkpt>
      <trkpt lat="42.41057" lon="0.15189">
        <ele>568.38</ele>
        <time>2024-10-01T08:54:33.999Z</time>
      </trkpt>
      <trkpt lat="42.41069" lon="0.15154">
        <ele>566.4</ele>
        <time>2024-10-01T08:54:38.999Z</time>
      </trkpt>
      <trkpt lat="42.4109" lon="0.15127">
        <ele>564.95</ele>
        <time>2024-10-01T08:54:43.999Z</time>
      </trkpt>
      <trkpt lat="42.41108" lon="0.151">
        <ele>564.05</ele>
        <time>2024-10-01T08:54:48.999Z</time>
      </trkpt>
      <trkpt lat="42.41124" lon="0.15074">
        <ele>563.56</ele>
        <time>2024-10-01T08:54:53.999Z</time>
      </trkpt>
      <trkpt lat="42.41141" lon="0.15048">
        <ele>563.07</ele>
        <time>2024-10-01T08:54:58.999Z</time>
      </trkpt>
      <trkpt lat="42.4116" lon="0.15027">
        <ele>562.53</ele>
        <time>2024-10-01T08:55:03.999Z</time>
      </trkpt>
      <trkpt lat="42.4118" lon="0.15009">
        <ele>562</ele>
        <time>2024-10-01T08:55:08.999Z</time>
      </trkpt>
      <trkpt lat="42.41199" lon="0.14993">
        <ele>561.46</ele>
        <time>2024-10-01T08:55:13.999Z</time>
      </trkpt>
      <trkpt lat="42.41218" lon="0.14978">
        <ele>560.86</ele>
        <time>2024-10-01T08:55:18.999Z</time>
      </trkpt>
      <trkpt lat="42.41239" lon="0.14965">
        <ele>560.31</ele>
        <time>2024-10-01T08:55:23.999Z</time>
      </trkpt>
      <trkpt lat="42.41259" lon="0.1495">
        <ele>559.86</ele>
        <time>2024-10-01T08:55:28.999Z</time>
      </trkpt>
      <trkpt lat="42.41279" lon="0.14936">
        <ele>559.41</ele>
        <time>2024-10-01T08:55:34.000Z</time>
      </trkpt>
      <trkpt lat="42.41299" lon="0.14922">
        <ele>558.93</ele>
        <time>2024-10-01T08:55:39.000Z</time>
      </trkpt>
      <trkpt lat="42.41319" lon="0.14908">
        <ele>558.44</ele>
        <time>2024-10-01T08:55:44.000Z</time>
      </trkpt>
      <trkpt lat="42.41336" lon="0.14895">
        <ele>558.01</ele>
        <time>2024-10-01T08:55:49.000Z</time>
      </trkpt>
      <trkpt lat="42.41355" lon="0.14882">
        <ele>557.61</ele>
        <time>2024-10-01T08:55:54.000Z</time>
      </trkpt>
      <trkpt lat="42.41371" lon="0.1487">
        <ele>557.55</ele>
        <time>2024-10-01T08:55:59.000Z</time>
      </trkpt>
      <trkpt lat="42.41383" lon="0.14862">
        <ele>557.48</ele>
        <time>2024-10-01T08:56:04.000Z</time>
      </trkpt>
      <trkpt lat="42.41387" lon="0.1485">
        <ele>557.29</ele>
        <time>2024-10-01T08:56:25.000Z</time>
      </trkpt>
      <trkpt lat="42.41387" lon="0.14835">
        <ele>557.19</ele>
        <time>2024-10-01T08:56:30.000Z</time>
      </trkpt>
      <trkpt lat="42.41388" lon="0.1482">
        <ele>557.11</ele>
        <time>2024-10-01T08:56:40.000Z</time>
      </trkpt>
      <trkpt lat="42.41387" lon="0.14832">
        <ele>556.97</ele>
        <time>2024-10-01T08:56:58.000Z</time>
      </trkpt>
      <trkpt lat="42.41395" lon="0.1483">
        <ele>557.04</ele>
        <time>2024-10-01T09:07:12.000Z</time>
      </trkpt>
      <trkpt lat="42.41393" lon="0.14842">
        <ele>562.16</ele>
        <time>2024-10-01T09:10:24.999Z</time>
      </trkpt>
      <trkpt lat="42.41384" lon="0.14842">
        <ele>568.6</ele>
        <time>2024-10-01T09:15:02.999Z</time>
      </trkpt>
      <trkpt lat="42.41383" lon="0.14855">
        <ele>569.11</ele>
        <time>2024-10-01T09:16:39.999Z</time>
      </trkpt>
      <trkpt lat="42.41393" lon="0.14855">
        <ele>568.9</ele>
        <time>2024-10-01T09:16:50.999Z</time>
      </trkpt>
      <trkpt lat="42.41403" lon="0.14847">
        <ele>568.77</ele>
        <time>2024-10-01T09:16:55.999Z</time>
      </trkpt>
      <trkpt lat="42.41414" lon="0.14839">
        <ele>568.64</ele>
        <time>2024-10-01T09:17:00.999Z</time>
      </trkpt>
      <trkpt lat="42.41426" lon="0.14828">
        <ele>568.49</ele>
        <time>2024-10-01T09:17:05.999Z</time>
      </trkpt>
      <trkpt lat="42.41438" lon="0.1482">
        <ele>568.29</ele>
        <time>2024-10-01T09:17:10.999Z</time>
      </trkpt>
      <trkpt lat="42.41446" lon="0.14813">
        <ele>568.02</ele>
        <time>2024-10-01T09:17:15.999Z</time>
      </trkpt>
      <trkpt lat="42.41446" lon="0.14799">
        <ele>567.62</ele>
        <time>2024-10-01T09:17:21.999Z</time>
      </trkpt>
      <trkpt lat="42.41449" lon="0.14786">
        <ele>567.22</ele>
        <time>2024-10-01T09:17:27.999Z</time>
      </trkpt>
      <trkpt lat="42.41445" lon="0.14799">
        <ele>563.64</ele>
        <time>2024-10-01T09:21:14.000Z</time>
      </trkpt>
      <trkpt lat="42.41452" lon="0.14808">
        <ele>563.23</ele>
        <time>2024-10-01T09:21:20.000Z</time>
      </trkpt>
      <trkpt lat="42.4146" lon="0.14801">
        <ele>562.69</ele>
        <time>2024-10-01T09:21:30.000Z</time>
      </trkpt>
      <trkpt lat="42.41472" lon="0.14795">
        <ele>562.43</ele>
        <time>2024-10-01T09:21:35.000Z</time>
      </trkpt>
      <trkpt lat="42.41485" lon="0.14784">
        <ele>562.18</ele>
        <time>2024-10-01T09:21:40.000Z</time>
      </trkpt>
      <trkpt lat="42.41499" lon="0.14769">
        <ele>561.95</ele>
        <time>2024-10-01T09:21:45.000Z</time>
      </trkpt>
      <trkpt lat="42.41515" lon="0.14757">
        <ele>561.46</ele>
        <time>2024-10-01T09:21:50.000Z</time>
      </trkpt>
      <trkpt lat="42.41533" lon="0.1474">
        <ele>560.24</ele>
        <time>2024-10-01T09:21:55.000Z</time>
      </trkpt>
      <trkpt lat="42.41551" lon="0.14711">
        <ele>559.74</ele>
        <time>2024-10-01T09:22:00.000Z</time>
      </trkpt>
      <trkpt lat="42.41556" lon="0.14665">
        <ele>559.48</ele>
        <time>2024-10-01T09:22:05.000Z</time>
      </trkpt>
      <trkpt lat="42.41551" lon="0.14621">
        <ele>559.26</ele>
        <time>2024-10-01T09:22:10.000Z</time>
      </trkpt>
      <trkpt lat="42.41545" lon="0.14582">
        <ele>559.17</ele>
        <time>2024-10-01T09:22:15.000Z</time>
      </trkpt>
      <trkpt lat="42.41541" lon="0.1455">
        <ele>559.07</ele>
        <time>2024-10-01T09:22:20.000Z</time>
      </trkpt>
      <trkpt lat="42.41536" lon="0.14521">
        <ele>559.44</ele>
        <time>2024-10-01T09:22:25.000Z</time>
      </trkpt>
      <trkpt lat="42.41533" lon="0.14495">
        <ele>559.92</ele>
        <time>2024-10-01T09:22:30.000Z</time>
      </trkpt>
      <trkpt lat="42.41529" lon="0.14472">
        <ele>559.92</ele>
        <time>2024-10-01T09:22:35.000Z</time>
      </trkpt>
      <trkpt lat="42.4153" lon="0.14451">
        <ele>559.89</ele>
        <time>2024-10-01T09:22:40.000Z</time>
      </trkpt>
      <trkpt lat="42.41532" lon="0.14424">
        <ele>559.58</ele>
        <time>2024-10-01T09:22:45.000Z</time>
      </trkpt>
      <trkpt lat="42.41522" lon="0.14405">
        <ele>559.3</ele>
        <time>2024-10-01T09:22:50.000Z</time>
      </trkpt>
      <trkpt lat="42.41517" lon="0.14377">
        <ele>558.78</ele>
        <time>2024-10-01T09:22:55.000Z</time>
      </trkpt>
      <trkpt lat="42.41513" lon="0.14351">
        <ele>558.48</ele>
        <time>2024-10-01T09:23:00.000Z</time>
      </trkpt>
      <trkpt lat="42.4151" lon="0.14324">
        <ele>558.21</ele>
        <time>2024-10-01T09:23:05.000Z</time>
      </trkpt>
      <trkpt lat="42.41506" lon="0.14295">
        <ele>557.94</ele>
        <time>2024-10-01T09:23:10.000Z</time>
      </trkpt>
      <trkpt lat="42.41502" lon="0.14265">
        <ele>557.73</ele>
        <time>2024-10-01T09:23:15.000Z</time>
      </trkpt>
      <trkpt lat="42.41498" lon="0.14234">
        <ele>557.56</ele>
        <time>2024-10-01T09:23:20.000Z</time>
      </trkpt>
      <trkpt lat="42.41494" lon="0.14205">
        <ele>557.38</ele>
        <time>2024-10-01T09:23:25.000Z</time>
      </trkpt>
      <trkpt lat="42.4149" lon="0.14175">
        <ele>557.2</ele>
        <time>2024-10-01T09:23:30.000Z</time>
      </trkpt>
      <trkpt lat="42.41485" lon="0.14144">
        <ele>557.04</ele>
        <time>2024-10-01T09:23:35.000Z</time>
      </trkpt>
      <trkpt lat="42.41481" lon="0.14114">
        <ele>556.86</ele>
        <time>2024-10-01T09:23:40.000Z</time>
      </trkpt>
      <trkpt lat="42.41478" lon="0.14087">
        <ele>556.74</ele>
        <time>2024-10-01T09:23:45.000Z</time>
      </trkpt>
      <trkpt lat="42.41477" lon="0.14068">
        <ele>556.72</ele>
        <time>2024-10-01T09:23:50.000Z</time>
      </trkpt>
      <trkpt lat="42.41475" lon="0.14048">
        <ele>556.69</ele>
        <time>2024-10-01T09:23:55.000Z</time>
      </trkpt>
      <trkpt lat="42.41473" lon="0.14033">
        <ele>556.67</ele>
        <time>2024-10-01T09:24:00.000Z</time>
      </trkpt>
      <trkpt lat="42.41469" lon="0.14016">
        <ele>556.66</ele>
        <time>2024-10-01T09:24:05.000Z</time>
      </trkpt>
      <trkpt lat="42.41464" lon="0.14001">
        <ele>556.67</ele>
        <time>2024-10-01T09:24:10.000Z</time>
      </trkpt>
      <trkpt lat="42.41461" lon="0.13989">
        <ele>556.93</ele>
        <time>2024-10-01T09:25:41.000Z</time>
      </trkpt>
      <trkpt lat="42.41458" lon="0.13974">
        <ele>556.99</ele>
        <time>2024-10-01T09:25:46.000Z</time>
      </trkpt>
      <trkpt lat="42.41456" lon="0.13953">
        <ele>557.1</ele>
        <time>2024-10-01T09:25:51.000Z</time>
      </trkpt>
      <trkpt lat="42.41462" lon="0.13929">
        <ele>557.21</ele>
        <time>2024-10-01T09:25:56.000Z</time>
      </trkpt>
      <trkpt lat="42.41472" lon="0.13911">
        <ele>557.28</ele>
        <time>2024-10-01T09:26:01.000Z</time>
      </trkpt>
      <trkpt lat="42.41485" lon="0.13895">
        <ele>557.29</ele>
        <time>2024-10-01T09:26:06.000Z</time>
      </trkpt>
      <trkpt lat="42.41496" lon="0.13879">
        <ele>557.31</ele>
        <time>2024-10-01T09:26:11.000Z</time>
      </trkpt>
      <trkpt lat="42.41507" lon="0.13865">
        <ele>557.31</ele>
        <time>2024-10-01T09:26:16.000Z</time>
      </trkpt>
      <trkpt lat="42.41519" lon="0.13851">
        <ele>557.32</ele>
        <time>2024-10-01T09:26:21.000Z</time>
      </trkpt>
      <trkpt lat="42.41534" lon="0.13838">
        <ele>557.33</ele>
        <time>2024-10-01T09:26:26.000Z</time>
      </trkpt>
      <trkpt lat="42.41548" lon="0.13825">
        <ele>557.38</ele>
        <time>2024-10-01T09:26:31.000Z</time>
      </trkpt>
      <trkpt lat="42.41563" lon="0.13815">
        <ele>557.47</ele>
        <time>2024-10-01T09:26:36.000Z</time>
      </trkpt>
      <trkpt lat="42.41577" lon="0.13804">
        <ele>557.57</ele>
        <time>2024-10-01T09:26:41.000Z</time>
      </trkpt>
      <trkpt lat="42.4159" lon="0.13796">
        <ele>557.7</ele>
        <time>2024-10-01T09:26:46.000Z</time>
      </trkpt>
      <trkpt lat="42.41602" lon="0.13789">
        <ele>557.86</ele>
        <time>2024-10-01T09:26:51.000Z</time>
      </trkpt>
      <trkpt lat="42.41614" lon="0.1378">
        <ele>558.05</ele>
        <time>2024-10-01T09:26:56.000Z</time>
      </trkpt>
      <trkpt lat="42.41625" lon="0.13772">
        <ele>558.26</ele>
        <time>2024-10-01T09:27:01.000Z</time>
      </trkpt>
      <trkpt lat="42.41639" lon="0.13763">
        <ele>558.46</ele>
        <time>2024-10-01T09:27:06.000Z</time>
      </trkpt>
      <trkpt lat="42.41652" lon="0.13748">
        <ele>558.62</ele>
        <time>2024-10-01T09:27:11.000Z</time>
      </trkpt>
      <trkpt lat="42.41663" lon="0.13731">
        <ele>558.75</ele>
        <time>2024-10-01T09:27:16.000Z</time>
      </trkpt>
      <trkpt lat="42.41671" lon="0.13711">
        <ele>558.87</ele>
        <time>2024-10-01T09:27:21.000Z</time>
      </trkpt>
      <trkpt lat="42.41676" lon="0.13691">
        <ele>558.98</ele>
        <time>2024-10-01T09:27:26.000Z</time>
      </trkpt>
      <trkpt lat="42.41679" lon="0.13667">
        <ele>559.09</ele>
        <time>2024-10-01T09:27:31.000Z</time>
      </trkpt>
      <trkpt lat="42.41682" lon="0.13642">
        <ele>559.45</ele>
        <time>2024-10-01T09:27:36.000Z</time>
      </trkpt>
      <trkpt lat="42.41683" lon="0.1362">
        <ele>559.57</ele>
        <time>2024-10-01T09:27:41.000Z</time>
      </trkpt>
      <trkpt lat="42.41687" lon="0.13594">
        <ele>560.03</ele>
        <time>2024-10-01T09:27:46.000Z</time>
      </trkpt>
      <trkpt lat="42.4169" lon="0.13568">
        <ele>560.57</ele>
        <time>2024-10-01T09:27:51.000Z</time>
      </trkpt>
      <trkpt lat="42.41694" lon="0.13539">
        <ele>561.49</ele>
        <time>2024-10-01T09:27:56.000Z</time>
      </trkpt>
      <trkpt lat="42.41698" lon="0.13511">
        <ele>562.03</ele>
        <time>2024-10-01T09:28:01.000Z</time>
      </trkpt>
      <trkpt lat="42.41702" lon="0.13484">
        <ele>562.14</ele>
        <time>2024-10-01T09:28:06.000Z</time>
      </trkpt>
      <trkpt lat="42.41708" lon="0.13459">
        <ele>562.08</ele>
        <time>2024-10-01T09:28:11.000Z</time>
      </trkpt>
      <trkpt lat="42.41715" lon="0.13435">
        <ele>561.98</ele>
        <time>2024-10-01T09:28:16.000Z</time>
      </trkpt>
      <trkpt lat="42.41724" lon="0.13413">
        <ele>561.92</ele>
        <time>2024-10-01T09:28:21.000Z</time>
      </trkpt>
      <trkpt lat="42.41733" lon="0.13392">
        <ele>561.93</ele>
        <time>2024-10-01T09:28:26.000Z</time>
      </trkpt>
      <trkpt lat="42.41743" lon="0.13372">
        <ele>561.97</ele>
        <time>2024-10-01T09:28:31.000Z</time>
      </trkpt>
      <trkpt lat="42.41752" lon="0.13352">
        <ele>562.04</ele>
        <time>2024-10-01T09:28:36.000Z</time>
      </trkpt>
      <trkpt lat="42.41762" lon="0.13332">
        <ele>562.11</ele>
        <time>2024-10-01T09:28:41.000Z</time>
      </trkpt>
      <trkpt lat="42.41771" lon="0.13313">
        <ele>562.16</ele>
        <time>2024-10-01T09:28:46.000Z</time>
      </trkpt>
      <trkpt lat="42.41781" lon="0.13293">
        <ele>562.21</ele>
        <time>2024-10-01T09:28:51.000Z</time>
      </trkpt>
      <trkpt lat="42.4179" lon="0.13272">
        <ele>562.28</ele>
        <time>2024-10-01T09:28:56.000Z</time>
      </trkpt>
      <trkpt lat="42.41799" lon="0.13251">
        <ele>562.35</ele>
        <time>2024-10-01T09:29:01.000Z</time>
      </trkpt>
      <trkpt lat="42.41807" lon="0.13228">
        <ele>562.42</ele>
        <time>2024-10-01T09:29:06.000Z</time>
      </trkpt>
      <trkpt lat="42.41815" lon="0.13206">
        <ele>562.5</ele>
        <time>2024-10-01T09:29:11.000Z</time>
      </trkpt>
      <trkpt lat="42.41823" lon="0.13183">
        <ele>563.09</ele>
        <time>2024-10-01T09:29:16.000Z</time>
      </trkpt>
      <trkpt lat="42.41831" lon="0.13159">
        <ele>563.45</ele>
        <time>2024-10-01T09:29:21.000Z</time>
      </trkpt>
      <trkpt lat="42.41839" lon="0.13134">
        <ele>563.82</ele>
        <time>2024-10-01T09:29:26.000Z</time>
      </trkpt>
      <trkpt lat="42.41849" lon="0.13109">
        <ele>564.05</ele>
        <time>2024-10-01T09:29:31.000Z</time>
      </trkpt>
      <trkpt lat="42.41859" lon="0.13084">
        <ele>564.24</ele>
        <time>2024-10-01T09:29:36.000Z</time>
      </trkpt>
      <trkpt lat="42.41872" lon="0.13059">
        <ele>564.45</ele>
        <time>2024-10-01T09:29:41.000Z</time>
      </trkpt>
      <trkpt lat="42.41883" lon="0.13036">
        <ele>564.63</ele>
        <time>2024-10-01T09:29:46.000Z</time>
      </trkpt>
      <trkpt lat="42.41895" lon="0.13015">
        <ele>564.72</ele>
        <time>2024-10-01T09:29:51.000Z</time>
      </trkpt>
      <trkpt lat="42.41908" lon="0.12994">
        <ele>564.92</ele>
        <time>2024-10-01T09:29:56.000Z</time>
      </trkpt>
      <trkpt lat="42.41922" lon="0.12974">
        <ele>565.16</ele>
        <time>2024-10-01T09:30:01.000Z</time>
      </trkpt>
      <trkpt lat="42.41937" lon="0.12954">
        <ele>565.43</ele>
        <time>2024-10-01T09:30:06.000Z</time>
      </trkpt>
      <trkpt lat="42.41953" lon="0.12934">
        <ele>565.63</ele>
        <time>2024-10-01T09:30:11.000Z</time>
      </trkpt>
      <trkpt lat="42.4197" lon="0.12916">
        <ele>565.82</ele>
        <time>2024-10-01T09:30:16.000Z</time>
      </trkpt>
      <trkpt lat="42.41989" lon="0.12897">
        <ele>565.96</ele>
        <time>2024-10-01T09:30:21.000Z</time>
      </trkpt>
      <trkpt lat="42.42006" lon="0.12882">
        <ele>566.03</ele>
        <time>2024-10-01T09:30:26.000Z</time>
      </trkpt>
      <trkpt lat="42.42025" lon="0.12866">
        <ele>565.99</ele>
        <time>2024-10-01T09:30:31.000Z</time>
      </trkpt>
      <trkpt lat="42.42042" lon="0.12849">
        <ele>565.93</ele>
        <time>2024-10-01T09:30:36.000Z</time>
      </trkpt>
      <trkpt lat="42.4206" lon="0.12834">
        <ele>565.96</ele>
        <time>2024-10-01T09:30:41.000Z</time>
      </trkpt>
      <trkpt lat="42.42077" lon="0.12818">
        <ele>566.03</ele>
        <time>2024-10-01T09:30:46.000Z</time>
      </trkpt>
      <trkpt lat="42.42094" lon="0.12802">
        <ele>566.07</ele>
        <time>2024-10-01T09:30:51.000Z</time>
      </trkpt>
      <trkpt lat="42.42111" lon="0.12785">
        <ele>566.09</ele>
        <time>2024-10-01T09:30:56.000Z</time>
      </trkpt>
      <trkpt lat="42.42129" lon="0.12768">
        <ele>566.13</ele>
        <time>2024-10-01T09:31:01.000Z</time>
      </trkpt>
      <trkpt lat="42.42147" lon="0.12753">
        <ele>566.32</ele>
        <time>2024-10-01T09:31:06.000Z</time>
      </trkpt>
      <trkpt lat="42.42164" lon="0.12735">
        <ele>566.47</ele>
        <time>2024-10-01T09:31:11.000Z</time>
      </trkpt>
      <trkpt lat="42.42183" lon="0.12717">
        <ele>566.56</ele>
        <time>2024-10-01T09:31:16.000Z</time>
      </trkpt>
      <trkpt lat="42.42206" lon="0.12694">
        <ele>566.65</ele>
        <time>2024-10-01T09:31:21.999Z</time>
      </trkpt>
      <trkpt lat="42.42226" lon="0.12672">
        <ele>566.64</ele>
        <time>2024-10-01T09:31:26.999Z</time>
      </trkpt>
      <trkpt lat="42.42247" lon="0.12649">
        <ele>566.5</ele>
        <time>2024-10-01T09:31:31.999Z</time>
      </trkpt>
      <trkpt lat="42.42268" lon="0.12624">
        <ele>566.36</ele>
        <time>2024-10-01T09:31:36.999Z</time>
      </trkpt>
      <trkpt lat="42.42288" lon="0.126">
        <ele>566.24</ele>
        <time>2024-10-01T09:31:41.999Z</time>
      </trkpt>
      <trkpt lat="42.42308" lon="0.12574">
        <ele>566.18</ele>
        <time>2024-10-01T09:31:46.999Z</time>
      </trkpt>
      <trkpt lat="42.42327" lon="0.12548">
        <ele>566.09</ele>
        <time>2024-10-01T09:31:51.999Z</time>
      </trkpt>
      <trkpt lat="42.42345" lon="0.12522">
        <ele>565.98</ele>
        <time>2024-10-01T09:31:56.999Z</time>
      </trkpt>
      <trkpt lat="42.42362" lon="0.12497">
        <ele>565.93</ele>
        <time>2024-10-01T09:32:01.999Z</time>
      </trkpt>
      <trkpt lat="42.42378" lon="0.12473">
        <ele>565.9</ele>
        <time>2024-10-01T09:32:06.999Z</time>
      </trkpt>
      <trkpt lat="42.42393" lon="0.12447">
        <ele>565.91</ele>
        <time>2024-10-01T09:32:11.999Z</time>
      </trkpt>
      <trkpt lat="42.42408" lon="0.12423">
        <ele>565.93</ele>
        <time>2024-10-01T09:32:16.999Z</time>
      </trkpt>
      <trkpt lat="42.42421" lon="0.124">
        <ele>565.99</ele>
        <time>2024-10-01T09:32:21.999Z</time>
      </trkpt>
      <trkpt lat="42.42433" lon="0.1238">
        <ele>566.07</ele>
        <time>2024-10-01T09:32:26.999Z</time>
      </trkpt>
      <trkpt lat="42.42445" lon="0.12359">
        <ele>566.15</ele>
        <time>2024-10-01T09:32:31.999Z</time>
      </trkpt>
      <trkpt lat="42.42456" lon="0.12339">
        <ele>566.17</ele>
        <time>2024-10-01T09:32:36.999Z</time>
      </trkpt>
      <trkpt lat="42.42467" lon="0.1232">
        <ele>566.2</ele>
        <time>2024-10-01T09:32:41.999Z</time>
      </trkpt>
      <trkpt lat="42.42478" lon="0.12303">
        <ele>566.24</ele>
        <time>2024-10-01T09:32:46.999Z</time>
      </trkpt>
      <trkpt lat="42.42488" lon="0.12284">
        <ele>566.29</ele>
        <time>2024-10-01T09:32:51.999Z</time>
      </trkpt>
      <trkpt lat="42.42498" lon="0.12267">
        <ele>566.35</ele>
        <time>2024-10-01T09:32:56.999Z</time>
      </trkpt>
      <trkpt lat="42.42509" lon="0.12249">
        <ele>566.42</ele>
        <time>2024-10-01T09:33:01.999Z</time>
      </trkpt>
      <trkpt lat="42.42519" lon="0.12232">
        <ele>566.5</ele>
        <time>2024-10-01T09:33:06.999Z</time>
      </trkpt>
      <trkpt lat="42.42529" lon="0.12214">
        <ele>566.58</ele>
        <time>2024-10-01T09:33:11.999Z</time>
      </trkpt>
      <trkpt lat="42.42539" lon="0.12196">
        <ele>566.68</ele>
        <time>2024-10-01T09:33:16.999Z</time>
      </trkpt>
      <trkpt lat="42.42549" lon="0.12179">
        <ele>566.78</ele>
        <time>2024-10-01T09:33:21.999Z</time>
      </trkpt>
      <trkpt lat="42.42559" lon="0.12162">
        <ele>566.89</ele>
        <time>2024-10-01T09:33:26.999Z</time>
      </trkpt>
      <trkpt lat="42.42569" lon="0.12146">
        <ele>567</ele>
        <time>2024-10-01T09:33:31.999Z</time>
      </trkpt>
      <trkpt lat="42.42579" lon="0.12128">
        <ele>567.13</ele>
        <time>2024-10-01T09:33:36.999Z</time>
      </trkpt>
      <trkpt lat="42.42589" lon="0.12109">
        <ele>567.26</ele>
        <time>2024-10-01T09:33:41.999Z</time>
      </trkpt>
      <trkpt lat="42.42598" lon="0.12093">
        <ele>567.4</ele>
        <time>2024-10-01T09:33:46.999Z</time>
      </trkpt>
      <trkpt lat="42.42607" lon="0.12076">
        <ele>567.55</ele>
        <time>2024-10-01T09:33:51.999Z</time>
      </trkpt>
      <trkpt lat="42.42617" lon="0.12059">
        <ele>567.7</ele>
        <time>2024-10-01T09:33:56.999Z</time>
      </trkpt>
      <trkpt lat="42.42626" lon="0.12042">
        <ele>567.86</ele>
        <time>2024-10-01T09:34:01.999Z</time>
      </trkpt>
      <trkpt lat="42.42637" lon="0.12025">
        <ele>568.02</ele>
        <time>2024-10-01T09:34:06.999Z</time>
      </trkpt>
      <trkpt lat="42.42647" lon="0.12008">
        <ele>568.18</ele>
        <time>2024-10-01T09:34:11.999Z</time>
      </trkpt>
      <trkpt lat="42.42657" lon="0.11991">
        <ele>568.35</ele>
        <time>2024-10-01T09:34:16.999Z</time>
      </trkpt>
      <trkpt lat="42.42667" lon="0.11973">
        <ele>568.52</ele>
        <time>2024-10-01T09:34:21.999Z</time>
      </trkpt>
      <trkpt lat="42.42676" lon="0.11955">
        <ele>568.7</ele>
        <time>2024-10-01T09:34:26.999Z</time>
      </trkpt>
      <trkpt lat="42.42686" lon="0.11937">
        <ele>568.89</ele>
        <time>2024-10-01T09:34:31.999Z</time>
      </trkpt>
      <trkpt lat="42.42696" lon="0.11921">
        <ele>569.09</ele>
        <time>2024-10-01T09:34:36.999Z</time>
      </trkpt>
      <trkpt lat="42.42705" lon="0.11903">
        <ele>569.29</ele>
        <time>2024-10-01T09:34:41.999Z</time>
      </trkpt>
      <trkpt lat="42.42714" lon="0.11888">
        <ele>569.51</ele>
        <time>2024-10-01T09:34:46.999Z</time>
      </trkpt>
      <trkpt lat="42.42724" lon="0.1187">
        <ele>569.75</ele>
        <time>2024-10-01T09:34:51.999Z</time>
      </trkpt>
      <trkpt lat="42.42735" lon="0.11851">
        <ele>569.98</ele>
        <time>2024-10-01T09:34:56.999Z</time>
      </trkpt>
      <trkpt lat="42.42746" lon="0.11832">
        <ele>570.22</ele>
        <time>2024-10-01T09:35:01.999Z</time>
      </trkpt>
      <trkpt lat="42.42757" lon="0.11813">
        <ele>570.45</ele>
        <time>2024-10-01T09:35:06.999Z</time>
      </trkpt>
      <trkpt lat="42.42768" lon="0.11794">
        <ele>570.68</ele>
        <time>2024-10-01T09:35:11.999Z</time>
      </trkpt>
      <trkpt lat="42.4278" lon="0.11776">
        <ele>570.91</ele>
        <time>2024-10-01T09:35:16.999Z</time>
      </trkpt>
      <trkpt lat="42.42791" lon="0.11755">
        <ele>571.14</ele>
        <time>2024-10-01T09:35:21.999Z</time>
      </trkpt>
      <trkpt lat="42.42802" lon="0.11736">
        <ele>571.38</ele>
        <time>2024-10-01T09:35:26.999Z</time>
      </trkpt>
      <trkpt lat="42.42813" lon="0.11716">
        <ele>571.63</ele>
        <time>2024-10-01T09:35:31.999Z</time>
      </trkpt>
      <trkpt lat="42.42823" lon="0.11697">
        <ele>571.88</ele>
        <time>2024-10-01T09:35:36.999Z</time>
      </trkpt>
      <trkpt lat="42.42835" lon="0.11676">
        <ele>573.11</ele>
        <time>2024-10-01T09:35:41.999Z</time>
      </trkpt>
      <trkpt lat="42.42847" lon="0.11657">
        <ele>573.89</ele>
        <time>2024-10-01T09:35:46.999Z</time>
      </trkpt>
      <trkpt lat="42.42859" lon="0.11636">
        <ele>574.48</ele>
        <time>2024-10-01T09:35:51.999Z</time>
      </trkpt>
      <trkpt lat="42.42871" lon="0.11614">
        <ele>574.76</ele>
        <time>2024-10-01T09:35:56.999Z</time>
      </trkpt>
      <trkpt lat="42.42883" lon="0.11594">
        <ele>574.91</ele>
        <time>2024-10-01T09:36:01.999Z</time>
      </trkpt>
      <trkpt lat="42.42895" lon="0.11574">
        <ele>575.03</ele>
        <time>2024-10-01T09:36:06.999Z</time>
      </trkpt>
      <trkpt lat="42.42906" lon="0.11553">
        <ele>575.19</ele>
        <time>2024-10-01T09:36:11.999Z</time>
      </trkpt>
      <trkpt lat="42.42919" lon="0.11532">
        <ele>575.33</ele>
        <time>2024-10-01T09:36:16.999Z</time>
      </trkpt>
      <trkpt lat="42.42931" lon="0.11512">
        <ele>575.44</ele>
        <time>2024-10-01T09:36:21.999Z</time>
      </trkpt>
      <trkpt lat="42.42942" lon="0.11492">
        <ele>575.53</ele>
        <time>2024-10-01T09:36:26.999Z</time>
      </trkpt>
      <trkpt lat="42.42954" lon="0.11472">
        <ele>575.55</ele>
        <time>2024-10-01T09:36:31.999Z</time>
      </trkpt>
      <trkpt lat="42.42965" lon="0.11452">
        <ele>575.65</ele>
        <time>2024-10-01T09:36:36.999Z</time>
      </trkpt>
      <trkpt lat="42.42977" lon="0.11431">
        <ele>575.94</ele>
        <time>2024-10-01T09:36:41.999Z</time>
      </trkpt>
      <trkpt lat="42.42989" lon="0.1141">
        <ele>576.13</ele>
        <time>2024-10-01T09:36:46.999Z</time>
      </trkpt>
      <trkpt lat="42.43001" lon="0.1139">
        <ele>576.27</ele>
        <time>2024-10-01T09:36:51.999Z</time>
      </trkpt>
      <trkpt lat="42.43013" lon="0.11369">
        <ele>576.43</ele>
        <time>2024-10-01T09:36:56.999Z</time>
      </trkpt>
      <trkpt lat="42.43025" lon="0.11349">
        <ele>576.56</ele>
        <time>2024-10-01T09:37:01.999Z</time>
      </trkpt>
      <trkpt lat="42.43036" lon="0.11328">
        <ele>576.74</ele>
        <time>2024-10-01T09:37:06.999Z</time>
      </trkpt>
      <trkpt lat="42.43048" lon="0.11307">
        <ele>576.9</ele>
        <time>2024-10-01T09:37:11.999Z</time>
      </trkpt>
      <trkpt lat="42.43061" lon="0.11286">
        <ele>577.06</ele>
        <time>2024-10-01T09:37:16.999Z</time>
      </trkpt>
      <trkpt lat="42.43073" lon="0.11264">
        <ele>577.22</ele>
        <time>2024-10-01T09:37:21.999Z</time>
      </trkpt>
      <trkpt lat="42.43085" lon="0.11242">
        <ele>577.37</ele>
        <time>2024-10-01T09:37:26.999Z</time>
      </trkpt>
      <trkpt lat="42.43097" lon="0.1122">
        <ele>577.53</ele>
        <time>2024-10-01T09:37:31.999Z</time>
      </trkpt>
      <trkpt lat="42.43109" lon="0.11197">
        <ele>577.68</ele>
        <time>2024-10-01T09:37:36.999Z</time>
      </trkpt>
      <trkpt lat="42.4312" lon="0.11173">
        <ele>577.85</ele>
        <time>2024-10-01T09:37:41.999Z</time>
      </trkpt>
      <trkpt lat="42.43132" lon="0.11148">
        <ele>578.03</ele>
        <time>2024-10-01T09:37:46.999Z</time>
      </trkpt>
      <trkpt lat="42.43143" lon="0.11124">
        <ele>578.21</ele>
        <time>2024-10-01T09:37:51.999Z</time>
      </trkpt>
      <trkpt lat="42.43153" lon="0.111">
        <ele>578.37</ele>
        <time>2024-10-01T09:37:56.999Z</time>
      </trkpt>
      <trkpt lat="42.43163" lon="0.11075">
        <ele>578.52</ele>
        <time>2024-10-01T09:38:01.999Z</time>
      </trkpt>
      <trkpt lat="42.43172" lon="0.1105">
        <ele>578.66</ele>
        <time>2024-10-01T09:38:06.999Z</time>
      </trkpt>
      <trkpt lat="42.43181" lon="0.11024">
        <ele>578.8</ele>
        <time>2024-10-01T09:38:11.999Z</time>
      </trkpt>
      <trkpt lat="42.4319" lon="0.10998">
        <ele>578.93</ele>
        <time>2024-10-01T09:38:16.999Z</time>
      </trkpt>
      <trkpt lat="42.43199" lon="0.1097">
        <ele>579.07</ele>
        <time>2024-10-01T09:38:21.999Z</time>
      </trkpt>
      <trkpt lat="42.43206" lon="0.10943">
        <ele>579.21</ele>
        <time>2024-10-01T09:38:26.999Z</time>
      </trkpt>
      <trkpt lat="42.43215" lon="0.10913">
        <ele>579.32</ele>
        <time>2024-10-01T09:38:31.999Z</time>
      </trkpt>
      <trkpt lat="42.43223" lon="0.10883">
        <ele>579.42</ele>
        <time>2024-10-01T09:38:36.999Z</time>
      </trkpt>
      <trkpt lat="42.4323" lon="0.10852">
        <ele>579.5</ele>
        <time>2024-10-01T09:38:41.999Z</time>
      </trkpt>
      <trkpt lat="42.43237" lon="0.10819">
        <ele>579.59</ele>
        <time>2024-10-01T09:38:46.999Z</time>
      </trkpt>
      <trkpt lat="42.43243" lon="0.10785">
        <ele>579.69</ele>
        <time>2024-10-01T09:38:51.999Z</time>
      </trkpt>
      <trkpt lat="42.43248" lon="0.10749">
        <ele>579.76</ele>
        <time>2024-10-01T09:38:56.999Z</time>
      </trkpt>
      <trkpt lat="42.43254" lon="0.10713">
        <ele>579.83</ele>
        <time>2024-10-01T09:39:01.999Z</time>
      </trkpt>
      <trkpt lat="42.43259" lon="0.10678">
        <ele>579.91</ele>
        <time>2024-10-01T09:39:06.999Z</time>
      </trkpt>
      <trkpt lat="42.43264" lon="0.1064">
        <ele>580.01</ele>
        <time>2024-10-01T09:39:11.999Z</time>
      </trkpt>
      <trkpt lat="42.43269" lon="0.10603">
        <ele>580.12</ele>
        <time>2024-10-01T09:39:16.999Z</time>
      </trkpt>
      <trkpt lat="42.43273" lon="0.10566">
        <ele>580.23</ele>
        <time>2024-10-01T09:39:21.999Z</time>
      </trkpt>
      <trkpt lat="42.43278" lon="0.1053">
        <ele>580.33</ele>
        <time>2024-10-01T09:39:26.999Z</time>
      </trkpt>
      <trkpt lat="42.43283" lon="0.10494">
        <ele>580.43</ele>
        <time>2024-10-01T09:39:31.999Z</time>
      </trkpt>
      <trkpt lat="42.43288" lon="0.10458">
        <ele>580.51</ele>
        <time>2024-10-01T09:39:36.999Z</time>
      </trkpt>
      <trkpt lat="42.43292" lon="0.10421">
        <ele>580.59</ele>
        <time>2024-10-01T09:39:41.999Z</time>
      </trkpt>
      <trkpt lat="42.43297" lon="0.10386">
        <ele>580.68</ele>
        <time>2024-10-01T09:39:46.999Z</time>
      </trkpt>
      <trkpt lat="42.43301" lon="0.10352">
        <ele>580.76</ele>
        <time>2024-10-01T09:39:51.999Z</time>
      </trkpt>
      <trkpt lat="42.43306" lon="0.10318">
        <ele>580.85</ele>
        <time>2024-10-01T09:39:56.999Z</time>
      </trkpt>
      <trkpt lat="42.43311" lon="0.10284">
        <ele>580.92</ele>
        <time>2024-10-01T09:40:01.999Z</time>
      </trkpt>
      <trkpt lat="42.43315" lon="0.10251">
        <ele>581.01</ele>
        <time>2024-10-01T09:40:06.999Z</time>
      </trkpt>
      <trkpt lat="42.4332" lon="0.10219">
        <ele>581.08</ele>
        <time>2024-10-01T09:40:11.999Z</time>
      </trkpt>
      <trkpt lat="42.43324" lon="0.10186">
        <ele>581.16</ele>
        <time>2024-10-01T09:40:16.999Z</time>
      </trkpt>
      <trkpt lat="42.43328" lon="0.10151">
        <ele>581.26</ele>
        <time>2024-10-01T09:40:21.999Z</time>
      </trkpt>
      <trkpt lat="42.43333" lon="0.10116">
        <ele>581.35</ele>
        <time>2024-10-01T09:40:26.999Z</time>
      </trkpt>
      <trkpt lat="42.43338" lon="0.10079">
        <ele>581.44</ele>
        <time>2024-10-01T09:40:31.999Z</time>
      </trkpt>
      <trkpt lat="42.43343" lon="0.10042">
        <ele>581.53</ele>
        <time>2024-10-01T09:40:36.999Z</time>
      </trkpt>
      <trkpt lat="42.43348" lon="0.10006">
        <ele>581.62</ele>
        <time>2024-10-01T09:40:41.999Z</time>
      </trkpt>
      <trkpt lat="42.43352" lon="0.09974">
        <ele>581.71</ele>
        <time>2024-10-01T09:40:46.999Z</time>
      </trkpt>
      <trkpt lat="42.43356" lon="0.09942">
        <ele>581.82</ele>
        <time>2024-10-01T09:40:51.999Z</time>
      </trkpt>
      <trkpt lat="42.43361" lon="0.09912">
        <ele>581.92</ele>
        <time>2024-10-01T09:40:56.999Z</time>
      </trkpt>
      <trkpt lat="42.43365" lon="0.09883">
        <ele>582.02</ele>
        <time>2024-10-01T09:41:01.999Z</time>
      </trkpt>
      <trkpt lat="42.43369" lon="0.09854">
        <ele>582.13</ele>
        <time>2024-10-01T09:41:06.999Z</time>
      </trkpt>
      <trkpt lat="42.43372" lon="0.09829">
        <ele>582.21</ele>
        <time>2024-10-01T09:41:11.999Z</time>
      </trkpt>
      <trkpt lat="42.43376" lon="0.09804">
        <ele>582.33</ele>
        <time>2024-10-01T09:41:16.999Z</time>
      </trkpt>
      <trkpt lat="42.4338" lon="0.0978">
        <ele>582.39</ele>
        <time>2024-10-01T09:41:21.999Z</time>
      </trkpt>
      <trkpt lat="42.43383" lon="0.09756">
        <ele>582.45</ele>
        <time>2024-10-01T09:41:26.999Z</time>
      </trkpt>
      <trkpt lat="42.43386" lon="0.09732">
        <ele>582.5</ele>
        <time>2024-10-01T09:41:31.999Z</time>
      </trkpt>
      <trkpt lat="42.43389" lon="0.0971">
        <ele>582.53</ele>
        <time>2024-10-01T09:41:36.999Z</time>
      </trkpt>
      <trkpt lat="42.43392" lon="0.09686">
        <ele>582.58</ele>
        <time>2024-10-01T09:41:41.999Z</time>
      </trkpt>
      <trkpt lat="42.43395" lon="0.09661">
        <ele>582.8</ele>
        <time>2024-10-01T09:41:46.999Z</time>
      </trkpt>
      <trkpt lat="42.43398" lon="0.09636">
        <ele>582.92</ele>
        <time>2024-10-01T09:41:51.999Z</time>
      </trkpt>
      <trkpt lat="42.43401" lon="0.09612">
        <ele>582.97</ele>
        <time>2024-10-01T09:41:56.999Z</time>
      </trkpt>
      <trkpt lat="42.43405" lon="0.09587">
        <ele>583.29</ele>
        <time>2024-10-01T09:42:01.999Z</time>
      </trkpt>
      <trkpt lat="42.43408" lon="0.09563">
        <ele>583.53</ele>
        <time>2024-10-01T09:42:06.999Z</time>
      </trkpt>
      <trkpt lat="42.43411" lon="0.09537">
        <ele>583.71</ele>
        <time>2024-10-01T09:42:11.999Z</time>
      </trkpt>
      <trkpt lat="42.43415" lon="0.09511">
        <ele>583.78</ele>
        <time>2024-10-01T09:42:16.999Z</time>
      </trkpt>
      <trkpt lat="42.43419" lon="0.09487">
        <ele>583.92</ele>
        <time>2024-10-01T09:42:21.999Z</time>
      </trkpt>
      <trkpt lat="42.43422" lon="0.09461">
        <ele>584.11</ele>
        <time>2024-10-01T09:42:26.999Z</time>
      </trkpt>
      <trkpt lat="42.43425" lon="0.09435">
        <ele>584.24</ele>
        <time>2024-10-01T09:42:31.999Z</time>
      </trkpt>
      <trkpt lat="42.43429" lon="0.0941">
        <ele>584.31</ele>
        <time>2024-10-01T09:42:36.999Z</time>
      </trkpt>
      <trkpt lat="42.43432" lon="0.09385">
        <ele>584.54</ele>
        <time>2024-10-01T09:42:41.999Z</time>
      </trkpt>
      <trkpt lat="42.43435" lon="0.09359">
        <ele>584.71</ele>
        <time>2024-10-01T09:42:46.999Z</time>
      </trkpt>
      <trkpt lat="42.43438" lon="0.09334">
        <ele>584.91</ele>
        <time>2024-10-01T09:42:51.999Z</time>
      </trkpt>
      <trkpt lat="42.43442" lon="0.09308">
        <ele>585.02</ele>
        <time>2024-10-01T09:42:56.999Z</time>
      </trkpt>
      <trkpt lat="42.43445" lon="0.09283">
        <ele>585.06</ele>
        <time>2024-10-01T09:43:01.999Z</time>
      </trkpt>
      <trkpt lat="42.43449" lon="0.09259">
        <ele>585.11</ele>
        <time>2024-10-01T09:43:06.999Z</time>
      </trkpt>
      <trkpt lat="42.43452" lon="0.09236">
        <ele>585.16</ele>
        <time>2024-10-01T09:43:11.999Z</time>
      </trkpt>
      <trkpt lat="42.43455" lon="0.09212">
        <ele>585.33</ele>
        <time>2024-10-01T09:43:16.999Z</time>
      </trkpt>
      <trkpt lat="42.43458" lon="0.09186">
        <ele>585.55</ele>
        <time>2024-10-01T09:43:21.999Z</time>
      </trkpt>
      <trkpt lat="42.43462" lon="0.09162">
        <ele>585.73</ele>
        <time>2024-10-01T09:43:26.999Z</time>
      </trkpt>
      <trkpt lat="42.43465" lon="0.09138">
        <ele>585.79</ele>
        <time>2024-10-01T09:43:31.999Z</time>
      </trkpt>
      <trkpt lat="42.43468" lon="0.09114">
        <ele>585.87</ele>
        <time>2024-10-01T09:43:37.000Z</time>
      </trkpt>
      <trkpt lat="42.43471" lon="0.0909">
        <ele>586.07</ele>
        <time>2024-10-01T09:43:42.000Z</time>
      </trkpt>
      <trkpt lat="42.43475" lon="0.09066">
        <ele>586.19</ele>
        <time>2024-10-01T09:43:47.000Z</time>
      </trkpt>
      <trkpt lat="42.43478" lon="0.09041">
        <ele>586.42</ele>
        <time>2024-10-01T09:43:52.000Z</time>
      </trkpt>
      <trkpt lat="42.43482" lon="0.09017">
        <ele>586.51</ele>
        <time>2024-10-01T09:43:57.000Z</time>
      </trkpt>
      <trkpt lat="42.43485" lon="0.08993">
        <ele>586.87</ele>
        <time>2024-10-01T09:44:02.000Z</time>
      </trkpt>
      <trkpt lat="42.43488" lon="0.08968">
        <ele>587.34</ele>
        <time>2024-10-01T09:44:07.000Z</time>
      </trkpt>
      <trkpt lat="42.43491" lon="0.08942">
        <ele>587.65</ele>
        <time>2024-10-01T09:44:12.000Z</time>
      </trkpt>
      <trkpt lat="42.43495" lon="0.08917">
        <ele>587.76</ele>
        <time>2024-10-01T09:44:17.000Z</time>
      </trkpt>
      <trkpt lat="42.43498" lon="0.08891">
        <ele>588.04</ele>
        <time>2024-10-01T09:44:22.000Z</time>
      </trkpt>
      <trkpt lat="42.43501" lon="0.08865">
        <ele>588.31</ele>
        <time>2024-10-01T09:44:27.000Z</time>
      </trkpt>
      <trkpt lat="42.43505" lon="0.08839">
        <ele>588.44</ele>
        <time>2024-10-01T09:44:32.000Z</time>
      </trkpt>
      <trkpt lat="42.43509" lon="0.08815">
        <ele>588.6</ele>
        <time>2024-10-01T09:44:37.000Z</time>
      </trkpt>
      <trkpt lat="42.43513" lon="0.0879">
        <ele>588.77</ele>
        <time>2024-10-01T09:44:42.000Z</time>
      </trkpt>
      <trkpt lat="42.43516" lon="0.08764">
        <ele>589.09</ele>
        <time>2024-10-01T09:44:47.000Z</time>
      </trkpt>
      <trkpt lat="42.43519" lon="0.08739">
        <ele>589.18</ele>
        <time>2024-10-01T09:44:52.000Z</time>
      </trkpt>
      <trkpt lat="42.43523" lon="0.08714">
        <ele>589.35</ele>
        <time>2024-10-01T09:44:57.000Z</time>
      </trkpt>
      <trkpt lat="42.43526" lon="0.08691">
        <ele>589.4</ele>
        <time>2024-10-01T09:45:02.000Z</time>
      </trkpt>
      <trkpt lat="42.43528" lon="0.08666">
        <ele>589.66</ele>
        <time>2024-10-01T09:45:07.000Z</time>
      </trkpt>
      <trkpt lat="42.43532" lon="0.08641">
        <ele>590</ele>
        <time>2024-10-01T09:45:12.000Z</time>
      </trkpt>
      <trkpt lat="42.43536" lon="0.08615">
        <ele>590.29</ele>
        <time>2024-10-01T09:45:17.000Z</time>
      </trkpt>
      <trkpt lat="42.43539" lon="0.0859">
        <ele>590.43</ele>
        <time>2024-10-01T09:45:22.000Z</time>
      </trkpt>
      <trkpt lat="42.43543" lon="0.08564">
        <ele>590.81</ele>
        <time>2024-10-01T09:45:27.000Z</time>
      </trkpt>
      <trkpt lat="42.43547" lon="0.08537">
        <ele>591.09</ele>
        <time>2024-10-01T09:45:32.000Z</time>
      </trkpt>
      <trkpt lat="42.43551" lon="0.08509">
        <ele>591.27</ele>
        <time>2024-10-01T09:45:37.000Z</time>
      </trkpt>
      <trkpt lat="42.43555" lon="0.08484">
        <ele>591.53</ele>
        <time>2024-10-01T09:45:42.000Z</time>
      </trkpt>
      <trkpt lat="42.43558" lon="0.08459">
        <ele>591.79</ele>
        <time>2024-10-01T09:45:47.000Z</time>
      </trkpt>
      <trkpt lat="42.43561" lon="0.08434">
        <ele>592.07</ele>
        <time>2024-10-01T09:45:52.000Z</time>
      </trkpt>
      <trkpt lat="42.43565" lon="0.08409">
        <ele>592.23</ele>
        <time>2024-10-01T09:45:57.000Z</time>
      </trkpt>
      <trkpt lat="42.43568" lon="0.08383">
        <ele>592.51</ele>
        <time>2024-10-01T09:46:02.000Z</time>
      </trkpt>
      <trkpt lat="42.43572" lon="0.08357">
        <ele>592.74</ele>
        <time>2024-10-01T09:46:07.000Z</time>
      </trkpt>
      <trkpt lat="42.43577" lon="0.0833">
        <ele>592.99</ele>
        <time>2024-10-01T09:46:12.000Z</time>
      </trkpt>
      <trkpt lat="42.43582" lon="0.08304">
        <ele>593.14</ele>
        <time>2024-10-01T09:46:17.000Z</time>
      </trkpt>
      <trkpt lat="42.43588" lon="0.08278">
        <ele>593.3</ele>
        <time>2024-10-01T09:46:22.000Z</time>
      </trkpt>
      <trkpt lat="42.43595" lon="0.08253">
        <ele>593.39</ele>
        <time>2024-10-01T09:46:27.000Z</time>
      </trkpt>
      <trkpt lat="42.436" lon="0.08228">
        <ele>593.52</ele>
        <time>2024-10-01T09:46:32.000Z</time>
      </trkpt>
      <trkpt lat="42.43605" lon="0.08203">
        <ele>593.6</ele>
        <time>2024-10-01T09:46:37.000Z</time>
      </trkpt>
      <trkpt lat="42.4361" lon="0.08177">
        <ele>593.7</ele>
        <time>2024-10-01T09:46:42.000Z</time>
      </trkpt>
      <trkpt lat="42.43616" lon="0.08152">
        <ele>593.79</ele>
        <time>2024-10-01T09:46:47.000Z</time>
      </trkpt>
      <trkpt lat="42.43622" lon="0.08126">
        <ele>593.92</ele>
        <time>2024-10-01T09:46:52.000Z</time>
      </trkpt>
      <trkpt lat="42.43628" lon="0.08099">
        <ele>594.06</ele>
        <time>2024-10-01T09:46:57.000Z</time>
      </trkpt>
      <trkpt lat="42.43635" lon="0.08071">
        <ele>594.17</ele>
        <time>2024-10-01T09:47:02.000Z</time>
      </trkpt>
      <trkpt lat="42.43642" lon="0.08043">
        <ele>594.27</ele>
        <time>2024-10-01T09:47:07.000Z</time>
      </trkpt>
      <trkpt lat="42.4365" lon="0.08016">
        <ele>594.37</ele>
        <time>2024-10-01T09:47:12.000Z</time>
      </trkpt>
      <trkpt lat="42.43658" lon="0.07988">
        <ele>594.55</ele>
        <time>2024-10-01T09:47:17.000Z</time>
      </trkpt>
      <trkpt lat="42.43667" lon="0.07961">
        <ele>594.87</ele>
        <time>2024-10-01T09:47:22.000Z</time>
      </trkpt>
      <trkpt lat="42.43679" lon="0.07934">
        <ele>595.23</ele>
        <time>2024-10-01T09:47:27.000Z</time>
      </trkpt>
      <trkpt lat="42.43692" lon="0.07907">
        <ele>595.53</ele>
        <time>2024-10-01T09:47:32.000Z</time>
      </trkpt>
      <trkpt lat="42.43705" lon="0.0788">
        <ele>595.84</ele>
        <time>2024-10-01T09:47:37.000Z</time>
      </trkpt>
      <trkpt lat="42.4372" lon="0.07854">
        <ele>596.13</ele>
        <time>2024-10-01T09:47:42.000Z</time>
      </trkpt>
      <trkpt lat="42.43737" lon="0.07829">
        <ele>596.44</ele>
        <time>2024-10-01T09:47:47.000Z</time>
      </trkpt>
      <trkpt lat="42.43755" lon="0.07805">
        <ele>596.79</ele>
        <time>2024-10-01T09:47:52.000Z</time>
      </trkpt>
      <trkpt lat="42.43774" lon="0.07782">
        <ele>597.16</ele>
        <time>2024-10-01T09:47:57.000Z</time>
      </trkpt>
      <trkpt lat="42.43792" lon="0.07758">
        <ele>597.53</ele>
        <time>2024-10-01T09:48:02.000Z</time>
      </trkpt>
      <trkpt lat="42.43809" lon="0.07733">
        <ele>597.88</ele>
        <time>2024-10-01T09:48:07.000Z</time>
      </trkpt>
      <trkpt lat="42.43825" lon="0.07707">
        <ele>598.2</ele>
        <time>2024-10-01T09:48:12.000Z</time>
      </trkpt>
      <trkpt lat="42.43841" lon="0.0768">
        <ele>598.46</ele>
        <time>2024-10-01T09:48:17.000Z</time>
      </trkpt>
      <trkpt lat="42.43856" lon="0.07654">
        <ele>598.69</ele>
        <time>2024-10-01T09:48:22.000Z</time>
      </trkpt>
      <trkpt lat="42.43871" lon="0.0763">
        <ele>598.94</ele>
        <time>2024-10-01T09:48:27.000Z</time>
      </trkpt>
      <trkpt lat="42.43884" lon="0.07608">
        <ele>599.19</ele>
        <time>2024-10-01T09:48:32.000Z</time>
      </trkpt>
      <trkpt lat="42.43897" lon="0.07585">
        <ele>599.43</ele>
        <time>2024-10-01T09:48:37.000Z</time>
      </trkpt>
      <trkpt lat="42.43909" lon="0.07565">
        <ele>599.64</ele>
        <time>2024-10-01T09:48:42.000Z</time>
      </trkpt>
      <trkpt lat="42.43921" lon="0.07545">
        <ele>599.8</ele>
        <time>2024-10-01T09:48:47.000Z</time>
      </trkpt>
      <trkpt lat="42.43932" lon="0.07526">
        <ele>599.85</ele>
        <time>2024-10-01T09:48:52.000Z</time>
      </trkpt>
      <trkpt lat="42.43944" lon="0.07507">
        <ele>599.91</ele>
        <time>2024-10-01T09:48:57.000Z</time>
      </trkpt>
      <trkpt lat="42.43954" lon="0.07487">
        <ele>600</ele>
        <time>2024-10-01T09:49:02.000Z</time>
      </trkpt>
      <trkpt lat="42.43966" lon="0.07468">
        <ele>600.25</ele>
        <time>2024-10-01T09:49:07.000Z</time>
      </trkpt>
      <trkpt lat="42.43977" lon="0.07447">
        <ele>600.81</ele>
        <time>2024-10-01T09:49:12.000Z</time>
      </trkpt>
      <trkpt lat="42.43989" lon="0.07429">
        <ele>601.01</ele>
        <time>2024-10-01T09:49:17.000Z</time>
      </trkpt>
      <trkpt lat="42.44001" lon="0.07407">
        <ele>601.61</ele>
        <time>2024-10-01T09:49:22.000Z</time>
      </trkpt>
      <trkpt lat="42.44014" lon="0.07386">
        <ele>601.99</ele>
        <time>2024-10-01T09:49:27.000Z</time>
      </trkpt>
      <trkpt lat="42.44026" lon="0.07363">
        <ele>602.29</ele>
        <time>2024-10-01T09:49:32.000Z</time>
      </trkpt>
      <trkpt lat="42.44039" lon="0.07342">
        <ele>602.55</ele>
        <time>2024-10-01T09:49:37.000Z</time>
      </trkpt>
      <trkpt lat="42.44051" lon="0.07323">
        <ele>602.63</ele>
        <time>2024-10-01T09:49:42.000Z</time>
      </trkpt>
      <trkpt lat="42.44064" lon="0.07303">
        <ele>602.95</ele>
        <time>2024-10-01T09:49:47.000Z</time>
      </trkpt>
      <trkpt lat="42.44076" lon="0.07282">
        <ele>603.16</ele>
        <time>2024-10-01T09:49:52.000Z</time>
      </trkpt>
      <trkpt lat="42.44087" lon="0.07263">
        <ele>603.2</ele>
        <time>2024-10-01T09:49:57.000Z</time>
      </trkpt>
      <trkpt lat="42.44099" lon="0.07242">
        <ele>603.48</ele>
        <time>2024-10-01T09:50:02.000Z</time>
      </trkpt>
      <trkpt lat="42.44111" lon="0.07221">
        <ele>603.69</ele>
        <time>2024-10-01T09:50:07.000Z</time>
      </trkpt>
      <trkpt lat="42.44124" lon="0.07201">
        <ele>603.9</ele>
        <time>2024-10-01T09:50:12.000Z</time>
      </trkpt>
      <trkpt lat="42.44136" lon="0.07182">
        <ele>604.05</ele>
        <time>2024-10-01T09:50:17.000Z</time>
      </trkpt>
      <trkpt lat="42.44149" lon="0.0716">
        <ele>604.2</ele>
        <time>2024-10-01T09:50:22.000Z</time>
      </trkpt>
      <trkpt lat="42.4416" lon="0.0714">
        <ele>604.39</ele>
        <time>2024-10-01T09:50:27.000Z</time>
      </trkpt>
      <trkpt lat="42.4417" lon="0.07118">
        <ele>604.69</ele>
        <time>2024-10-01T09:50:32.000Z</time>
      </trkpt>
      <trkpt lat="42.44181" lon="0.07099">
        <ele>604.74</ele>
        <time>2024-10-01T09:50:37.000Z</time>
      </trkpt>
      <trkpt lat="42.44192" lon="0.0708">
        <ele>604.81</ele>
        <time>2024-10-01T09:50:42.000Z</time>
      </trkpt>
      <trkpt lat="42.44203" lon="0.07058">
        <ele>605.33</ele>
        <time>2024-10-01T09:50:47.000Z</time>
      </trkpt>
      <trkpt lat="42.44214" lon="0.07038">
        <ele>605.49</ele>
        <time>2024-10-01T09:50:52.000Z</time>
      </trkpt>
      <trkpt lat="42.44227" lon="0.07017">
        <ele>605.69</ele>
        <time>2024-10-01T09:50:57.000Z</time>
      </trkpt>
      <trkpt lat="42.44239" lon="0.07">
        <ele>605.81</ele>
        <time>2024-10-01T09:51:02.000Z</time>
      </trkpt>
      <trkpt lat="42.44252" lon="0.0698">
        <ele>605.95</ele>
        <time>2024-10-01T09:51:07.000Z</time>
      </trkpt>
      <trkpt lat="42.44263" lon="0.06958">
        <ele>606.09</ele>
        <time>2024-10-01T09:51:12.000Z</time>
      </trkpt>
      <trkpt lat="42.44276" lon="0.06936">
        <ele>606.22</ele>
        <time>2024-10-01T09:51:17.000Z</time>
      </trkpt>
      <trkpt lat="42.44291" lon="0.06911">
        <ele>606.32</ele>
        <time>2024-10-01T09:51:22.000Z</time>
      </trkpt>
      <trkpt lat="42.44306" lon="0.06888">
        <ele>606.41</ele>
        <time>2024-10-01T09:51:27.000Z</time>
      </trkpt>
      <trkpt lat="42.44322" lon="0.06862">
        <ele>606.48</ele>
        <time>2024-10-01T09:51:32.000Z</time>
      </trkpt>
      <trkpt lat="42.44339" lon="0.06835">
        <ele>606.54</ele>
        <time>2024-10-01T09:51:37.000Z</time>
      </trkpt>
      <trkpt lat="42.44355" lon="0.06809">
        <ele>606.58</ele>
        <time>2024-10-01T09:51:42.000Z</time>
      </trkpt>
      <trkpt lat="42.44367" lon="0.06781">
        <ele>606.61</ele>
        <time>2024-10-01T09:51:47.000Z</time>
      </trkpt>
      <trkpt lat="42.44382" lon="0.06755">
        <ele>606.66</ele>
        <time>2024-10-01T09:51:52.000Z</time>
      </trkpt>
      <trkpt lat="42.44394" lon="0.06733">
        <ele>606.72</ele>
        <time>2024-10-01T09:51:57.000Z</time>
      </trkpt>
      <trkpt lat="42.44406" lon="0.06713">
        <ele>606.76</ele>
        <time>2024-10-01T09:52:02.000Z</time>
      </trkpt>
      <trkpt lat="42.44416" lon="0.06696">
        <ele>606.78</ele>
        <time>2024-10-01T09:52:07.000Z</time>
      </trkpt>
      <trkpt lat="42.44427" lon="0.06678">
        <ele>606.79</ele>
        <time>2024-10-01T09:52:12.000Z</time>
      </trkpt>
      <trkpt lat="42.44437" lon="0.06661">
        <ele>606.82</ele>
        <time>2024-10-01T09:52:17.000Z</time>
      </trkpt>
      <trkpt lat="42.44449" lon="0.06642">
        <ele>607.03</ele>
        <time>2024-10-01T09:52:22.000Z</time>
      </trkpt>
      <trkpt lat="42.44463" lon="0.0662">
        <ele>607.31</ele>
        <time>2024-10-01T09:52:27.000Z</time>
      </trkpt>
      <trkpt lat="42.44479" lon="0.06597">
        <ele>607.5</ele>
        <time>2024-10-01T09:52:32.000Z</time>
      </trkpt>
      <trkpt lat="42.44497" lon="0.06573">
        <ele>607.65</ele>
        <time>2024-10-01T09:52:37.000Z</time>
      </trkpt>
      <trkpt lat="42.44513" lon="0.06547">
        <ele>607.76</ele>
        <time>2024-10-01T09:52:42.000Z</time>
      </trkpt>
      <trkpt lat="42.44531" lon="0.06521">
        <ele>607.85</ele>
        <time>2024-10-01T09:52:47.000Z</time>
      </trkpt>
      <trkpt lat="42.44549" lon="0.06493">
        <ele>607.93</ele>
        <time>2024-10-01T09:52:52.000Z</time>
      </trkpt>
      <trkpt lat="42.44567" lon="0.06462">
        <ele>608.31</ele>
        <time>2024-10-01T09:52:57.000Z</time>
      </trkpt>
      <trkpt lat="42.44583" lon="0.06435">
        <ele>608.79</ele>
        <time>2024-10-01T09:53:02.000Z</time>
      </trkpt>
      <trkpt lat="42.44598" lon="0.0641">
        <ele>609.24</ele>
        <time>2024-10-01T09:53:07.000Z</time>
      </trkpt>
      <trkpt lat="42.44612" lon="0.06388">
        <ele>609.68</ele>
        <time>2024-10-01T09:53:12.000Z</time>
      </trkpt>
      <trkpt lat="42.44625" lon="0.06367">
        <ele>610.11</ele>
        <time>2024-10-01T09:53:17.000Z</time>
      </trkpt>
      <trkpt lat="42.44638" lon="0.06347">
        <ele>610.53</ele>
        <time>2024-10-01T09:53:22.000Z</time>
      </trkpt>
      <trkpt lat="42.4465" lon="0.06328">
        <ele>610.61</ele>
        <time>2024-10-01T09:53:27.000Z</time>
      </trkpt>
      <trkpt lat="42.44661" lon="0.0631">
        <ele>610.7</ele>
        <time>2024-10-01T09:53:32.000Z</time>
      </trkpt>
      <trkpt lat="42.44672" lon="0.06292">
        <ele>610.81</ele>
        <time>2024-10-01T09:53:37.000Z</time>
      </trkpt>
      <trkpt lat="42.44683" lon="0.06277">
        <ele>610.94</ele>
        <time>2024-10-01T09:53:42.000Z</time>
      </trkpt>
      <trkpt lat="42.44695" lon="0.0626">
        <ele>611.08</ele>
        <time>2024-10-01T09:53:47.000Z</time>
      </trkpt>
      <trkpt lat="42.44705" lon="0.06242">
        <ele>611.24</ele>
        <time>2024-10-01T09:53:52.000Z</time>
      </trkpt>
      <trkpt lat="42.44713" lon="0.06228">
        <ele>611.4</ele>
        <time>2024-10-01T09:53:57.000Z</time>
      </trkpt>
      <trkpt lat="42.4472" lon="0.06219">
        <ele>611.58</ele>
        <time>2024-10-01T09:54:02.000Z</time>
      </trkpt>
      <trkpt lat="42.44727" lon="0.0621">
        <ele>612.78</ele>
        <time>2024-10-01T09:54:44.000Z</time>
      </trkpt>
      <trkpt lat="42.44728" lon="0.06198">
        <ele>616.57</ele>
        <time>2024-10-01T09:57:52.999Z</time>
      </trkpt>
      <trkpt lat="42.44738" lon="0.06184">
        <ele>616.87</ele>
        <time>2024-10-01T09:57:57.999Z</time>
      </trkpt>
      <trkpt lat="42.44747" lon="0.06168">
        <ele>617.15</ele>
        <time>2024-10-01T09:58:02.999Z</time>
      </trkpt>
      <trkpt lat="42.44758" lon="0.06151">
        <ele>617.41</ele>
        <time>2024-10-01T09:58:07.999Z</time>
      </trkpt>
      <trkpt lat="42.44769" lon="0.06134">
        <ele>617.65</ele>
        <time>2024-10-01T09:58:12.999Z</time>
      </trkpt>
      <trkpt lat="42.44781" lon="0.06116">
        <ele>617.87</ele>
        <time>2024-10-01T09:58:17.999Z</time>
      </trkpt>
      <trkpt lat="42.44793" lon="0.06096">
        <ele>619.11</ele>
        <time>2024-10-01T09:58:22.999Z</time>
      </trkpt>
      <trkpt lat="42.44806" lon="0.06077">
        <ele>619.62</ele>
        <time>2024-10-01T09:58:27.999Z</time>
      </trkpt>
      <trkpt lat="42.44818" lon="0.06056">
        <ele>620</ele>
        <time>2024-10-01T09:58:32.999Z</time>
      </trkpt>
      <trkpt lat="42.44832" lon="0.06035">
        <ele>620.17</ele>
        <time>2024-10-01T09:58:37.999Z</time>
      </trkpt>
      <trkpt lat="42.44846" lon="0.06013">
        <ele>620.27</ele>
        <time>2024-10-01T09:58:42.999Z</time>
      </trkpt>
      <trkpt lat="42.44861" lon="0.0599">
        <ele>620.35</ele>
        <time>2024-10-01T09:58:47.999Z</time>
      </trkpt>
      <trkpt lat="42.44875" lon="0.05967">
        <ele>620.41</ele>
        <time>2024-10-01T09:58:52.999Z</time>
      </trkpt>
      <trkpt lat="42.44891" lon="0.05944">
        <ele>620.47</ele>
        <time>2024-10-01T09:58:57.999Z</time>
      </trkpt>
      <trkpt lat="42.44906" lon="0.05921">
        <ele>620.51</ele>
        <time>2024-10-01T09:59:02.999Z</time>
      </trkpt>
      <trkpt lat="42.44922" lon="0.05896">
        <ele>620.56</ele>
        <time>2024-10-01T09:59:07.999Z</time>
      </trkpt>
      <trkpt lat="42.44938" lon="0.05873">
        <ele>620.61</ele>
        <time>2024-10-01T09:59:12.999Z</time>
      </trkpt>
      <trkpt lat="42.44954" lon="0.05848">
        <ele>620.67</ele>
        <time>2024-10-01T09:59:17.999Z</time>
      </trkpt>
      <trkpt lat="42.44973" lon="0.05825">
        <ele>620.74</ele>
        <time>2024-10-01T09:59:22.999Z</time>
      </trkpt>
      <trkpt lat="42.44991" lon="0.05803">
        <ele>620.77</ele>
        <time>2024-10-01T09:59:27.999Z</time>
      </trkpt>
      <trkpt lat="42.45011" lon="0.05784">
        <ele>620.79</ele>
        <time>2024-10-01T09:59:32.999Z</time>
      </trkpt>
      <trkpt lat="42.45029" lon="0.05768">
        <ele>620.8</ele>
        <time>2024-10-01T09:59:37.999Z</time>
      </trkpt>
      <trkpt lat="42.45046" lon="0.05755">
        <ele>620.81</ele>
        <time>2024-10-01T09:59:42.999Z</time>
      </trkpt>
      <trkpt lat="42.45062" lon="0.05744">
        <ele>620.82</ele>
        <time>2024-10-01T09:59:47.999Z</time>
      </trkpt>
      <trkpt lat="42.45077" lon="0.05735">
        <ele>620.84</ele>
        <time>2024-10-01T09:59:52.999Z</time>
      </trkpt>
      <trkpt lat="42.45091" lon="0.05729">
        <ele>620.87</ele>
        <time>2024-10-01T09:59:57.999Z</time>
      </trkpt>
      <trkpt lat="42.45105" lon="0.05722">
        <ele>620.92</ele>
        <time>2024-10-01T10:00:02.999Z</time>
      </trkpt>
      <trkpt lat="42.45119" lon="0.05716">
        <ele>620.98</ele>
        <time>2024-10-01T10:00:07.999Z</time>
      </trkpt>
      <trkpt lat="42.45134" lon="0.05711">
        <ele>621.04</ele>
        <time>2024-10-01T10:00:12.999Z</time>
      </trkpt>
      <trkpt lat="42.45148" lon="0.05706">
        <ele>621.12</ele>
        <time>2024-10-01T10:00:17.999Z</time>
      </trkpt>
      <trkpt lat="42.45164" lon="0.05701">
        <ele>621.2</ele>
        <time>2024-10-01T10:00:22.999Z</time>
      </trkpt>
      <trkpt lat="42.4518" lon="0.05696">
        <ele>621.29</ele>
        <time>2024-10-01T10:00:27.999Z</time>
      </trkpt>
      <trkpt lat="42.45195" lon="0.05691">
        <ele>621.38</ele>
        <time>2024-10-01T10:00:32.999Z</time>
      </trkpt>
      <trkpt lat="42.4521" lon="0.05686">
        <ele>621.47</ele>
        <time>2024-10-01T10:00:37.999Z</time>
      </trkpt>
      <trkpt lat="42.45226" lon="0.05681">
        <ele>621.57</ele>
        <time>2024-10-01T10:00:42.999Z</time>
      </trkpt>
      <trkpt lat="42.45241" lon="0.05675">
        <ele>621.68</ele>
        <time>2024-10-01T10:00:47.999Z</time>
      </trkpt>
      <trkpt lat="42.45258" lon="0.05668">
        <ele>621.79</ele>
        <time>2024-10-01T10:00:52.999Z</time>
      </trkpt>
      <trkpt lat="42.45275" lon="0.0566">
        <ele>621.91</ele>
        <time>2024-10-01T10:00:57.999Z</time>
      </trkpt>
      <trkpt lat="42.45292" lon="0.0565">
        <ele>622.03</ele>
        <time>2024-10-01T10:01:02.999Z</time>
      </trkpt>
      <trkpt lat="42.4531" lon="0.05639">
        <ele>622.79</ele>
        <time>2024-10-01T10:01:07.999Z</time>
      </trkpt>
      <trkpt lat="42.45327" lon="0.05627">
        <ele>623.3</ele>
        <time>2024-10-01T10:01:12.999Z</time>
      </trkpt>
      <trkpt lat="42.45345" lon="0.05612">
        <ele>623.58</ele>
        <time>2024-10-01T10:01:17.999Z</time>
      </trkpt>
      <trkpt lat="42.45363" lon="0.05596">
        <ele>623.8</ele>
        <time>2024-10-01T10:01:22.999Z</time>
      </trkpt>
      <trkpt lat="42.45383" lon="0.0558">
        <ele>624.03</ele>
        <time>2024-10-01T10:01:27.999Z</time>
      </trkpt>
      <trkpt lat="42.45401" lon="0.05563">
        <ele>624.24</ele>
        <time>2024-10-01T10:01:32.999Z</time>
      </trkpt>
      <trkpt lat="42.45421" lon="0.05545">
        <ele>624.47</ele>
        <time>2024-10-01T10:01:37.999Z</time>
      </trkpt>
      <trkpt lat="42.4544" lon="0.05528">
        <ele>624.7</ele>
        <time>2024-10-01T10:01:42.999Z</time>
      </trkpt>
      <trkpt lat="42.45459" lon="0.05511">
        <ele>624.91</ele>
        <time>2024-10-01T10:01:47.999Z</time>
      </trkpt>
      <trkpt lat="42.45478" lon="0.05495">
        <ele>625.1</ele>
        <time>2024-10-01T10:01:52.999Z</time>
      </trkpt>
      <trkpt lat="42.45497" lon="0.05479">
        <ele>625.27</ele>
        <time>2024-10-01T10:01:57.999Z</time>
      </trkpt>
      <trkpt lat="42.45517" lon="0.05461">
        <ele>625.45</ele>
        <time>2024-10-01T10:02:02.999Z</time>
      </trkpt>
      <trkpt lat="42.45536" lon="0.05443">
        <ele>625.66</ele>
        <time>2024-10-01T10:02:07.999Z</time>
      </trkpt>
      <trkpt lat="42.45555" lon="0.05424">
        <ele>625.86</ele>
        <time>2024-10-01T10:02:12.999Z</time>
      </trkpt>
      <trkpt lat="42.45575" lon="0.05404">
        <ele>626.04</ele>
        <time>2024-10-01T10:02:17.999Z</time>
      </trkpt>
      <trkpt lat="42.45595" lon="0.05381">
        <ele>626.22</ele>
        <time>2024-10-01T10:02:22.999Z</time>
      </trkpt>
      <trkpt lat="42.45613" lon="0.05357">
        <ele>626.41</ele>
        <time>2024-10-01T10:02:27.999Z</time>
      </trkpt>
      <trkpt lat="42.4563" lon="0.05331">
        <ele>626.61</ele>
        <time>2024-10-01T10:02:32.999Z</time>
      </trkpt>
      <trkpt lat="42.45645" lon="0.05303">
        <ele>626.84</ele>
        <time>2024-10-01T10:02:37.999Z</time>
      </trkpt>
      <trkpt lat="42.45661" lon="0.05276">
        <ele>627.04</ele>
        <time>2024-10-01T10:02:42.999Z</time>
      </trkpt>
      <trkpt lat="42.45677" lon="0.05249">
        <ele>627.23</ele>
        <time>2024-10-01T10:02:47.999Z</time>
      </trkpt>
      <trkpt lat="42.45694" lon="0.05222">
        <ele>627.41</ele>
        <time>2024-10-01T10:02:52.999Z</time>
      </trkpt>
      <trkpt lat="42.45712" lon="0.05197">
        <ele>627.56</ele>
        <time>2024-10-01T10:02:57.999Z</time>
      </trkpt>
      <trkpt lat="42.45732" lon="0.05174">
        <ele>627.71</ele>
        <time>2024-10-01T10:03:02.999Z</time>
      </trkpt>
      <trkpt lat="42.45753" lon="0.05155">
        <ele>627.85</ele>
        <time>2024-10-01T10:03:07.999Z</time>
      </trkpt>
      <trkpt lat="42.45776" lon="0.0514">
        <ele>627.97</ele>
        <time>2024-10-01T10:03:12.999Z</time>
      </trkpt>
      <trkpt lat="42.458" lon="0.05126">
        <ele>628.08</ele>
        <time>2024-10-01T10:03:17.999Z</time>
      </trkpt>
      <trkpt lat="42.45824" lon="0.05117">
        <ele>628.19</ele>
        <time>2024-10-01T10:03:22.999Z</time>
      </trkpt>
      <trkpt lat="42.45849" lon="0.0511">
        <ele>628.27</ele>
        <time>2024-10-01T10:03:27.999Z</time>
      </trkpt>
      <trkpt lat="42.45875" lon="0.05107">
        <ele>628.36</ele>
        <time>2024-10-01T10:03:32.999Z</time>
      </trkpt>
      <trkpt lat="42.459" lon="0.05108">
        <ele>628.46</ele>
        <time>2024-10-01T10:03:37.999Z</time>
      </trkpt>
      <trkpt lat="42.45923" lon="0.05111">
        <ele>628.6</ele>
        <time>2024-10-01T10:03:42.999Z</time>
      </trkpt>
      <trkpt lat="42.45944" lon="0.05116">
        <ele>628.73</ele>
        <time>2024-10-01T10:03:47.999Z</time>
      </trkpt>
      <trkpt lat="42.45963" lon="0.05121">
        <ele>628.81</ele>
        <time>2024-10-01T10:03:52.999Z</time>
      </trkpt>
      <trkpt lat="42.4598" lon="0.05127">
        <ele>628.85</ele>
        <time>2024-10-01T10:03:57.999Z</time>
      </trkpt>
      <trkpt lat="42.45997" lon="0.05134">
        <ele>628.9</ele>
        <time>2024-10-01T10:04:02.999Z</time>
      </trkpt>
      <trkpt lat="42.46014" lon="0.05141">
        <ele>628.96</ele>
        <time>2024-10-01T10:04:07.999Z</time>
      </trkpt>
      <trkpt lat="42.46031" lon="0.05148">
        <ele>629.04</ele>
        <time>2024-10-01T10:04:12.999Z</time>
      </trkpt>
      <trkpt lat="42.46048" lon="0.05156">
        <ele>629.14</ele>
        <time>2024-10-01T10:04:17.999Z</time>
      </trkpt>
      <trkpt lat="42.46064" lon="0.05163">
        <ele>629.24</ele>
        <time>2024-10-01T10:04:22.999Z</time>
      </trkpt>
      <trkpt lat="42.4608" lon="0.0517">
        <ele>629.36</ele>
        <time>2024-10-01T10:04:27.999Z</time>
      </trkpt>
      <trkpt lat="42.46095" lon="0.05178">
        <ele>629.49</ele>
        <time>2024-10-01T10:04:32.999Z</time>
      </trkpt>
      <trkpt lat="42.4611" lon="0.05185">
        <ele>629.61</ele>
        <time>2024-10-01T10:04:37.999Z</time>
      </trkpt>
      <trkpt lat="42.46125" lon="0.05192">
        <ele>629.74</ele>
        <time>2024-10-01T10:04:42.999Z</time>
      </trkpt>
      <trkpt lat="42.4614" lon="0.05198">
        <ele>629.88</ele>
        <time>2024-10-01T10:04:47.999Z</time>
      </trkpt>
      <trkpt lat="42.46155" lon="0.05205">
        <ele>630.01</ele>
        <time>2024-10-01T10:04:52.999Z</time>
      </trkpt>
      <trkpt lat="42.4617" lon="0.05212">
        <ele>630.15</ele>
        <time>2024-10-01T10:04:57.999Z</time>
      </trkpt>
      <trkpt lat="42.46185" lon="0.05219">
        <ele>630.29</ele>
        <time>2024-10-01T10:05:02.999Z</time>
      </trkpt>
      <trkpt lat="42.46202" lon="0.05227">
        <ele>630.42</ele>
        <time>2024-10-01T10:05:07.999Z</time>
      </trkpt>
      <trkpt lat="42.46216" lon="0.05234">
        <ele>630.54</ele>
        <time>2024-10-01T10:05:12.999Z</time>
      </trkpt>
      <trkpt lat="42.46233" lon="0.05242">
        <ele>630.66</ele>
        <time>2024-10-01T10:05:17.999Z</time>
      </trkpt>
      <trkpt lat="42.46249" lon="0.05247">
        <ele>630.77</ele>
        <time>2024-10-01T10:05:22.999Z</time>
      </trkpt>
      <trkpt lat="42.46267" lon="0.05251">
        <ele>630.87</ele>
        <time>2024-10-01T10:05:27.999Z</time>
      </trkpt>
      <trkpt lat="42.46286" lon="0.05254">
        <ele>630.97</ele>
        <time>2024-10-01T10:05:32.999Z</time>
      </trkpt>
      <trkpt lat="42.46303" lon="0.05256">
        <ele>631.07</ele>
        <time>2024-10-01T10:05:37.999Z</time>
      </trkpt>
      <trkpt lat="42.46321" lon="0.05255">
        <ele>631.17</ele>
        <time>2024-10-01T10:05:42.999Z</time>
      </trkpt>
      <trkpt lat="42.46338" lon="0.05254">
        <ele>631.26</ele>
        <time>2024-10-01T10:05:47.999Z</time>
      </trkpt>
      <trkpt lat="42.46357" lon="0.05251">
        <ele>631.36</ele>
        <time>2024-10-01T10:05:52.999Z</time>
      </trkpt>
      <trkpt lat="42.46376" lon="0.05246">
        <ele>631.81</ele>
        <time>2024-10-01T10:05:57.999Z</time>
      </trkpt>
      <trkpt lat="42.46397" lon="0.05239">
        <ele>632.22</ele>
        <time>2024-10-01T10:06:02.999Z</time>
      </trkpt>
      <trkpt lat="42.46417" lon="0.05229">
        <ele>632.41</ele>
        <time>2024-10-01T10:06:07.999Z</time>
      </trkpt>
      <trkpt lat="42.46439" lon="0.05216">
        <ele>632.53</ele>
        <time>2024-10-01T10:06:12.999Z</time>
      </trkpt>
      <trkpt lat="42.46458" lon="0.052">
        <ele>632.74</ele>
        <time>2024-10-01T10:06:17.999Z</time>
      </trkpt>
      <trkpt lat="42.46478" lon="0.05183">
        <ele>633.06</ele>
        <time>2024-10-01T10:06:22.999Z</time>
      </trkpt>
      <trkpt lat="42.46498" lon="0.05162">
        <ele>633.41</ele>
        <time>2024-10-01T10:06:27.999Z</time>
      </trkpt>
      <trkpt lat="42.46516" lon="0.05139">
        <ele>633.78</ele>
        <time>2024-10-01T10:06:32.999Z</time>
      </trkpt>
      <trkpt lat="42.46533" lon="0.05114">
        <ele>634.16</ele>
        <time>2024-10-01T10:06:37.999Z</time>
      </trkpt>
      <trkpt lat="42.46546" lon="0.05086">
        <ele>634.52</ele>
        <time>2024-10-01T10:06:42.999Z</time>
      </trkpt>
      <trkpt lat="42.46559" lon="0.05058">
        <ele>634.88</ele>
        <time>2024-10-01T10:06:47.999Z</time>
      </trkpt>
      <trkpt lat="42.4657" lon="0.05026">
        <ele>635.23</ele>
        <time>2024-10-01T10:06:52.999Z</time>
      </trkpt>
      <trkpt lat="42.46579" lon="0.04991">
        <ele>635.59</ele>
        <time>2024-10-01T10:06:57.999Z</time>
      </trkpt>
      <trkpt lat="42.4659" lon="0.04954">
        <ele>636</ele>
        <time>2024-10-01T10:07:02.999Z</time>
      </trkpt>
      <trkpt lat="42.46596" lon="0.0491">
        <ele>636.65</ele>
        <time>2024-10-01T10:07:07.999Z</time>
      </trkpt>
      <trkpt lat="42.46597" lon="0.04865">
        <ele>637.39</ele>
        <time>2024-10-01T10:07:12.999Z</time>
      </trkpt>
      <trkpt lat="42.46594" lon="0.04823">
        <ele>638.11</ele>
        <time>2024-10-01T10:07:17.999Z</time>
      </trkpt>
      <trkpt lat="42.46588" lon="0.04784">
        <ele>638.79</ele>
        <time>2024-10-01T10:07:22.999Z</time>
      </trkpt>
      <trkpt lat="42.46579" lon="0.04744">
        <ele>639.57</ele>
        <time>2024-10-01T10:07:27.999Z</time>
      </trkpt>
      <trkpt lat="42.46567" lon="0.04706">
        <ele>640.72</ele>
        <time>2024-10-01T10:07:32.999Z</time>
      </trkpt>
      <trkpt lat="42.46555" lon="0.04669">
        <ele>641.84</ele>
        <time>2024-10-01T10:07:37.999Z</time>
      </trkpt>
      <trkpt lat="42.46542" lon="0.04632">
        <ele>643.12</ele>
        <time>2024-10-01T10:07:42.999Z</time>
      </trkpt>
      <trkpt lat="42.46529" lon="0.04595">
        <ele>644.35</ele>
        <time>2024-10-01T10:07:48.000Z</time>
      </trkpt>
      <trkpt lat="42.46517" lon="0.0456">
        <ele>645.3</ele>
        <time>2024-10-01T10:07:53.000Z</time>
      </trkpt>
      <trkpt lat="42.46506" lon="0.04526">
        <ele>646.04</ele>
        <time>2024-10-01T10:07:58.000Z</time>
      </trkpt>
      <trkpt lat="42.46494" lon="0.04493">
        <ele>646.46</ele>
        <time>2024-10-01T10:08:03.000Z</time>
      </trkpt>
      <trkpt lat="42.46481" lon="0.04458">
        <ele>647.01</ele>
        <time>2024-10-01T10:08:08.000Z</time>
      </trkpt>
      <trkpt lat="42.46469" lon="0.04424">
        <ele>647.56</ele>
        <time>2024-10-01T10:08:13.000Z</time>
      </trkpt>
      <trkpt lat="42.46457" lon="0.04389">
        <ele>647.91</ele>
        <time>2024-10-01T10:08:18.000Z</time>
      </trkpt>
      <trkpt lat="42.46445" lon="0.04354">
        <ele>648.26</ele>
        <time>2024-10-01T10:08:23.000Z</time>
      </trkpt>
      <trkpt lat="42.46432" lon="0.0432">
        <ele>648.72</ele>
        <time>2024-10-01T10:08:28.000Z</time>
      </trkpt>
      <trkpt lat="42.46421" lon="0.04286">
        <ele>649.01</ele>
        <time>2024-10-01T10:08:33.000Z</time>
      </trkpt>
      <trkpt lat="42.46408" lon="0.04248">
        <ele>649.11</ele>
        <time>2024-10-01T10:08:38.000Z</time>
      </trkpt>
      <trkpt lat="42.46395" lon="0.04212">
        <ele>649.15</ele>
        <time>2024-10-01T10:08:43.000Z</time>
      </trkpt>
      <trkpt lat="42.46382" lon="0.04175">
        <ele>649.3</ele>
        <time>2024-10-01T10:08:48.000Z</time>
      </trkpt>
      <trkpt lat="42.46369" lon="0.04137">
        <ele>649.5</ele>
        <time>2024-10-01T10:08:53.000Z</time>
      </trkpt>
      <trkpt lat="42.46358" lon="0.041">
        <ele>649.63</ele>
        <time>2024-10-01T10:08:58.000Z</time>
      </trkpt>
      <trkpt lat="42.46349" lon="0.04064">
        <ele>649.89</ele>
        <time>2024-10-01T10:09:03.000Z</time>
      </trkpt>
      <trkpt lat="42.46342" lon="0.04029">
        <ele>650.35</ele>
        <time>2024-10-01T10:09:08.000Z</time>
      </trkpt>
      <trkpt lat="42.46338" lon="0.03995">
        <ele>650.57</ele>
        <time>2024-10-01T10:09:13.000Z</time>
      </trkpt>
      <trkpt lat="42.46335" lon="0.03961">
        <ele>650.84</ele>
        <time>2024-10-01T10:09:18.000Z</time>
      </trkpt>
      <trkpt lat="42.46332" lon="0.03928">
        <ele>651.12</ele>
        <time>2024-10-01T10:09:23.000Z</time>
      </trkpt>
      <trkpt lat="42.46332" lon="0.03895">
        <ele>651.42</ele>
        <time>2024-10-01T10:09:28.000Z</time>
      </trkpt>
      <trkpt lat="42.46334" lon="0.03863">
        <ele>651.42</ele>
        <time>2024-10-01T10:09:33.000Z</time>
      </trkpt>
      <trkpt lat="42.46336" lon="0.03832">
        <ele>651.3</ele>
        <time>2024-10-01T10:09:38.000Z</time>
      </trkpt>
      <trkpt lat="42.46341" lon="0.03802">
        <ele>651.28</ele>
        <time>2024-10-01T10:09:43.000Z</time>
      </trkpt>
      <trkpt lat="42.46345" lon="0.03773">
        <ele>651.39</ele>
        <time>2024-10-01T10:09:48.000Z</time>
      </trkpt>
      <trkpt lat="42.46349" lon="0.03744">
        <ele>651.56</ele>
        <time>2024-10-01T10:09:53.000Z</time>
      </trkpt>
      <trkpt lat="42.46353" lon="0.03717">
        <ele>651.83</ele>
        <time>2024-10-01T10:09:58.000Z</time>
      </trkpt>
      <trkpt lat="42.46357" lon="0.03691">
        <ele>652.19</ele>
        <time>2024-10-01T10:10:03.000Z</time>
      </trkpt>
      <trkpt lat="42.46361" lon="0.03668">
        <ele>652.28</ele>
        <time>2024-10-01T10:10:08.000Z</time>
      </trkpt>
      <trkpt lat="42.46366" lon="0.03649">
        <ele>652.45</ele>
        <time>2024-10-01T10:10:13.000Z</time>
      </trkpt>
      <trkpt lat="42.46366" lon="0.03632">
        <ele>652.55</ele>
        <time>2024-10-01T10:10:18.000Z</time>
      </trkpt>
      <trkpt lat="42.4637" lon="0.0362">
        <ele>652.71</ele>
        <time>2024-10-01T10:13:15.000Z</time>
      </trkpt>
      <trkpt lat="42.46376" lon="0.03598">
        <ele>652.82</ele>
        <time>2024-10-01T10:13:20.000Z</time>
      </trkpt>
      <trkpt lat="42.46616" lon="0.03058">
        <ele>655.05</ele>
        <time>2024-10-01T10:14:57.000Z</time>
      </trkpt>
      <trkpt lat="42.46634" lon="0.03045">
        <ele>653.57</ele>
        <time>2024-10-01T10:15:02.000Z</time>
      </trkpt>
      <trkpt lat="42.46622" lon="0.02925">
        <ele>652.27</ele>
        <time>2024-10-01T10:15:07.000Z</time>
      </trkpt>
      <trkpt lat="42.4662" lon="0.0287">
        <ele>652.64</ele>
        <time>2024-10-01T10:15:12.000Z</time>
      </trkpt>
      <trkpt lat="42.4662" lon="0.02821">
        <ele>653.23</ele>
        <time>2024-10-01T10:15:17.000Z</time>
      </trkpt>
      <trkpt lat="42.46621" lon="0.02777">
        <ele>654.28</ele>
        <time>2024-10-01T10:15:22.000Z</time>
      </trkpt>
      <trkpt lat="42.46622" lon="0.02737">
        <ele>655.35</ele>
        <time>2024-10-01T10:15:27.000Z</time>
      </trkpt>
      <trkpt lat="42.46623" lon="0.02701">
        <ele>656.2</ele>
        <time>2024-10-01T10:15:32.000Z</time>
      </trkpt>
      <trkpt lat="42.46624" lon="0.0267">
        <ele>656.73</ele>
        <time>2024-10-01T10:15:37.000Z</time>
      </trkpt>
      <trkpt lat="42.46624" lon="0.02641">
        <ele>657.08</ele>
        <time>2024-10-01T10:15:42.000Z</time>
      </trkpt>
      <trkpt lat="42.46626" lon="0.02612">
        <ele>657.42</ele>
        <time>2024-10-01T10:15:47.000Z</time>
      </trkpt>
      <trkpt lat="42.46627" lon="0.02584">
        <ele>657.53</ele>
        <time>2024-10-01T10:15:52.000Z</time>
      </trkpt>
      <trkpt lat="42.46627" lon="0.02559">
        <ele>657.54</ele>
        <time>2024-10-01T10:15:57.000Z</time>
      </trkpt>
      <trkpt lat="42.46621" lon="0.02539">
        <ele>657.56</ele>
        <time>2024-10-01T10:16:02.000Z</time>
      </trkpt>
      <trkpt lat="42.46619" lon="0.02526">
        <ele>657.82</ele>
        <time>2024-10-01T10:17:07.000Z</time>
      </trkpt>
      <trkpt lat="42.46617" lon="0.02504">
        <ele>658.18</ele>
        <time>2024-10-01T10:17:12.000Z</time>
      </trkpt>
      <trkpt lat="42.46613" lon="0.02476">
        <ele>660.72</ele>
        <time>2024-10-01T10:17:17.000Z</time>
      </trkpt>
      <trkpt lat="42.46607" lon="0.02451">
        <ele>662.03</ele>
        <time>2024-10-01T10:17:22.000Z</time>
      </trkpt>
      <trkpt lat="42.46603" lon="0.02423">
        <ele>662.62</ele>
        <time>2024-10-01T10:17:27.000Z</time>
      </trkpt>
      <trkpt lat="42.46598" lon="0.02398">
        <ele>662.94</ele>
        <time>2024-10-01T10:17:32.000Z</time>
      </trkpt>
      <trkpt lat="42.46595" lon="0.02371">
        <ele>663.2</ele>
        <time>2024-10-01T10:17:37.000Z</time>
      </trkpt>
      <trkpt lat="42.46597" lon="0.02346">
        <ele>663.27</ele>
        <time>2024-10-01T10:17:42.000Z</time>
      </trkpt>
      <trkpt lat="42.46601" lon="0.02319">
        <ele>663.52</ele>
        <time>2024-10-01T10:17:47.000Z</time>
      </trkpt>
      <trkpt lat="42.46608" lon="0.02294">
        <ele>663.63</ele>
        <time>2024-10-01T10:17:52.000Z</time>
      </trkpt>
      <trkpt lat="42.46617" lon="0.02275">
        <ele>663.64</ele>
        <time>2024-10-01T10:17:57.000Z</time>
      </trkpt>
      <trkpt lat="42.46625" lon="0.02256">
        <ele>663.64</ele>
        <time>2024-10-01T10:18:02.000Z</time>
      </trkpt>
      <trkpt lat="42.46631" lon="0.02237">
        <ele>663.63</ele>
        <time>2024-10-01T10:18:07.000Z</time>
      </trkpt>
      <trkpt lat="42.46641" lon="0.02222">
        <ele>663.57</ele>
        <time>2024-10-01T10:18:12.000Z</time>
      </trkpt>
      <trkpt lat="42.46644" lon="0.02204">
        <ele>663.15</ele>
        <time>2024-10-01T10:18:17.000Z</time>
      </trkpt>
      <trkpt lat="42.46771" lon="0.0203">
        <ele>661.44</ele>
        <time>2024-10-01T10:19:09.000Z</time>
      </trkpt>
      <trkpt lat="42.46775" lon="0.02001">
        <ele>660.98</ele>
        <time>2024-10-01T10:19:14.000Z</time>
      </trkpt>
      <trkpt lat="42.46777" lon="0.01971">
        <ele>661.04</ele>
        <time>2024-10-01T10:19:19.000Z</time>
      </trkpt>
      <trkpt lat="42.46778" lon="0.01942">
        <ele>661.24</ele>
        <time>2024-10-01T10:19:24.000Z</time>
      </trkpt>
      <trkpt lat="42.46778" lon="0.01914">
        <ele>661.33</ele>
        <time>2024-10-01T10:19:29.000Z</time>
      </trkpt>
      <trkpt lat="42.46778" lon="0.01887">
        <ele>661.44</ele>
        <time>2024-10-01T10:19:34.000Z</time>
      </trkpt>
      <trkpt lat="42.46777" lon="0.0186">
        <ele>661.33</ele>
        <time>2024-10-01T10:19:39.000Z</time>
      </trkpt>
      <trkpt lat="42.46775" lon="0.01832">
        <ele>661.28</ele>
        <time>2024-10-01T10:19:44.000Z</time>
      </trkpt>
      <trkpt lat="42.46772" lon="0.01801">
        <ele>661.35</ele>
        <time>2024-10-01T10:19:49.999Z</time>
      </trkpt>
      <trkpt lat="42.46768" lon="0.01775">
        <ele>661.51</ele>
        <time>2024-10-01T10:19:54.999Z</time>
      </trkpt>
      <trkpt lat="42.46761" lon="0.01747">
        <ele>662</ele>
        <time>2024-10-01T10:19:59.999Z</time>
      </trkpt>
      <trkpt lat="42.46753" lon="0.01721">
        <ele>662.36</ele>
        <time>2024-10-01T10:20:04.999Z</time>
      </trkpt>
      <trkpt lat="42.46747" lon="0.01698">
        <ele>662.48</ele>
        <time>2024-10-01T10:20:09.999Z</time>
      </trkpt>
      <trkpt lat="42.46742" lon="0.01681">
        <ele>662.69</ele>
        <time>2024-10-01T10:20:14.999Z</time>
      </trkpt>
      <trkpt lat="42.46737" lon="0.01661">
        <ele>662.9</ele>
        <time>2024-10-01T10:20:19.999Z</time>
      </trkpt>
      <trkpt lat="42.46734" lon="0.01642">
        <ele>663.19</ele>
        <time>2024-10-01T10:20:24.999Z</time>
      </trkpt>
      <trkpt lat="42.46732" lon="0.01629">
        <ele>663.5</ele>
        <time>2024-10-01T10:20:29.999Z</time>
      </trkpt>
      <trkpt lat="42.46728" lon="0.01616">
        <ele>663.79</ele>
        <time>2024-10-01T10:20:34.999Z</time>
      </trkpt>
      <trkpt lat="42.46725" lon="0.01605">
        <ele>664.27</ele>
        <time>2024-10-01T10:20:40.999Z</time>
      </trkpt>
      <trkpt lat="42.46722" lon="0.01591">
        <ele>665</ele>
        <time>2024-10-01T10:20:46.999Z</time>
      </trkpt>
      <trkpt lat="42.46722" lon="0.01577">
        <ele>665.65</ele>
        <time>2024-10-01T10:20:51.999Z</time>
      </trkpt>
      <trkpt lat="42.46725" lon="0.01563">
        <ele>666.23</ele>
        <time>2024-10-01T10:20:56.999Z</time>
      </trkpt>
      <trkpt lat="42.4673" lon="0.01553">
        <ele>666.74</ele>
        <time>2024-10-01T10:21:02.999Z</time>
      </trkpt>
      <trkpt lat="42.46733" lon="0.01539">
        <ele>667.06</ele>
        <time>2024-10-01T10:21:07.999Z</time>
      </trkpt>
      <trkpt lat="42.46736" lon="0.01527">
        <ele>667.37</ele>
        <time>2024-10-01T10:21:12.999Z</time>
      </trkpt>
      <trkpt lat="42.46739" lon="0.01515">
        <ele>667.65</ele>
        <time>2024-10-01T10:21:17.999Z</time>
      </trkpt>
      <trkpt lat="42.46741" lon="0.01503">
        <ele>667.92</ele>
        <time>2024-10-01T10:21:22.999Z</time>
      </trkpt>
      <trkpt lat="42.46743" lon="0.0149">
        <ele>668.17</ele>
        <time>2024-10-01T10:21:27.999Z</time>
      </trkpt>
      <trkpt lat="42.46744" lon="0.01477">
        <ele>668.41</ele>
        <time>2024-10-01T10:21:32.999Z</time>
      </trkpt>
      <trkpt lat="42.46743" lon="0.01464">
        <ele>668.71</ele>
        <time>2024-10-01T10:21:38.999Z</time>
      </trkpt>
      <trkpt lat="42.46742" lon="0.0145">
        <ele>669</ele>
        <time>2024-10-01T10:21:44.999Z</time>
      </trkpt>
      <trkpt lat="42.46742" lon="0.01437">
        <ele>669.3</ele>
        <time>2024-10-01T10:21:50.999Z</time>
      </trkpt>
      <trkpt lat="42.4674" lon="0.01423">
        <ele>669.61</ele>
        <time>2024-10-01T10:21:56.999Z</time>
      </trkpt>
      <trkpt lat="42.4674" lon="0.0141">
        <ele>669.92</ele>
        <time>2024-10-01T10:22:02.999Z</time>
      </trkpt>
      <trkpt lat="42.46739" lon="0.01396">
        <ele>670.23</ele>
        <time>2024-10-01T10:22:08.999Z</time>
      </trkpt>
      <trkpt lat="42.46738" lon="0.01382">
        <ele>670.54</ele>
        <time>2024-10-01T10:22:14.999Z</time>
      </trkpt>
      <trkpt lat="42.46733" lon="0.0137">
        <ele>670.85</ele>
        <time>2024-10-01T10:22:20.999Z</time>
      </trkpt>
      <trkpt lat="42.46732" lon="0.01358">
        <ele>671.17</ele>
        <time>2024-10-01T10:22:26.999Z</time>
      </trkpt>
      <trkpt lat="42.46728" lon="0.01347">
        <ele>671.68</ele>
        <time>2024-10-01T10:22:44.999Z</time>
      </trkpt>
      <trkpt lat="42.46736" lon="0.01339">
        <ele>672.7</ele>
        <time>2024-10-01T10:23:12.999Z</time>
      </trkpt>
      <trkpt lat="42.46737" lon="0.01327">
        <ele>673.09</ele>
        <time>2024-10-01T10:23:17.999Z</time>
      </trkpt>
      <trkpt lat="42.46737" lon="0.01313">
        <ele>673.44</ele>
        <time>2024-10-01T10:23:22.999Z</time>
      </trkpt>
      <trkpt lat="42.46737" lon="0.01301">
        <ele>673.76</ele>
        <time>2024-10-01T10:23:27.999Z</time>
      </trkpt>
      <trkpt lat="42.46739" lon="0.01288">
        <ele>674.05</ele>
        <time>2024-10-01T10:23:32.999Z</time>
      </trkpt>
      <trkpt lat="42.46742" lon="0.01277">
        <ele>674.33</ele>
        <time>2024-10-01T10:23:37.999Z</time>
      </trkpt>
      <trkpt lat="42.46746" lon="0.01265">
        <ele>674.59</ele>
        <time>2024-10-01T10:23:42.999Z</time>
      </trkpt>
      <trkpt lat="42.4675" lon="0.01253">
        <ele>674.84</ele>
        <time>2024-10-01T10:23:47.999Z</time>
      </trkpt>
      <trkpt lat="42.46754" lon="0.01242">
        <ele>675.09</ele>
        <time>2024-10-01T10:23:52.999Z</time>
      </trkpt>
      <trkpt lat="42.46758" lon="0.01229">
        <ele>675.35</ele>
        <time>2024-10-01T10:23:57.999Z</time>
      </trkpt>
      <trkpt lat="42.46761" lon="0.01218">
        <ele>675.66</ele>
        <time>2024-10-01T10:24:03.999Z</time>
      </trkpt>
      <trkpt lat="42.46765" lon="0.01205">
        <ele>675.98</ele>
        <time>2024-10-01T10:24:09.999Z</time>
      </trkpt>
      <trkpt lat="42.46769" lon="0.01192">
        <ele>676.29</ele>
        <time>2024-10-01T10:24:15.999Z</time>
      </trkpt>
      <trkpt lat="42.46773" lon="0.0118">
        <ele>676.59</ele>
        <time>2024-10-01T10:24:21.999Z</time>
      </trkpt>
      <trkpt lat="42.46777" lon="0.01168">
        <ele>676.88</ele>
        <time>2024-10-01T10:24:27.999Z</time>
      </trkpt>
      <trkpt lat="42.46781" lon="0.01155">
        <ele>677.16</ele>
        <time>2024-10-01T10:24:33.999Z</time>
      </trkpt>
      <trkpt lat="42.46783" lon="0.01143">
        <ele>677.43</ele>
        <time>2024-10-01T10:24:39.999Z</time>
      </trkpt>
      <trkpt lat="42.46786" lon="0.01131">
        <ele>677.7</ele>
        <time>2024-10-01T10:24:45.999Z</time>
      </trkpt>
      <trkpt lat="42.46788" lon="0.01119">
        <ele>677.98</ele>
        <time>2024-10-01T10:24:51.999Z</time>
      </trkpt>
      <trkpt lat="42.46793" lon="0.01107">
        <ele>678.28</ele>
        <time>2024-10-01T10:24:57.999Z</time>
      </trkpt>
      <trkpt lat="42.46801" lon="0.01099">
        <ele>678.57</ele>
        <time>2024-10-01T10:25:03.999Z</time>
      </trkpt>
      <trkpt lat="42.46811" lon="0.01093">
        <ele>678.88</ele>
        <time>2024-10-01T10:25:09.999Z</time>
      </trkpt>
      <trkpt lat="42.4682" lon="0.01089">
        <ele>679.19</ele>
        <time>2024-10-01T10:25:15.999Z</time>
      </trkpt>
      <trkpt lat="42.46828" lon="0.01081">
        <ele>679.45</ele>
        <time>2024-10-01T10:25:20.999Z</time>
      </trkpt>
      <trkpt lat="42.46833" lon="0.0107">
        <ele>679.78</ele>
        <time>2024-10-01T10:25:26.999Z</time>
      </trkpt>
      <trkpt lat="42.46835" lon="0.01057">
        <ele>680.18</ele>
        <time>2024-10-01T10:25:32.999Z</time>
      </trkpt>
      <trkpt lat="42.46834" lon="0.01043">
        <ele>680.61</ele>
        <time>2024-10-01T10:25:38.999Z</time>
      </trkpt>
      <trkpt lat="42.46834" lon="0.01029">
        <ele>681.1</ele>
        <time>2024-10-01T10:25:44.999Z</time>
      </trkpt>
      <trkpt lat="42.46834" lon="0.01017">
        <ele>681.54</ele>
        <time>2024-10-01T10:25:49.999Z</time>
      </trkpt>
      <trkpt lat="42.46835" lon="0.01004">
        <ele>681.99</ele>
        <time>2024-10-01T10:25:54.999Z</time>
      </trkpt>
      <trkpt lat="42.46835" lon="0.00991">
        <ele>682.45</ele>
        <time>2024-10-01T10:25:59.999Z</time>
      </trkpt>
      <trkpt lat="42.46837" lon="0.00979">
        <ele>682.91</ele>
        <time>2024-10-01T10:26:04.999Z</time>
      </trkpt>
      <trkpt lat="42.46839" lon="0.00966">
        <ele>683.37</ele>
        <time>2024-10-01T10:26:09.999Z</time>
      </trkpt>
      <trkpt lat="42.46841" lon="0.00951">
        <ele>683.82</ele>
        <time>2024-10-01T10:26:14.999Z</time>
      </trkpt>
      <trkpt lat="42.46843" lon="0.00938">
        <ele>684.25</ele>
        <time>2024-10-01T10:26:19.999Z</time>
      </trkpt>
      <trkpt lat="42.46843" lon="0.00925">
        <ele>684.68</ele>
        <time>2024-10-01T10:26:24.999Z</time>
      </trkpt>
      <trkpt lat="42.46843" lon="0.00912">
        <ele>685.13</ele>
        <time>2024-10-01T10:26:29.999Z</time>
      </trkpt>
      <trkpt lat="42.46842" lon="0.00898">
        <ele>685.6</ele>
        <time>2024-10-01T10:26:34.999Z</time>
      </trkpt>
      <trkpt lat="42.46839" lon="0.00884">
        <ele>686.11</ele>
        <time>2024-10-01T10:26:39.999Z</time>
      </trkpt>
      <trkpt lat="42.46836" lon="0.00869">
        <ele>686.64</ele>
        <time>2024-10-01T10:26:44.999Z</time>
      </trkpt>
      <trkpt lat="42.46835" lon="0.00855">
        <ele>687.18</ele>
        <time>2024-10-01T10:26:49.999Z</time>
      </trkpt>
      <trkpt lat="42.46835" lon="0.00841">
        <ele>687.84</ele>
        <time>2024-10-01T10:26:55.999Z</time>
      </trkpt>
      <trkpt lat="42.46834" lon="0.00828">
        <ele>688.4</ele>
        <time>2024-10-01T10:27:00.999Z</time>
      </trkpt>
      <trkpt lat="42.46831" lon="0.00813">
        <ele>688.95</ele>
        <time>2024-10-01T10:27:05.999Z</time>
      </trkpt>
      <trkpt lat="42.46828" lon="0.00801">
        <ele>689.51</ele>
        <time>2024-10-01T10:27:10.999Z</time>
      </trkpt>
      <trkpt lat="42.46822" lon="0.00789">
        <ele>690.05</ele>
        <time>2024-10-01T10:27:15.999Z</time>
      </trkpt>
      <trkpt lat="42.46814" lon="0.00779">
        <ele>690.7</ele>
        <time>2024-10-01T10:27:21.999Z</time>
      </trkpt>
      <trkpt lat="42.46807" lon="0.00772">
        <ele>691.26</ele>
        <time>2024-10-01T10:27:26.999Z</time>
      </trkpt>
      <trkpt lat="42.46799" lon="0.00762">
        <ele>691.83</ele>
        <time>2024-10-01T10:27:31.999Z</time>
      </trkpt>
      <trkpt lat="42.46792" lon="0.00751">
        <ele>692.42</ele>
        <time>2024-10-01T10:27:36.999Z</time>
      </trkpt>
      <trkpt lat="42.46786" lon="0.00741">
        <ele>693.02</ele>
        <time>2024-10-01T10:27:41.999Z</time>
      </trkpt>
      <trkpt lat="42.46778" lon="0.00731">
        <ele>693.73</ele>
        <time>2024-10-01T10:27:47.999Z</time>
      </trkpt>
      <trkpt lat="42.46772" lon="0.0072">
        <ele>694.35</ele>
        <time>2024-10-01T10:27:52.999Z</time>
      </trkpt>
      <trkpt lat="42.4677" lon="0.00705">
        <ele>694.99</ele>
        <time>2024-10-01T10:27:57.999Z</time>
      </trkpt>
      <trkpt lat="42.46769" lon="0.0069">
        <ele>695.63</ele>
        <time>2024-10-01T10:28:02.999Z</time>
      </trkpt>
      <trkpt lat="42.46771" lon="0.00675">
        <ele>696.31</ele>
        <time>2024-10-01T10:28:07.999Z</time>
      </trkpt>
      <trkpt lat="42.46772" lon="0.0066">
        <ele>697.01</ele>
        <time>2024-10-01T10:28:12.999Z</time>
      </trkpt>
      <trkpt lat="42.46772" lon="0.00643">
        <ele>697.7</ele>
        <time>2024-10-01T10:28:17.999Z</time>
      </trkpt>
      <trkpt lat="42.46773" lon="0.00624">
        <ele>698.37</ele>
        <time>2024-10-01T10:28:22.999Z</time>
      </trkpt>
      <trkpt lat="42.46775" lon="0.00605">
        <ele>699.05</ele>
        <time>2024-10-01T10:28:27.999Z</time>
      </trkpt>
      <trkpt lat="42.46777" lon="0.00583">
        <ele>699.85</ele>
        <time>2024-10-01T10:28:32.999Z</time>
      </trkpt>
      <trkpt lat="42.4678" lon="0.00561">
        <ele>701.02</ele>
        <time>2024-10-01T10:28:37.999Z</time>
      </trkpt>
      <trkpt lat="42.46784" lon="0.00544">
        <ele>702.43</ele>
        <time>2024-10-01T10:28:42.999Z</time>
      </trkpt>
      <trkpt lat="42.46777" lon="0.00525">
        <ele>703.89</ele>
        <time>2024-10-01T10:28:47.999Z</time>
      </trkpt>
      <trkpt lat="42.46763" lon="0.00515">
        <ele>705.38</ele>
        <time>2024-10-01T10:28:52.999Z</time>
      </trkpt>
      <trkpt lat="42.46749" lon="0.0051">
        <ele>706.91</ele>
        <time>2024-10-01T10:28:57.999Z</time>
      </trkpt>
      <trkpt lat="42.46735" lon="0.00509">
        <ele>708.48</ele>
        <time>2024-10-01T10:29:02.999Z</time>
      </trkpt>
      <trkpt lat="42.4672" lon="0.00508">
        <ele>709.98</ele>
        <time>2024-10-01T10:29:07.999Z</time>
      </trkpt>
      <trkpt lat="42.46705" lon="0.00506">
        <ele>711.4</ele>
        <time>2024-10-01T10:29:12.999Z</time>
      </trkpt>
      <trkpt lat="42.46692" lon="0.00499">
        <ele>712.79</ele>
        <time>2024-10-01T10:29:17.999Z</time>
      </trkpt>
      <trkpt lat="42.46683" lon="0.00487">
        <ele>714.14</ele>
        <time>2024-10-01T10:29:22.999Z</time>
      </trkpt>
      <trkpt lat="42.46673" lon="0.00473">
        <ele>715.46</ele>
        <time>2024-10-01T10:29:27.999Z</time>
      </trkpt>
      <trkpt lat="42.46671" lon="0.00453">
        <ele>716.78</ele>
        <time>2024-10-01T10:29:32.999Z</time>
      </trkpt>
      <trkpt lat="42.46678" lon="0.00431">
        <ele>718</ele>
        <time>2024-10-01T10:29:37.999Z</time>
      </trkpt>
      <trkpt lat="42.46678" lon="0.00412">
        <ele>719.09</ele>
        <time>2024-10-01T10:29:42.999Z</time>
      </trkpt>
      <trkpt lat="42.46671" lon="0.00392">
        <ele>720.1</ele>
        <time>2024-10-01T10:29:47.999Z</time>
      </trkpt>
      <trkpt lat="42.46658" lon="0.00373">
        <ele>724.8</ele>
        <time>2024-10-01T10:29:52.999Z</time>
      </trkpt>
      <trkpt lat="42.46644" lon="0.00351">
        <ele>728.4</ele>
        <time>2024-10-01T10:29:57.999Z</time>
      </trkpt>
      <trkpt lat="42.46644" lon="0.00324">
        <ele>728.94</ele>
        <time>2024-10-01T10:30:02.999Z</time>
      </trkpt>
      <trkpt lat="42.46646" lon="0.00311">
        <ele>728.9</ele>
        <time>2024-10-01T10:30:17.999Z</time>
      </trkpt>
      <trkpt lat="42.46653" lon="0.00303">
        <ele>726.76</ele>
        <time>2024-10-01T10:35:03.000Z</time>
      </trkpt>
      <trkpt lat="42.46663" lon="0.003">
        <ele>726.58</ele>
        <time>2024-10-01T10:35:08.000Z</time>
      </trkpt>
      <trkpt lat="42.46673" lon="0.00283">
        <ele>726.41</ele>
        <time>2024-10-01T10:35:13.000Z</time>
      </trkpt>
      <trkpt lat="42.46684" lon="0.00258">
        <ele>725.42</ele>
        <time>2024-10-01T10:35:18.000Z</time>
      </trkpt>
      <trkpt lat="42.46698" lon="0.00228">
        <ele>725.09</ele>
        <time>2024-10-01T10:35:23.000Z</time>
      </trkpt>
      <trkpt lat="42.46719" lon="0.00201">
        <ele>725.05</ele>
        <time>2024-10-01T10:35:28.000Z</time>
      </trkpt>
      <trkpt lat="42.46726" lon="0.00152">
        <ele>725.03</ele>
        <time>2024-10-01T10:35:33.000Z</time>
      </trkpt>
      <trkpt lat="42.46764" lon="0.00124">
        <ele>724.84</ele>
        <time>2024-10-01T10:35:38.000Z</time>
      </trkpt>
      <trkpt lat="42.46812" lon="0.00126">
        <ele>724.04</ele>
        <time>2024-10-01T10:35:43.000Z</time>
      </trkpt>
      <trkpt lat="42.46862" lon="0.00116">
        <ele>723.07</ele>
        <time>2024-10-01T10:35:48.000Z</time>
      </trkpt>
      <trkpt lat="42.46914" lon="0.00096">
        <ele>721.9</ele>
        <time>2024-10-01T10:35:53.000Z</time>
      </trkpt>
      <trkpt lat="42.4696" lon="0.0007">
        <ele>720.4</ele>
        <time>2024-10-01T10:35:58.000Z</time>
      </trkpt>
      <trkpt lat="42.46946" lon="0.00029">
        <ele>718.46</ele>
        <time>2024-10-01T10:36:03.000Z</time>
      </trkpt>
      <trkpt lat="42.46927" lon="0.00016">
        <ele>718.62</ele>
        <time>2024-10-01T10:36:08.000Z</time>
      </trkpt>
      <trkpt lat="42.4692" lon="0.00024">
        <ele>718.54</ele>
        <time>2024-10-01T10:36:41.000Z</time>
      </trkpt>
      <trkpt lat="42.46909" lon="0.0003">
        <ele>718.25</ele>
        <time>2024-10-01T10:36:46.000Z</time>
      </trkpt>
      <trkpt lat="42.46897" lon="0.00026">
        <ele>717.82</ele>
        <time>2024-10-01T10:36:51.000Z</time>
      </trkpt>
      <trkpt lat="42.46885" lon="0.00029">
        <ele>717.33</ele>
        <time>2024-10-01T10:36:56.000Z</time>
      </trkpt>
      <trkpt lat="42.46876" lon="0.00026">
        <ele>714.64</ele>
        <time>2024-10-01T10:38:41.000Z</time>
      </trkpt>
      <trkpt lat="42.46885" lon="0.00023">
        <ele>704.26</ele>
        <time>2024-10-01T11:49:53.000Z</time>
      </trkpt>
      <trkpt lat="42.46895" lon="0.00025">
        <ele>704.25</ele>
        <time>2024-10-01T11:50:19.000Z</time>
      </trkpt>
      <trkpt lat="42.46907" lon="0.00026">
        <ele>704.24</ele>
        <time>2024-10-01T11:50:24.000Z</time>
      </trkpt>
      <trkpt lat="42.46921" lon="0.00025">
        <ele>704.23</ele>
        <time>2024-10-01T11:50:29.000Z</time>
      </trkpt>
      <trkpt lat="42.4693" lon="0.00015">
        <ele>704.23</ele>
        <time>2024-10-01T11:50:34.000Z</time>
      </trkpt>
      <trkpt lat="42.46935" lon="-7.0E-5">
        <ele>704.19</ele>
        <time>2024-10-01T11:50:39.000Z</time>
      </trkpt>
      <trkpt lat="42.4695" lon="-0.00037">
        <ele>704.14</ele>
        <time>2024-10-01T11:50:44.000Z</time>
      </trkpt>
      <trkpt lat="42.46982" lon="-0.00038">
        <ele>704.11</ele>
        <time>2024-10-01T11:50:49.000Z</time>
      </trkpt>
      <trkpt lat="42.47011" lon="-0.0004">
        <ele>704.11</ele>
        <time>2024-10-01T11:50:54.000Z</time>
      </trkpt>
      <trkpt lat="42.47036" lon="-0.00043">
        <ele>704.03</ele>
        <time>2024-10-01T11:50:59.000Z</time>
      </trkpt>
      <trkpt lat="42.47061" lon="-0.00054">
        <ele>703.94</ele>
        <time>2024-10-01T11:51:04.000Z</time>
      </trkpt>
      <trkpt lat="42.47084" lon="-0.00072">
        <ele>704.11</ele>
        <time>2024-10-01T11:51:09.000Z</time>
      </trkpt>
      <trkpt lat="42.47104" lon="-0.00089">
        <ele>704.12</ele>
        <time>2024-10-01T11:51:14.000Z</time>
      </trkpt>
      <trkpt lat="42.47121" lon="-0.00103">
        <ele>704.21</ele>
        <time>2024-10-01T11:51:19.000Z</time>
      </trkpt>
      <trkpt lat="42.47137" lon="-0.00118">
        <ele>704.35</ele>
        <time>2024-10-01T11:51:24.000Z</time>
      </trkpt>
      <trkpt lat="42.47154" lon="-0.00131">
        <ele>704.45</ele>
        <time>2024-10-01T11:51:29.000Z</time>
      </trkpt>
      <trkpt lat="42.47168" lon="-0.00144">
        <ele>704.49</ele>
        <time>2024-10-01T11:51:34.000Z</time>
      </trkpt>
      <trkpt lat="42.47181" lon="-0.00158">
        <ele>704.53</ele>
        <time>2024-10-01T11:51:39.000Z</time>
      </trkpt>
      <trkpt lat="42.47192" lon="-0.00171">
        <ele>704.54</ele>
        <time>2024-10-01T11:51:44.000Z</time>
      </trkpt>
      <trkpt lat="42.47203" lon="-0.00186">
        <ele>704.56</ele>
        <time>2024-10-01T11:51:49.000Z</time>
      </trkpt>
      <trkpt lat="42.47213" lon="-0.00202">
        <ele>704.6</ele>
        <time>2024-10-01T11:51:54.000Z</time>
      </trkpt>
      <trkpt lat="42.47223" lon="-0.00219">
        <ele>704.66</ele>
        <time>2024-10-01T11:51:59.000Z</time>
      </trkpt>
      <trkpt lat="42.47234" lon="-0.00233">
        <ele>704.74</ele>
        <time>2024-10-01T11:52:04.000Z</time>
      </trkpt>
      <trkpt lat="42.47248" lon="-0.00247">
        <ele>704.84</ele>
        <time>2024-10-01T11:52:09.000Z</time>
      </trkpt>
      <trkpt lat="42.47263" lon="-0.00263">
        <ele>705.28</ele>
        <time>2024-10-01T11:52:14.000Z</time>
      </trkpt>
      <trkpt lat="42.47277" lon="-0.00282">
        <ele>706.11</ele>
        <time>2024-10-01T11:52:19.000Z</time>
      </trkpt>
      <trkpt lat="42.47288" lon="-0.00305">
        <ele>706.74</ele>
        <time>2024-10-01T11:52:24.000Z</time>
      </trkpt>
      <trkpt lat="42.47299" lon="-0.00331">
        <ele>707.15</ele>
        <time>2024-10-01T11:52:29.000Z</time>
      </trkpt>
      <trkpt lat="42.47308" lon="-0.00358">
        <ele>707.62</ele>
        <time>2024-10-01T11:52:34.000Z</time>
      </trkpt>
      <trkpt lat="42.47316" lon="-0.00388">
        <ele>707.91</ele>
        <time>2024-10-01T11:52:39.000Z</time>
      </trkpt>
      <trkpt lat="42.47318" lon="-0.00424">
        <ele>708.11</ele>
        <time>2024-10-01T11:52:44.000Z</time>
      </trkpt>
      <trkpt lat="42.47318" lon="-0.00467">
        <ele>708.12</ele>
        <time>2024-10-01T11:52:49.000Z</time>
      </trkpt>
      <trkpt lat="42.47319" lon="-0.00515">
        <ele>707.7</ele>
        <time>2024-10-01T11:52:54.000Z</time>
      </trkpt>
      <trkpt lat="42.47332" lon="-0.00567">
        <ele>707.17</ele>
        <time>2024-10-01T11:52:59.000Z</time>
      </trkpt>
      <trkpt lat="42.47351" lon="-0.0062">
        <ele>706.73</ele>
        <time>2024-10-01T11:53:04.000Z</time>
      </trkpt>
      <trkpt lat="42.4737" lon="-0.00673">
        <ele>706.54</ele>
        <time>2024-10-01T11:53:09.000Z</time>
      </trkpt>
      <trkpt lat="42.47388" lon="-0.00724">
        <ele>706.38</ele>
        <time>2024-10-01T11:53:14.000Z</time>
      </trkpt>
      <trkpt lat="42.47406" lon="-0.00773">
        <ele>705.88</ele>
        <time>2024-10-01T11:53:19.000Z</time>
      </trkpt>
      <trkpt lat="42.4742" lon="-0.00821">
        <ele>705.52</ele>
        <time>2024-10-01T11:53:24.000Z</time>
      </trkpt>
      <trkpt lat="42.47433" lon="-0.00865">
        <ele>705.13</ele>
        <time>2024-10-01T11:53:29.000Z</time>
      </trkpt>
      <trkpt lat="42.47441" lon="-0.00908">
        <ele>704.69</ele>
        <time>2024-10-01T11:53:34.000Z</time>
      </trkpt>
      <trkpt lat="42.47448" lon="-0.00955">
        <ele>704.29</ele>
        <time>2024-10-01T11:53:39.000Z</time>
      </trkpt>
      <trkpt lat="42.47455" lon="-0.01002">
        <ele>703.85</ele>
        <time>2024-10-01T11:53:44.000Z</time>
      </trkpt>
      <trkpt lat="42.47463" lon="-0.01052">
        <ele>703.42</ele>
        <time>2024-10-01T11:53:49.000Z</time>
      </trkpt>
      <trkpt lat="42.47471" lon="-0.01112">
        <ele>702.82</ele>
        <time>2024-10-01T11:53:54.999Z</time>
      </trkpt>
      <trkpt lat="42.47478" lon="-0.01163">
        <ele>702.45</ele>
        <time>2024-10-01T11:53:59.999Z</time>
      </trkpt>
      <trkpt lat="42.47489" lon="-0.01211">
        <ele>702.21</ele>
        <time>2024-10-01T11:54:04.999Z</time>
      </trkpt>
      <trkpt lat="42.47515" lon="-0.01244">
        <ele>702.15</ele>
        <time>2024-10-01T11:54:09.999Z</time>
      </trkpt>
      <trkpt lat="42.47542" lon="-0.01272">
        <ele>701.96</ele>
        <time>2024-10-01T11:54:14.999Z</time>
      </trkpt>
      <trkpt lat="42.47549" lon="-0.01312">
        <ele>702.31</ele>
        <time>2024-10-01T11:54:19.999Z</time>
      </trkpt>
      <trkpt lat="42.4754" lon="-0.01354">
        <ele>702.34</ele>
        <time>2024-10-01T11:54:24.999Z</time>
      </trkpt>
      <trkpt lat="42.47525" lon="-0.01389">
        <ele>702.15</ele>
        <time>2024-10-01T11:54:29.999Z</time>
      </trkpt>
      <trkpt lat="42.47508" lon="-0.01422">
        <ele>701.51</ele>
        <time>2024-10-01T11:54:34.999Z</time>
      </trkpt>
      <trkpt lat="42.47507" lon="-0.01465">
        <ele>702</ele>
        <time>2024-10-01T11:54:39.999Z</time>
      </trkpt>
      <trkpt lat="42.47511" lon="-0.01507">
        <ele>702.39</ele>
        <time>2024-10-01T11:54:44.999Z</time>
      </trkpt>
      <trkpt lat="42.47513" lon="-0.01547">
        <ele>702.47</ele>
        <time>2024-10-01T11:54:49.999Z</time>
      </trkpt>
      <trkpt lat="42.47515" lon="-0.01584">
        <ele>702.45</ele>
        <time>2024-10-01T11:54:54.999Z</time>
      </trkpt>
      <trkpt lat="42.47517" lon="-0.0162">
        <ele>702.42</ele>
        <time>2024-10-01T11:54:59.999Z</time>
      </trkpt>
      <trkpt lat="42.47519" lon="-0.01652">
        <ele>702.24</ele>
        <time>2024-10-01T11:55:04.999Z</time>
      </trkpt>
      <trkpt lat="42.47523" lon="-0.01688">
        <ele>701.98</ele>
        <time>2024-10-01T11:55:09.999Z</time>
      </trkpt>
      <trkpt lat="42.47532" lon="-0.01725">
        <ele>701.8</ele>
        <time>2024-10-01T11:55:14.999Z</time>
      </trkpt>
      <trkpt lat="42.47543" lon="-0.01768">
        <ele>701.69</ele>
        <time>2024-10-01T11:55:19.999Z</time>
      </trkpt>
      <trkpt lat="42.47559" lon="-0.01811">
        <ele>701.7</ele>
        <time>2024-10-01T11:55:24.999Z</time>
      </trkpt>
      <trkpt lat="42.47577" lon="-0.01855">
        <ele>701.52</ele>
        <time>2024-10-01T11:55:29.999Z</time>
      </trkpt>
      <trkpt lat="42.47591" lon="-0.01901">
        <ele>701.43</ele>
        <time>2024-10-01T11:55:34.999Z</time>
      </trkpt>
      <trkpt lat="42.47598" lon="-0.01953">
        <ele>701.31</ele>
        <time>2024-10-01T11:55:39.999Z</time>
      </trkpt>
      <trkpt lat="42.47607" lon="-0.02003">
        <ele>701.02</ele>
        <time>2024-10-01T11:55:44.999Z</time>
      </trkpt>
      <trkpt lat="42.47627" lon="-0.02045">
        <ele>701.26</ele>
        <time>2024-10-01T11:55:49.999Z</time>
      </trkpt>
      <trkpt lat="42.47654" lon="-0.0208">
        <ele>701.61</ele>
        <time>2024-10-01T11:55:54.999Z</time>
      </trkpt>
      <trkpt lat="42.47676" lon="-0.02114">
        <ele>702.17</ele>
        <time>2024-10-01T11:55:59.999Z</time>
      </trkpt>
      <trkpt lat="42.47695" lon="-0.02143">
        <ele>702.67</ele>
        <time>2024-10-01T11:56:04.999Z</time>
      </trkpt>
      <trkpt lat="42.4771" lon="-0.02168">
        <ele>703.25</ele>
        <time>2024-10-01T11:56:09.999Z</time>
      </trkpt>
      <trkpt lat="42.47724" lon="-0.02189">
        <ele>704.27</ele>
        <time>2024-10-01T11:56:14.999Z</time>
      </trkpt>
      <trkpt lat="42.47738" lon="-0.02208">
        <ele>704.79</ele>
        <time>2024-10-01T11:56:19.999Z</time>
      </trkpt>
      <trkpt lat="42.47753" lon="-0.02227">
        <ele>705.18</ele>
        <time>2024-10-01T11:56:24.999Z</time>
      </trkpt>
      <trkpt lat="42.47764" lon="-0.02244">
        <ele>705.25</ele>
        <time>2024-10-01T11:56:29.999Z</time>
      </trkpt>
      <trkpt lat="42.47775" lon="-0.02264">
        <ele>705.37</ele>
        <time>2024-10-01T11:56:34.999Z</time>
      </trkpt>
      <trkpt lat="42.47786" lon="-0.02283">
        <ele>705.39</ele>
        <time>2024-10-01T11:56:39.999Z</time>
      </trkpt>
      <trkpt lat="42.47796" lon="-0.02303">
        <ele>705.44</ele>
        <time>2024-10-01T11:56:44.999Z</time>
      </trkpt>
      <trkpt lat="42.47807" lon="-0.02321">
        <ele>705.48</ele>
        <time>2024-10-01T11:56:49.999Z</time>
      </trkpt>
      <trkpt lat="42.47817" lon="-0.02341">
        <ele>705.51</ele>
        <time>2024-10-01T11:56:54.999Z</time>
      </trkpt>
      <trkpt lat="42.47828" lon="-0.02362">
        <ele>705.58</ele>
        <time>2024-10-01T11:56:59.999Z</time>
      </trkpt>
      <trkpt lat="42.47839" lon="-0.0238">
        <ele>705.7</ele>
        <time>2024-10-01T11:57:04.999Z</time>
      </trkpt>
      <trkpt lat="42.47849" lon="-0.02399">
        <ele>705.82</ele>
        <time>2024-10-01T11:57:09.999Z</time>
      </trkpt>
      <trkpt lat="42.4786" lon="-0.02417">
        <ele>705.96</ele>
        <time>2024-10-01T11:57:14.999Z</time>
      </trkpt>
      <trkpt lat="42.47873" lon="-0.02433">
        <ele>706.31</ele>
        <time>2024-10-01T11:57:19.999Z</time>
      </trkpt>
      <trkpt lat="42.47889" lon="-0.02446">
        <ele>706.42</ele>
        <time>2024-10-01T11:57:24.999Z</time>
      </trkpt>
      <trkpt lat="42.47903" lon="-0.02457">
        <ele>706.55</ele>
        <time>2024-10-01T11:57:29.999Z</time>
      </trkpt>
      <trkpt lat="42.47918" lon="-0.02466">
        <ele>706.68</ele>
        <time>2024-10-01T11:57:34.999Z</time>
      </trkpt>
      <trkpt lat="42.47933" lon="-0.02473">
        <ele>706.81</ele>
        <time>2024-10-01T11:57:39.999Z</time>
      </trkpt>
      <trkpt lat="42.47947" lon="-0.02481">
        <ele>706.94</ele>
        <time>2024-10-01T11:57:44.999Z</time>
      </trkpt>
      <trkpt lat="42.4796" lon="-0.02492">
        <ele>707.07</ele>
        <time>2024-10-01T11:57:49.999Z</time>
      </trkpt>
      <trkpt lat="42.47965" lon="-0.02512">
        <ele>707.2</ele>
        <time>2024-10-01T11:57:54.999Z</time>
      </trkpt>
      <trkpt lat="42.47966" lon="-0.0254">
        <ele>708.16</ele>
        <time>2024-10-01T11:57:59.999Z</time>
      </trkpt>
      <trkpt lat="42.47965" lon="-0.02565">
        <ele>708.28</ele>
        <time>2024-10-01T11:58:04.999Z</time>
      </trkpt>
      <trkpt lat="42.47963" lon="-0.0259">
        <ele>708.5</ele>
        <time>2024-10-01T11:58:09.999Z</time>
      </trkpt>
      <trkpt lat="42.4796" lon="-0.02615">
        <ele>708.77</ele>
        <time>2024-10-01T11:58:14.999Z</time>
      </trkpt>
      <trkpt lat="42.4796" lon="-0.02642">
        <ele>709.29</ele>
        <time>2024-10-01T11:58:19.999Z</time>
      </trkpt>
      <trkpt lat="42.47952" lon="-0.02668">
        <ele>709.56</ele>
        <time>2024-10-01T11:58:24.999Z</time>
      </trkpt>
      <trkpt lat="42.47939" lon="-0.02679">
        <ele>709.59</ele>
        <time>2024-10-01T11:58:29.999Z</time>
      </trkpt>
      <trkpt lat="42.47921" lon="-0.02679">
        <ele>709.62</ele>
        <time>2024-10-01T11:58:34.999Z</time>
      </trkpt>
      <trkpt lat="42.47903" lon="-0.02678">
        <ele>709.67</ele>
        <time>2024-10-01T11:58:39.999Z</time>
      </trkpt>
      <trkpt lat="42.47884" lon="-0.02678">
        <ele>709.78</ele>
        <time>2024-10-01T11:58:44.999Z</time>
      </trkpt>
      <trkpt lat="42.47865" lon="-0.02678">
        <ele>709.89</ele>
        <time>2024-10-01T11:58:49.999Z</time>
      </trkpt>
      <trkpt lat="42.47846" lon="-0.02678">
        <ele>709.94</ele>
        <time>2024-10-01T11:58:54.999Z</time>
      </trkpt>
      <trkpt lat="42.47827" lon="-0.02679">
        <ele>710.13</ele>
        <time>2024-10-01T11:58:59.999Z</time>
      </trkpt>
      <trkpt lat="42.47809" lon="-0.0268">
        <ele>710.49</ele>
        <time>2024-10-01T11:59:04.999Z</time>
      </trkpt>
      <trkpt lat="42.4779" lon="-0.02687">
        <ele>711.01</ele>
        <time>2024-10-01T11:59:09.999Z</time>
      </trkpt>
      <trkpt lat="42.47769" lon="-0.02698">
        <ele>711.23</ele>
        <time>2024-10-01T11:59:14.999Z</time>
      </trkpt>
      <trkpt lat="42.47746" lon="-0.0271">
        <ele>711.32</ele>
        <time>2024-10-01T11:59:19.999Z</time>
      </trkpt>
      <trkpt lat="42.47722" lon="-0.02723">
        <ele>711.37</ele>
        <time>2024-10-01T11:59:24.999Z</time>
      </trkpt>
      <trkpt lat="42.47697" lon="-0.02736">
        <ele>711.43</ele>
        <time>2024-10-01T11:59:29.999Z</time>
      </trkpt>
      <trkpt lat="42.47673" lon="-0.02753">
        <ele>711.51</ele>
        <time>2024-10-01T11:59:34.999Z</time>
      </trkpt>
      <trkpt lat="42.4765" lon="-0.02773">
        <ele>711.59</ele>
        <time>2024-10-01T11:59:39.999Z</time>
      </trkpt>
      <trkpt lat="42.47628" lon="-0.02795">
        <ele>711.66</ele>
        <time>2024-10-01T11:59:44.999Z</time>
      </trkpt>
      <trkpt lat="42.47606" lon="-0.02817">
        <ele>711.72</ele>
        <time>2024-10-01T11:59:49.999Z</time>
      </trkpt>
      <trkpt lat="42.47583" lon="-0.02837">
        <ele>711.82</ele>
        <time>2024-10-01T11:59:54.999Z</time>
      </trkpt>
      <trkpt lat="42.47561" lon="-0.02859">
        <ele>711.88</ele>
        <time>2024-10-01T11:59:59.999Z</time>
      </trkpt>
      <trkpt lat="42.47537" lon="-0.0288">
        <ele>711.93</ele>
        <time>2024-10-01T12:00:04.999Z</time>
      </trkpt>
      <trkpt lat="42.47514" lon="-0.02903">
        <ele>711.96</ele>
        <time>2024-10-01T12:00:09.999Z</time>
      </trkpt>
      <trkpt lat="42.47491" lon="-0.02924">
        <ele>711.98</ele>
        <time>2024-10-01T12:00:14.999Z</time>
      </trkpt>
      <trkpt lat="42.47469" lon="-0.02944">
        <ele>711.99</ele>
        <time>2024-10-01T12:00:19.999Z</time>
      </trkpt>
      <trkpt lat="42.47446" lon="-0.02964">
        <ele>712</ele>
        <time>2024-10-01T12:00:24.999Z</time>
      </trkpt>
      <trkpt lat="42.47426" lon="-0.02984">
        <ele>712.04</ele>
        <time>2024-10-01T12:00:29.999Z</time>
      </trkpt>
      <trkpt lat="42.47407" lon="-0.03012">
        <ele>712.06</ele>
        <time>2024-10-01T12:00:34.999Z</time>
      </trkpt>
      <trkpt lat="42.47392" lon="-0.03045">
        <ele>712.07</ele>
        <time>2024-10-01T12:00:39.999Z</time>
      </trkpt>
      <trkpt lat="42.4738" lon="-0.03082">
        <ele>712.15</ele>
        <time>2024-10-01T12:00:44.999Z</time>
      </trkpt>
      <trkpt lat="42.4737" lon="-0.0312">
        <ele>712.25</ele>
        <time>2024-10-01T12:00:49.999Z</time>
      </trkpt>
      <trkpt lat="42.4736" lon="-0.03156">
        <ele>712.47</ele>
        <time>2024-10-01T12:00:54.999Z</time>
      </trkpt>
      <trkpt lat="42.47353" lon="-0.0319">
        <ele>712.67</ele>
        <time>2024-10-01T12:00:59.999Z</time>
      </trkpt>
      <trkpt lat="42.47344" lon="-0.03225">
        <ele>712.86</ele>
        <time>2024-10-01T12:01:04.999Z</time>
      </trkpt>
      <trkpt lat="42.47335" lon="-0.0326">
        <ele>713.04</ele>
        <time>2024-10-01T12:01:09.999Z</time>
      </trkpt>
      <trkpt lat="42.47327" lon="-0.03294">
        <ele>713.23</ele>
        <time>2024-10-01T12:01:14.999Z</time>
      </trkpt>
      <trkpt lat="42.47317" lon="-0.0333">
        <ele>713.43</ele>
        <time>2024-10-01T12:01:19.999Z</time>
      </trkpt>
      <trkpt lat="42.47307" lon="-0.03365">
        <ele>713.62</ele>
        <time>2024-10-01T12:01:24.999Z</time>
      </trkpt>
      <trkpt lat="42.47298" lon="-0.03402">
        <ele>713.8</ele>
        <time>2024-10-01T12:01:29.999Z</time>
      </trkpt>
      <trkpt lat="42.47288" lon="-0.03439">
        <ele>713.84</ele>
        <time>2024-10-01T12:01:34.999Z</time>
      </trkpt>
      <trkpt lat="42.47278" lon="-0.03479">
        <ele>713.92</ele>
        <time>2024-10-01T12:01:39.999Z</time>
      </trkpt>
      <trkpt lat="42.47267" lon="-0.03522">
        <ele>714.04</ele>
        <time>2024-10-01T12:01:44.999Z</time>
      </trkpt>
      <trkpt lat="42.47256" lon="-0.03564">
        <ele>714.08</ele>
        <time>2024-10-01T12:01:49.999Z</time>
      </trkpt>
      <trkpt lat="42.47245" lon="-0.03608">
        <ele>714.01</ele>
        <time>2024-10-01T12:01:54.999Z</time>
      </trkpt>
      <trkpt lat="42.47234" lon="-0.03653">
        <ele>714.22</ele>
        <time>2024-10-01T12:01:59.999Z</time>
      </trkpt>
      <trkpt lat="42.47222" lon="-0.03697">
        <ele>714.35</ele>
        <time>2024-10-01T12:02:04.999Z</time>
      </trkpt>
      <trkpt lat="42.47211" lon="-0.03739">
        <ele>714.25</ele>
        <time>2024-10-01T12:02:09.999Z</time>
      </trkpt>
      <trkpt lat="42.47207" lon="-0.03785">
        <ele>714.36</ele>
        <time>2024-10-01T12:02:14.999Z</time>
      </trkpt>
      <trkpt lat="42.47216" lon="-0.03824">
        <ele>714.65</ele>
        <time>2024-10-01T12:02:19.999Z</time>
      </trkpt>
      <trkpt lat="42.47226" lon="-0.03857">
        <ele>714.45</ele>
        <time>2024-10-01T12:02:24.999Z</time>
      </trkpt>
      <trkpt lat="42.47236" lon="-0.03887">
        <ele>713.89</ele>
        <time>2024-10-01T12:02:29.999Z</time>
      </trkpt>
      <trkpt lat="42.47245" lon="-0.03915">
        <ele>713.85</ele>
        <time>2024-10-01T12:02:34.999Z</time>
      </trkpt>
      <trkpt lat="42.47253" lon="-0.03943">
        <ele>713.87</ele>
        <time>2024-10-01T12:02:39.999Z</time>
      </trkpt>
      <trkpt lat="42.47261" lon="-0.03971">
        <ele>713.85</ele>
        <time>2024-10-01T12:02:44.999Z</time>
      </trkpt>
      <trkpt lat="42.4727" lon="-0.04001">
        <ele>713.99</ele>
        <time>2024-10-01T12:02:49.999Z</time>
      </trkpt>
      <trkpt lat="42.47278" lon="-0.04031">
        <ele>714.18</ele>
        <time>2024-10-01T12:02:54.999Z</time>
      </trkpt>
      <trkpt lat="42.47286" lon="-0.04055">
        <ele>714.24</ele>
        <time>2024-10-01T12:02:59.999Z</time>
      </trkpt>
      <trkpt lat="42.47294" lon="-0.04081">
        <ele>714.38</ele>
        <time>2024-10-01T12:03:04.999Z</time>
      </trkpt>
      <trkpt lat="42.47302" lon="-0.04108">
        <ele>714.54</ele>
        <time>2024-10-01T12:03:09.999Z</time>
      </trkpt>
      <trkpt lat="42.47314" lon="-0.04135">
        <ele>714.46</ele>
        <time>2024-10-01T12:03:14.999Z</time>
      </trkpt>
      <trkpt lat="42.47328" lon="-0.04159">
        <ele>714.61</ele>
        <time>2024-10-01T12:03:19.999Z</time>
      </trkpt>
      <trkpt lat="42.47343" lon="-0.04184">
        <ele>714.61</ele>
        <time>2024-10-01T12:03:24.999Z</time>
      </trkpt>
      <trkpt lat="42.47359" lon="-0.04207">
        <ele>714.38</ele>
        <time>2024-10-01T12:03:29.999Z</time>
      </trkpt>
      <trkpt lat="42.47376" lon="-0.04232">
        <ele>714.6</ele>
        <time>2024-10-01T12:03:34.999Z</time>
      </trkpt>
      <trkpt lat="42.47394" lon="-0.0426">
        <ele>714.98</ele>
        <time>2024-10-01T12:03:39.999Z</time>
      </trkpt>
      <trkpt lat="42.47411" lon="-0.0429">
        <ele>715.34</ele>
        <time>2024-10-01T12:03:44.999Z</time>
      </trkpt>
      <trkpt lat="42.47428" lon="-0.04321">
        <ele>715.76</ele>
        <time>2024-10-01T12:03:49.999Z</time>
      </trkpt>
      <trkpt lat="42.47444" lon="-0.04351">
        <ele>716.25</ele>
        <time>2024-10-01T12:03:54.999Z</time>
      </trkpt>
      <trkpt lat="42.47459" lon="-0.04381">
        <ele>716.66</ele>
        <time>2024-10-01T12:03:59.999Z</time>
      </trkpt>
      <trkpt lat="42.47469" lon="-0.04407">
        <ele>716.98</ele>
        <time>2024-10-01T12:04:04.999Z</time>
      </trkpt>
      <trkpt lat="42.47476" lon="-0.04434">
        <ele>717.26</ele>
        <time>2024-10-01T12:04:09.999Z</time>
      </trkpt>
      <trkpt lat="42.47482" lon="-0.0446">
        <ele>717.43</ele>
        <time>2024-10-01T12:04:14.999Z</time>
      </trkpt>
      <trkpt lat="42.47489" lon="-0.04486">
        <ele>717.56</ele>
        <time>2024-10-01T12:04:19.999Z</time>
      </trkpt>
      <trkpt lat="42.47494" lon="-0.04509">
        <ele>717.59</ele>
        <time>2024-10-01T12:04:24.999Z</time>
      </trkpt>
      <trkpt lat="42.475" lon="-0.04532">
        <ele>717.65</ele>
        <time>2024-10-01T12:04:29.999Z</time>
      </trkpt>
      <trkpt lat="42.47504" lon="-0.04557">
        <ele>717.91</ele>
        <time>2024-10-01T12:04:34.999Z</time>
      </trkpt>
      <trkpt lat="42.47506" lon="-0.04587">
        <ele>718.38</ele>
        <time>2024-10-01T12:04:39.999Z</time>
      </trkpt>
      <trkpt lat="42.47503" lon="-0.04621">
        <ele>718.66</ele>
        <time>2024-10-01T12:04:44.999Z</time>
      </trkpt>
      <trkpt lat="42.475" lon="-0.04658">
        <ele>718.94</ele>
        <time>2024-10-01T12:04:49.999Z</time>
      </trkpt>
      <trkpt lat="42.47497" lon="-0.04695">
        <ele>719.25</ele>
        <time>2024-10-01T12:04:54.999Z</time>
      </trkpt>
      <trkpt lat="42.47494" lon="-0.04735">
        <ele>719.58</ele>
        <time>2024-10-01T12:04:59.999Z</time>
      </trkpt>
      <trkpt lat="42.47491" lon="-0.04776">
        <ele>719.95</ele>
        <time>2024-10-01T12:05:04.999Z</time>
      </trkpt>
      <trkpt lat="42.47488" lon="-0.04816">
        <ele>720.3</ele>
        <time>2024-10-01T12:05:09.999Z</time>
      </trkpt>
      <trkpt lat="42.47485" lon="-0.04854">
        <ele>720.76</ele>
        <time>2024-10-01T12:05:14.999Z</time>
      </trkpt>
      <trkpt lat="42.47482" lon="-0.04886">
        <ele>721.61</ele>
        <time>2024-10-01T12:05:19.999Z</time>
      </trkpt>
      <trkpt lat="42.4748" lon="-0.04917">
        <ele>722.42</ele>
        <time>2024-10-01T12:05:24.999Z</time>
      </trkpt>
      <trkpt lat="42.47478" lon="-0.04948">
        <ele>723.06</ele>
        <time>2024-10-01T12:05:29.999Z</time>
      </trkpt>
      <trkpt lat="42.47481" lon="-0.04979">
        <ele>723.44</ele>
        <time>2024-10-01T12:05:34.999Z</time>
      </trkpt>
      <trkpt lat="42.47485" lon="-0.05007">
        <ele>723.82</ele>
        <time>2024-10-01T12:05:39.999Z</time>
      </trkpt>
      <trkpt lat="42.47488" lon="-0.05031">
        <ele>723.9</ele>
        <time>2024-10-01T12:05:44.999Z</time>
      </trkpt>
      <trkpt lat="42.47492" lon="-0.05057">
        <ele>724.13</ele>
        <time>2024-10-01T12:05:49.999Z</time>
      </trkpt>
      <trkpt lat="42.47497" lon="-0.05085">
        <ele>724.39</ele>
        <time>2024-10-01T12:05:54.999Z</time>
      </trkpt>
      <trkpt lat="42.47502" lon="-0.05115">
        <ele>724.53</ele>
        <time>2024-10-01T12:06:00.000Z</time>
      </trkpt>
      <trkpt lat="42.47507" lon="-0.05147">
        <ele>724.66</ele>
        <time>2024-10-01T12:06:05.000Z</time>
      </trkpt>
      <trkpt lat="42.47511" lon="-0.05178">
        <ele>724.88</ele>
        <time>2024-10-01T12:06:10.000Z</time>
      </trkpt>
      <trkpt lat="42.47515" lon="-0.05208">
        <ele>725.21</ele>
        <time>2024-10-01T12:06:15.000Z</time>
      </trkpt>
      <trkpt lat="42.47519" lon="-0.05238">
        <ele>725.48</ele>
        <time>2024-10-01T12:06:20.000Z</time>
      </trkpt>
      <trkpt lat="42.47524" lon="-0.0527">
        <ele>725.75</ele>
        <time>2024-10-01T12:06:25.000Z</time>
      </trkpt>
      <trkpt lat="42.47529" lon="-0.05302">
        <ele>726.05</ele>
        <time>2024-10-01T12:06:30.000Z</time>
      </trkpt>
      <trkpt lat="42.47534" lon="-0.05335">
        <ele>726.37</ele>
        <time>2024-10-01T12:06:35.000Z</time>
      </trkpt>
      <trkpt lat="42.47539" lon="-0.0537">
        <ele>726.69</ele>
        <time>2024-10-01T12:06:40.000Z</time>
      </trkpt>
      <trkpt lat="42.47544" lon="-0.05404">
        <ele>726.94</ele>
        <time>2024-10-01T12:06:45.000Z</time>
      </trkpt>
      <trkpt lat="42.4755" lon="-0.05439">
        <ele>727.19</ele>
        <time>2024-10-01T12:06:50.000Z</time>
      </trkpt>
      <trkpt lat="42.47555" lon="-0.05473">
        <ele>727.37</ele>
        <time>2024-10-01T12:06:55.000Z</time>
      </trkpt>
      <trkpt lat="42.4756" lon="-0.05503">
        <ele>727.58</ele>
        <time>2024-10-01T12:07:00.000Z</time>
      </trkpt>
      <trkpt lat="42.47565" lon="-0.05535">
        <ele>727.78</ele>
        <time>2024-10-01T12:07:05.000Z</time>
      </trkpt>
      <trkpt lat="42.47568" lon="-0.05565">
        <ele>728</ele>
        <time>2024-10-01T12:07:10.000Z</time>
      </trkpt>
      <trkpt lat="42.47574" lon="-0.05597">
        <ele>728.25</ele>
        <time>2024-10-01T12:07:15.000Z</time>
      </trkpt>
      <trkpt lat="42.47578" lon="-0.05628">
        <ele>728.45</ele>
        <time>2024-10-01T12:07:20.000Z</time>
      </trkpt>
      <trkpt lat="42.47582" lon="-0.05659">
        <ele>728.66</ele>
        <time>2024-10-01T12:07:25.000Z</time>
      </trkpt>
      <trkpt lat="42.47587" lon="-0.0569">
        <ele>728.91</ele>
        <time>2024-10-01T12:07:30.000Z</time>
      </trkpt>
      <trkpt lat="42.47592" lon="-0.0572">
        <ele>729.16</ele>
        <time>2024-10-01T12:07:35.000Z</time>
      </trkpt>
      <trkpt lat="42.47596" lon="-0.0575">
        <ele>729.37</ele>
        <time>2024-10-01T12:07:40.000Z</time>
      </trkpt>
      <trkpt lat="42.47601" lon="-0.05781">
        <ele>729.59</ele>
        <time>2024-10-01T12:07:45.000Z</time>
      </trkpt>
      <trkpt lat="42.47606" lon="-0.05813">
        <ele>729.82</ele>
        <time>2024-10-01T12:07:50.000Z</time>
      </trkpt>
      <trkpt lat="42.47611" lon="-0.05845">
        <ele>730.03</ele>
        <time>2024-10-01T12:07:55.000Z</time>
      </trkpt>
      <trkpt lat="42.47616" lon="-0.05876">
        <ele>730.24</ele>
        <time>2024-10-01T12:08:00.000Z</time>
      </trkpt>
      <trkpt lat="42.47621" lon="-0.05908">
        <ele>730.47</ele>
        <time>2024-10-01T12:08:05.000Z</time>
      </trkpt>
      <trkpt lat="42.47625" lon="-0.05939">
        <ele>730.71</ele>
        <time>2024-10-01T12:08:10.000Z</time>
      </trkpt>
      <trkpt lat="42.4763" lon="-0.05971">
        <ele>730.94</ele>
        <time>2024-10-01T12:08:15.000Z</time>
      </trkpt>
      <trkpt lat="42.47635" lon="-0.06002">
        <ele>731.16</ele>
        <time>2024-10-01T12:08:20.000Z</time>
      </trkpt>
      <trkpt lat="42.47639" lon="-0.06034">
        <ele>731.36</ele>
        <time>2024-10-01T12:08:25.000Z</time>
      </trkpt>
      <trkpt lat="42.47644" lon="-0.06066">
        <ele>731.58</ele>
        <time>2024-10-01T12:08:30.000Z</time>
      </trkpt>
      <trkpt lat="42.47649" lon="-0.06098">
        <ele>731.8</ele>
        <time>2024-10-01T12:08:35.000Z</time>
      </trkpt>
      <trkpt lat="42.47653" lon="-0.06129">
        <ele>732</ele>
        <time>2024-10-01T12:08:40.000Z</time>
      </trkpt>
      <trkpt lat="42.47657" lon="-0.06157">
        <ele>732.2</ele>
        <time>2024-10-01T12:08:45.000Z</time>
      </trkpt>
      <trkpt lat="42.4766" lon="-0.06181">
        <ele>732.3</ele>
        <time>2024-10-01T12:08:50.000Z</time>
      </trkpt>
      <trkpt lat="42.47663" lon="-0.06204">
        <ele>732.32</ele>
        <time>2024-10-01T12:08:55.000Z</time>
      </trkpt>
      <trkpt lat="42.47666" lon="-0.06225">
        <ele>732.35</ele>
        <time>2024-10-01T12:09:00.000Z</time>
      </trkpt>
      <trkpt lat="42.47669" lon="-0.06247">
        <ele>732.4</ele>
        <time>2024-10-01T12:09:05.000Z</time>
      </trkpt>
      <trkpt lat="42.47673" lon="-0.06268">
        <ele>732.46</ele>
        <time>2024-10-01T12:09:10.000Z</time>
      </trkpt>
      <trkpt lat="42.47676" lon="-0.06291">
        <ele>732.52</ele>
        <time>2024-10-01T12:09:15.000Z</time>
      </trkpt>
      <trkpt lat="42.47679" lon="-0.06312">
        <ele>732.59</ele>
        <time>2024-10-01T12:09:20.000Z</time>
      </trkpt>
      <trkpt lat="42.47681" lon="-0.06334">
        <ele>732.66</ele>
        <time>2024-10-01T12:09:25.000Z</time>
      </trkpt>
      <trkpt lat="42.47685" lon="-0.06355">
        <ele>732.74</ele>
        <time>2024-10-01T12:09:30.000Z</time>
      </trkpt>
      <trkpt lat="42.47687" lon="-0.06374">
        <ele>732.82</ele>
        <time>2024-10-01T12:09:35.000Z</time>
      </trkpt>
      <trkpt lat="42.4769" lon="-0.06394">
        <ele>732.91</ele>
        <time>2024-10-01T12:09:40.000Z</time>
      </trkpt>
      <trkpt lat="42.47693" lon="-0.06413">
        <ele>733</ele>
        <time>2024-10-01T12:09:45.000Z</time>
      </trkpt>
      <trkpt lat="42.47696" lon="-0.06431">
        <ele>733.09</ele>
        <time>2024-10-01T12:09:50.000Z</time>
      </trkpt>
      <trkpt lat="42.47697" lon="-0.06446">
        <ele>733.19</ele>
        <time>2024-10-01T12:09:55.000Z</time>
      </trkpt>
      <trkpt lat="42.477" lon="-0.0646">
        <ele>733.28</ele>
        <time>2024-10-01T12:10:00.000Z</time>
      </trkpt>
      <trkpt lat="42.47702" lon="-0.0648">
        <ele>733.39</ele>
        <time>2024-10-01T12:10:05.000Z</time>
      </trkpt>
      <trkpt lat="42.47706" lon="-0.06506">
        <ele>733.93</ele>
        <time>2024-10-01T12:10:10.000Z</time>
      </trkpt>
      <trkpt lat="42.4771" lon="-0.06534">
        <ele>734.46</ele>
        <time>2024-10-01T12:10:15.000Z</time>
      </trkpt>
      <trkpt lat="42.47716" lon="-0.06566">
        <ele>734.73</ele>
        <time>2024-10-01T12:10:20.000Z</time>
      </trkpt>
      <trkpt lat="42.47723" lon="-0.066">
        <ele>734.91</ele>
        <time>2024-10-01T12:10:25.000Z</time>
      </trkpt>
      <trkpt lat="42.47732" lon="-0.06637">
        <ele>735.07</ele>
        <time>2024-10-01T12:10:30.000Z</time>
      </trkpt>
      <trkpt lat="42.47741" lon="-0.06673">
        <ele>735.27</ele>
        <time>2024-10-01T12:10:35.000Z</time>
      </trkpt>
      <trkpt lat="42.47751" lon="-0.06709">
        <ele>735.5</ele>
        <time>2024-10-01T12:10:40.000Z</time>
      </trkpt>
      <trkpt lat="42.47759" lon="-0.06742">
        <ele>735.76</ele>
        <time>2024-10-01T12:10:45.000Z</time>
      </trkpt>
      <trkpt lat="42.47767" lon="-0.06773">
        <ele>735.94</ele>
        <time>2024-10-01T12:10:50.000Z</time>
      </trkpt>
      <trkpt lat="42.47776" lon="-0.06804">
        <ele>736.09</ele>
        <time>2024-10-01T12:10:55.000Z</time>
      </trkpt>
      <trkpt lat="42.47783" lon="-0.06833">
        <ele>736.31</ele>
        <time>2024-10-01T12:11:00.000Z</time>
      </trkpt>
      <trkpt lat="42.47789" lon="-0.06859">
        <ele>736.49</ele>
        <time>2024-10-01T12:11:05.000Z</time>
      </trkpt>
      <trkpt lat="42.47795" lon="-0.0688">
        <ele>736.54</ele>
        <time>2024-10-01T12:11:10.000Z</time>
      </trkpt>
      <trkpt lat="42.47801" lon="-0.06901">
        <ele>736.6</ele>
        <time>2024-10-01T12:11:15.000Z</time>
      </trkpt>
      <trkpt lat="42.47807" lon="-0.06923">
        <ele>736.67</ele>
        <time>2024-10-01T12:11:20.000Z</time>
      </trkpt>
      <trkpt lat="42.47812" lon="-0.06946">
        <ele>736.76</ele>
        <time>2024-10-01T12:11:25.000Z</time>
      </trkpt>
      <trkpt lat="42.47819" lon="-0.06969">
        <ele>736.86</ele>
        <time>2024-10-01T12:11:30.000Z</time>
      </trkpt>
      <trkpt lat="42.47824" lon="-0.06991">
        <ele>736.98</ele>
        <time>2024-10-01T12:11:35.000Z</time>
      </trkpt>
      <trkpt lat="42.4783" lon="-0.07013">
        <ele>737.11</ele>
        <time>2024-10-01T12:11:40.000Z</time>
      </trkpt>
      <trkpt lat="42.47836" lon="-0.07038">
        <ele>737.72</ele>
        <time>2024-10-01T12:11:45.000Z</time>
      </trkpt>
      <trkpt lat="42.47843" lon="-0.07063">
        <ele>738.65</ele>
        <time>2024-10-01T12:11:50.000Z</time>
      </trkpt>
      <trkpt lat="42.4785" lon="-0.07089">
        <ele>739.05</ele>
        <time>2024-10-01T12:11:55.000Z</time>
      </trkpt>
      <trkpt lat="42.47857" lon="-0.07117">
        <ele>739.35</ele>
        <time>2024-10-01T12:12:00.000Z</time>
      </trkpt>
      <trkpt lat="42.47864" lon="-0.07143">
        <ele>739.67</ele>
        <time>2024-10-01T12:12:05.000Z</time>
      </trkpt>
      <trkpt lat="42.47871" lon="-0.07169">
        <ele>739.89</ele>
        <time>2024-10-01T12:12:10.000Z</time>
      </trkpt>
      <trkpt lat="42.47878" lon="-0.07198">
        <ele>740.13</ele>
        <time>2024-10-01T12:12:15.000Z</time>
      </trkpt>
      <trkpt lat="42.47886" lon="-0.07226">
        <ele>740.36</ele>
        <time>2024-10-01T12:12:20.000Z</time>
      </trkpt>
      <trkpt lat="42.47894" lon="-0.07257">
        <ele>740.51</ele>
        <time>2024-10-01T12:12:25.000Z</time>
      </trkpt>
      <trkpt lat="42.47902" lon="-0.07289">
        <ele>740.65</ele>
        <time>2024-10-01T12:12:30.000Z</time>
      </trkpt>
      <trkpt lat="42.47911" lon="-0.07322">
        <ele>740.82</ele>
        <time>2024-10-01T12:12:35.000Z</time>
      </trkpt>
      <trkpt lat="42.4792" lon="-0.07356">
        <ele>741.01</ele>
        <time>2024-10-01T12:12:40.000Z</time>
      </trkpt>
      <trkpt lat="42.47929" lon="-0.07389">
        <ele>741.2</ele>
        <time>2024-10-01T12:12:45.000Z</time>
      </trkpt>
      <trkpt lat="42.47938" lon="-0.07424">
        <ele>741.37</ele>
        <time>2024-10-01T12:12:50.000Z</time>
      </trkpt>
      <trkpt lat="42.47947" lon="-0.07458">
        <ele>741.51</ele>
        <time>2024-10-01T12:12:55.000Z</time>
      </trkpt>
      <trkpt lat="42.47956" lon="-0.0749">
        <ele>741.65</ele>
        <time>2024-10-01T12:13:00.000Z</time>
      </trkpt>
      <trkpt lat="42.47964" lon="-0.07524">
        <ele>741.81</ele>
        <time>2024-10-01T12:13:05.000Z</time>
      </trkpt>
      <trkpt lat="42.47973" lon="-0.07555">
        <ele>742.06</ele>
        <time>2024-10-01T12:13:10.000Z</time>
      </trkpt>
      <trkpt lat="42.47981" lon="-0.07584">
        <ele>742.23</ele>
        <time>2024-10-01T12:13:15.000Z</time>
      </trkpt>
      <trkpt lat="42.47986" lon="-0.07607">
        <ele>742.29</ele>
        <time>2024-10-01T12:13:20.000Z</time>
      </trkpt>
      <trkpt lat="42.47992" lon="-0.07625">
        <ele>742.32</ele>
        <time>2024-10-01T12:13:25.000Z</time>
      </trkpt>
      <trkpt lat="42.47997" lon="-0.07638">
        <ele>742.67</ele>
        <time>2024-10-01T12:14:38.000Z</time>
      </trkpt>
      <trkpt lat="42.48003" lon="-0.0766">
        <ele>742.83</ele>
        <time>2024-10-01T12:14:43.000Z</time>
      </trkpt>
      <trkpt lat="42.48013" lon="-0.07684">
        <ele>743.03</ele>
        <time>2024-10-01T12:14:48.000Z</time>
      </trkpt>
      <trkpt lat="42.48022" lon="-0.07706">
        <ele>743.26</ele>
        <time>2024-10-01T12:14:53.000Z</time>
      </trkpt>
      <trkpt lat="42.48031" lon="-0.07725">
        <ele>743.51</ele>
        <time>2024-10-01T12:14:58.000Z</time>
      </trkpt>
      <trkpt lat="42.48038" lon="-0.07744">
        <ele>743.79</ele>
        <time>2024-10-01T12:15:03.000Z</time>
      </trkpt>
      <trkpt lat="42.48045" lon="-0.07763">
        <ele>744.11</ele>
        <time>2024-10-01T12:15:08.000Z</time>
      </trkpt>
      <trkpt lat="42.48053" lon="-0.07781">
        <ele>744.44</ele>
        <time>2024-10-01T12:15:13.000Z</time>
      </trkpt>
      <trkpt lat="42.48061" lon="-0.07799">
        <ele>744.78</ele>
        <time>2024-10-01T12:15:18.000Z</time>
      </trkpt>
      <trkpt lat="42.48068" lon="-0.07814">
        <ele>745.11</ele>
        <time>2024-10-01T12:15:23.000Z</time>
      </trkpt>
      <trkpt lat="42.48072" lon="-0.07829">
        <ele>745.45</ele>
        <time>2024-10-01T12:15:28.000Z</time>
      </trkpt>
      <trkpt lat="42.48078" lon="-0.07845">
        <ele>745.8</ele>
        <time>2024-10-01T12:15:33.000Z</time>
      </trkpt>
      <trkpt lat="42.48083" lon="-0.07861">
        <ele>746.17</ele>
        <time>2024-10-01T12:15:38.000Z</time>
      </trkpt>
      <trkpt lat="42.48088" lon="-0.07876">
        <ele>746.56</ele>
        <time>2024-10-01T12:15:43.000Z</time>
      </trkpt>
      <trkpt lat="42.48091" lon="-0.07894">
        <ele>746.94</ele>
        <time>2024-10-01T12:15:48.000Z</time>
      </trkpt>
      <trkpt lat="42.48094" lon="-0.07909">
        <ele>747.31</ele>
        <time>2024-10-01T12:15:53.000Z</time>
      </trkpt>
      <trkpt lat="42.48099" lon="-0.07924">
        <ele>747.66</ele>
        <time>2024-10-01T12:15:58.000Z</time>
      </trkpt>
      <trkpt lat="42.48105" lon="-0.07939">
        <ele>748</ele>
        <time>2024-10-01T12:16:03.000Z</time>
      </trkpt>
      <trkpt lat="42.48112" lon="-0.07953">
        <ele>748.34</ele>
        <time>2024-10-01T12:16:08.000Z</time>
      </trkpt>
      <trkpt lat="42.48119" lon="-0.07967">
        <ele>748.67</ele>
        <time>2024-10-01T12:16:13.000Z</time>
      </trkpt>
      <trkpt lat="42.48125" lon="-0.07982">
        <ele>749.01</ele>
        <time>2024-10-01T12:16:18.000Z</time>
      </trkpt>
      <trkpt lat="42.48131" lon="-0.07997">
        <ele>749.33</ele>
        <time>2024-10-01T12:16:23.000Z</time>
      </trkpt>
      <trkpt lat="42.48137" lon="-0.08011">
        <ele>749.65</ele>
        <time>2024-10-01T12:16:28.000Z</time>
      </trkpt>
      <trkpt lat="42.48143" lon="-0.08025">
        <ele>749.96</ele>
        <time>2024-10-01T12:16:33.000Z</time>
      </trkpt>
      <trkpt lat="42.48149" lon="-0.0804">
        <ele>750.26</ele>
        <time>2024-10-01T12:16:38.000Z</time>
      </trkpt>
      <trkpt lat="42.48155" lon="-0.08055">
        <ele>750.56</ele>
        <time>2024-10-01T12:16:43.000Z</time>
      </trkpt>
      <trkpt lat="42.48162" lon="-0.08067">
        <ele>750.85</ele>
        <time>2024-10-01T12:16:48.000Z</time>
      </trkpt>
      <trkpt lat="42.48169" lon="-0.08082">
        <ele>751.14</ele>
        <time>2024-10-01T12:16:53.000Z</time>
      </trkpt>
      <trkpt lat="42.48176" lon="-0.08094">
        <ele>751.41</ele>
        <time>2024-10-01T12:16:58.000Z</time>
      </trkpt>
      <trkpt lat="42.48184" lon="-0.08106">
        <ele>751.67</ele>
        <time>2024-10-01T12:17:03.000Z</time>
      </trkpt>
      <trkpt lat="42.48193" lon="-0.08117">
        <ele>751.92</ele>
        <time>2024-10-01T12:17:08.000Z</time>
      </trkpt>
      <trkpt lat="42.48202" lon="-0.08131">
        <ele>752.17</ele>
        <time>2024-10-01T12:17:13.000Z</time>
      </trkpt>
      <trkpt lat="42.48216" lon="-0.08145">
        <ele>752.72</ele>
        <time>2024-10-01T12:17:18.000Z</time>
      </trkpt>
      <trkpt lat="42.48236" lon="-0.08159">
        <ele>754</ele>
        <time>2024-10-01T12:17:23.000Z</time>
      </trkpt>
      <trkpt lat="42.48258" lon="-0.08176">
        <ele>754.75</ele>
        <time>2024-10-01T12:17:28.000Z</time>
      </trkpt>
      <trkpt lat="42.48281" lon="-0.08191">
        <ele>755.16</ele>
        <time>2024-10-01T12:17:33.000Z</time>
      </trkpt>
      <trkpt lat="42.48303" lon="-0.0821">
        <ele>755.48</ele>
        <time>2024-10-01T12:17:38.000Z</time>
      </trkpt>
      <trkpt lat="42.48325" lon="-0.08234">
        <ele>755.77</ele>
        <time>2024-10-01T12:17:43.000Z</time>
      </trkpt>
      <trkpt lat="42.48353" lon="-0.08263">
        <ele>756.09</ele>
        <time>2024-10-01T12:17:48.999Z</time>
      </trkpt>
      <trkpt lat="42.48384" lon="-0.08286">
        <ele>756.45</ele>
        <time>2024-10-01T12:17:53.999Z</time>
      </trkpt>
      <trkpt lat="42.48414" lon="-0.08311">
        <ele>757.02</ele>
        <time>2024-10-01T12:17:58.999Z</time>
      </trkpt>
      <trkpt lat="42.48445" lon="-0.08336">
        <ele>757.62</ele>
        <time>2024-10-01T12:18:03.999Z</time>
      </trkpt>
      <trkpt lat="42.48476" lon="-0.08359">
        <ele>758.22</ele>
        <time>2024-10-01T12:18:08.999Z</time>
      </trkpt>
      <trkpt lat="42.48506" lon="-0.08384">
        <ele>759.28</ele>
        <time>2024-10-01T12:18:13.999Z</time>
      </trkpt>
      <trkpt lat="42.48534" lon="-0.08404">
        <ele>760.54</ele>
        <time>2024-10-01T12:18:18.999Z</time>
      </trkpt>
      <trkpt lat="42.48562" lon="-0.08421">
        <ele>762.15</ele>
        <time>2024-10-01T12:18:23.999Z</time>
      </trkpt>
      <trkpt lat="42.48586" lon="-0.08431">
        <ele>763.67</ele>
        <time>2024-10-01T12:18:28.999Z</time>
      </trkpt>
      <trkpt lat="42.48606" lon="-0.08452">
        <ele>764.25</ele>
        <time>2024-10-01T12:18:33.999Z</time>
      </trkpt>
      <trkpt lat="42.48621" lon="-0.08478">
        <ele>765.48</ele>
        <time>2024-10-01T12:18:38.999Z</time>
      </trkpt>
      <trkpt lat="42.48633" lon="-0.08499">
        <ele>766.87</ele>
        <time>2024-10-01T12:18:43.999Z</time>
      </trkpt>
      <trkpt lat="42.48643" lon="-0.08518">
        <ele>767.14</ele>
        <time>2024-10-01T12:18:48.999Z</time>
      </trkpt>
      <trkpt lat="42.48638" lon="-0.0854">
        <ele>767.51</ele>
        <time>2024-10-01T12:18:53.999Z</time>
      </trkpt>
      <trkpt lat="42.4862" lon="-0.08556">
        <ele>767.95</ele>
        <time>2024-10-01T12:18:58.999Z</time>
      </trkpt>
      <trkpt lat="42.48604" lon="-0.08572">
        <ele>769.51</ele>
        <time>2024-10-01T12:19:03.999Z</time>
      </trkpt>
      <trkpt lat="42.48588" lon="-0.08597">
        <ele>771.25</ele>
        <time>2024-10-01T12:19:08.999Z</time>
      </trkpt>
      <trkpt lat="42.48583" lon="-0.0863">
        <ele>771.76</ele>
        <time>2024-10-01T12:19:13.999Z</time>
      </trkpt>
      <trkpt lat="42.48582" lon="-0.08666">
        <ele>771.82</ele>
        <time>2024-10-01T12:19:18.999Z</time>
      </trkpt>
      <trkpt lat="42.48581" lon="-0.08705">
        <ele>771.74</ele>
        <time>2024-10-01T12:19:23.999Z</time>
      </trkpt>
      <trkpt lat="42.48584" lon="-0.08744">
        <ele>771.79</ele>
        <time>2024-10-01T12:19:28.999Z</time>
      </trkpt>
      <trkpt lat="42.48591" lon="-0.08778">
        <ele>771.79</ele>
        <time>2024-10-01T12:19:33.999Z</time>
      </trkpt>
      <trkpt lat="42.48596" lon="-0.08806">
        <ele>771.79</ele>
        <time>2024-10-01T12:19:38.999Z</time>
      </trkpt>
      <trkpt lat="42.48601" lon="-0.08831">
        <ele>771.78</ele>
        <time>2024-10-01T12:19:43.999Z</time>
      </trkpt>
      <trkpt lat="42.48606" lon="-0.08852">
        <ele>771.81</ele>
        <time>2024-10-01T12:19:48.999Z</time>
      </trkpt>
      <trkpt lat="42.48615" lon="-0.08876">
        <ele>771.86</ele>
        <time>2024-10-01T12:19:53.999Z</time>
      </trkpt>
      <trkpt lat="42.48627" lon="-0.08895">
        <ele>772.03</ele>
        <time>2024-10-01T12:19:58.999Z</time>
      </trkpt>
      <trkpt lat="42.48641" lon="-0.08918">
        <ele>772.37</ele>
        <time>2024-10-01T12:20:03.999Z</time>
      </trkpt>
      <trkpt lat="42.48655" lon="-0.08938">
        <ele>772.6</ele>
        <time>2024-10-01T12:20:08.999Z</time>
      </trkpt>
      <trkpt lat="42.48669" lon="-0.08956">
        <ele>772.7</ele>
        <time>2024-10-01T12:20:13.999Z</time>
      </trkpt>
      <trkpt lat="42.48677" lon="-0.08978">
        <ele>772.72</ele>
        <time>2024-10-01T12:20:18.999Z</time>
      </trkpt>
      <trkpt lat="42.48684" lon="-0.08999">
        <ele>772.77</ele>
        <time>2024-10-01T12:20:23.999Z</time>
      </trkpt>
      <trkpt lat="42.48691" lon="-0.09019">
        <ele>772.83</ele>
        <time>2024-10-01T12:20:28.999Z</time>
      </trkpt>
      <trkpt lat="42.48696" lon="-0.09038">
        <ele>772.91</ele>
        <time>2024-10-01T12:20:33.999Z</time>
      </trkpt>
      <trkpt lat="42.48702" lon="-0.09057">
        <ele>772.98</ele>
        <time>2024-10-01T12:20:38.999Z</time>
      </trkpt>
      <trkpt lat="42.48708" lon="-0.09075">
        <ele>773.06</ele>
        <time>2024-10-01T12:20:43.999Z</time>
      </trkpt>
      <trkpt lat="42.48712" lon="-0.09093">
        <ele>773.15</ele>
        <time>2024-10-01T12:20:48.999Z</time>
      </trkpt>
      <trkpt lat="42.48718" lon="-0.0911">
        <ele>773.24</ele>
        <time>2024-10-01T12:20:53.999Z</time>
      </trkpt>
      <trkpt lat="42.48722" lon="-0.09126">
        <ele>773.34</ele>
        <time>2024-10-01T12:20:58.999Z</time>
      </trkpt>
      <trkpt lat="42.48729" lon="-0.09142">
        <ele>773.43</ele>
        <time>2024-10-01T12:21:03.999Z</time>
      </trkpt>
      <trkpt lat="42.48738" lon="-0.09156">
        <ele>773.54</ele>
        <time>2024-10-01T12:21:08.999Z</time>
      </trkpt>
      <trkpt lat="42.4875" lon="-0.09169">
        <ele>773.65</ele>
        <time>2024-10-01T12:21:13.999Z</time>
      </trkpt>
      <trkpt lat="42.48767" lon="-0.09185">
        <ele>774.23</ele>
        <time>2024-10-01T12:21:18.999Z</time>
      </trkpt>
      <trkpt lat="42.48783" lon="-0.09202">
        <ele>774.76</ele>
        <time>2024-10-01T12:21:23.999Z</time>
      </trkpt>
      <trkpt lat="42.48803" lon="-0.0922">
        <ele>775.01</ele>
        <time>2024-10-01T12:21:28.999Z</time>
      </trkpt>
      <trkpt lat="42.48822" lon="-0.09243">
        <ele>775.17</ele>
        <time>2024-10-01T12:21:33.999Z</time>
      </trkpt>
      <trkpt lat="42.48837" lon="-0.0927">
        <ele>775.25</ele>
        <time>2024-10-01T12:21:38.999Z</time>
      </trkpt>
      <trkpt lat="42.48851" lon="-0.09297">
        <ele>775.4</ele>
        <time>2024-10-01T12:21:43.999Z</time>
      </trkpt>
      <trkpt lat="42.48865" lon="-0.09324">
        <ele>775.58</ele>
        <time>2024-10-01T12:21:48.999Z</time>
      </trkpt>
      <trkpt lat="42.48878" lon="-0.09352">
        <ele>775.75</ele>
        <time>2024-10-01T12:21:53.999Z</time>
      </trkpt>
      <trkpt lat="42.48889" lon="-0.09379">
        <ele>775.95</ele>
        <time>2024-10-01T12:21:58.999Z</time>
      </trkpt>
      <trkpt lat="42.48898" lon="-0.09407">
        <ele>776.17</ele>
        <time>2024-10-01T12:22:03.999Z</time>
      </trkpt>
      <trkpt lat="42.48908" lon="-0.09437">
        <ele>776.32</ele>
        <time>2024-10-01T12:22:08.999Z</time>
      </trkpt>
      <trkpt lat="42.48919" lon="-0.09473">
        <ele>776.41</ele>
        <time>2024-10-01T12:22:13.999Z</time>
      </trkpt>
      <trkpt lat="42.48933" lon="-0.09513">
        <ele>776.64</ele>
        <time>2024-10-01T12:22:18.999Z</time>
      </trkpt>
      <trkpt lat="42.48949" lon="-0.09557">
        <ele>777.24</ele>
        <time>2024-10-01T12:22:23.999Z</time>
      </trkpt>
      <trkpt lat="42.48965" lon="-0.096">
        <ele>777.84</ele>
        <time>2024-10-01T12:22:28.999Z</time>
      </trkpt>
      <trkpt lat="42.48979" lon="-0.09644">
        <ele>778.23</ele>
        <time>2024-10-01T12:22:33.999Z</time>
      </trkpt>
      <trkpt lat="42.48992" lon="-0.0969">
        <ele>778.71</ele>
        <time>2024-10-01T12:22:38.999Z</time>
      </trkpt>
      <trkpt lat="42.49007" lon="-0.09736">
        <ele>779.3</ele>
        <time>2024-10-01T12:22:43.999Z</time>
      </trkpt>
      <trkpt lat="42.49021" lon="-0.0978">
        <ele>779.89</ele>
        <time>2024-10-01T12:22:48.999Z</time>
      </trkpt>
      <trkpt lat="42.49034" lon="-0.09816">
        <ele>780.37</ele>
        <time>2024-10-01T12:22:53.999Z</time>
      </trkpt>
      <trkpt lat="42.49044" lon="-0.09843">
        <ele>780.83</ele>
        <time>2024-10-01T12:22:58.999Z</time>
      </trkpt>
      <trkpt lat="42.49051" lon="-0.09864">
        <ele>780.94</ele>
        <time>2024-10-01T12:23:03.999Z</time>
      </trkpt>
      <trkpt lat="42.49057" lon="-0.09884">
        <ele>781.04</ele>
        <time>2024-10-01T12:23:08.999Z</time>
      </trkpt>
      <trkpt lat="42.49066" lon="-0.09904">
        <ele>781.26</ele>
        <time>2024-10-01T12:23:13.999Z</time>
      </trkpt>
      <trkpt lat="42.49073" lon="-0.09925">
        <ele>781.61</ele>
        <time>2024-10-01T12:23:18.999Z</time>
      </trkpt>
      <trkpt lat="42.49079" lon="-0.09944">
        <ele>782.02</ele>
        <time>2024-10-01T12:23:23.999Z</time>
      </trkpt>
      <trkpt lat="42.49086" lon="-0.09963">
        <ele>782.4</ele>
        <time>2024-10-01T12:23:28.999Z</time>
      </trkpt>
      <trkpt lat="42.49093" lon="-0.09985">
        <ele>782.73</ele>
        <time>2024-10-01T12:23:33.999Z</time>
      </trkpt>
      <trkpt lat="42.49102" lon="-0.10007">
        <ele>784.17</ele>
        <time>2024-10-01T12:23:38.999Z</time>
      </trkpt>
      <trkpt lat="42.49118" lon="-0.10026">
        <ele>785.25</ele>
        <time>2024-10-01T12:23:43.999Z</time>
      </trkpt>
      <trkpt lat="42.49136" lon="-0.10037">
        <ele>785.59</ele>
        <time>2024-10-01T12:23:48.999Z</time>
      </trkpt>
      <trkpt lat="42.49153" lon="-0.10046">
        <ele>785.59</ele>
        <time>2024-10-01T12:23:53.999Z</time>
      </trkpt>
      <trkpt lat="42.49173" lon="-0.10057">
        <ele>785.67</ele>
        <time>2024-10-01T12:23:58.999Z</time>
      </trkpt>
      <trkpt lat="42.49191" lon="-0.10067">
        <ele>785.86</ele>
        <time>2024-10-01T12:24:03.999Z</time>
      </trkpt>
      <trkpt lat="42.49208" lon="-0.10084">
        <ele>786.56</ele>
        <time>2024-10-01T12:24:08.999Z</time>
      </trkpt>
      <trkpt lat="42.49221" lon="-0.10112">
        <ele>787.15</ele>
        <time>2024-10-01T12:24:13.999Z</time>
      </trkpt>
      <trkpt lat="42.49232" lon="-0.10145">
        <ele>787.56</ele>
        <time>2024-10-01T12:24:18.999Z</time>
      </trkpt>
      <trkpt lat="42.49243" lon="-0.10179">
        <ele>787.72</ele>
        <time>2024-10-01T12:24:23.999Z</time>
      </trkpt>
      <trkpt lat="42.49254" lon="-0.10212">
        <ele>787.79</ele>
        <time>2024-10-01T12:24:28.999Z</time>
      </trkpt>
      <trkpt lat="42.49264" lon="-0.1024">
        <ele>787.76</ele>
        <time>2024-10-01T12:24:33.999Z</time>
      </trkpt>
      <trkpt lat="42.49271" lon="-0.10261">
        <ele>787.76</ele>
        <time>2024-10-01T12:24:38.999Z</time>
      </trkpt>
      <trkpt lat="42.49279" lon="-0.10281">
        <ele>787.77</ele>
        <time>2024-10-01T12:24:43.999Z</time>
      </trkpt>
      <trkpt lat="42.49286" lon="-0.10301">
        <ele>787.77</ele>
        <time>2024-10-01T12:24:48.999Z</time>
      </trkpt>
      <trkpt lat="42.49293" lon="-0.10321">
        <ele>787.78</ele>
        <time>2024-10-01T12:24:53.999Z</time>
      </trkpt>
      <trkpt lat="42.49301" lon="-0.10343">
        <ele>787.78</ele>
        <time>2024-10-01T12:24:58.999Z</time>
      </trkpt>
      <trkpt lat="42.4931" lon="-0.10366">
        <ele>787.87</ele>
        <time>2024-10-01T12:25:03.999Z</time>
      </trkpt>
      <trkpt lat="42.49319" lon="-0.10392">
        <ele>787.95</ele>
        <time>2024-10-01T12:25:08.999Z</time>
      </trkpt>
      <trkpt lat="42.49328" lon="-0.10417">
        <ele>788.02</ele>
        <time>2024-10-01T12:25:13.999Z</time>
      </trkpt>
      <trkpt lat="42.49338" lon="-0.10442">
        <ele>788.1</ele>
        <time>2024-10-01T12:25:18.999Z</time>
      </trkpt>
      <trkpt lat="42.49348" lon="-0.10468">
        <ele>788.17</ele>
        <time>2024-10-01T12:25:23.999Z</time>
      </trkpt>
      <trkpt lat="42.49357" lon="-0.10493">
        <ele>788.24</ele>
        <time>2024-10-01T12:25:28.999Z</time>
      </trkpt>
      <trkpt lat="42.49367" lon="-0.1052">
        <ele>788.3</ele>
        <time>2024-10-01T12:25:33.999Z</time>
      </trkpt>
      <trkpt lat="42.49378" lon="-0.10545">
        <ele>788.38</ele>
        <time>2024-10-01T12:25:38.999Z</time>
      </trkpt>
      <trkpt lat="42.49395" lon="-0.10565">
        <ele>788.45</ele>
        <time>2024-10-01T12:25:43.999Z</time>
      </trkpt>
      <trkpt lat="42.49413" lon="-0.10582">
        <ele>788.58</ele>
        <time>2024-10-01T12:25:48.999Z</time>
      </trkpt>
      <trkpt lat="42.49432" lon="-0.10602">
        <ele>788.59</ele>
        <time>2024-10-01T12:25:53.999Z</time>
      </trkpt>
      <trkpt lat="42.49451" lon="-0.10627">
        <ele>788.55</ele>
        <time>2024-10-01T12:25:58.999Z</time>
      </trkpt>
      <trkpt lat="42.49471" lon="-0.10653">
        <ele>788.52</ele>
        <time>2024-10-01T12:26:03.999Z</time>
      </trkpt>
      <trkpt lat="42.49495" lon="-0.10685">
        <ele>788.6</ele>
        <time>2024-10-01T12:26:08.999Z</time>
      </trkpt>
      <trkpt lat="42.49515" lon="-0.10717">
        <ele>789</ele>
        <time>2024-10-01T12:26:13.999Z</time>
      </trkpt>
      <trkpt lat="42.49534" lon="-0.10751">
        <ele>789.59</ele>
        <time>2024-10-01T12:26:18.999Z</time>
      </trkpt>
      <trkpt lat="42.4955" lon="-0.10786">
        <ele>790.12</ele>
        <time>2024-10-01T12:26:23.999Z</time>
      </trkpt>
      <trkpt lat="42.49568" lon="-0.10817">
        <ele>790.91</ele>
        <time>2024-10-01T12:26:28.999Z</time>
      </trkpt>
      <trkpt lat="42.49583" lon="-0.10846">
        <ele>791.74</ele>
        <time>2024-10-01T12:26:33.999Z</time>
      </trkpt>
      <trkpt lat="42.49596" lon="-0.10873">
        <ele>792.47</ele>
        <time>2024-10-01T12:26:38.999Z</time>
      </trkpt>
      <trkpt lat="42.49605" lon="-0.10901">
        <ele>793.15</ele>
        <time>2024-10-01T12:26:43.999Z</time>
      </trkpt>
      <trkpt lat="42.49614" lon="-0.10932">
        <ele>793.83</ele>
        <time>2024-10-01T12:26:48.999Z</time>
      </trkpt>
      <trkpt lat="42.49622" lon="-0.10962">
        <ele>795.04</ele>
        <time>2024-10-01T12:26:53.999Z</time>
      </trkpt>
      <trkpt lat="42.49628" lon="-0.10989">
        <ele>795.97</ele>
        <time>2024-10-01T12:26:58.999Z</time>
      </trkpt>
      <trkpt lat="42.49634" lon="-0.11016">
        <ele>796.43</ele>
        <time>2024-10-01T12:27:03.999Z</time>
      </trkpt>
      <trkpt lat="42.4964" lon="-0.11043">
        <ele>796.71</ele>
        <time>2024-10-01T12:27:08.999Z</time>
      </trkpt>
      <trkpt lat="42.49647" lon="-0.11068">
        <ele>796.86</ele>
        <time>2024-10-01T12:27:13.999Z</time>
      </trkpt>
      <trkpt lat="42.49654" lon="-0.11091">
        <ele>796.87</ele>
        <time>2024-10-01T12:27:18.999Z</time>
      </trkpt>
      <trkpt lat="42.49666" lon="-0.1111">
        <ele>796.82</ele>
        <time>2024-10-01T12:27:23.999Z</time>
      </trkpt>
      <trkpt lat="42.49684" lon="-0.11131">
        <ele>796.82</ele>
        <time>2024-10-01T12:27:28.999Z</time>
      </trkpt>
      <trkpt lat="42.49703" lon="-0.11152">
        <ele>796.7</ele>
        <time>2024-10-01T12:27:33.999Z</time>
      </trkpt>
      <trkpt lat="42.49716" lon="-0.11177">
        <ele>796.51</ele>
        <time>2024-10-01T12:27:38.999Z</time>
      </trkpt>
      <trkpt lat="42.49727" lon="-0.11204">
        <ele>796.51</ele>
        <time>2024-10-01T12:27:43.999Z</time>
      </trkpt>
      <trkpt lat="42.49736" lon="-0.11232">
        <ele>796.64</ele>
        <time>2024-10-01T12:27:48.999Z</time>
      </trkpt>
      <trkpt lat="42.49747" lon="-0.11262">
        <ele>796.87</ele>
        <time>2024-10-01T12:27:53.999Z</time>
      </trkpt>
      <trkpt lat="42.49758" lon="-0.11296">
        <ele>797.12</ele>
        <time>2024-10-01T12:27:58.999Z</time>
      </trkpt>
      <trkpt lat="42.49771" lon="-0.11332">
        <ele>797.27</ele>
        <time>2024-10-01T12:28:03.999Z</time>
      </trkpt>
      <trkpt lat="42.49784" lon="-0.11369">
        <ele>797.42</ele>
        <time>2024-10-01T12:28:08.999Z</time>
      </trkpt>
      <trkpt lat="42.49798" lon="-0.11408">
        <ele>797.6</ele>
        <time>2024-10-01T12:28:13.999Z</time>
      </trkpt>
      <trkpt lat="42.49812" lon="-0.11447">
        <ele>797.9</ele>
        <time>2024-10-01T12:28:18.999Z</time>
      </trkpt>
      <trkpt lat="42.49829" lon="-0.11487">
        <ele>798.15</ele>
        <time>2024-10-01T12:28:23.999Z</time>
      </trkpt>
      <trkpt lat="42.49846" lon="-0.11519">
        <ele>798.16</ele>
        <time>2024-10-01T12:28:28.999Z</time>
      </trkpt>
      <trkpt lat="42.49859" lon="-0.11542">
        <ele>797.82</ele>
        <time>2024-10-01T12:28:33.999Z</time>
      </trkpt>
      <trkpt lat="42.49869" lon="-0.11557">
        <ele>798.01</ele>
        <time>2024-10-01T12:28:38.999Z</time>
      </trkpt>
      <trkpt lat="42.49876" lon="-0.11567">
        <ele>798.27</ele>
        <time>2024-10-01T12:29:08.999Z</time>
      </trkpt>
      <trkpt lat="42.49879" lon="-0.11579">
        <ele>799.84</ele>
        <time>2024-10-01T12:30:31.000Z</time>
      </trkpt>
      <trkpt lat="42.49852" lon="-0.11556">
        <ele>802.48</ele>
        <time>2024-10-01T12:31:28.000Z</time>
      </trkpt>
      <trkpt lat="42.49854" lon="-0.11568">
        <ele>802.81</ele>
        <time>2024-10-01T12:31:41.000Z</time>
      </trkpt>
      <trkpt lat="42.49863" lon="-0.11563">
        <ele>802.11</ele>
        <time>2024-10-01T12:32:51.000Z</time>
      </trkpt>
      <trkpt lat="42.49855" lon="-0.11556">
        <ele>794.44</ele>
        <time>2024-10-01T12:41:24.000Z</time>
      </trkpt>
      <trkpt lat="42.49858" lon="-0.11568">
        <ele>795.31</ele>
        <time>2024-10-01T13:02:03.000Z</time>
      </trkpt>
      <trkpt lat="42.49858" lon="-0.11552">
        <ele>795.4</ele>
        <time>2024-10-01T13:02:44.000Z</time>
      </trkpt>
      <trkpt lat="42.49863" lon="-0.11563">
        <ele>795.43</ele>
        <time>2024-10-01T13:02:49.000Z</time>
      </trkpt>
      <trkpt lat="42.49869" lon="-0.11572">
        <ele>795.36</ele>
        <time>2024-10-01T13:02:58.000Z</time>
      </trkpt>
      <trkpt lat="42.49878" lon="-0.11577">
        <ele>797.36</ele>
        <time>2024-10-01T13:06:27.999Z</time>
      </trkpt>
      <trkpt lat="42.49887" lon="-0.11591">
        <ele>797.58</ele>
        <time>2024-10-01T13:06:32.999Z</time>
      </trkpt>
      <trkpt lat="42.499" lon="-0.11616">
        <ele>798.71</ele>
        <time>2024-10-01T13:06:37.999Z</time>
      </trkpt>
      <trkpt lat="42.4992" lon="-0.1165">
        <ele>798.87</ele>
        <time>2024-10-01T13:06:42.999Z</time>
      </trkpt>
      <trkpt lat="42.49947" lon="-0.1168">
        <ele>798.32</ele>
        <time>2024-10-01T13:06:47.999Z</time>
      </trkpt>
      <trkpt lat="42.49974" lon="-0.11713">
        <ele>797.53</ele>
        <time>2024-10-01T13:06:52.999Z</time>
      </trkpt>
      <trkpt lat="42.49995" lon="-0.11738">
        <ele>796.93</ele>
        <time>2024-10-01T13:06:57.999Z</time>
      </trkpt>
      <trkpt lat="42.5001" lon="-0.11758">
        <ele>796.24</ele>
        <time>2024-10-01T13:07:02.999Z</time>
      </trkpt>
      <trkpt lat="42.50034" lon="-0.11785">
        <ele>795.54</ele>
        <time>2024-10-01T13:07:07.999Z</time>
      </trkpt>
      <trkpt lat="42.50063" lon="-0.11811">
        <ele>794.98</ele>
        <time>2024-10-01T13:07:12.999Z</time>
      </trkpt>
      <trkpt lat="42.50093" lon="-0.11828">
        <ele>794.53</ele>
        <time>2024-10-01T13:07:17.999Z</time>
      </trkpt>
      <trkpt lat="42.50117" lon="-0.11837">
        <ele>794.04</ele>
        <time>2024-10-01T13:07:22.999Z</time>
      </trkpt>
      <trkpt lat="42.50139" lon="-0.11837">
        <ele>793.75</ele>
        <time>2024-10-01T13:07:27.999Z</time>
      </trkpt>
      <trkpt lat="42.50162" lon="-0.11845">
        <ele>793.1</ele>
        <time>2024-10-01T13:07:32.999Z</time>
      </trkpt>
      <trkpt lat="42.5018" lon="-0.11868">
        <ele>792.82</ele>
        <time>2024-10-01T13:07:37.999Z</time>
      </trkpt>
      <trkpt lat="42.50206" lon="-0.11886">
        <ele>792.75</ele>
        <time>2024-10-01T13:07:42.999Z</time>
      </trkpt>
      <trkpt lat="42.50232" lon="-0.11913">
        <ele>792.94</ele>
        <time>2024-10-01T13:07:47.999Z</time>
      </trkpt>
      <trkpt lat="42.50253" lon="-0.11944">
        <ele>793.56</ele>
        <time>2024-10-01T13:07:52.999Z</time>
      </trkpt>
      <trkpt lat="42.50277" lon="-0.11965">
        <ele>794.41</ele>
        <time>2024-10-01T13:07:57.999Z</time>
      </trkpt>
      <trkpt lat="42.503" lon="-0.11977">
        <ele>795.88</ele>
        <time>2024-10-01T13:08:02.999Z</time>
      </trkpt>
      <trkpt lat="42.50321" lon="-0.1198">
        <ele>796.81</ele>
        <time>2024-10-01T13:08:07.999Z</time>
      </trkpt>
      <trkpt lat="42.50338" lon="-0.11994">
        <ele>796.75</ele>
        <time>2024-10-01T13:08:12.999Z</time>
      </trkpt>
      <trkpt lat="42.50351" lon="-0.12013">
        <ele>796.75</ele>
        <time>2024-10-01T13:08:17.999Z</time>
      </trkpt>
      <trkpt lat="42.50364" lon="-0.12029">
        <ele>796.69</ele>
        <time>2024-10-01T13:08:22.999Z</time>
      </trkpt>
      <trkpt lat="42.50377" lon="-0.12041">
        <ele>796.65</ele>
        <time>2024-10-01T13:08:27.999Z</time>
      </trkpt>
      <trkpt lat="42.50395" lon="-0.12046">
        <ele>796.6</ele>
        <time>2024-10-01T13:08:32.999Z</time>
      </trkpt>
      <trkpt lat="42.50413" lon="-0.12049">
        <ele>796.52</ele>
        <time>2024-10-01T13:08:37.999Z</time>
      </trkpt>
      <trkpt lat="42.5043" lon="-0.12053">
        <ele>796.38</ele>
        <time>2024-10-01T13:08:42.999Z</time>
      </trkpt>
      <trkpt lat="42.50447" lon="-0.12056">
        <ele>796.19</ele>
        <time>2024-10-01T13:08:47.999Z</time>
      </trkpt>
      <trkpt lat="42.50461" lon="-0.12061">
        <ele>796</ele>
        <time>2024-10-01T13:08:52.999Z</time>
      </trkpt>
      <trkpt lat="42.50476" lon="-0.12068">
        <ele>795.86</ele>
        <time>2024-10-01T13:08:57.999Z</time>
      </trkpt>
      <trkpt lat="42.50489" lon="-0.1208">
        <ele>795.72</ele>
        <time>2024-10-01T13:09:02.999Z</time>
      </trkpt>
      <trkpt lat="42.50501" lon="-0.12096">
        <ele>795.6</ele>
        <time>2024-10-01T13:09:07.999Z</time>
      </trkpt>
      <trkpt lat="42.50511" lon="-0.12116">
        <ele>795.53</ele>
        <time>2024-10-01T13:09:12.999Z</time>
      </trkpt>
      <trkpt lat="42.50521" lon="-0.12133">
        <ele>795.53</ele>
        <time>2024-10-01T13:09:17.999Z</time>
      </trkpt>
      <trkpt lat="42.5053" lon="-0.12149">
        <ele>795.6</ele>
        <time>2024-10-01T13:09:22.999Z</time>
      </trkpt>
      <trkpt lat="42.50538" lon="-0.12164">
        <ele>795.72</ele>
        <time>2024-10-01T13:09:27.999Z</time>
      </trkpt>
      <trkpt lat="42.50547" lon="-0.1218">
        <ele>795.88</ele>
        <time>2024-10-01T13:09:32.999Z</time>
      </trkpt>
      <trkpt lat="42.50556" lon="-0.12197">
        <ele>796.07</ele>
        <time>2024-10-01T13:09:37.999Z</time>
      </trkpt>
      <trkpt lat="42.50566" lon="-0.12213">
        <ele>796.26</ele>
        <time>2024-10-01T13:09:42.999Z</time>
      </trkpt>
      <trkpt lat="42.50575" lon="-0.1223">
        <ele>796.46</ele>
        <time>2024-10-01T13:09:47.999Z</time>
      </trkpt>
      <trkpt lat="42.50585" lon="-0.12246">
        <ele>796.69</ele>
        <time>2024-10-01T13:09:52.999Z</time>
      </trkpt>
      <trkpt lat="42.50594" lon="-0.12263">
        <ele>796.97</ele>
        <time>2024-10-01T13:09:57.999Z</time>
      </trkpt>
      <trkpt lat="42.50604" lon="-0.1228">
        <ele>797.28</ele>
        <time>2024-10-01T13:10:02.999Z</time>
      </trkpt>
      <trkpt lat="42.50614" lon="-0.12296">
        <ele>797.56</ele>
        <time>2024-10-01T13:10:07.999Z</time>
      </trkpt>
      <trkpt lat="42.50625" lon="-0.12314">
        <ele>797.91</ele>
        <time>2024-10-01T13:10:12.999Z</time>
      </trkpt>
      <trkpt lat="42.50635" lon="-0.1233">
        <ele>798.31</ele>
        <time>2024-10-01T13:10:17.999Z</time>
      </trkpt>
      <trkpt lat="42.50648" lon="-0.12345">
        <ele>798.69</ele>
        <time>2024-10-01T13:10:22.999Z</time>
      </trkpt>
      <trkpt lat="42.50663" lon="-0.1236">
        <ele>800.96</ele>
        <time>2024-10-01T13:10:27.999Z</time>
      </trkpt>
      <trkpt lat="42.50681" lon="-0.12375">
        <ele>801.76</ele>
        <time>2024-10-01T13:10:32.999Z</time>
      </trkpt>
      <trkpt lat="42.50698" lon="-0.1239">
        <ele>802.01</ele>
        <time>2024-10-01T13:10:37.999Z</time>
      </trkpt>
      <trkpt lat="42.50716" lon="-0.12406">
        <ele>802.11</ele>
        <time>2024-10-01T13:10:42.999Z</time>
      </trkpt>
      <trkpt lat="42.50734" lon="-0.12422">
        <ele>802.13</ele>
        <time>2024-10-01T13:10:47.999Z</time>
      </trkpt>
      <trkpt lat="42.50752" lon="-0.12438">
        <ele>802.13</ele>
        <time>2024-10-01T13:10:52.999Z</time>
      </trkpt>
      <trkpt lat="42.5077" lon="-0.12454">
        <ele>802.12</ele>
        <time>2024-10-01T13:10:57.999Z</time>
      </trkpt>
      <trkpt lat="42.50787" lon="-0.12468">
        <ele>802.1</ele>
        <time>2024-10-01T13:11:02.999Z</time>
      </trkpt>
      <trkpt lat="42.50802" lon="-0.12483">
        <ele>802.08</ele>
        <time>2024-10-01T13:11:07.999Z</time>
      </trkpt>
      <trkpt lat="42.50819" lon="-0.12497">
        <ele>802.05</ele>
        <time>2024-10-01T13:11:12.999Z</time>
      </trkpt>
      <trkpt lat="42.50835" lon="-0.12512">
        <ele>802.02</ele>
        <time>2024-10-01T13:11:17.999Z</time>
      </trkpt>
      <trkpt lat="42.50852" lon="-0.12527">
        <ele>802.02</ele>
        <time>2024-10-01T13:11:22.999Z</time>
      </trkpt>
      <trkpt lat="42.50868" lon="-0.12542">
        <ele>802.04</ele>
        <time>2024-10-01T13:11:27.999Z</time>
      </trkpt>
      <trkpt lat="42.50885" lon="-0.12558">
        <ele>802.09</ele>
        <time>2024-10-01T13:11:32.999Z</time>
      </trkpt>
      <trkpt lat="42.50902" lon="-0.12574">
        <ele>802.14</ele>
        <time>2024-10-01T13:11:37.999Z</time>
      </trkpt>
      <trkpt lat="42.50922" lon="-0.12587">
        <ele>802.17</ele>
        <time>2024-10-01T13:11:42.999Z</time>
      </trkpt>
      <trkpt lat="42.50944" lon="-0.12592">
        <ele>802.18</ele>
        <time>2024-10-01T13:11:47.999Z</time>
      </trkpt>
      <trkpt lat="42.50967" lon="-0.1259">
        <ele>802.22</ele>
        <time>2024-10-01T13:11:52.999Z</time>
      </trkpt>
      <trkpt lat="42.50987" lon="-0.12589">
        <ele>802.31</ele>
        <time>2024-10-01T13:11:57.999Z</time>
      </trkpt>
      <trkpt lat="42.51006" lon="-0.12587">
        <ele>802.37</ele>
        <time>2024-10-01T13:12:02.999Z</time>
      </trkpt>
      <trkpt lat="42.51024" lon="-0.12585">
        <ele>802.39</ele>
        <time>2024-10-01T13:12:07.999Z</time>
      </trkpt>
      <trkpt lat="42.51043" lon="-0.12583">
        <ele>802.42</ele>
        <time>2024-10-01T13:12:12.999Z</time>
      </trkpt>
      <trkpt lat="42.5106" lon="-0.12582">
        <ele>802.45</ele>
        <time>2024-10-01T13:12:17.999Z</time>
      </trkpt>
      <trkpt lat="42.51078" lon="-0.12584">
        <ele>802.5</ele>
        <time>2024-10-01T13:12:22.999Z</time>
      </trkpt>
      <trkpt lat="42.51094" lon="-0.12595">
        <ele>802.56</ele>
        <time>2024-10-01T13:12:27.999Z</time>
      </trkpt>
      <trkpt lat="42.51108" lon="-0.12611">
        <ele>802.79</ele>
        <time>2024-10-01T13:12:32.999Z</time>
      </trkpt>
      <trkpt lat="42.51122" lon="-0.1263">
        <ele>803.17</ele>
        <time>2024-10-01T13:12:37.999Z</time>
      </trkpt>
      <trkpt lat="42.51138" lon="-0.12647">
        <ele>803.41</ele>
        <time>2024-10-01T13:12:42.999Z</time>
      </trkpt>
      <trkpt lat="42.51159" lon="-0.12657">
        <ele>803.58</ele>
        <time>2024-10-01T13:12:47.999Z</time>
      </trkpt>
      <trkpt lat="42.51183" lon="-0.12654">
        <ele>803.72</ele>
        <time>2024-10-01T13:12:52.999Z</time>
      </trkpt>
      <trkpt lat="42.51205" lon="-0.12649">
        <ele>803.84</ele>
        <time>2024-10-01T13:12:57.999Z</time>
      </trkpt>
      <trkpt lat="42.51224" lon="-0.12645">
        <ele>803.9</ele>
        <time>2024-10-01T13:13:02.999Z</time>
      </trkpt>
      <trkpt lat="42.51239" lon="-0.12642">
        <ele>803.92</ele>
        <time>2024-10-01T13:13:07.999Z</time>
      </trkpt>
      <trkpt lat="42.51252" lon="-0.12639">
        <ele>803.96</ele>
        <time>2024-10-01T13:13:12.999Z</time>
      </trkpt>
      <trkpt lat="42.51267" lon="-0.12637">
        <ele>804.01</ele>
        <time>2024-10-01T13:13:17.999Z</time>
      </trkpt>
      <trkpt lat="42.51281" lon="-0.12635">
        <ele>804.07</ele>
        <time>2024-10-01T13:13:22.999Z</time>
      </trkpt>
      <trkpt lat="42.51295" lon="-0.12633">
        <ele>804.15</ele>
        <time>2024-10-01T13:13:27.999Z</time>
      </trkpt>
      <trkpt lat="42.5131" lon="-0.1263">
        <ele>804.24</ele>
        <time>2024-10-01T13:13:32.999Z</time>
      </trkpt>
      <trkpt lat="42.51324" lon="-0.12628">
        <ele>804.34</ele>
        <time>2024-10-01T13:13:37.999Z</time>
      </trkpt>
      <trkpt lat="42.51339" lon="-0.12624">
        <ele>804.45</ele>
        <time>2024-10-01T13:13:42.999Z</time>
      </trkpt>
      <trkpt lat="42.51354" lon="-0.12621">
        <ele>804.56</ele>
        <time>2024-10-01T13:13:47.999Z</time>
      </trkpt>
      <trkpt lat="42.5137" lon="-0.12618">
        <ele>804.67</ele>
        <time>2024-10-01T13:13:52.999Z</time>
      </trkpt>
      <trkpt lat="42.51385" lon="-0.12616">
        <ele>804.8</ele>
        <time>2024-10-01T13:13:57.999Z</time>
      </trkpt>
      <trkpt lat="42.51401" lon="-0.12613">
        <ele>804.93</ele>
        <time>2024-10-01T13:14:02.999Z</time>
      </trkpt>
      <trkpt lat="42.51417" lon="-0.1261">
        <ele>805.06</ele>
        <time>2024-10-01T13:14:07.999Z</time>
      </trkpt>
      <trkpt lat="42.51433" lon="-0.12606">
        <ele>805.21</ele>
        <time>2024-10-01T13:14:12.999Z</time>
      </trkpt>
      <trkpt lat="42.51449" lon="-0.12606">
        <ele>805.35</ele>
        <time>2024-10-01T13:14:17.999Z</time>
      </trkpt>
      <trkpt lat="42.51463" lon="-0.12611">
        <ele>805.5</ele>
        <time>2024-10-01T13:14:22.999Z</time>
      </trkpt>
      <trkpt lat="42.51476" lon="-0.12618">
        <ele>805.64</ele>
        <time>2024-10-01T13:14:27.999Z</time>
      </trkpt>
      <trkpt lat="42.51489" lon="-0.12626">
        <ele>805.78</ele>
        <time>2024-10-01T13:14:32.999Z</time>
      </trkpt>
      <trkpt lat="42.51502" lon="-0.12634">
        <ele>805.91</ele>
        <time>2024-10-01T13:14:37.999Z</time>
      </trkpt>
      <trkpt lat="42.51515" lon="-0.12644">
        <ele>806.05</ele>
        <time>2024-10-01T13:14:42.999Z</time>
      </trkpt>
      <trkpt lat="42.51527" lon="-0.12655">
        <ele>806.2</ele>
        <time>2024-10-01T13:14:47.999Z</time>
      </trkpt>
      <trkpt lat="42.51535" lon="-0.12669">
        <ele>806.34</ele>
        <time>2024-10-01T13:14:52.999Z</time>
      </trkpt>
      <trkpt lat="42.51543" lon="-0.12683">
        <ele>806.49</ele>
        <time>2024-10-01T13:14:57.999Z</time>
      </trkpt>
      <trkpt lat="42.51554" lon="-0.12694">
        <ele>806.64</ele>
        <time>2024-10-01T13:15:02.999Z</time>
      </trkpt>
      <trkpt lat="42.51566" lon="-0.12699">
        <ele>806.8</ele>
        <time>2024-10-01T13:15:07.999Z</time>
      </trkpt>
      <trkpt lat="42.5158" lon="-0.12703">
        <ele>806.96</ele>
        <time>2024-10-01T13:15:12.999Z</time>
      </trkpt>
      <trkpt lat="42.51592" lon="-0.12708">
        <ele>807.14</ele>
        <time>2024-10-01T13:15:17.999Z</time>
      </trkpt>
      <trkpt lat="42.51604" lon="-0.12712">
        <ele>807.32</ele>
        <time>2024-10-01T13:15:22.999Z</time>
      </trkpt>
      <trkpt lat="42.51616" lon="-0.12717">
        <ele>807.51</ele>
        <time>2024-10-01T13:15:27.999Z</time>
      </trkpt>
      <trkpt lat="42.51628" lon="-0.12723">
        <ele>807.71</ele>
        <time>2024-10-01T13:15:32.999Z</time>
      </trkpt>
      <trkpt lat="42.5164" lon="-0.12731">
        <ele>807.91</ele>
        <time>2024-10-01T13:15:37.999Z</time>
      </trkpt>
      <trkpt lat="42.51651" lon="-0.1274">
        <ele>808.12</ele>
        <time>2024-10-01T13:15:42.999Z</time>
      </trkpt>
      <trkpt lat="42.51662" lon="-0.12749">
        <ele>808.34</ele>
        <time>2024-10-01T13:15:47.999Z</time>
      </trkpt>
      <trkpt lat="42.51672" lon="-0.12759">
        <ele>808.55</ele>
        <time>2024-10-01T13:15:52.999Z</time>
      </trkpt>
      <trkpt lat="42.51682" lon="-0.12769">
        <ele>808.77</ele>
        <time>2024-10-01T13:15:57.999Z</time>
      </trkpt>
      <trkpt lat="42.51692" lon="-0.12781">
        <ele>808.99</ele>
        <time>2024-10-01T13:16:02.999Z</time>
      </trkpt>
      <trkpt lat="42.51702" lon="-0.12793">
        <ele>809.2</ele>
        <time>2024-10-01T13:16:07.999Z</time>
      </trkpt>
      <trkpt lat="42.51712" lon="-0.12803">
        <ele>809.42</ele>
        <time>2024-10-01T13:16:12.999Z</time>
      </trkpt>
      <trkpt lat="42.51721" lon="-0.12808">
        <ele>809.64</ele>
        <time>2024-10-01T13:16:17.999Z</time>
      </trkpt>
      <trkpt lat="42.51732" lon="-0.1281">
        <ele>809.91</ele>
        <time>2024-10-01T13:16:23.999Z</time>
      </trkpt>
      <trkpt lat="42.51742" lon="-0.12808">
        <ele>810.17</ele>
        <time>2024-10-01T13:16:29.999Z</time>
      </trkpt>
      <trkpt lat="42.51751" lon="-0.12805">
        <ele>810.45</ele>
        <time>2024-10-01T13:16:35.999Z</time>
      </trkpt>
      <trkpt lat="42.5176" lon="-0.12804">
        <ele>810.68</ele>
        <time>2024-10-01T13:16:40.999Z</time>
      </trkpt>
      <trkpt lat="42.51769" lon="-0.12807">
        <ele>810.91</ele>
        <time>2024-10-01T13:16:45.999Z</time>
      </trkpt>
      <trkpt lat="42.51779" lon="-0.12814">
        <ele>811.19</ele>
        <time>2024-10-01T13:16:51.999Z</time>
      </trkpt>
      <trkpt lat="42.51786" lon="-0.12821">
        <ele>811.42</ele>
        <time>2024-10-01T13:16:56.999Z</time>
      </trkpt>
      <trkpt lat="42.51795" lon="-0.12827">
        <ele>811.69</ele>
        <time>2024-10-01T13:17:02.999Z</time>
      </trkpt>
      <trkpt lat="42.51805" lon="-0.12829">
        <ele>811.97</ele>
        <time>2024-10-01T13:17:08.999Z</time>
      </trkpt>
      <trkpt lat="42.51815" lon="-0.12829">
        <ele>812.24</ele>
        <time>2024-10-01T13:17:13.999Z</time>
      </trkpt>
      <trkpt lat="42.51824" lon="-0.12831">
        <ele>812.53</ele>
        <time>2024-10-01T13:17:18.999Z</time>
      </trkpt>
      <trkpt lat="42.51833" lon="-0.12836">
        <ele>812.86</ele>
        <time>2024-10-01T13:17:23.999Z</time>
      </trkpt>
      <trkpt lat="42.51842" lon="-0.12842">
        <ele>813.22</ele>
        <time>2024-10-01T13:17:28.999Z</time>
      </trkpt>
      <trkpt lat="42.5185" lon="-0.12848">
        <ele>813.62</ele>
        <time>2024-10-01T13:17:34.000Z</time>
      </trkpt>
      <trkpt lat="42.51858" lon="-0.12857">
        <ele>814.24</ele>
        <time>2024-10-01T13:17:41.000Z</time>
      </trkpt>
      <trkpt lat="42.51866" lon="-0.12865">
        <ele>814.81</ele>
        <time>2024-10-01T13:17:47.000Z</time>
      </trkpt>
      <trkpt lat="42.51875" lon="-0.12873">
        <ele>815.39</ele>
        <time>2024-10-01T13:17:53.000Z</time>
      </trkpt>
      <trkpt lat="42.51882" lon="-0.12881">
        <ele>815.87</ele>
        <time>2024-10-01T13:17:58.000Z</time>
      </trkpt>
      <trkpt lat="42.51891" lon="-0.12889">
        <ele>816.45</ele>
        <time>2024-10-01T13:18:04.000Z</time>
      </trkpt>
      <trkpt lat="42.519" lon="-0.12897">
        <ele>816.93</ele>
        <time>2024-10-01T13:18:09.000Z</time>
      </trkpt>
      <trkpt lat="42.51913" lon="-0.12908">
        <ele>817.4</ele>
        <time>2024-10-01T13:18:14.000Z</time>
      </trkpt>
      <trkpt lat="42.5193" lon="-0.12922">
        <ele>820.16</ele>
        <time>2024-10-01T13:18:19.000Z</time>
      </trkpt>
      <trkpt lat="42.51949" lon="-0.12937">
        <ele>821.79</ele>
        <time>2024-10-01T13:18:24.000Z</time>
      </trkpt>
      <trkpt lat="42.51969" lon="-0.12953">
        <ele>822.55</ele>
        <time>2024-10-01T13:18:29.000Z</time>
      </trkpt>
      <trkpt lat="42.51989" lon="-0.12969">
        <ele>823.05</ele>
        <time>2024-10-01T13:18:34.000Z</time>
      </trkpt>
      <trkpt lat="42.52008" lon="-0.12988">
        <ele>823.49</ele>
        <time>2024-10-01T13:18:39.000Z</time>
      </trkpt>
      <trkpt lat="42.52026" lon="-0.1301">
        <ele>823.93</ele>
        <time>2024-10-01T13:18:44.000Z</time>
      </trkpt>
      <trkpt lat="42.52043" lon="-0.13031">
        <ele>824.44</ele>
        <time>2024-10-01T13:18:49.000Z</time>
      </trkpt>
      <trkpt lat="42.52062" lon="-0.13049">
        <ele>824.92</ele>
        <time>2024-10-01T13:18:54.000Z</time>
      </trkpt>
      <trkpt lat="42.52083" lon="-0.13066">
        <ele>825.37</ele>
        <time>2024-10-01T13:18:59.000Z</time>
      </trkpt>
      <trkpt lat="42.52104" lon="-0.1308">
        <ele>825.82</ele>
        <time>2024-10-01T13:19:04.000Z</time>
      </trkpt>
      <trkpt lat="42.52124" lon="-0.13092">
        <ele>826.16</ele>
        <time>2024-10-01T13:19:09.000Z</time>
      </trkpt>
      <trkpt lat="42.52145" lon="-0.13105">
        <ele>826.46</ele>
        <time>2024-10-01T13:19:14.000Z</time>
      </trkpt>
      <trkpt lat="42.52165" lon="-0.13117">
        <ele>826.73</ele>
        <time>2024-10-01T13:19:19.000Z</time>
      </trkpt>
      <trkpt lat="42.52184" lon="-0.1313">
        <ele>827.02</ele>
        <time>2024-10-01T13:19:24.000Z</time>
      </trkpt>
      <trkpt lat="42.52202" lon="-0.13147">
        <ele>827.33</ele>
        <time>2024-10-01T13:19:29.000Z</time>
      </trkpt>
      <trkpt lat="42.52221" lon="-0.13162">
        <ele>827.68</ele>
        <time>2024-10-01T13:19:34.000Z</time>
      </trkpt>
      <trkpt lat="42.52241" lon="-0.13176">
        <ele>828.05</ele>
        <time>2024-10-01T13:19:39.000Z</time>
      </trkpt>
      <trkpt lat="42.52261" lon="-0.1319">
        <ele>828.37</ele>
        <time>2024-10-01T13:19:44.000Z</time>
      </trkpt>
      <trkpt lat="42.52278" lon="-0.13203">
        <ele>828.65</ele>
        <time>2024-10-01T13:19:49.000Z</time>
      </trkpt>
      <trkpt lat="42.52294" lon="-0.13216">
        <ele>828.79</ele>
        <time>2024-10-01T13:19:54.000Z</time>
      </trkpt>
      <trkpt lat="42.52311" lon="-0.13228">
        <ele>829.21</ele>
        <time>2024-10-01T13:19:59.000Z</time>
      </trkpt>
      <trkpt lat="42.52326" lon="-0.13241">
        <ele>829.42</ele>
        <time>2024-10-01T13:20:04.000Z</time>
      </trkpt>
      <trkpt lat="42.52339" lon="-0.13261">
        <ele>829.79</ele>
        <time>2024-10-01T13:20:09.000Z</time>
      </trkpt>
      <trkpt lat="42.5235" lon="-0.13284">
        <ele>830.25</ele>
        <time>2024-10-01T13:20:14.000Z</time>
      </trkpt>
      <trkpt lat="42.52364" lon="-0.13307">
        <ele>830.65</ele>
        <time>2024-10-01T13:20:19.000Z</time>
      </trkpt>
      <trkpt lat="42.5238" lon="-0.13325">
        <ele>831.01</ele>
        <time>2024-10-01T13:20:24.000Z</time>
      </trkpt>
      <trkpt lat="42.52395" lon="-0.1334">
        <ele>831.12</ele>
        <time>2024-10-01T13:20:29.000Z</time>
      </trkpt>
      <trkpt lat="42.5241" lon="-0.13356">
        <ele>831.17</ele>
        <time>2024-10-01T13:20:34.000Z</time>
      </trkpt>
      <trkpt lat="42.52424" lon="-0.13373">
        <ele>831.34</ele>
        <time>2024-10-01T13:20:39.000Z</time>
      </trkpt>
      <trkpt lat="42.52437" lon="-0.13392">
        <ele>831.63</ele>
        <time>2024-10-01T13:20:44.000Z</time>
      </trkpt>
      <trkpt lat="42.52452" lon="-0.13409">
        <ele>831.82</ele>
        <time>2024-10-01T13:20:49.000Z</time>
      </trkpt>
      <trkpt lat="42.52468" lon="-0.13422">
        <ele>832.02</ele>
        <time>2024-10-01T13:20:54.000Z</time>
      </trkpt>
      <trkpt lat="42.52484" lon="-0.13436">
        <ele>832.11</ele>
        <time>2024-10-01T13:20:59.000Z</time>
      </trkpt>
      <trkpt lat="42.52497" lon="-0.13447">
        <ele>832.2</ele>
        <time>2024-10-01T13:21:04.000Z</time>
      </trkpt>
      <trkpt lat="42.52517" lon="-0.13443">
        <ele>832.84</ele>
        <time>2024-10-01T13:21:09.000Z</time>
      </trkpt>
      <trkpt lat="42.52539" lon="-0.13425">
        <ele>833.16</ele>
        <time>2024-10-01T13:21:14.000Z</time>
      </trkpt>
      <trkpt lat="42.52557" lon="-0.13403">
        <ele>833.38</ele>
        <time>2024-10-01T13:21:19.000Z</time>
      </trkpt>
      <trkpt lat="42.52571" lon="-0.13385">
        <ele>833.56</ele>
        <time>2024-10-01T13:21:24.000Z</time>
      </trkpt>
      <trkpt lat="42.52584" lon="-0.1337">
        <ele>833.61</ele>
        <time>2024-10-01T13:21:29.000Z</time>
      </trkpt>
      <trkpt lat="42.52595" lon="-0.13356">
        <ele>833.68</ele>
        <time>2024-10-01T13:21:34.000Z</time>
      </trkpt>
      <trkpt lat="42.52607" lon="-0.13347">
        <ele>833.76</ele>
        <time>2024-10-01T13:21:39.000Z</time>
      </trkpt>
      <trkpt lat="42.5262" lon="-0.13341">
        <ele>833.85</ele>
        <time>2024-10-01T13:21:44.000Z</time>
      </trkpt>
      <trkpt lat="42.5263" lon="-0.13339">
        <ele>833.95</ele>
        <time>2024-10-01T13:21:49.000Z</time>
      </trkpt>
      <trkpt lat="42.52643" lon="-0.13335">
        <ele>834.06</ele>
        <time>2024-10-01T13:21:54.000Z</time>
      </trkpt>
      <trkpt lat="42.52655" lon="-0.13332">
        <ele>834.19</ele>
        <time>2024-10-01T13:21:59.000Z</time>
      </trkpt>
      <trkpt lat="42.52665" lon="-0.13327">
        <ele>834.35</ele>
        <time>2024-10-01T13:22:05.000Z</time>
      </trkpt>
      <trkpt lat="42.52675" lon="-0.13321">
        <ele>834.5</ele>
        <time>2024-10-01T13:22:10.000Z</time>
      </trkpt>
      <trkpt lat="42.52684" lon="-0.13315">
        <ele>834.68</ele>
        <time>2024-10-01T13:22:16.000Z</time>
      </trkpt>
      <trkpt lat="42.52694" lon="-0.1331">
        <ele>834.82</ele>
        <time>2024-10-01T13:22:21.000Z</time>
      </trkpt>
      <trkpt lat="42.52704" lon="-0.13306">
        <ele>834.95</ele>
        <time>2024-10-01T13:22:26.000Z</time>
      </trkpt>
      <trkpt lat="42.52714" lon="-0.13302">
        <ele>835.08</ele>
        <time>2024-10-01T13:22:31.000Z</time>
      </trkpt>
      <trkpt lat="42.52724" lon="-0.13299">
        <ele>835.22</ele>
        <time>2024-10-01T13:22:36.000Z</time>
      </trkpt>
      <trkpt lat="42.52733" lon="-0.13298">
        <ele>835.38</ele>
        <time>2024-10-01T13:22:41.000Z</time>
      </trkpt>
      <trkpt lat="42.52744" lon="-0.13299">
        <ele>835.55</ele>
        <time>2024-10-01T13:22:46.000Z</time>
      </trkpt>
      <trkpt lat="42.52754" lon="-0.13302">
        <ele>835.73</ele>
        <time>2024-10-01T13:22:51.000Z</time>
      </trkpt>
      <trkpt lat="42.52764" lon="-0.13304">
        <ele>835.92</ele>
        <time>2024-10-01T13:22:56.000Z</time>
      </trkpt>
      <trkpt lat="42.52775" lon="-0.13307">
        <ele>836.11</ele>
        <time>2024-10-01T13:23:01.000Z</time>
      </trkpt>
      <trkpt lat="42.52785" lon="-0.13309">
        <ele>836.3</ele>
        <time>2024-10-01T13:23:06.000Z</time>
      </trkpt>
      <trkpt lat="42.52795" lon="-0.13308">
        <ele>836.54</ele>
        <time>2024-10-01T13:23:12.000Z</time>
      </trkpt>
      <trkpt lat="42.52805" lon="-0.13308">
        <ele>836.8</ele>
        <time>2024-10-01T13:23:18.000Z</time>
      </trkpt>
      <trkpt lat="42.52815" lon="-0.13306">
        <ele>837.08</ele>
        <time>2024-10-01T13:23:24.000Z</time>
      </trkpt>
      <trkpt lat="42.52825" lon="-0.13306">
        <ele>837.35</ele>
        <time>2024-10-01T13:23:29.000Z</time>
      </trkpt>
      <trkpt lat="42.52834" lon="-0.13306">
        <ele>837.7</ele>
        <time>2024-10-01T13:23:34.000Z</time>
      </trkpt>
      <trkpt lat="42.52844" lon="-0.13306">
        <ele>838.26</ele>
        <time>2024-10-01T13:23:40.000Z</time>
      </trkpt>
      <trkpt lat="42.52854" lon="-0.13308">
        <ele>838.93</ele>
        <time>2024-10-01T13:23:46.000Z</time>
      </trkpt>
      <trkpt lat="42.52863" lon="-0.13311">
        <ele>839.72</ele>
        <time>2024-10-01T13:23:52.000Z</time>
      </trkpt>
      <trkpt lat="42.52872" lon="-0.13316">
        <ele>840.57</ele>
        <time>2024-10-01T13:23:58.000Z</time>
      </trkpt>
      <trkpt lat="42.5288" lon="-0.13322">
        <ele>841.31</ele>
        <time>2024-10-01T13:24:03.000Z</time>
      </trkpt>
      <trkpt lat="42.52888" lon="-0.13329">
        <ele>842.03</ele>
        <time>2024-10-01T13:24:08.000Z</time>
      </trkpt>
      <trkpt lat="42.52895" lon="-0.13338">
        <ele>842.78</ele>
        <time>2024-10-01T13:24:13.000Z</time>
      </trkpt>
      <trkpt lat="42.52903" lon="-0.13348">
        <ele>843.92</ele>
        <time>2024-10-01T13:24:19.000Z</time>
      </trkpt>
      <trkpt lat="42.52909" lon="-0.13357">
        <ele>845.23</ele>
        <time>2024-10-01T13:24:25.000Z</time>
      </trkpt>
      <trkpt lat="42.52916" lon="-0.13368">
        <ele>846.66</ele>
        <time>2024-10-01T13:24:31.000Z</time>
      </trkpt>
      <trkpt lat="42.52923" lon="-0.1338">
        <ele>848.16</ele>
        <time>2024-10-01T13:24:37.000Z</time>
      </trkpt>
      <trkpt lat="42.52929" lon="-0.13389">
        <ele>849.44</ele>
        <time>2024-10-01T13:24:42.000Z</time>
      </trkpt>
      <trkpt lat="42.52935" lon="-0.134">
        <ele>850.72</ele>
        <time>2024-10-01T13:24:47.000Z</time>
      </trkpt>
      <trkpt lat="42.52941" lon="-0.13411">
        <ele>851.99</ele>
        <time>2024-10-01T13:24:52.000Z</time>
      </trkpt>
      <trkpt lat="42.52946" lon="-0.13424">
        <ele>853.23</ele>
        <time>2024-10-01T13:24:57.000Z</time>
      </trkpt>
      <trkpt lat="42.5295" lon="-0.13435">
        <ele>854.42</ele>
        <time>2024-10-01T13:25:02.000Z</time>
      </trkpt>
      <trkpt lat="42.52955" lon="-0.13447">
        <ele>855.56</ele>
        <time>2024-10-01T13:25:07.000Z</time>
      </trkpt>
      <trkpt lat="42.52959" lon="-0.1346">
        <ele>856.66</ele>
        <time>2024-10-01T13:25:12.000Z</time>
      </trkpt>
      <trkpt lat="42.52964" lon="-0.13471">
        <ele>857.7</ele>
        <time>2024-10-01T13:25:17.000Z</time>
      </trkpt>
      <trkpt lat="42.52969" lon="-0.13484">
        <ele>858.69</ele>
        <time>2024-10-01T13:25:22.000Z</time>
      </trkpt>
      <trkpt lat="42.52974" lon="-0.13498">
        <ele>859.63</ele>
        <time>2024-10-01T13:25:27.000Z</time>
      </trkpt>
      <trkpt lat="42.52979" lon="-0.13513">
        <ele>860.52</ele>
        <time>2024-10-01T13:25:32.000Z</time>
      </trkpt>
      <trkpt lat="42.52983" lon="-0.1353">
        <ele>861.36</ele>
        <time>2024-10-01T13:25:37.000Z</time>
      </trkpt>
      <trkpt lat="42.52985" lon="-0.13546">
        <ele>862.15</ele>
        <time>2024-10-01T13:25:42.000Z</time>
      </trkpt>
      <trkpt lat="42.52988" lon="-0.13561">
        <ele>862.9</ele>
        <time>2024-10-01T13:25:47.000Z</time>
      </trkpt>
      <trkpt lat="42.52992" lon="-0.13575">
        <ele>863.61</ele>
        <time>2024-10-01T13:25:52.000Z</time>
      </trkpt>
      <trkpt lat="42.52999" lon="-0.13586">
        <ele>864.28</ele>
        <time>2024-10-01T13:25:57.000Z</time>
      </trkpt>
      <trkpt lat="42.53005" lon="-0.136">
        <ele>864.92</ele>
        <time>2024-10-01T13:26:02.000Z</time>
      </trkpt>
      <trkpt lat="42.53011" lon="-0.13612">
        <ele>865.53</ele>
        <time>2024-10-01T13:26:07.000Z</time>
      </trkpt>
      <trkpt lat="42.53017" lon="-0.13625">
        <ele>866.12</ele>
        <time>2024-10-01T13:26:12.000Z</time>
      </trkpt>
      <trkpt lat="42.53024" lon="-0.13638">
        <ele>866.69</ele>
        <time>2024-10-01T13:26:17.000Z</time>
      </trkpt>
      <trkpt lat="42.53031" lon="-0.1365">
        <ele>867.24</ele>
        <time>2024-10-01T13:26:22.000Z</time>
      </trkpt>
      <trkpt lat="42.53037" lon="-0.13662">
        <ele>867.78</ele>
        <time>2024-10-01T13:26:27.000Z</time>
      </trkpt>
      <trkpt lat="42.53044" lon="-0.13674">
        <ele>868.32</ele>
        <time>2024-10-01T13:26:32.000Z</time>
      </trkpt>
      <trkpt lat="42.53053" lon="-0.13691">
        <ele>868.84</ele>
        <time>2024-10-01T13:26:37.000Z</time>
      </trkpt>
      <trkpt lat="42.53062" lon="-0.13711">
        <ele>869.36</ele>
        <time>2024-10-01T13:26:42.000Z</time>
      </trkpt>
      <trkpt lat="42.53069" lon="-0.13734">
        <ele>869.86</ele>
        <time>2024-10-01T13:26:47.000Z</time>
      </trkpt>
      <trkpt lat="42.53077" lon="-0.13757">
        <ele>872.79</ele>
        <time>2024-10-01T13:26:52.000Z</time>
      </trkpt>
      <trkpt lat="42.53084" lon="-0.13784">
        <ele>874.49</ele>
        <time>2024-10-01T13:26:57.000Z</time>
      </trkpt>
      <trkpt lat="42.5309" lon="-0.13814">
        <ele>875.2</ele>
        <time>2024-10-01T13:27:02.000Z</time>
      </trkpt>
      <trkpt lat="42.53095" lon="-0.13845">
        <ele>875.53</ele>
        <time>2024-10-01T13:27:07.000Z</time>
      </trkpt>
      <trkpt lat="42.53104" lon="-0.13875">
        <ele>875.74</ele>
        <time>2024-10-01T13:27:12.000Z</time>
      </trkpt>
      <trkpt lat="42.53115" lon="-0.13904">
        <ele>875.93</ele>
        <time>2024-10-01T13:27:17.000Z</time>
      </trkpt>
      <trkpt lat="42.53128" lon="-0.1393">
        <ele>876.05</ele>
        <time>2024-10-01T13:27:22.000Z</time>
      </trkpt>
      <trkpt lat="42.53148" lon="-0.13948">
        <ele>876.14</ele>
        <time>2024-10-01T13:27:27.000Z</time>
      </trkpt>
      <trkpt lat="42.53169" lon="-0.1396">
        <ele>876.22</ele>
        <time>2024-10-01T13:27:32.000Z</time>
      </trkpt>
      <trkpt lat="42.53189" lon="-0.13976">
        <ele>876.3</ele>
        <time>2024-10-01T13:27:37.000Z</time>
      </trkpt>
      <trkpt lat="42.53209" lon="-0.13988">
        <ele>876.41</ele>
        <time>2024-10-01T13:27:42.000Z</time>
      </trkpt>
      <trkpt lat="42.53228" lon="-0.13995">
        <ele>876.43</ele>
        <time>2024-10-01T13:27:47.000Z</time>
      </trkpt>
      <trkpt lat="42.53245" lon="-0.13999">
        <ele>876.46</ele>
        <time>2024-10-01T13:27:52.000Z</time>
      </trkpt>
      <trkpt lat="42.5326" lon="-0.14005">
        <ele>876.5</ele>
        <time>2024-10-01T13:27:57.000Z</time>
      </trkpt>
      <trkpt lat="42.53276" lon="-0.14011">
        <ele>876.55</ele>
        <time>2024-10-01T13:28:02.000Z</time>
      </trkpt>
      <trkpt lat="42.53292" lon="-0.14018">
        <ele>876.6</ele>
        <time>2024-10-01T13:28:07.000Z</time>
      </trkpt>
      <trkpt lat="42.53308" lon="-0.14024">
        <ele>876.67</ele>
        <time>2024-10-01T13:28:12.000Z</time>
      </trkpt>
      <trkpt lat="42.53325" lon="-0.14027">
        <ele>876.74</ele>
        <time>2024-10-01T13:28:17.000Z</time>
      </trkpt>
      <trkpt lat="42.53343" lon="-0.1403">
        <ele>876.82</ele>
        <time>2024-10-01T13:28:22.000Z</time>
      </trkpt>
      <trkpt lat="42.53362" lon="-0.14033">
        <ele>876.9</ele>
        <time>2024-10-01T13:28:27.000Z</time>
      </trkpt>
      <trkpt lat="42.53381" lon="-0.14031">
        <ele>876.99</ele>
        <time>2024-10-01T13:28:32.000Z</time>
      </trkpt>
      <trkpt lat="42.53403" lon="-0.14028">
        <ele>877.43</ele>
        <time>2024-10-01T13:28:37.000Z</time>
      </trkpt>
      <trkpt lat="42.53424" lon="-0.14025">
        <ele>877.8</ele>
        <time>2024-10-01T13:28:42.000Z</time>
      </trkpt>
      <trkpt lat="42.53448" lon="-0.14022">
        <ele>877.99</ele>
        <time>2024-10-01T13:28:47.000Z</time>
      </trkpt>
      <trkpt lat="42.53476" lon="-0.14018">
        <ele>878.11</ele>
        <time>2024-10-01T13:28:52.000Z</time>
      </trkpt>
      <trkpt lat="42.53505" lon="-0.14016">
        <ele>878.18</ele>
        <time>2024-10-01T13:28:57.000Z</time>
      </trkpt>
      <trkpt lat="42.53532" lon="-0.1401">
        <ele>878.22</ele>
        <time>2024-10-01T13:29:02.000Z</time>
      </trkpt>
      <trkpt lat="42.53566" lon="-0.13996">
        <ele>878.17</ele>
        <time>2024-10-01T13:29:07.000Z</time>
      </trkpt>
      <trkpt lat="42.53602" lon="-0.13991">
        <ele>878.33</ele>
        <time>2024-10-01T13:29:12.000Z</time>
      </trkpt>
      <trkpt lat="42.53641" lon="-0.13993">
        <ele>878.46</ele>
        <time>2024-10-01T13:29:17.000Z</time>
      </trkpt>
      <trkpt lat="42.53682" lon="-0.13976">
        <ele>878.5</ele>
        <time>2024-10-01T13:29:22.000Z</time>
      </trkpt>
      <trkpt lat="42.53722" lon="-0.13957">
        <ele>878.7</ele>
        <time>2024-10-01T13:29:27.000Z</time>
      </trkpt>
      <trkpt lat="42.53771" lon="-0.13935">
        <ele>878.61</ele>
        <time>2024-10-01T13:29:32.999Z</time>
      </trkpt>
      <trkpt lat="42.53815" lon="-0.13924">
        <ele>878.21</ele>
        <time>2024-10-01T13:29:37.999Z</time>
      </trkpt>
      <trkpt lat="42.53842" lon="-0.13883">
        <ele>877.29</ele>
        <time>2024-10-01T13:29:42.999Z</time>
      </trkpt>
      <trkpt lat="42.53863" lon="-0.13842">
        <ele>875.29</ele>
        <time>2024-10-01T13:29:47.999Z</time>
      </trkpt>
      <trkpt lat="42.53888" lon="-0.13804">
        <ele>872.94</ele>
        <time>2024-10-01T13:29:52.999Z</time>
      </trkpt>
      <trkpt lat="42.53916" lon="-0.1377">
        <ele>871.22</ele>
        <time>2024-10-01T13:29:57.999Z</time>
      </trkpt>
      <trkpt lat="42.53942" lon="-0.13732">
        <ele>871.22</ele>
        <time>2024-10-01T13:30:02.999Z</time>
      </trkpt>
      <trkpt lat="42.53968" lon="-0.13693">
        <ele>872.02</ele>
        <time>2024-10-01T13:30:07.999Z</time>
      </trkpt>
      <trkpt lat="42.53992" lon="-0.13657">
        <ele>871.94</ele>
        <time>2024-10-01T13:30:12.999Z</time>
      </trkpt>
      <trkpt lat="42.54014" lon="-0.13621">
        <ele>871.62</ele>
        <time>2024-10-01T13:30:17.999Z</time>
      </trkpt>
      <trkpt lat="42.54039" lon="-0.13582">
        <ele>870.52</ele>
        <time>2024-10-01T13:30:22.999Z</time>
      </trkpt>
      <trkpt lat="42.54064" lon="-0.13546">
        <ele>869.29</ele>
        <time>2024-10-01T13:30:27.999Z</time>
      </trkpt>
      <trkpt lat="42.54088" lon="-0.1351">
        <ele>868.52</ele>
        <time>2024-10-01T13:30:32.999Z</time>
      </trkpt>
      <trkpt lat="42.54109" lon="-0.1347">
        <ele>867.99</ele>
        <time>2024-10-01T13:30:37.999Z</time>
      </trkpt>
      <trkpt lat="42.54128" lon="-0.13433">
        <ele>866.95</ele>
        <time>2024-10-01T13:30:42.999Z</time>
      </trkpt>
      <trkpt lat="42.54151" lon="-0.13403">
        <ele>866.31</ele>
        <time>2024-10-01T13:30:47.999Z</time>
      </trkpt>
      <trkpt lat="42.5417" lon="-0.13366">
        <ele>865.88</ele>
        <time>2024-10-01T13:30:52.999Z</time>
      </trkpt>
      <trkpt lat="42.54186" lon="-0.13328">
        <ele>866.04</ele>
        <time>2024-10-01T13:30:57.999Z</time>
      </trkpt>
      <trkpt lat="42.54201" lon="-0.1329">
        <ele>865.84</ele>
        <time>2024-10-01T13:31:02.999Z</time>
      </trkpt>
      <trkpt lat="42.54217" lon="-0.13254">
        <ele>865.11</ele>
        <time>2024-10-01T13:31:07.999Z</time>
      </trkpt>
      <trkpt lat="42.54234" lon="-0.13217">
        <ele>864.16</ele>
        <time>2024-10-01T13:31:12.999Z</time>
      </trkpt>
      <trkpt lat="42.5425" lon="-0.1318">
        <ele>863.5</ele>
        <time>2024-10-01T13:31:17.999Z</time>
      </trkpt>
      <trkpt lat="42.54268" lon="-0.1314">
        <ele>863.27</ele>
        <time>2024-10-01T13:31:22.999Z</time>
      </trkpt>
      <trkpt lat="42.54286" lon="-0.13104">
        <ele>863.17</ele>
        <time>2024-10-01T13:31:27.999Z</time>
      </trkpt>
      <trkpt lat="42.54311" lon="-0.13073">
        <ele>863.52</ele>
        <time>2024-10-01T13:31:32.999Z</time>
      </trkpt>
      <trkpt lat="42.54341" lon="-0.13045">
        <ele>864.19</ele>
        <time>2024-10-01T13:31:37.999Z</time>
      </trkpt>
      <trkpt lat="42.54366" lon="-0.13016">
        <ele>864.92</ele>
        <time>2024-10-01T13:31:42.999Z</time>
      </trkpt>
      <trkpt lat="42.54386" lon="-0.12986">
        <ele>863.76</ele>
        <time>2024-10-01T13:31:47.999Z</time>
      </trkpt>
      <trkpt lat="42.54402" lon="-0.12959">
        <ele>862.87</ele>
        <time>2024-10-01T13:31:52.999Z</time>
      </trkpt>
      <trkpt lat="42.54414" lon="-0.12937">
        <ele>862.66</ele>
        <time>2024-10-01T13:31:57.999Z</time>
      </trkpt>
      <trkpt lat="42.54426" lon="-0.12915">
        <ele>862.36</ele>
        <time>2024-10-01T13:32:02.999Z</time>
      </trkpt>
      <trkpt lat="42.54438" lon="-0.12893">
        <ele>862.21</ele>
        <time>2024-10-01T13:32:07.999Z</time>
      </trkpt>
      <trkpt lat="42.5445" lon="-0.12874">
        <ele>862.32</ele>
        <time>2024-10-01T13:32:12.999Z</time>
      </trkpt>
      <trkpt lat="42.54465" lon="-0.12862">
        <ele>862.8</ele>
        <time>2024-10-01T13:32:17.999Z</time>
      </trkpt>
      <trkpt lat="42.54486" lon="-0.12862">
        <ele>863.27</ele>
        <time>2024-10-01T13:32:22.999Z</time>
      </trkpt>
      <trkpt lat="42.54504" lon="-0.12866">
        <ele>863.63</ele>
        <time>2024-10-01T13:32:27.999Z</time>
      </trkpt>
      <trkpt lat="42.54527" lon="-0.12871">
        <ele>863.81</ele>
        <time>2024-10-01T13:32:32.999Z</time>
      </trkpt>
      <trkpt lat="42.54551" lon="-0.12875">
        <ele>863.89</ele>
        <time>2024-10-01T13:32:37.999Z</time>
      </trkpt>
      <trkpt lat="42.54576" lon="-0.1287">
        <ele>863.8</ele>
        <time>2024-10-01T13:32:42.999Z</time>
      </trkpt>
      <trkpt lat="42.54598" lon="-0.12858">
        <ele>863.74</ele>
        <time>2024-10-01T13:32:47.999Z</time>
      </trkpt>
      <trkpt lat="42.54622" lon="-0.12847">
        <ele>863.64</ele>
        <time>2024-10-01T13:32:52.999Z</time>
      </trkpt>
      <trkpt lat="42.54647" lon="-0.12834">
        <ele>863.54</ele>
        <time>2024-10-01T13:32:57.999Z</time>
      </trkpt>
      <trkpt lat="42.54672" lon="-0.12822">
        <ele>863.35</ele>
        <time>2024-10-01T13:33:02.999Z</time>
      </trkpt>
      <trkpt lat="42.54698" lon="-0.12803">
        <ele>863.3</ele>
        <time>2024-10-01T13:33:07.999Z</time>
      </trkpt>
      <trkpt lat="42.54719" lon="-0.12775">
        <ele>863.14</ele>
        <time>2024-10-01T13:33:12.999Z</time>
      </trkpt>
      <trkpt lat="42.54738" lon="-0.12747">
        <ele>862.87</ele>
        <time>2024-10-01T13:33:17.999Z</time>
      </trkpt>
      <trkpt lat="42.54756" lon="-0.12719">
        <ele>862.52</ele>
        <time>2024-10-01T13:33:22.999Z</time>
      </trkpt>
      <trkpt lat="42.54775" lon="-0.12692">
        <ele>862.14</ele>
        <time>2024-10-01T13:33:27.999Z</time>
      </trkpt>
      <trkpt lat="42.54791" lon="-0.12661">
        <ele>861.82</ele>
        <time>2024-10-01T13:33:32.999Z</time>
      </trkpt>
      <trkpt lat="42.54799" lon="-0.12623">
        <ele>861.56</ele>
        <time>2024-10-01T13:33:37.999Z</time>
      </trkpt>
      <trkpt lat="42.54807" lon="-0.12586">
        <ele>861.3</ele>
        <time>2024-10-01T13:33:42.999Z</time>
      </trkpt>
      <trkpt lat="42.5481" lon="-0.12546">
        <ele>861.11</ele>
        <time>2024-10-01T13:33:47.999Z</time>
      </trkpt>
      <trkpt lat="42.54808" lon="-0.12506">
        <ele>861.06</ele>
        <time>2024-10-01T13:33:52.999Z</time>
      </trkpt>
      <trkpt lat="42.54813" lon="-0.12463">
        <ele>860.98</ele>
        <time>2024-10-01T13:33:57.999Z</time>
      </trkpt>
      <trkpt lat="42.54838" lon="-0.12435">
        <ele>860.91</ele>
        <time>2024-10-01T13:34:02.999Z</time>
      </trkpt>
      <trkpt lat="42.54869" lon="-0.12421">
        <ele>861.04</ele>
        <time>2024-10-01T13:34:07.999Z</time>
      </trkpt>
      <trkpt lat="42.549" lon="-0.12406">
        <ele>861.7</ele>
        <time>2024-10-01T13:34:12.999Z</time>
      </trkpt>
      <trkpt lat="42.54927" lon="-0.1238">
        <ele>862.96</ele>
        <time>2024-10-01T13:34:17.999Z</time>
      </trkpt>
      <trkpt lat="42.54952" lon="-0.12352">
        <ele>864.33</ele>
        <time>2024-10-01T13:34:22.999Z</time>
      </trkpt>
      <trkpt lat="42.54978" lon="-0.12322">
        <ele>863.97</ele>
        <time>2024-10-01T13:34:27.999Z</time>
      </trkpt>
      <trkpt lat="42.55008" lon="-0.12302">
        <ele>864.05</ele>
        <time>2024-10-01T13:34:32.999Z</time>
      </trkpt>
      <trkpt lat="42.55044" lon="-0.12299">
        <ele>864.2</ele>
        <time>2024-10-01T13:34:37.999Z</time>
      </trkpt>
      <trkpt lat="42.55078" lon="-0.12286">
        <ele>863.8</ele>
        <time>2024-10-01T13:34:42.999Z</time>
      </trkpt>
      <trkpt lat="42.5511" lon="-0.12262">
        <ele>864.34</ele>
        <time>2024-10-01T13:34:47.999Z</time>
      </trkpt>
      <trkpt lat="42.55142" lon="-0.12238">
        <ele>864.21</ele>
        <time>2024-10-01T13:34:52.999Z</time>
      </trkpt>
      <trkpt lat="42.55166" lon="-0.12204">
        <ele>863.2</ele>
        <time>2024-10-01T13:34:57.999Z</time>
      </trkpt>
      <trkpt lat="42.55187" lon="-0.12172">
        <ele>862.66</ele>
        <time>2024-10-01T13:35:02.999Z</time>
      </trkpt>
      <trkpt lat="42.55215" lon="-0.12153">
        <ele>862.67</ele>
        <time>2024-10-01T13:35:07.999Z</time>
      </trkpt>
      <trkpt lat="42.55246" lon="-0.12136">
        <ele>862.98</ele>
        <time>2024-10-01T13:35:12.999Z</time>
      </trkpt>
      <trkpt lat="42.55278" lon="-0.12118">
        <ele>863.89</ele>
        <time>2024-10-01T13:35:17.999Z</time>
      </trkpt>
      <trkpt lat="42.55307" lon="-0.12102">
        <ele>865.32</ele>
        <time>2024-10-01T13:35:22.999Z</time>
      </trkpt>
      <trkpt lat="42.55338" lon="-0.12102">
        <ele>867.21</ele>
        <time>2024-10-01T13:35:27.999Z</time>
      </trkpt>
      <trkpt lat="42.55365" lon="-0.12116">
        <ele>868.4</ele>
        <time>2024-10-01T13:35:32.999Z</time>
      </trkpt>
      <trkpt lat="42.55389" lon="-0.1213">
        <ele>868.04</ele>
        <time>2024-10-01T13:35:37.999Z</time>
      </trkpt>
      <trkpt lat="42.55412" lon="-0.12142">
        <ele>867.24</ele>
        <time>2024-10-01T13:35:42.999Z</time>
      </trkpt>
      <trkpt lat="42.55434" lon="-0.12154">
        <ele>866.84</ele>
        <time>2024-10-01T13:35:47.999Z</time>
      </trkpt>
      <trkpt lat="42.55458" lon="-0.12165">
        <ele>866.86</ele>
        <time>2024-10-01T13:35:52.999Z</time>
      </trkpt>
      <trkpt lat="42.55483" lon="-0.12169">
        <ele>867.35</ele>
        <time>2024-10-01T13:35:57.999Z</time>
      </trkpt>
      <trkpt lat="42.55507" lon="-0.12162">
        <ele>867.33</ele>
        <time>2024-10-01T13:36:02.999Z</time>
      </trkpt>
      <trkpt lat="42.55531" lon="-0.12153">
        <ele>867.43</ele>
        <time>2024-10-01T13:36:07.999Z</time>
      </trkpt>
      <trkpt lat="42.55554" lon="-0.1214">
        <ele>867.5</ele>
        <time>2024-10-01T13:36:12.999Z</time>
      </trkpt>
      <trkpt lat="42.55574" lon="-0.12125">
        <ele>867.6</ele>
        <time>2024-10-01T13:36:17.999Z</time>
      </trkpt>
      <trkpt lat="42.55594" lon="-0.12112">
        <ele>867.89</ele>
        <time>2024-10-01T13:36:22.999Z</time>
      </trkpt>
      <trkpt lat="42.55614" lon="-0.12097">
        <ele>868.11</ele>
        <time>2024-10-01T13:36:27.999Z</time>
      </trkpt>
      <trkpt lat="42.55632" lon="-0.12078">
        <ele>868.03</ele>
        <time>2024-10-01T13:36:32.999Z</time>
      </trkpt>
      <trkpt lat="42.55651" lon="-0.12059">
        <ele>867.46</ele>
        <time>2024-10-01T13:36:37.999Z</time>
      </trkpt>
      <trkpt lat="42.55668" lon="-0.1204">
        <ele>866.91</ele>
        <time>2024-10-01T13:36:42.999Z</time>
      </trkpt>
      <trkpt lat="42.55687" lon="-0.12022">
        <ele>866.41</ele>
        <time>2024-10-01T13:36:47.999Z</time>
      </trkpt>
      <trkpt lat="42.55704" lon="-0.12004">
        <ele>865.92</ele>
        <time>2024-10-01T13:36:52.999Z</time>
      </trkpt>
      <trkpt lat="42.55723" lon="-0.11983">
        <ele>865.44</ele>
        <time>2024-10-01T13:36:57.999Z</time>
      </trkpt>
      <trkpt lat="42.55743" lon="-0.11961">
        <ele>864.97</ele>
        <time>2024-10-01T13:37:02.999Z</time>
      </trkpt>
      <trkpt lat="42.55764" lon="-0.11939">
        <ele>864.53</ele>
        <time>2024-10-01T13:37:07.999Z</time>
      </trkpt>
      <trkpt lat="42.55785" lon="-0.11917">
        <ele>864.11</ele>
        <time>2024-10-01T13:37:12.999Z</time>
      </trkpt>
      <trkpt lat="42.55807" lon="-0.11894">
        <ele>863.73</ele>
        <time>2024-10-01T13:37:17.999Z</time>
      </trkpt>
      <trkpt lat="42.55828" lon="-0.11872">
        <ele>863.6</ele>
        <time>2024-10-01T13:37:22.999Z</time>
      </trkpt>
      <trkpt lat="42.55848" lon="-0.11852">
        <ele>863.65</ele>
        <time>2024-10-01T13:37:27.999Z</time>
      </trkpt>
      <trkpt lat="42.5587" lon="-0.11831">
        <ele>863.85</ele>
        <time>2024-10-01T13:37:32.999Z</time>
      </trkpt>
      <trkpt lat="42.55891" lon="-0.11809">
        <ele>864.08</ele>
        <time>2024-10-01T13:37:37.999Z</time>
      </trkpt>
      <trkpt lat="42.55912" lon="-0.11787">
        <ele>864.22</ele>
        <time>2024-10-01T13:37:42.999Z</time>
      </trkpt>
      <trkpt lat="42.55932" lon="-0.11766">
        <ele>864.3</ele>
        <time>2024-10-01T13:37:47.999Z</time>
      </trkpt>
      <trkpt lat="42.5595" lon="-0.11745">
        <ele>864.37</ele>
        <time>2024-10-01T13:37:52.999Z</time>
      </trkpt>
      <trkpt lat="42.55968" lon="-0.11725">
        <ele>864.4</ele>
        <time>2024-10-01T13:37:57.999Z</time>
      </trkpt>
      <trkpt lat="42.55994" lon="-0.11714">
        <ele>864.44</ele>
        <time>2024-10-01T13:38:02.999Z</time>
      </trkpt>
      <trkpt lat="42.56018" lon="-0.11707">
        <ele>864.49</ele>
        <time>2024-10-01T13:38:07.999Z</time>
      </trkpt>
      <trkpt lat="42.5604" lon="-0.117">
        <ele>864.54</ele>
        <time>2024-10-01T13:38:12.999Z</time>
      </trkpt>
      <trkpt lat="42.5606" lon="-0.11693">
        <ele>864.61</ele>
        <time>2024-10-01T13:38:17.999Z</time>
      </trkpt>
      <trkpt lat="42.56081" lon="-0.11686">
        <ele>864.71</ele>
        <time>2024-10-01T13:38:22.999Z</time>
      </trkpt>
      <trkpt lat="42.56101" lon="-0.11679">
        <ele>864.81</ele>
        <time>2024-10-01T13:38:27.999Z</time>
      </trkpt>
      <trkpt lat="42.5612" lon="-0.11673">
        <ele>864.9</ele>
        <time>2024-10-01T13:38:32.999Z</time>
      </trkpt>
      <trkpt lat="42.56139" lon="-0.11665">
        <ele>864.97</ele>
        <time>2024-10-01T13:38:37.999Z</time>
      </trkpt>
      <trkpt lat="42.56157" lon="-0.11658">
        <ele>865.01</ele>
        <time>2024-10-01T13:38:42.999Z</time>
      </trkpt>
      <trkpt lat="42.56175" lon="-0.11653">
        <ele>865.12</ele>
        <time>2024-10-01T13:38:47.999Z</time>
      </trkpt>
      <trkpt lat="42.56193" lon="-0.1165">
        <ele>865.18</ele>
        <time>2024-10-01T13:38:52.999Z</time>
      </trkpt>
      <trkpt lat="42.56211" lon="-0.11644">
        <ele>865.24</ele>
        <time>2024-10-01T13:38:57.999Z</time>
      </trkpt>
      <trkpt lat="42.56229" lon="-0.11637">
        <ele>865.3</ele>
        <time>2024-10-01T13:39:02.999Z</time>
      </trkpt>
      <trkpt lat="42.56246" lon="-0.1163">
        <ele>865.38</ele>
        <time>2024-10-01T13:39:07.999Z</time>
      </trkpt>
      <trkpt lat="42.56262" lon="-0.1162">
        <ele>865.47</ele>
        <time>2024-10-01T13:39:12.999Z</time>
      </trkpt>
      <trkpt lat="42.56279" lon="-0.11609">
        <ele>865.55</ele>
        <time>2024-10-01T13:39:17.999Z</time>
      </trkpt>
      <trkpt lat="42.56298" lon="-0.11597">
        <ele>865.87</ele>
        <time>2024-10-01T13:39:22.999Z</time>
      </trkpt>
      <trkpt lat="42.56317" lon="-0.11585">
        <ele>866.29</ele>
        <time>2024-10-01T13:39:27.999Z</time>
      </trkpt>
      <trkpt lat="42.56335" lon="-0.11573">
        <ele>866.42</ele>
        <time>2024-10-01T13:39:32.999Z</time>
      </trkpt>
      <trkpt lat="42.56352" lon="-0.11561">
        <ele>866.5</ele>
        <time>2024-10-01T13:39:37.999Z</time>
      </trkpt>
      <trkpt lat="42.56368" lon="-0.1155">
        <ele>866.55</ele>
        <time>2024-10-01T13:39:42.999Z</time>
      </trkpt>
      <trkpt lat="42.56384" lon="-0.11539">
        <ele>866.61</ele>
        <time>2024-10-01T13:39:47.999Z</time>
      </trkpt>
      <trkpt lat="42.564" lon="-0.11527">
        <ele>866.63</ele>
        <time>2024-10-01T13:39:52.999Z</time>
      </trkpt>
      <trkpt lat="42.56415" lon="-0.11518">
        <ele>866.66</ele>
        <time>2024-10-01T13:39:57.999Z</time>
      </trkpt>
      <trkpt lat="42.56429" lon="-0.11508">
        <ele>866.7</ele>
        <time>2024-10-01T13:40:02.999Z</time>
      </trkpt>
      <trkpt lat="42.56441" lon="-0.11499">
        <ele>866.75</ele>
        <time>2024-10-01T13:40:07.999Z</time>
      </trkpt>
      <trkpt lat="42.56453" lon="-0.1149">
        <ele>866.81</ele>
        <time>2024-10-01T13:40:12.999Z</time>
      </trkpt>
      <trkpt lat="42.56465" lon="-0.11478">
        <ele>866.87</ele>
        <time>2024-10-01T13:40:17.999Z</time>
      </trkpt>
      <trkpt lat="42.56477" lon="-0.11467">
        <ele>866.94</ele>
        <time>2024-10-01T13:40:22.999Z</time>
      </trkpt>
      <trkpt lat="42.56488" lon="-0.11456">
        <ele>867.02</ele>
        <time>2024-10-01T13:40:27.999Z</time>
      </trkpt>
      <trkpt lat="42.56501" lon="-0.11443">
        <ele>867.1</ele>
        <time>2024-10-01T13:40:32.999Z</time>
      </trkpt>
      <trkpt lat="42.56514" lon="-0.11431">
        <ele>867.18</ele>
        <time>2024-10-01T13:40:37.999Z</time>
      </trkpt>
      <trkpt lat="42.56526" lon="-0.1142">
        <ele>867.26</ele>
        <time>2024-10-01T13:40:42.999Z</time>
      </trkpt>
      <trkpt lat="42.56537" lon="-0.11408">
        <ele>867.35</ele>
        <time>2024-10-01T13:40:47.999Z</time>
      </trkpt>
      <trkpt lat="42.56549" lon="-0.11393">
        <ele>867.44</ele>
        <time>2024-10-01T13:40:52.999Z</time>
      </trkpt>
      <trkpt lat="42.56561" lon="-0.1138">
        <ele>867.53</ele>
        <time>2024-10-01T13:40:57.999Z</time>
      </trkpt>
      <trkpt lat="42.56571" lon="-0.11367">
        <ele>867.63</ele>
        <time>2024-10-01T13:41:02.999Z</time>
      </trkpt>
      <trkpt lat="42.56582" lon="-0.11353">
        <ele>867.73</ele>
        <time>2024-10-01T13:41:07.999Z</time>
      </trkpt>
      <trkpt lat="42.56593" lon="-0.1134">
        <ele>867.85</ele>
        <time>2024-10-01T13:41:12.999Z</time>
      </trkpt>
      <trkpt lat="42.56603" lon="-0.11327">
        <ele>867.98</ele>
        <time>2024-10-01T13:41:17.999Z</time>
      </trkpt>
      <trkpt lat="42.5661" lon="-0.11314">
        <ele>868.13</ele>
        <time>2024-10-01T13:41:22.999Z</time>
      </trkpt>
      <trkpt lat="42.56615" lon="-0.11298">
        <ele>868.29</ele>
        <time>2024-10-01T13:41:27.999Z</time>
      </trkpt>
      <trkpt lat="42.56618" lon="-0.11281">
        <ele>868.47</ele>
        <time>2024-10-01T13:41:32.999Z</time>
      </trkpt>
      <trkpt lat="42.56622" lon="-0.11264">
        <ele>868.67</ele>
        <time>2024-10-01T13:41:37.999Z</time>
      </trkpt>
      <trkpt lat="42.56629" lon="-0.1125">
        <ele>868.9</ele>
        <time>2024-10-01T13:41:42.999Z</time>
      </trkpt>
      <trkpt lat="42.56634" lon="-0.11235">
        <ele>869.15</ele>
        <time>2024-10-01T13:41:48.000Z</time>
      </trkpt>
      <trkpt lat="42.5664" lon="-0.11219">
        <ele>869.43</ele>
        <time>2024-10-01T13:41:53.000Z</time>
      </trkpt>
      <trkpt lat="42.56645" lon="-0.11202">
        <ele>869.72</ele>
        <time>2024-10-01T13:41:58.000Z</time>
      </trkpt>
      <trkpt lat="42.56648" lon="-0.11186">
        <ele>870.02</ele>
        <time>2024-10-01T13:42:03.000Z</time>
      </trkpt>
      <trkpt lat="42.56652" lon="-0.11172">
        <ele>870.33</ele>
        <time>2024-10-01T13:42:08.000Z</time>
      </trkpt>
      <trkpt lat="42.56656" lon="-0.11159">
        <ele>870.64</ele>
        <time>2024-10-01T13:42:13.000Z</time>
      </trkpt>
      <trkpt lat="42.56664" lon="-0.11148">
        <ele>870.95</ele>
        <time>2024-10-01T13:42:18.000Z</time>
      </trkpt>
      <trkpt lat="42.56673" lon="-0.11138">
        <ele>871.28</ele>
        <time>2024-10-01T13:42:23.000Z</time>
      </trkpt>
      <trkpt lat="42.56684" lon="-0.11133">
        <ele>871.61</ele>
        <time>2024-10-01T13:42:28.000Z</time>
      </trkpt>
      <trkpt lat="42.56696" lon="-0.11133">
        <ele>871.95</ele>
        <time>2024-10-01T13:42:33.000Z</time>
      </trkpt>
      <trkpt lat="42.56708" lon="-0.11134">
        <ele>872.3</ele>
        <time>2024-10-01T13:42:38.000Z</time>
      </trkpt>
      <trkpt lat="42.5672" lon="-0.11137">
        <ele>872.64</ele>
        <time>2024-10-01T13:42:43.000Z</time>
      </trkpt>
      <trkpt lat="42.56733" lon="-0.11139">
        <ele>872.97</ele>
        <time>2024-10-01T13:42:48.000Z</time>
      </trkpt>
      <trkpt lat="42.56747" lon="-0.11142">
        <ele>873.31</ele>
        <time>2024-10-01T13:42:53.000Z</time>
      </trkpt>
      <trkpt lat="42.56761" lon="-0.11146">
        <ele>873.65</ele>
        <time>2024-10-01T13:42:58.000Z</time>
      </trkpt>
      <trkpt lat="42.56777" lon="-0.1115">
        <ele>873.99</ele>
        <time>2024-10-01T13:43:03.000Z</time>
      </trkpt>
      <trkpt lat="42.56793" lon="-0.11153">
        <ele>874.32</ele>
        <time>2024-10-01T13:43:08.000Z</time>
      </trkpt>
      <trkpt lat="42.56809" lon="-0.11157">
        <ele>874.66</ele>
        <time>2024-10-01T13:43:13.000Z</time>
      </trkpt>
      <trkpt lat="42.56828" lon="-0.11161">
        <ele>876.27</ele>
        <time>2024-10-01T13:43:18.000Z</time>
      </trkpt>
      <trkpt lat="42.56854" lon="-0.11166">
        <ele>877.64</ele>
        <time>2024-10-01T13:43:23.000Z</time>
      </trkpt>
      <trkpt lat="42.56883" lon="-0.11173">
        <ele>878.24</ele>
        <time>2024-10-01T13:43:28.000Z</time>
      </trkpt>
      <trkpt lat="42.56915" lon="-0.11179">
        <ele>878.63</ele>
        <time>2024-10-01T13:43:33.000Z</time>
      </trkpt>
      <trkpt lat="42.56949" lon="-0.11187">
        <ele>879.02</ele>
        <time>2024-10-01T13:43:38.000Z</time>
      </trkpt>
      <trkpt lat="42.56984" lon="-0.11194">
        <ele>879.06</ele>
        <time>2024-10-01T13:43:43.000Z</time>
      </trkpt>
      <trkpt lat="42.5702" lon="-0.11202">
        <ele>878.91</ele>
        <time>2024-10-01T13:43:48.000Z</time>
      </trkpt>
      <trkpt lat="42.57057" lon="-0.11211">
        <ele>879.24</ele>
        <time>2024-10-01T13:43:53.000Z</time>
      </trkpt>
      <trkpt lat="42.57093" lon="-0.11219">
        <ele>879.59</ele>
        <time>2024-10-01T13:43:58.000Z</time>
      </trkpt>
      <trkpt lat="42.5713" lon="-0.11227">
        <ele>880.01</ele>
        <time>2024-10-01T13:44:03.000Z</time>
      </trkpt>
      <trkpt lat="42.57167" lon="-0.11236">
        <ele>880.19</ele>
        <time>2024-10-01T13:44:08.000Z</time>
      </trkpt>
      <trkpt lat="42.57202" lon="-0.11243">
        <ele>880.44</ele>
        <time>2024-10-01T13:44:13.000Z</time>
      </trkpt>
      <trkpt lat="42.57236" lon="-0.1125">
        <ele>880.44</ele>
        <time>2024-10-01T13:44:18.000Z</time>
      </trkpt>
      <trkpt lat="42.5727" lon="-0.1126">
        <ele>880.45</ele>
        <time>2024-10-01T13:44:23.000Z</time>
      </trkpt>
      <trkpt lat="42.57304" lon="-0.11266">
        <ele>879.86</ele>
        <time>2024-10-01T13:44:28.000Z</time>
      </trkpt>
      <trkpt lat="42.57337" lon="-0.11273">
        <ele>879.74</ele>
        <time>2024-10-01T13:44:33.000Z</time>
      </trkpt>
      <trkpt lat="42.57372" lon="-0.11281">
        <ele>880.04</ele>
        <time>2024-10-01T13:44:38.000Z</time>
      </trkpt>
      <trkpt lat="42.5741" lon="-0.1129">
        <ele>879.55</ele>
        <time>2024-10-01T13:44:43.000Z</time>
      </trkpt>
      <trkpt lat="42.57447" lon="-0.11299">
        <ele>878.92</ele>
        <time>2024-10-01T13:44:48.000Z</time>
      </trkpt>
      <trkpt lat="42.57484" lon="-0.11307">
        <ele>878.39</ele>
        <time>2024-10-01T13:44:53.000Z</time>
      </trkpt>
      <trkpt lat="42.57522" lon="-0.11315">
        <ele>878.22</ele>
        <time>2024-10-01T13:44:58.000Z</time>
      </trkpt>
      <trkpt lat="42.57556" lon="-0.11323">
        <ele>878.16</ele>
        <time>2024-10-01T13:45:03.000Z</time>
      </trkpt>
      <trkpt lat="42.57588" lon="-0.11329">
        <ele>877.93</ele>
        <time>2024-10-01T13:45:08.000Z</time>
      </trkpt>
      <trkpt lat="42.57616" lon="-0.11334">
        <ele>877.91</ele>
        <time>2024-10-01T13:45:13.000Z</time>
      </trkpt>
      <trkpt lat="42.57641" lon="-0.1134">
        <ele>877.94</ele>
        <time>2024-10-01T13:45:18.000Z</time>
      </trkpt>
      <trkpt lat="42.57664" lon="-0.11344">
        <ele>877.92</ele>
        <time>2024-10-01T13:45:23.000Z</time>
      </trkpt>
      <trkpt lat="42.57686" lon="-0.11348">
        <ele>878.05</ele>
        <time>2024-10-01T13:45:28.000Z</time>
      </trkpt>
      <trkpt lat="42.57703" lon="-0.1135">
        <ele>878.07</ele>
        <time>2024-10-01T13:45:33.000Z</time>
      </trkpt>
      <trkpt lat="42.57719" lon="-0.11354">
        <ele>878.14</ele>
        <time>2024-10-01T13:45:38.000Z</time>
      </trkpt>
      <trkpt lat="42.57732" lon="-0.11357">
        <ele>878.24</ele>
        <time>2024-10-01T13:45:43.000Z</time>
      </trkpt>
      <trkpt lat="42.57745" lon="-0.11363">
        <ele>878.37</ele>
        <time>2024-10-01T13:45:48.000Z</time>
      </trkpt>
      <trkpt lat="42.57757" lon="-0.11372">
        <ele>878.51</ele>
        <time>2024-10-01T13:45:53.000Z</time>
      </trkpt>
      <trkpt lat="42.57768" lon="-0.11381">
        <ele>878.68</ele>
        <time>2024-10-01T13:45:58.000Z</time>
      </trkpt>
      <trkpt lat="42.57777" lon="-0.11387">
        <ele>878.86</ele>
        <time>2024-10-01T13:46:03.000Z</time>
      </trkpt>
      <trkpt lat="42.57786" lon="-0.11395">
        <ele>879.05</ele>
        <time>2024-10-01T13:46:08.000Z</time>
      </trkpt>
      <trkpt lat="42.57795" lon="-0.11404">
        <ele>879.23</ele>
        <time>2024-10-01T13:46:13.000Z</time>
      </trkpt>
      <trkpt lat="42.57802" lon="-0.11413">
        <ele>879.42</ele>
        <time>2024-10-01T13:46:18.000Z</time>
      </trkpt>
      <trkpt lat="42.57811" lon="-0.1142">
        <ele>879.66</ele>
        <time>2024-10-01T13:46:24.000Z</time>
      </trkpt>
      <trkpt lat="42.57818" lon="-0.11428">
        <ele>879.86</ele>
        <time>2024-10-01T13:46:29.000Z</time>
      </trkpt>
      <trkpt lat="42.57826" lon="-0.11435">
        <ele>880.04</ele>
        <time>2024-10-01T13:46:34.000Z</time>
      </trkpt>
      <trkpt lat="42.57833" lon="-0.11444">
        <ele>880.22</ele>
        <time>2024-10-01T13:46:39.000Z</time>
      </trkpt>
      <trkpt lat="42.57841" lon="-0.1145">
        <ele>880.4</ele>
        <time>2024-10-01T13:46:44.000Z</time>
      </trkpt>
      <trkpt lat="42.57849" lon="-0.11455">
        <ele>880.59</ele>
        <time>2024-10-01T13:46:50.000Z</time>
      </trkpt>
      <trkpt lat="42.57859" lon="-0.11459">
        <ele>880.77</ele>
        <time>2024-10-01T13:46:56.000Z</time>
      </trkpt>
      <trkpt lat="42.57868" lon="-0.11462">
        <ele>880.94</ele>
        <time>2024-10-01T13:47:02.000Z</time>
      </trkpt>
      <trkpt lat="42.57877" lon="-0.11467">
        <ele>881.1</ele>
        <time>2024-10-01T13:47:08.000Z</time>
      </trkpt>
      <trkpt lat="42.57887" lon="-0.11473">
        <ele>881.27</ele>
        <time>2024-10-01T13:47:15.000Z</time>
      </trkpt>
      <trkpt lat="42.57897" lon="-0.11477">
        <ele>881.45</ele>
        <time>2024-10-01T13:47:22.000Z</time>
      </trkpt>
      <trkpt lat="42.57907" lon="-0.11482">
        <ele>881.62</ele>
        <time>2024-10-01T13:47:29.000Z</time>
      </trkpt>
      <trkpt lat="42.57916" lon="-0.11486">
        <ele>881.77</ele>
        <time>2024-10-01T13:47:36.000Z</time>
      </trkpt>
      <trkpt lat="42.57926" lon="-0.11492">
        <ele>881.91</ele>
        <time>2024-10-01T13:47:43.000Z</time>
      </trkpt>
      <trkpt lat="42.57934" lon="-0.11496">
        <ele>882.04</ele>
        <time>2024-10-01T13:47:49.000Z</time>
      </trkpt>
      <trkpt lat="42.57943" lon="-0.11502">
        <ele>882.18</ele>
        <time>2024-10-01T13:47:56.000Z</time>
      </trkpt>
      <trkpt lat="42.57952" lon="-0.11507">
        <ele>882.3</ele>
        <time>2024-10-01T13:48:02.000Z</time>
      </trkpt>
      <trkpt lat="42.5796" lon="-0.11512">
        <ele>882.43</ele>
        <time>2024-10-01T13:48:08.000Z</time>
      </trkpt>
      <trkpt lat="42.57969" lon="-0.11515">
        <ele>882.58</ele>
        <time>2024-10-01T13:48:14.000Z</time>
      </trkpt>
      <trkpt lat="42.57978" lon="-0.11518">
        <ele>882.75</ele>
        <time>2024-10-01T13:48:20.000Z</time>
      </trkpt>
      <trkpt lat="42.57988" lon="-0.11521">
        <ele>882.97</ele>
        <time>2024-10-01T13:48:27.000Z</time>
      </trkpt>
      <trkpt lat="42.57998" lon="-0.11521">
        <ele>883.18</ele>
        <time>2024-10-01T13:48:34.000Z</time>
      </trkpt>
      <trkpt lat="42.58008" lon="-0.11519">
        <ele>883.38</ele>
        <time>2024-10-01T13:48:40.000Z</time>
      </trkpt>
      <trkpt lat="42.58017" lon="-0.11517">
        <ele>883.57</ele>
        <time>2024-10-01T13:48:46.000Z</time>
      </trkpt>
      <trkpt lat="42.58026" lon="-0.11512">
        <ele>883.82</ele>
        <time>2024-10-01T13:48:52.000Z</time>
      </trkpt>
      <trkpt lat="42.58035" lon="-0.11509">
        <ele>884.08</ele>
        <time>2024-10-01T13:48:57.000Z</time>
      </trkpt>
      <trkpt lat="42.58045" lon="-0.11505">
        <ele>884.52</ele>
        <time>2024-10-01T13:49:04.000Z</time>
      </trkpt>
      <trkpt lat="42.58055" lon="-0.11501">
        <ele>884.92</ele>
        <time>2024-10-01T13:49:10.000Z</time>
      </trkpt>
      <trkpt lat="42.58061" lon="-0.11492">
        <ele>888.13</ele>
        <time>2024-10-01T13:51:20.000Z</time>
      </trkpt>
      <trkpt lat="42.58071" lon="-0.11488">
        <ele>891.68</ele>
        <time>2024-10-01T13:53:30.000Z</time>
      </trkpt>
      <trkpt lat="42.58084" lon="-0.11483">
        <ele>892.47</ele>
        <time>2024-10-01T13:53:35.000Z</time>
      </trkpt>
      <trkpt lat="42.58098" lon="-0.1148">
        <ele>893.22</ele>
        <time>2024-10-01T13:53:40.000Z</time>
      </trkpt>
      <trkpt lat="42.58112" lon="-0.11481">
        <ele>893.9</ele>
        <time>2024-10-01T13:53:45.000Z</time>
      </trkpt>
      <trkpt lat="42.58129" lon="-0.11489">
        <ele>894.52</ele>
        <time>2024-10-01T13:53:50.000Z</time>
      </trkpt>
      <trkpt lat="42.5815" lon="-0.11502">
        <ele>896.18</ele>
        <time>2024-10-01T13:53:55.999Z</time>
      </trkpt>
      <trkpt lat="42.58168" lon="-0.11514">
        <ele>898.04</ele>
        <time>2024-10-01T13:54:00.999Z</time>
      </trkpt>
      <trkpt lat="42.58186" lon="-0.11525">
        <ele>900.09</ele>
        <time>2024-10-01T13:54:05.999Z</time>
      </trkpt>
      <trkpt lat="42.58207" lon="-0.11536">
        <ele>900.98</ele>
        <time>2024-10-01T13:54:10.999Z</time>
      </trkpt>
      <trkpt lat="42.58228" lon="-0.1154">
        <ele>901.34</ele>
        <time>2024-10-01T13:54:15.999Z</time>
      </trkpt>
      <trkpt lat="42.5825" lon="-0.11543">
        <ele>901.5</ele>
        <time>2024-10-01T13:54:20.999Z</time>
      </trkpt>
      <trkpt lat="42.58271" lon="-0.11546">
        <ele>901.59</ele>
        <time>2024-10-01T13:54:25.999Z</time>
      </trkpt>
      <trkpt lat="42.58288" lon="-0.11549">
        <ele>901.64</ele>
        <time>2024-10-01T13:54:30.999Z</time>
      </trkpt>
      <trkpt lat="42.58303" lon="-0.11552">
        <ele>901.7</ele>
        <time>2024-10-01T13:54:35.999Z</time>
      </trkpt>
      <trkpt lat="42.58315" lon="-0.11555">
        <ele>901.79</ele>
        <time>2024-10-01T13:54:40.999Z</time>
      </trkpt>
      <trkpt lat="42.58324" lon="-0.11556">
        <ele>901.9</ele>
        <time>2024-10-01T13:54:45.999Z</time>
      </trkpt>
      <trkpt lat="42.58334" lon="-0.11557">
        <ele>902.02</ele>
        <time>2024-10-01T13:54:50.999Z</time>
      </trkpt>
      <trkpt lat="42.58345" lon="-0.11559">
        <ele>902.17</ele>
        <time>2024-10-01T13:54:55.999Z</time>
      </trkpt>
      <trkpt lat="42.58355" lon="-0.1156">
        <ele>902.33</ele>
        <time>2024-10-01T13:55:00.999Z</time>
      </trkpt>
      <trkpt lat="42.58364" lon="-0.11562">
        <ele>902.51</ele>
        <time>2024-10-01T13:55:05.999Z</time>
      </trkpt>
      <trkpt lat="42.58374" lon="-0.11563">
        <ele>902.69</ele>
        <time>2024-10-01T13:55:10.999Z</time>
      </trkpt>
      <trkpt lat="42.58387" lon="-0.11565">
        <ele>902.89</ele>
        <time>2024-10-01T13:55:15.999Z</time>
      </trkpt>
      <trkpt lat="42.58398" lon="-0.11568">
        <ele>903.09</ele>
        <time>2024-10-01T13:55:20.999Z</time>
      </trkpt>
      <trkpt lat="42.5841" lon="-0.1157">
        <ele>903.29</ele>
        <time>2024-10-01T13:55:25.999Z</time>
      </trkpt>
      <trkpt lat="42.58422" lon="-0.11572">
        <ele>903.5</ele>
        <time>2024-10-01T13:55:30.999Z</time>
      </trkpt>
      <trkpt lat="42.58433" lon="-0.11573">
        <ele>903.71</ele>
        <time>2024-10-01T13:55:35.999Z</time>
      </trkpt>
      <trkpt lat="42.58443" lon="-0.11574">
        <ele>903.93</ele>
        <time>2024-10-01T13:55:40.999Z</time>
      </trkpt>
      <trkpt lat="42.58453" lon="-0.11577">
        <ele>904.13</ele>
        <time>2024-10-01T13:55:45.999Z</time>
      </trkpt>
      <trkpt lat="42.58464" lon="-0.11578">
        <ele>904.33</ele>
        <time>2024-10-01T13:55:50.999Z</time>
      </trkpt>
      <trkpt lat="42.58476" lon="-0.1158">
        <ele>904.54</ele>
        <time>2024-10-01T13:55:55.999Z</time>
      </trkpt>
      <trkpt lat="42.58492" lon="-0.11587">
        <ele>904.75</ele>
        <time>2024-10-01T13:56:00.999Z</time>
      </trkpt>
      <trkpt lat="42.58509" lon="-0.11594">
        <ele>904.97</ele>
        <time>2024-10-01T13:56:05.999Z</time>
      </trkpt>
      <trkpt lat="42.58529" lon="-0.11601">
        <ele>905.89</ele>
        <time>2024-10-01T13:56:10.999Z</time>
      </trkpt>
      <trkpt lat="42.58548" lon="-0.11609">
        <ele>907.01</ele>
        <time>2024-10-01T13:56:15.999Z</time>
      </trkpt>
      <trkpt lat="42.58569" lon="-0.11619">
        <ele>907.61</ele>
        <time>2024-10-01T13:56:20.999Z</time>
      </trkpt>
      <trkpt lat="42.5859" lon="-0.1163">
        <ele>908.02</ele>
        <time>2024-10-01T13:56:25.999Z</time>
      </trkpt>
      <trkpt lat="42.5861" lon="-0.11639">
        <ele>908.36</ele>
        <time>2024-10-01T13:56:30.999Z</time>
      </trkpt>
      <trkpt lat="42.58631" lon="-0.11647">
        <ele>908.68</ele>
        <time>2024-10-01T13:56:35.999Z</time>
      </trkpt>
      <trkpt lat="42.5865" lon="-0.11656">
        <ele>908.96</ele>
        <time>2024-10-01T13:56:40.999Z</time>
      </trkpt>
      <trkpt lat="42.58667" lon="-0.11663">
        <ele>909.02</ele>
        <time>2024-10-01T13:56:45.999Z</time>
      </trkpt>
      <trkpt lat="42.58685" lon="-0.1167">
        <ele>909.1</ele>
        <time>2024-10-01T13:56:50.999Z</time>
      </trkpt>
      <trkpt lat="42.58702" lon="-0.11679">
        <ele>909.21</ele>
        <time>2024-10-01T13:56:55.999Z</time>
      </trkpt>
      <trkpt lat="42.58719" lon="-0.11689">
        <ele>909.34</ele>
        <time>2024-10-01T13:57:00.999Z</time>
      </trkpt>
      <trkpt lat="42.58736" lon="-0.11698">
        <ele>909.47</ele>
        <time>2024-10-01T13:57:05.999Z</time>
      </trkpt>
      <trkpt lat="42.58756" lon="-0.11707">
        <ele>909.6</ele>
        <time>2024-10-01T13:57:10.999Z</time>
      </trkpt>
      <trkpt lat="42.58777" lon="-0.11718">
        <ele>910.38</ele>
        <time>2024-10-01T13:57:15.999Z</time>
      </trkpt>
      <trkpt lat="42.58798" lon="-0.11727">
        <ele>910.8</ele>
        <time>2024-10-01T13:57:20.999Z</time>
      </trkpt>
      <trkpt lat="42.58818" lon="-0.11735">
        <ele>911.14</ele>
        <time>2024-10-01T13:57:25.999Z</time>
      </trkpt>
      <trkpt lat="42.58838" lon="-0.11744">
        <ele>911.41</ele>
        <time>2024-10-01T13:57:30.999Z</time>
      </trkpt>
      <trkpt lat="42.58857" lon="-0.11752">
        <ele>911.66</ele>
        <time>2024-10-01T13:57:35.999Z</time>
      </trkpt>
      <trkpt lat="42.58877" lon="-0.11762">
        <ele>911.89</ele>
        <time>2024-10-01T13:57:40.999Z</time>
      </trkpt>
      <trkpt lat="42.58895" lon="-0.1177">
        <ele>912.11</ele>
        <time>2024-10-01T13:57:45.999Z</time>
      </trkpt>
      <trkpt lat="42.58914" lon="-0.1178">
        <ele>912.28</ele>
        <time>2024-10-01T13:57:50.999Z</time>
      </trkpt>
      <trkpt lat="42.58931" lon="-0.11787">
        <ele>912.33</ele>
        <time>2024-10-01T13:57:55.999Z</time>
      </trkpt>
      <trkpt lat="42.58947" lon="-0.11793">
        <ele>912.4</ele>
        <time>2024-10-01T13:58:00.999Z</time>
      </trkpt>
      <trkpt lat="42.58962" lon="-0.11797">
        <ele>912.49</ele>
        <time>2024-10-01T13:58:05.999Z</time>
      </trkpt>
      <trkpt lat="42.58976" lon="-0.11802">
        <ele>912.6</ele>
        <time>2024-10-01T13:58:10.999Z</time>
      </trkpt>
      <trkpt lat="42.58989" lon="-0.11806">
        <ele>912.73</ele>
        <time>2024-10-01T13:58:15.999Z</time>
      </trkpt>
      <trkpt lat="42.59001" lon="-0.1181">
        <ele>912.87</ele>
        <time>2024-10-01T13:58:20.999Z</time>
      </trkpt>
      <trkpt lat="42.59012" lon="-0.11813">
        <ele>913.05</ele>
        <time>2024-10-01T13:58:25.999Z</time>
      </trkpt>
      <trkpt lat="42.59021" lon="-0.11816">
        <ele>913.23</ele>
        <time>2024-10-01T13:58:30.999Z</time>
      </trkpt>
      <trkpt lat="42.59032" lon="-0.11819">
        <ele>913.43</ele>
        <time>2024-10-01T13:58:35.999Z</time>
      </trkpt>
      <trkpt lat="42.59043" lon="-0.11822">
        <ele>913.65</ele>
        <time>2024-10-01T13:58:40.999Z</time>
      </trkpt>
      <trkpt lat="42.59053" lon="-0.11825">
        <ele>913.87</ele>
        <time>2024-10-01T13:58:45.999Z</time>
      </trkpt>
      <trkpt lat="42.59064" lon="-0.11827">
        <ele>914.1</ele>
        <time>2024-10-01T13:58:50.999Z</time>
      </trkpt>
      <trkpt lat="42.59073" lon="-0.1183">
        <ele>914.34</ele>
        <time>2024-10-01T13:58:55.999Z</time>
      </trkpt>
      <trkpt lat="42.59084" lon="-0.11836">
        <ele>914.59</ele>
        <time>2024-10-01T13:59:00.999Z</time>
      </trkpt>
      <trkpt lat="42.59093" lon="-0.11844">
        <ele>914.83</ele>
        <time>2024-10-01T13:59:05.999Z</time>
      </trkpt>
      <trkpt lat="42.59101" lon="-0.11852">
        <ele>915.06</ele>
        <time>2024-10-01T13:59:10.999Z</time>
      </trkpt>
      <trkpt lat="42.59109" lon="-0.1186">
        <ele>915.28</ele>
        <time>2024-10-01T13:59:15.999Z</time>
      </trkpt>
      <trkpt lat="42.59119" lon="-0.11863">
        <ele>915.54</ele>
        <time>2024-10-01T13:59:21.999Z</time>
      </trkpt>
      <trkpt lat="42.5913" lon="-0.11861">
        <ele>915.79</ele>
        <time>2024-10-01T13:59:27.999Z</time>
      </trkpt>
      <trkpt lat="42.59139" lon="-0.1186">
        <ele>916.01</ele>
        <time>2024-10-01T13:59:32.999Z</time>
      </trkpt>
      <trkpt lat="42.5915" lon="-0.11857">
        <ele>916.28</ele>
        <time>2024-10-01T13:59:38.999Z</time>
      </trkpt>
      <trkpt lat="42.5916" lon="-0.11855">
        <ele>916.58</ele>
        <time>2024-10-01T13:59:44.999Z</time>
      </trkpt>
      <trkpt lat="42.59169" lon="-0.11853">
        <ele>916.9</ele>
        <time>2024-10-01T13:59:50.999Z</time>
      </trkpt>
      <trkpt lat="42.59179" lon="-0.1185">
        <ele>917.25</ele>
        <time>2024-10-01T13:59:56.999Z</time>
      </trkpt>
      <trkpt lat="42.5919" lon="-0.11848">
        <ele>917.6</ele>
        <time>2024-10-01T14:00:02.999Z</time>
      </trkpt>
      <trkpt lat="42.59201" lon="-0.11848">
        <ele>917.96</ele>
        <time>2024-10-01T14:00:08.999Z</time>
      </trkpt>
      <trkpt lat="42.5921" lon="-0.11847">
        <ele>918.25</ele>
        <time>2024-10-01T14:00:13.999Z</time>
      </trkpt>
      <trkpt lat="42.59219" lon="-0.11847">
        <ele>918.62</ele>
        <time>2024-10-01T14:00:19.999Z</time>
      </trkpt>
      <trkpt lat="42.5923" lon="-0.11846">
        <ele>919</ele>
        <time>2024-10-01T14:00:25.999Z</time>
      </trkpt>
      <trkpt lat="42.5924" lon="-0.11845">
        <ele>919.4</ele>
        <time>2024-10-01T14:00:31.999Z</time>
      </trkpt>
      <trkpt lat="42.5925" lon="-0.11842">
        <ele>919.82</ele>
        <time>2024-10-01T14:00:37.999Z</time>
      </trkpt>
      <trkpt lat="42.59259" lon="-0.11838">
        <ele>920.2</ele>
        <time>2024-10-01T14:00:42.999Z</time>
      </trkpt>
      <trkpt lat="42.59269" lon="-0.11834">
        <ele>920.68</ele>
        <time>2024-10-01T14:00:48.999Z</time>
      </trkpt>
      <trkpt lat="42.59278" lon="-0.11831">
        <ele>921.23</ele>
        <time>2024-10-01T14:00:54.999Z</time>
      </trkpt>
      <trkpt lat="42.59287" lon="-0.11828">
        <ele>921.78</ele>
        <time>2024-10-01T14:00:59.999Z</time>
      </trkpt>
      <trkpt lat="42.59296" lon="-0.11825">
        <ele>922.55</ele>
        <time>2024-10-01T14:01:05.999Z</time>
      </trkpt>
      <trkpt lat="42.59305" lon="-0.11825">
        <ele>923.28</ele>
        <time>2024-10-01T14:01:10.999Z</time>
      </trkpt>
      <trkpt lat="42.59314" lon="-0.11828">
        <ele>924.08</ele>
        <time>2024-10-01T14:01:15.999Z</time>
      </trkpt>
      <trkpt lat="42.59324" lon="-0.1183">
        <ele>924.92</ele>
        <time>2024-10-01T14:01:20.999Z</time>
      </trkpt>
      <trkpt lat="42.59334" lon="-0.11831">
        <ele>925.77</ele>
        <time>2024-10-01T14:01:25.999Z</time>
      </trkpt>
      <trkpt lat="42.59344" lon="-0.11833">
        <ele>926.79</ele>
        <time>2024-10-01T14:01:31.999Z</time>
      </trkpt>
      <trkpt lat="42.59353" lon="-0.11836">
        <ele>927.62</ele>
        <time>2024-10-01T14:01:36.999Z</time>
      </trkpt>
      <trkpt lat="42.59363" lon="-0.11836">
        <ele>928.61</ele>
        <time>2024-10-01T14:01:42.999Z</time>
      </trkpt>
      <trkpt lat="42.5937" lon="-0.11829">
        <ele>929.73</ele>
        <time>2024-10-01T14:01:49.999Z</time>
      </trkpt>
      <trkpt lat="42.59376" lon="-0.11819">
        <ele>930.65</ele>
        <time>2024-10-01T14:01:55.999Z</time>
      </trkpt>
      <trkpt lat="42.59382" lon="-0.11809">
        <ele>931.51</ele>
        <time>2024-10-01T14:02:01.999Z</time>
      </trkpt>
      <trkpt lat="42.59391" lon="-0.11803">
        <ele>932.33</ele>
        <time>2024-10-01T14:02:07.999Z</time>
      </trkpt>
      <trkpt lat="42.594" lon="-0.11801">
        <ele>932.99</ele>
        <time>2024-10-01T14:02:12.999Z</time>
      </trkpt>
      <trkpt lat="42.59411" lon="-0.11799">
        <ele>933.65</ele>
        <time>2024-10-01T14:02:17.999Z</time>
      </trkpt>
      <trkpt lat="42.59421" lon="-0.11798">
        <ele>934.32</ele>
        <time>2024-10-01T14:02:22.999Z</time>
      </trkpt>
      <trkpt lat="42.59431" lon="-0.11798">
        <ele>935</ele>
        <time>2024-10-01T14:02:27.999Z</time>
      </trkpt>
      <trkpt lat="42.59441" lon="-0.11796">
        <ele>935.68</ele>
        <time>2024-10-01T14:02:32.999Z</time>
      </trkpt>
      <trkpt lat="42.59451" lon="-0.11794">
        <ele>936.35</ele>
        <time>2024-10-01T14:02:37.999Z</time>
      </trkpt>
      <trkpt lat="42.59463" lon="-0.11791">
        <ele>937</ele>
        <time>2024-10-01T14:02:42.999Z</time>
      </trkpt>
      <trkpt lat="42.59478" lon="-0.11787">
        <ele>937.62</ele>
        <time>2024-10-01T14:02:47.999Z</time>
      </trkpt>
      <trkpt lat="42.59495" lon="-0.11785">
        <ele>938.21</ele>
        <time>2024-10-01T14:02:52.999Z</time>
      </trkpt>
      <trkpt lat="42.59514" lon="-0.11792">
        <ele>940.29</ele>
        <time>2024-10-01T14:02:57.999Z</time>
      </trkpt>
      <trkpt lat="42.59532" lon="-0.11812">
        <ele>943.09</ele>
        <time>2024-10-01T14:03:02.999Z</time>
      </trkpt>
      <trkpt lat="42.59552" lon="-0.11839">
        <ele>944.28</ele>
        <time>2024-10-01T14:03:07.999Z</time>
      </trkpt>
      <trkpt lat="42.59578" lon="-0.11869">
        <ele>945.01</ele>
        <time>2024-10-01T14:03:12.999Z</time>
      </trkpt>
      <trkpt lat="42.59616" lon="-0.11882">
        <ele>945.5</ele>
        <time>2024-10-01T14:03:17.999Z</time>
      </trkpt>
      <trkpt lat="42.59651" lon="-0.11853">
        <ele>946.04</ele>
        <time>2024-10-01T14:03:22.999Z</time>
      </trkpt>
      <trkpt lat="42.59684" lon="-0.11816">
        <ele>946.54</ele>
        <time>2024-10-01T14:03:27.999Z</time>
      </trkpt>
      <trkpt lat="42.59716" lon="-0.1178">
        <ele>946.98</ele>
        <time>2024-10-01T14:03:32.999Z</time>
      </trkpt>
      <trkpt lat="42.59755" lon="-0.11762">
        <ele>947.22</ele>
        <time>2024-10-01T14:03:37.999Z</time>
      </trkpt>
      <trkpt lat="42.59798" lon="-0.11752">
        <ele>947.31</ele>
        <time>2024-10-01T14:03:42.999Z</time>
      </trkpt>
      <trkpt lat="42.59839" lon="-0.11754">
        <ele>947.47</ele>
        <time>2024-10-01T14:03:47.999Z</time>
      </trkpt>
      <trkpt lat="42.59875" lon="-0.1179">
        <ele>946.45</ele>
        <time>2024-10-01T14:03:52.999Z</time>
      </trkpt>
      <trkpt lat="42.59914" lon="-0.1183">
        <ele>945.42</ele>
        <time>2024-10-01T14:03:57.999Z</time>
      </trkpt>
      <trkpt lat="42.59956" lon="-0.1187">
        <ele>944.24</ele>
        <time>2024-10-01T14:04:02.999Z</time>
      </trkpt>
      <trkpt lat="42.60002" lon="-0.11904">
        <ele>942.83</ele>
        <time>2024-10-01T14:04:07.999Z</time>
      </trkpt>
      <trkpt lat="42.6005" lon="-0.11944">
        <ele>941.64</ele>
        <time>2024-10-01T14:04:12.999Z</time>
      </trkpt>
      <trkpt lat="42.60089" lon="-0.11998">
        <ele>939.85</ele>
        <time>2024-10-01T14:04:17.999Z</time>
      </trkpt>
      <trkpt lat="42.60123" lon="-0.12052">
        <ele>938.36</ele>
        <time>2024-10-01T14:04:22.999Z</time>
      </trkpt>
      <trkpt lat="42.60167" lon="-0.12051">
        <ele>937.73</ele>
        <time>2024-10-01T14:04:27.999Z</time>
      </trkpt>
      <trkpt lat="42.60208" lon="-0.12042">
        <ele>936.96</ele>
        <time>2024-10-01T14:04:32.999Z</time>
      </trkpt>
      <trkpt lat="42.60245" lon="-0.12042">
        <ele>935.72</ele>
        <time>2024-10-01T14:04:37.999Z</time>
      </trkpt>
      <trkpt lat="42.60279" lon="-0.12055">
        <ele>934.1</ele>
        <time>2024-10-01T14:04:42.999Z</time>
      </trkpt>
      <trkpt lat="42.60309" lon="-0.12068">
        <ele>932.56</ele>
        <time>2024-10-01T14:04:47.999Z</time>
      </trkpt>
      <trkpt lat="42.60334" lon="-0.12087">
        <ele>931.2</ele>
        <time>2024-10-01T14:04:52.999Z</time>
      </trkpt>
      <trkpt lat="42.60352" lon="-0.12112">
        <ele>930.29</ele>
        <time>2024-10-01T14:04:57.999Z</time>
      </trkpt>
      <trkpt lat="42.60368" lon="-0.12135">
        <ele>929.35</ele>
        <time>2024-10-01T14:05:02.999Z</time>
      </trkpt>
      <trkpt lat="42.60381" lon="-0.12156">
        <ele>927.92</ele>
        <time>2024-10-01T14:05:07.999Z</time>
      </trkpt>
      <trkpt lat="42.60392" lon="-0.12173">
        <ele>927.61</ele>
        <time>2024-10-01T14:05:12.999Z</time>
      </trkpt>
      <trkpt lat="42.60401" lon="-0.12189">
        <ele>927.23</ele>
        <time>2024-10-01T14:05:17.999Z</time>
      </trkpt>
      <trkpt lat="42.60406" lon="-0.12203">
        <ele>926.81</ele>
        <time>2024-10-01T14:05:22.999Z</time>
      </trkpt>
      <trkpt lat="42.60411" lon="-0.12218">
        <ele>926.4</ele>
        <time>2024-10-01T14:05:27.999Z</time>
      </trkpt>
      <trkpt lat="42.60417" lon="-0.12232">
        <ele>925.99</ele>
        <time>2024-10-01T14:05:32.999Z</time>
      </trkpt>
      <trkpt lat="42.60423" lon="-0.12246">
        <ele>925.64</ele>
        <time>2024-10-01T14:05:37.999Z</time>
      </trkpt>
      <trkpt lat="42.60428" lon="-0.12258">
        <ele>925.32</ele>
        <time>2024-10-01T14:05:42.999Z</time>
      </trkpt>
      <trkpt lat="42.60433" lon="-0.12269">
        <ele>925</ele>
        <time>2024-10-01T14:05:47.999Z</time>
      </trkpt>
      <trkpt lat="42.60438" lon="-0.1228">
        <ele>924.72</ele>
        <time>2024-10-01T14:05:52.999Z</time>
      </trkpt>
      <trkpt lat="42.60444" lon="-0.1229">
        <ele>924.51</ele>
        <time>2024-10-01T14:05:57.999Z</time>
      </trkpt>
      <trkpt lat="42.60452" lon="-0.12297">
        <ele>924.35</ele>
        <time>2024-10-01T14:06:03.000Z</time>
      </trkpt>
      <trkpt lat="42.60462" lon="-0.12304">
        <ele>925.03</ele>
        <time>2024-10-01T14:07:45.000Z</time>
      </trkpt>
      <trkpt lat="42.60468" lon="-0.12314">
        <ele>925.06</ele>
        <time>2024-10-01T14:07:50.000Z</time>
      </trkpt>
      <trkpt lat="42.60475" lon="-0.12325">
        <ele>925.06</ele>
        <time>2024-10-01T14:07:56.000Z</time>
      </trkpt>
      <trkpt lat="42.60481" lon="-0.12337">
        <ele>925.06</ele>
        <time>2024-10-01T14:08:01.000Z</time>
      </trkpt>
      <trkpt lat="42.60489" lon="-0.12346">
        <ele>925.04</ele>
        <time>2024-10-01T14:08:06.000Z</time>
      </trkpt>
      <trkpt lat="42.60498" lon="-0.12355">
        <ele>925.02</ele>
        <time>2024-10-01T14:08:11.000Z</time>
      </trkpt>
      <trkpt lat="42.60508" lon="-0.12363">
        <ele>924.94</ele>
        <time>2024-10-01T14:08:16.000Z</time>
      </trkpt>
      <trkpt lat="42.60519" lon="-0.12373">
        <ele>924.84</ele>
        <time>2024-10-01T14:08:21.000Z</time>
      </trkpt>
      <trkpt lat="42.60532" lon="-0.12381">
        <ele>924.73</ele>
        <time>2024-10-01T14:08:26.000Z</time>
      </trkpt>
      <trkpt lat="42.60545" lon="-0.12384">
        <ele>924.67</ele>
        <time>2024-10-01T14:08:31.000Z</time>
      </trkpt>
      <trkpt lat="42.60555" lon="-0.12383">
        <ele>924.67</ele>
        <time>2024-10-01T14:08:36.000Z</time>
      </trkpt>
      <trkpt lat="42.6055" lon="-0.12393">
        <ele>925.27</ele>
        <time>2024-10-01T14:08:49.000Z</time>
      </trkpt>
      <trkpt lat="42.60535" lon="-0.12392">
        <ele>925.63</ele>
        <time>2024-10-01T14:08:54.000Z</time>
      </trkpt>
      <trkpt lat="42.60523" lon="-0.12387">
        <ele>925.97</ele>
        <time>2024-10-01T14:08:59.000Z</time>
      </trkpt>
      <trkpt lat="42.60512" lon="-0.12378">
        <ele>926.26</ele>
        <time>2024-10-01T14:09:04.000Z</time>
      </trkpt>
      <trkpt lat="42.605" lon="-0.12368">
        <ele>926.49</ele>
        <time>2024-10-01T14:09:09.000Z</time>
      </trkpt>
      <trkpt lat="42.60487" lon="-0.12356">
        <ele>926.68</ele>
        <time>2024-10-01T14:09:14.000Z</time>
      </trkpt>
      <trkpt lat="42.60478" lon="-0.12343">
        <ele>926.87</ele>
        <time>2024-10-01T14:09:19.000Z</time>
      </trkpt>
      <trkpt lat="42.6047" lon="-0.12331">
        <ele>927.04</ele>
        <time>2024-10-01T14:09:24.000Z</time>
      </trkpt>
      <trkpt lat="42.60463" lon="-0.12316">
        <ele>927.2</ele>
        <time>2024-10-01T14:09:29.000Z</time>
      </trkpt>
      <trkpt lat="42.60457" lon="-0.12306">
        <ele>927.36</ele>
        <time>2024-10-01T14:09:34.000Z</time>
      </trkpt>
      <trkpt lat="42.60451" lon="-0.12294">
        <ele>927.24</ele>
        <time>2024-10-01T14:11:06.000Z</time>
      </trkpt>
      <trkpt lat="42.60443" lon="-0.1228">
        <ele>927.12</ele>
        <time>2024-10-01T14:11:11.000Z</time>
      </trkpt>
      <trkpt lat="42.60435" lon="-0.12266">
        <ele>927</ele>
        <time>2024-10-01T14:11:16.000Z</time>
      </trkpt>
      <trkpt lat="42.60428" lon="-0.12251">
        <ele>926.92</ele>
        <time>2024-10-01T14:11:21.000Z</time>
      </trkpt>
      <trkpt lat="42.60421" lon="-0.12235">
        <ele>926.9</ele>
        <time>2024-10-01T14:11:26.000Z</time>
      </trkpt>
      <trkpt lat="42.60413" lon="-0.12217">
        <ele>926.87</ele>
        <time>2024-10-01T14:11:31.000Z</time>
      </trkpt>
      <trkpt lat="42.60409" lon="-0.12206">
        <ele>926.83</ele>
        <time>2024-10-01T14:11:36.000Z</time>
      </trkpt>
      <trkpt lat="42.60408" lon="-0.12194">
        <ele>926.74</ele>
        <time>2024-10-01T14:11:41.000Z</time>
      </trkpt>
      <trkpt lat="42.60399" lon="-0.12198">
        <ele>925.44</ele>
        <time>2024-10-01T14:14:53.000Z</time>
      </trkpt>
      <trkpt lat="42.60393" lon="-0.12188">
        <ele>924.97</ele>
        <time>2024-10-01T14:17:27.000Z</time>
      </trkpt>
      <trkpt lat="42.60402" lon="-0.12186">
        <ele>925.06</ele>
        <time>2024-10-01T14:18:19.999Z</time>
      </trkpt>
      <trkpt lat="42.60402" lon="-0.12173">
        <ele>925</ele>
        <time>2024-10-01T14:18:32.999Z</time>
      </trkpt>
      <trkpt lat="42.60393" lon="-0.12171">
        <ele>925</ele>
        <time>2024-10-01T14:18:45.999Z</time>
      </trkpt>
      <trkpt lat="42.60396" lon="-0.12184">
        <ele>924.5</ele>
        <time>2024-10-01T14:24:05.999Z</time>
      </trkpt>
      <trkpt lat="42.60395" lon="-0.12198">
        <ele>922.25</ele>
        <time>2024-10-01T14:24:57.999Z</time>
      </trkpt>
      <trkpt lat="42.60395" lon="-0.12185">
        <ele>923.2</ele>
        <time>2024-10-01T14:25:38.999Z</time>
      </trkpt>
      <trkpt lat="42.60404" lon="-0.12192">
        <ele>923.22</ele>
        <time>2024-10-01T14:28:32.999Z</time>
      </trkpt>
      <trkpt lat="42.60412" lon="-0.12189">
        <ele>923.39</ele>
        <time>2024-10-01T14:29:05.999Z</time>
      </trkpt>
      <trkpt lat="42.60413" lon="-0.12176">
        <ele>929.23</ele>
        <time>2024-10-01T14:33:37.000Z</time>
      </trkpt>
      <trkpt lat="42.6041" lon="-0.12165">
        <ele>929.91</ele>
        <time>2024-10-01T14:34:13.000Z</time>
      </trkpt>
      <trkpt lat="42.60415" lon="-0.12155">
        <ele>930.7</ele>
        <time>2024-10-01T14:34:46.000Z</time>
      </trkpt>
      <trkpt lat="42.60422" lon="-0.12147">
        <ele>931.04</ele>
        <time>2024-10-01T14:35:08.000Z</time>
      </trkpt>
      <trkpt lat="42.60424" lon="-0.12135">
        <ele>931.16</ele>
        <time>2024-10-01T14:35:26.000Z</time>
      </trkpt>
      <trkpt lat="42.60427" lon="-0.12123">
        <ele>930.12</ele>
        <time>2024-10-01T14:36:18.000Z</time>
      </trkpt>
      <trkpt lat="42.60418" lon="-0.12121">
        <ele>929.53</ele>
        <time>2024-10-01T14:37:12.000Z</time>
      </trkpt>
      <trkpt lat="42.60413" lon="-0.12134">
        <ele>929.68</ele>
        <time>2024-10-01T14:37:35.000Z</time>
      </trkpt>
    </trkseg>
  </trk>
</gpx>